<?xml version="1.0" encoding="UTF-8" standalone="no" ?>
<gpx xmlns="http://www.topografix.com/GPX/1/1" xmlns:xsi="http://www.w3.org/2001/XMLSchema-instance" xsi:schemaLocation="http://www.topografix.com/GPX/1/1 http://www.topografix.com/GPX/1/1/gpx.xsd" version="1.1" creator="VisuGPX - https://www.visugpx.com">
  <metadata>
    <name>Adeps thy le chateau 16-11-2025</name>
    <desc><![CDATA[Belle marche]]></desc>
  </metadata>
  <trk>
    <name><![CDATA[Trace 1763279840868]]></name>
    <extensions>
      <line xmlns="http://www.topografix.com/GPX/gpx_style/0/2">
        <color>0000FF</color>
        <width>4</width>
      </line>
    </extensions>
    <trkseg>
      <trkpt lat="50.28548" lon="4.42931">
        <ele>183.4</ele>
      </trkpt>
      <trkpt lat="50.28501" lon="4.42905">
        <ele>179.7</ele>
      </trkpt>
      <trkpt lat="50.28472" lon="4.42931">
        <ele>175.4</ele>
      </trkpt>
      <trkpt lat="50.28441" lon="4.42945">
        <ele>171.8</ele>
      </trkpt>
      <trkpt lat="50.28375" lon="4.42961">
        <ele>164.2</ele>
      </trkpt>
      <trkpt lat="50.28365" lon="4.42999">
        <ele>162</ele>
      </trkpt>
      <trkpt lat="50.28325" lon="4.4302">
        <ele>160.7</ele>
      </trkpt>
      <trkpt lat="50.28339" lon="4.43075">
        <ele>161</ele>
      </trkpt>
      <trkpt lat="50.28346" lon="4.43081">
        <ele>161</ele>
      </trkpt>
      <trkpt lat="50.28359" lon="4.43128">
        <ele>161</ele>
      </trkpt>
      <trkpt lat="50.2836" lon="4.43154">
        <ele>161</ele>
      </trkpt>
      <trkpt lat="50.28353" lon="4.43134">
        <ele>161</ele>
      </trkpt>
      <trkpt lat="50.28347" lon="4.4313">
        <ele>161</ele>
      </trkpt>
      <trkpt lat="50.28336" lon="4.4309">
        <ele>161</ele>
      </trkpt>
      <trkpt lat="50.28337" lon="4.43083">
        <ele>161</ele>
      </trkpt>
      <trkpt lat="50.28316" lon="4.43002">
        <ele>198</ele>
        <time>2025-11-16T08:02:01.000Z</time>
      </trkpt>
      <trkpt lat="50.28315" lon="4.43">
        <ele>198.2</ele>
        <time>2025-11-16T08:02:02.000Z</time>
      </trkpt>
      <trkpt lat="50.28314" lon="4.42998">
        <ele>198.4</ele>
        <time>2025-11-16T08:02:03.000Z</time>
      </trkpt>
      <trkpt lat="50.28312" lon="4.42997">
        <ele>198.3</ele>
        <time>2025-11-16T08:02:04.000Z</time>
      </trkpt>
      <trkpt lat="50.2831" lon="4.42994">
        <ele>197.9</ele>
        <time>2025-11-16T08:02:05.000Z</time>
      </trkpt>
      <trkpt lat="50.28309" lon="4.4299">
        <ele>197.7</ele>
        <time>2025-11-16T08:02:06.000Z</time>
      </trkpt>
      <trkpt lat="50.28308" lon="4.42986">
        <ele>198</ele>
        <time>2025-11-16T08:02:07.000Z</time>
      </trkpt>
      <trkpt lat="50.28307" lon="4.42984">
        <ele>198.3</ele>
        <time>2025-11-16T08:02:08.000Z</time>
      </trkpt>
      <trkpt lat="50.28306" lon="4.42981">
        <ele>198.5</ele>
        <time>2025-11-16T08:02:09.000Z</time>
      </trkpt>
      <trkpt lat="50.28305" lon="4.42979">
        <ele>199.4</ele>
        <time>2025-11-16T08:02:10.000Z</time>
      </trkpt>
      <trkpt lat="50.28305" lon="4.42977">
        <ele>199</ele>
        <time>2025-11-16T08:02:11.000Z</time>
      </trkpt>
      <trkpt lat="50.28304" lon="4.42974">
        <ele>198.8</ele>
        <time>2025-11-16T08:02:12.000Z</time>
      </trkpt>
      <trkpt lat="50.28304" lon="4.42972">
        <ele>198.8</ele>
        <time>2025-11-16T08:02:13.000Z</time>
      </trkpt>
      <trkpt lat="50.28304" lon="4.4297">
        <ele>198.8</ele>
        <time>2025-11-16T08:02:14.000Z</time>
      </trkpt>
      <trkpt lat="50.28304" lon="4.4297">
        <ele>198.9</ele>
        <time>2025-11-16T08:02:15.000Z</time>
      </trkpt>
      <trkpt lat="50.28304" lon="4.42969">
        <ele>199.1</ele>
        <time>2025-11-16T08:02:16.000Z</time>
      </trkpt>
      <trkpt lat="50.28304" lon="4.42966">
        <ele>198.7</ele>
        <time>2025-11-16T08:02:17.000Z</time>
      </trkpt>
      <trkpt lat="50.28303" lon="4.42964">
        <ele>198</ele>
        <time>2025-11-16T08:02:18.000Z</time>
      </trkpt>
      <trkpt lat="50.28303" lon="4.42961">
        <ele>197.7</ele>
        <time>2025-11-16T08:02:19.000Z</time>
      </trkpt>
      <trkpt lat="50.28302" lon="4.4296">
        <ele>198.1</ele>
        <time>2025-11-16T08:02:20.000Z</time>
      </trkpt>
      <trkpt lat="50.28301" lon="4.42957">
        <ele>198.4</ele>
        <time>2025-11-16T08:02:21.000Z</time>
      </trkpt>
      <trkpt lat="50.283" lon="4.42955">
        <ele>198.7</ele>
        <time>2025-11-16T08:02:22.000Z</time>
      </trkpt>
      <trkpt lat="50.28299" lon="4.42953">
        <ele>199</ele>
        <time>2025-11-16T08:02:23.000Z</time>
      </trkpt>
      <trkpt lat="50.28298" lon="4.42951">
        <ele>199.3</ele>
        <time>2025-11-16T08:02:24.000Z</time>
      </trkpt>
      <trkpt lat="50.28297" lon="4.42949">
        <ele>199.6</ele>
        <time>2025-11-16T08:02:25.000Z</time>
      </trkpt>
      <trkpt lat="50.28296" lon="4.42948">
        <ele>199.8</ele>
        <time>2025-11-16T08:02:26.000Z</time>
      </trkpt>
      <trkpt lat="50.28294" lon="4.42947">
        <ele>200.1</ele>
        <time>2025-11-16T08:02:27.000Z</time>
      </trkpt>
      <trkpt lat="50.28293" lon="4.42946">
        <ele>200.1</ele>
        <time>2025-11-16T08:02:28.000Z</time>
      </trkpt>
      <trkpt lat="50.28293" lon="4.42945">
        <ele>199.8</ele>
        <time>2025-11-16T08:02:29.000Z</time>
      </trkpt>
      <trkpt lat="50.28293" lon="4.42944">
        <ele>199.8</ele>
        <time>2025-11-16T08:02:30.000Z</time>
      </trkpt>
      <trkpt lat="50.28293" lon="4.42943">
        <ele>199.8</ele>
        <time>2025-11-16T08:02:31.000Z</time>
      </trkpt>
      <trkpt lat="50.28293" lon="4.42941">
        <ele>199.6</ele>
        <time>2025-11-16T08:02:32.000Z</time>
      </trkpt>
      <trkpt lat="50.28293" lon="4.4294">
        <ele>199.2</ele>
        <time>2025-11-16T08:02:33.000Z</time>
      </trkpt>
      <trkpt lat="50.28293" lon="4.42938">
        <ele>199.3</ele>
        <time>2025-11-16T08:02:34.000Z</time>
      </trkpt>
      <trkpt lat="50.28293" lon="4.42936">
        <ele>199.5</ele>
        <time>2025-11-16T08:02:35.000Z</time>
      </trkpt>
      <trkpt lat="50.28293" lon="4.42935">
        <ele>199.8</ele>
        <time>2025-11-16T08:02:36.000Z</time>
      </trkpt>
      <trkpt lat="50.28293" lon="4.42933">
        <ele>200.4</ele>
        <time>2025-11-16T08:02:37.000Z</time>
      </trkpt>
      <trkpt lat="50.28294" lon="4.42932">
        <ele>201.1</ele>
        <time>2025-11-16T08:02:38.000Z</time>
      </trkpt>
      <trkpt lat="50.28294" lon="4.42931">
        <ele>201.8</ele>
        <time>2025-11-16T08:02:39.000Z</time>
      </trkpt>
      <trkpt lat="50.28294" lon="4.4293">
        <ele>202.5</ele>
        <time>2025-11-16T08:02:40.000Z</time>
      </trkpt>
      <trkpt lat="50.28295" lon="4.42928">
        <ele>203</ele>
        <time>2025-11-16T08:02:41.000Z</time>
      </trkpt>
      <trkpt lat="50.28295" lon="4.42926">
        <ele>203.6</ele>
        <time>2025-11-16T08:02:42.000Z</time>
      </trkpt>
      <trkpt lat="50.28296" lon="4.42924">
        <ele>204</ele>
        <time>2025-11-16T08:02:43.000Z</time>
      </trkpt>
      <trkpt lat="50.28296" lon="4.42922">
        <ele>204.5</ele>
        <time>2025-11-16T08:02:44.000Z</time>
      </trkpt>
      <trkpt lat="50.28296" lon="4.4292">
        <ele>205.1</ele>
        <time>2025-11-16T08:02:45.000Z</time>
      </trkpt>
      <trkpt lat="50.28296" lon="4.42919">
        <ele>206</ele>
        <time>2025-11-16T08:02:46.000Z</time>
      </trkpt>
      <trkpt lat="50.28296" lon="4.42918">
        <ele>206.7</ele>
        <time>2025-11-16T08:02:47.000Z</time>
      </trkpt>
      <trkpt lat="50.28297" lon="4.42916">
        <ele>207.3</ele>
        <time>2025-11-16T08:02:48.000Z</time>
      </trkpt>
      <trkpt lat="50.28297" lon="4.42915">
        <ele>208</ele>
        <time>2025-11-16T08:02:49.000Z</time>
      </trkpt>
      <trkpt lat="50.28298" lon="4.42913">
        <ele>208.6</ele>
        <time>2025-11-16T08:02:50.000Z</time>
      </trkpt>
      <trkpt lat="50.28298" lon="4.42911">
        <ele>209.3</ele>
        <time>2025-11-16T08:02:51.000Z</time>
      </trkpt>
      <trkpt lat="50.28299" lon="4.42909">
        <ele>210.1</ele>
        <time>2025-11-16T08:02:52.000Z</time>
      </trkpt>
      <trkpt lat="50.28299" lon="4.42907">
        <ele>210.7</ele>
        <time>2025-11-16T08:02:53.000Z</time>
      </trkpt>
      <trkpt lat="50.28299" lon="4.42905">
        <ele>211.3</ele>
        <time>2025-11-16T08:02:54.000Z</time>
      </trkpt>
      <trkpt lat="50.28298" lon="4.42903">
        <ele>211.6</ele>
        <time>2025-11-16T08:02:55.000Z</time>
      </trkpt>
      <trkpt lat="50.28297" lon="4.42901">
        <ele>211.6</ele>
        <time>2025-11-16T08:02:56.000Z</time>
      </trkpt>
      <trkpt lat="50.28295" lon="4.42898">
        <ele>211.8</ele>
        <time>2025-11-16T08:02:57.000Z</time>
      </trkpt>
      <trkpt lat="50.28294" lon="4.42896">
        <ele>211.3</ele>
        <time>2025-11-16T08:02:58.000Z</time>
      </trkpt>
      <trkpt lat="50.28294" lon="4.42894">
        <ele>210.6</ele>
        <time>2025-11-16T08:02:59.000Z</time>
      </trkpt>
      <trkpt lat="50.28293" lon="4.42892">
        <ele>209.6</ele>
        <time>2025-11-16T08:03:00.000Z</time>
      </trkpt>
      <trkpt lat="50.28292" lon="4.4289">
        <ele>209.1</ele>
        <time>2025-11-16T08:03:01.000Z</time>
      </trkpt>
      <trkpt lat="50.28291" lon="4.42887">
        <ele>208.1</ele>
        <time>2025-11-16T08:03:02.000Z</time>
      </trkpt>
      <trkpt lat="50.2829" lon="4.42885">
        <ele>207.1</ele>
        <time>2025-11-16T08:03:03.000Z</time>
      </trkpt>
      <trkpt lat="50.28289" lon="4.42883">
        <ele>206</ele>
        <time>2025-11-16T08:03:04.000Z</time>
      </trkpt>
      <trkpt lat="50.28289" lon="4.42882">
        <ele>205</ele>
        <time>2025-11-16T08:03:05.000Z</time>
      </trkpt>
      <trkpt lat="50.28289" lon="4.4288">
        <ele>204.1</ele>
        <time>2025-11-16T08:03:06.000Z</time>
      </trkpt>
      <trkpt lat="50.28288" lon="4.42878">
        <ele>203.6</ele>
        <time>2025-11-16T08:03:07.000Z</time>
      </trkpt>
      <trkpt lat="50.28289" lon="4.42876">
        <ele>203.6</ele>
        <time>2025-11-16T08:03:08.000Z</time>
      </trkpt>
      <trkpt lat="50.28289" lon="4.42874">
        <ele>203.8</ele>
        <time>2025-11-16T08:03:09.000Z</time>
      </trkpt>
      <trkpt lat="50.28289" lon="4.42873">
        <ele>203</ele>
        <time>2025-11-16T08:03:10.000Z</time>
      </trkpt>
      <trkpt lat="50.28289" lon="4.42871">
        <ele>202.8</ele>
        <time>2025-11-16T08:03:11.000Z</time>
      </trkpt>
      <trkpt lat="50.28289" lon="4.42869">
        <ele>202.6</ele>
        <time>2025-11-16T08:03:12.000Z</time>
      </trkpt>
      <trkpt lat="50.28289" lon="4.42866">
        <ele>203</ele>
        <time>2025-11-16T08:03:13.000Z</time>
      </trkpt>
      <trkpt lat="50.28289" lon="4.42864">
        <ele>203.3</ele>
        <time>2025-11-16T08:03:14.000Z</time>
      </trkpt>
      <trkpt lat="50.28288" lon="4.42862">
        <ele>203.5</ele>
        <time>2025-11-16T08:03:15.000Z</time>
      </trkpt>
      <trkpt lat="50.28287" lon="4.4286">
        <ele>203.8</ele>
        <time>2025-11-16T08:03:16.000Z</time>
      </trkpt>
      <trkpt lat="50.28287" lon="4.42858">
        <ele>204</ele>
        <time>2025-11-16T08:03:17.000Z</time>
      </trkpt>
      <trkpt lat="50.28286" lon="4.42857">
        <ele>204.2</ele>
        <time>2025-11-16T08:03:18.000Z</time>
      </trkpt>
      <trkpt lat="50.28286" lon="4.42856">
        <ele>204.3</ele>
        <time>2025-11-16T08:03:19.000Z</time>
      </trkpt>
      <trkpt lat="50.28286" lon="4.42854">
        <ele>204.4</ele>
        <time>2025-11-16T08:03:20.000Z</time>
      </trkpt>
      <trkpt lat="50.28286" lon="4.42853">
        <ele>204.4</ele>
        <time>2025-11-16T08:03:21.000Z</time>
      </trkpt>
      <trkpt lat="50.28285" lon="4.42851">
        <ele>204.5</ele>
        <time>2025-11-16T08:03:22.000Z</time>
      </trkpt>
      <trkpt lat="50.28285" lon="4.4285">
        <ele>204.4</ele>
        <time>2025-11-16T08:03:23.000Z</time>
      </trkpt>
      <trkpt lat="50.28285" lon="4.42848">
        <ele>204.4</ele>
        <time>2025-11-16T08:03:24.000Z</time>
      </trkpt>
      <trkpt lat="50.28284" lon="4.42846">
        <ele>204.3</ele>
        <time>2025-11-16T08:03:25.000Z</time>
      </trkpt>
      <trkpt lat="50.28284" lon="4.42844">
        <ele>204.6</ele>
        <time>2025-11-16T08:03:26.000Z</time>
      </trkpt>
      <trkpt lat="50.28284" lon="4.42843">
        <ele>204.7</ele>
        <time>2025-11-16T08:03:27.000Z</time>
      </trkpt>
      <trkpt lat="50.28283" lon="4.42842">
        <ele>204.8</ele>
        <time>2025-11-16T08:03:28.000Z</time>
      </trkpt>
      <trkpt lat="50.28282" lon="4.42842">
        <ele>204.9</ele>
        <time>2025-11-16T08:03:29.000Z</time>
      </trkpt>
      <trkpt lat="50.28282" lon="4.4284">
        <ele>204.9</ele>
        <time>2025-11-16T08:03:30.000Z</time>
      </trkpt>
      <trkpt lat="50.28281" lon="4.42839">
        <ele>205.2</ele>
        <time>2025-11-16T08:03:31.000Z</time>
      </trkpt>
      <trkpt lat="50.2828" lon="4.42838">
        <ele>205.3</ele>
        <time>2025-11-16T08:03:32.000Z</time>
      </trkpt>
      <trkpt lat="50.2828" lon="4.42836">
        <ele>205.3</ele>
        <time>2025-11-16T08:03:33.000Z</time>
      </trkpt>
      <trkpt lat="50.28279" lon="4.42834">
        <ele>205.4</ele>
        <time>2025-11-16T08:03:34.000Z</time>
      </trkpt>
      <trkpt lat="50.28279" lon="4.42833">
        <ele>205.4</ele>
        <time>2025-11-16T08:03:35.000Z</time>
      </trkpt>
      <trkpt lat="50.28279" lon="4.42831">
        <ele>205.5</ele>
        <time>2025-11-16T08:03:36.000Z</time>
      </trkpt>
      <trkpt lat="50.28278" lon="4.4283">
        <ele>205.5</ele>
        <time>2025-11-16T08:03:37.000Z</time>
      </trkpt>
      <trkpt lat="50.28279" lon="4.42829">
        <ele>205.6</ele>
        <time>2025-11-16T08:03:38.000Z</time>
      </trkpt>
      <trkpt lat="50.28279" lon="4.42829">
        <ele>205.6</ele>
        <time>2025-11-16T08:03:39.000Z</time>
      </trkpt>
      <trkpt lat="50.28279" lon="4.42828">
        <ele>205.8</ele>
        <time>2025-11-16T08:03:40.000Z</time>
      </trkpt>
      <trkpt lat="50.28279" lon="4.42827">
        <ele>206</ele>
        <time>2025-11-16T08:03:41.000Z</time>
      </trkpt>
      <trkpt lat="50.28279" lon="4.42826">
        <ele>206.1</ele>
        <time>2025-11-16T08:03:42.000Z</time>
      </trkpt>
      <trkpt lat="50.28279" lon="4.42825">
        <ele>206.2</ele>
        <time>2025-11-16T08:03:43.000Z</time>
      </trkpt>
      <trkpt lat="50.28279" lon="4.42824">
        <ele>206.4</ele>
        <time>2025-11-16T08:03:44.000Z</time>
      </trkpt>
      <trkpt lat="50.28279" lon="4.42822">
        <ele>206.4</ele>
        <time>2025-11-16T08:03:45.000Z</time>
      </trkpt>
      <trkpt lat="50.28279" lon="4.4282">
        <ele>206.4</ele>
        <time>2025-11-16T08:03:46.000Z</time>
      </trkpt>
      <trkpt lat="50.28278" lon="4.42819">
        <ele>206.4</ele>
        <time>2025-11-16T08:03:47.000Z</time>
      </trkpt>
      <trkpt lat="50.28278" lon="4.42817">
        <ele>206.4</ele>
        <time>2025-11-16T08:03:48.000Z</time>
      </trkpt>
      <trkpt lat="50.28277" lon="4.42815">
        <ele>206.4</ele>
        <time>2025-11-16T08:03:49.000Z</time>
      </trkpt>
      <trkpt lat="50.28277" lon="4.42813">
        <ele>206.5</ele>
        <time>2025-11-16T08:03:50.000Z</time>
      </trkpt>
      <trkpt lat="50.28277" lon="4.42811">
        <ele>206.6</ele>
        <time>2025-11-16T08:03:51.000Z</time>
      </trkpt>
      <trkpt lat="50.28276" lon="4.4281">
        <ele>206.7</ele>
        <time>2025-11-16T08:03:52.000Z</time>
      </trkpt>
      <trkpt lat="50.28276" lon="4.42808">
        <ele>206.9</ele>
        <time>2025-11-16T08:03:53.000Z</time>
      </trkpt>
      <trkpt lat="50.28276" lon="4.42807">
        <ele>206.9</ele>
        <time>2025-11-16T08:03:54.000Z</time>
      </trkpt>
      <trkpt lat="50.28275" lon="4.42805">
        <ele>206.8</ele>
        <time>2025-11-16T08:03:55.000Z</time>
      </trkpt>
      <trkpt lat="50.28275" lon="4.42804">
        <ele>206.7</ele>
        <time>2025-11-16T08:03:56.000Z</time>
      </trkpt>
      <trkpt lat="50.28274" lon="4.42802">
        <ele>206.6</ele>
        <time>2025-11-16T08:03:57.000Z</time>
      </trkpt>
      <trkpt lat="50.28274" lon="4.42801">
        <ele>206.4</ele>
        <time>2025-11-16T08:03:58.000Z</time>
      </trkpt>
      <trkpt lat="50.28274" lon="4.42799">
        <ele>206.3</ele>
        <time>2025-11-16T08:03:59.000Z</time>
      </trkpt>
      <trkpt lat="50.28274" lon="4.42798">
        <ele>206.2</ele>
        <time>2025-11-16T08:04:00.000Z</time>
      </trkpt>
      <trkpt lat="50.28274" lon="4.42795">
        <ele>206.1</ele>
        <time>2025-11-16T08:04:01.000Z</time>
      </trkpt>
      <trkpt lat="50.28273" lon="4.42792">
        <ele>206.1</ele>
        <time>2025-11-16T08:04:02.000Z</time>
      </trkpt>
      <trkpt lat="50.28273" lon="4.4279">
        <ele>206</ele>
        <time>2025-11-16T08:04:03.000Z</time>
      </trkpt>
      <trkpt lat="50.28272" lon="4.42787">
        <ele>205.8</ele>
        <time>2025-11-16T08:04:04.000Z</time>
      </trkpt>
      <trkpt lat="50.28272" lon="4.42785">
        <ele>205.7</ele>
        <time>2025-11-16T08:04:05.000Z</time>
      </trkpt>
      <trkpt lat="50.28271" lon="4.42783">
        <ele>205.3</ele>
        <time>2025-11-16T08:04:06.000Z</time>
      </trkpt>
      <trkpt lat="50.28271" lon="4.42781">
        <ele>205.2</ele>
        <time>2025-11-16T08:04:07.000Z</time>
      </trkpt>
      <trkpt lat="50.2827" lon="4.42778">
        <ele>205</ele>
        <time>2025-11-16T08:04:08.000Z</time>
      </trkpt>
      <trkpt lat="50.28269" lon="4.42776">
        <ele>204.8</ele>
        <time>2025-11-16T08:04:09.000Z</time>
      </trkpt>
      <trkpt lat="50.28269" lon="4.42775">
        <ele>204.6</ele>
        <time>2025-11-16T08:04:10.000Z</time>
      </trkpt>
      <trkpt lat="50.28268" lon="4.42773">
        <ele>204.4</ele>
        <time>2025-11-16T08:04:11.000Z</time>
      </trkpt>
      <trkpt lat="50.28268" lon="4.42771">
        <ele>204.3</ele>
        <time>2025-11-16T08:04:12.000Z</time>
      </trkpt>
      <trkpt lat="50.28268" lon="4.4277">
        <ele>204.2</ele>
        <time>2025-11-16T08:04:13.000Z</time>
      </trkpt>
      <trkpt lat="50.28267" lon="4.42768">
        <ele>204.3</ele>
        <time>2025-11-16T08:04:14.000Z</time>
      </trkpt>
      <trkpt lat="50.28267" lon="4.42766">
        <ele>204.2</ele>
        <time>2025-11-16T08:04:15.000Z</time>
      </trkpt>
      <trkpt lat="50.28266" lon="4.42764">
        <ele>204.2</ele>
        <time>2025-11-16T08:04:16.000Z</time>
      </trkpt>
      <trkpt lat="50.28266" lon="4.42763">
        <ele>204</ele>
        <time>2025-11-16T08:04:17.000Z</time>
      </trkpt>
      <trkpt lat="50.28265" lon="4.42761">
        <ele>203.9</ele>
        <time>2025-11-16T08:04:18.000Z</time>
      </trkpt>
      <trkpt lat="50.28265" lon="4.42759">
        <ele>203.7</ele>
        <time>2025-11-16T08:04:19.000Z</time>
      </trkpt>
      <trkpt lat="50.28264" lon="4.42758">
        <ele>203.7</ele>
        <time>2025-11-16T08:04:20.000Z</time>
      </trkpt>
      <trkpt lat="50.28264" lon="4.42756">
        <ele>203.6</ele>
        <time>2025-11-16T08:04:21.000Z</time>
      </trkpt>
      <trkpt lat="50.28264" lon="4.42755">
        <ele>203.5</ele>
        <time>2025-11-16T08:04:22.000Z</time>
      </trkpt>
      <trkpt lat="50.28263" lon="4.42753">
        <ele>203.4</ele>
        <time>2025-11-16T08:04:23.000Z</time>
      </trkpt>
      <trkpt lat="50.28263" lon="4.42751">
        <ele>203</ele>
        <time>2025-11-16T08:04:24.000Z</time>
      </trkpt>
      <trkpt lat="50.28262" lon="4.42749">
        <ele>203</ele>
        <time>2025-11-16T08:04:25.000Z</time>
      </trkpt>
      <trkpt lat="50.28262" lon="4.42748">
        <ele>202.9</ele>
        <time>2025-11-16T08:04:26.000Z</time>
      </trkpt>
      <trkpt lat="50.28261" lon="4.42746">
        <ele>202.5</ele>
        <time>2025-11-16T08:04:27.000Z</time>
      </trkpt>
      <trkpt lat="50.28261" lon="4.42744">
        <ele>202.5</ele>
        <time>2025-11-16T08:04:28.000Z</time>
      </trkpt>
      <trkpt lat="50.2826" lon="4.42742">
        <ele>202.6</ele>
        <time>2025-11-16T08:04:29.000Z</time>
      </trkpt>
      <trkpt lat="50.2826" lon="4.4274">
        <ele>202.6</ele>
        <time>2025-11-16T08:04:30.000Z</time>
      </trkpt>
      <trkpt lat="50.28259" lon="4.42738">
        <ele>202.6</ele>
        <time>2025-11-16T08:04:31.000Z</time>
      </trkpt>
      <trkpt lat="50.28259" lon="4.42737">
        <ele>202.5</ele>
        <time>2025-11-16T08:04:32.000Z</time>
      </trkpt>
      <trkpt lat="50.28258" lon="4.42736">
        <ele>202.2</ele>
        <time>2025-11-16T08:04:33.000Z</time>
      </trkpt>
      <trkpt lat="50.28258" lon="4.42734">
        <ele>201.9</ele>
        <time>2025-11-16T08:04:34.000Z</time>
      </trkpt>
      <trkpt lat="50.28257" lon="4.42733">
        <ele>201.7</ele>
        <time>2025-11-16T08:04:35.000Z</time>
      </trkpt>
      <trkpt lat="50.28257" lon="4.42731">
        <ele>201.6</ele>
        <time>2025-11-16T08:04:36.000Z</time>
      </trkpt>
      <trkpt lat="50.28256" lon="4.42729">
        <ele>201.4</ele>
        <time>2025-11-16T08:04:37.000Z</time>
      </trkpt>
      <trkpt lat="50.28256" lon="4.42728">
        <ele>201.3</ele>
        <time>2025-11-16T08:04:38.000Z</time>
      </trkpt>
      <trkpt lat="50.28256" lon="4.42726">
        <ele>201.2</ele>
        <time>2025-11-16T08:04:39.000Z</time>
      </trkpt>
      <trkpt lat="50.28256" lon="4.42725">
        <ele>201.2</ele>
        <time>2025-11-16T08:04:40.000Z</time>
      </trkpt>
      <trkpt lat="50.28256" lon="4.42723">
        <ele>201</ele>
        <time>2025-11-16T08:04:41.000Z</time>
      </trkpt>
      <trkpt lat="50.28256" lon="4.42722">
        <ele>200.9</ele>
        <time>2025-11-16T08:04:42.000Z</time>
      </trkpt>
      <trkpt lat="50.28255" lon="4.4272">
        <ele>200.9</ele>
        <time>2025-11-16T08:04:43.000Z</time>
      </trkpt>
      <trkpt lat="50.28255" lon="4.42719">
        <ele>200.6</ele>
        <time>2025-11-16T08:04:44.000Z</time>
      </trkpt>
      <trkpt lat="50.28255" lon="4.42718">
        <ele>200.4</ele>
        <time>2025-11-16T08:04:45.000Z</time>
      </trkpt>
      <trkpt lat="50.28255" lon="4.42717">
        <ele>200.2</ele>
        <time>2025-11-16T08:04:46.000Z</time>
      </trkpt>
      <trkpt lat="50.28254" lon="4.42715">
        <ele>199.8</ele>
        <time>2025-11-16T08:04:47.000Z</time>
      </trkpt>
      <trkpt lat="50.28253" lon="4.42714">
        <ele>199.5</ele>
        <time>2025-11-16T08:04:48.000Z</time>
      </trkpt>
      <trkpt lat="50.28253" lon="4.42713">
        <ele>199.1</ele>
        <time>2025-11-16T08:04:49.000Z</time>
      </trkpt>
      <trkpt lat="50.28253" lon="4.42711">
        <ele>198.7</ele>
        <time>2025-11-16T08:04:50.000Z</time>
      </trkpt>
      <trkpt lat="50.28253" lon="4.4271">
        <ele>198.4</ele>
        <time>2025-11-16T08:04:51.000Z</time>
      </trkpt>
      <trkpt lat="50.28253" lon="4.42709">
        <ele>198.4</ele>
        <time>2025-11-16T08:04:52.000Z</time>
      </trkpt>
      <trkpt lat="50.28254" lon="4.42708">
        <ele>198.3</ele>
        <time>2025-11-16T08:04:53.000Z</time>
      </trkpt>
      <trkpt lat="50.28255" lon="4.42707">
        <ele>198.3</ele>
        <time>2025-11-16T08:04:54.000Z</time>
      </trkpt>
      <trkpt lat="50.28255" lon="4.42706">
        <ele>198.2</ele>
        <time>2025-11-16T08:04:55.000Z</time>
      </trkpt>
      <trkpt lat="50.28254" lon="4.42705">
        <ele>197.9</ele>
        <time>2025-11-16T08:04:56.000Z</time>
      </trkpt>
      <trkpt lat="50.28253" lon="4.42705">
        <ele>197.7</ele>
        <time>2025-11-16T08:04:57.000Z</time>
      </trkpt>
      <trkpt lat="50.28251" lon="4.42704">
        <ele>197.4</ele>
        <time>2025-11-16T08:04:58.000Z</time>
      </trkpt>
      <trkpt lat="50.2825" lon="4.42704">
        <ele>197</ele>
        <time>2025-11-16T08:04:59.000Z</time>
      </trkpt>
      <trkpt lat="50.2825" lon="4.42704">
        <ele>196.7</ele>
        <time>2025-11-16T08:05:00.000Z</time>
      </trkpt>
      <trkpt lat="50.2825" lon="4.42703">
        <ele>196.3</ele>
        <time>2025-11-16T08:05:01.000Z</time>
      </trkpt>
      <trkpt lat="50.28249" lon="4.42702">
        <ele>196.2</ele>
        <time>2025-11-16T08:05:02.000Z</time>
      </trkpt>
      <trkpt lat="50.28249" lon="4.42702">
        <ele>195.8</ele>
        <time>2025-11-16T08:05:03.000Z</time>
      </trkpt>
      <trkpt lat="50.28248" lon="4.42701">
        <ele>195.8</ele>
        <time>2025-11-16T08:05:04.000Z</time>
      </trkpt>
      <trkpt lat="50.28247" lon="4.427">
        <ele>195.5</ele>
        <time>2025-11-16T08:05:05.000Z</time>
      </trkpt>
      <trkpt lat="50.28247" lon="4.42698">
        <ele>195.3</ele>
        <time>2025-11-16T08:05:06.000Z</time>
      </trkpt>
      <trkpt lat="50.28247" lon="4.42697">
        <ele>195</ele>
        <time>2025-11-16T08:05:07.000Z</time>
      </trkpt>
      <trkpt lat="50.28247" lon="4.42696">
        <ele>194.6</ele>
        <time>2025-11-16T08:05:08.000Z</time>
      </trkpt>
      <trkpt lat="50.28247" lon="4.42694">
        <ele>194.2</ele>
        <time>2025-11-16T08:05:09.000Z</time>
      </trkpt>
      <trkpt lat="50.28247" lon="4.42693">
        <ele>193.8</ele>
        <time>2025-11-16T08:05:10.000Z</time>
      </trkpt>
      <trkpt lat="50.28247" lon="4.42692">
        <ele>193.4</ele>
        <time>2025-11-16T08:05:11.000Z</time>
      </trkpt>
      <trkpt lat="50.28247" lon="4.4269">
        <ele>193.1</ele>
        <time>2025-11-16T08:05:12.000Z</time>
      </trkpt>
      <trkpt lat="50.28247" lon="4.42688">
        <ele>192.8</ele>
        <time>2025-11-16T08:05:13.000Z</time>
      </trkpt>
      <trkpt lat="50.28247" lon="4.42686">
        <ele>192.5</ele>
        <time>2025-11-16T08:05:14.000Z</time>
      </trkpt>
      <trkpt lat="50.28247" lon="4.42684">
        <ele>192.3</ele>
        <time>2025-11-16T08:05:15.000Z</time>
      </trkpt>
      <trkpt lat="50.28247" lon="4.42682">
        <ele>191.8</ele>
        <time>2025-11-16T08:05:16.000Z</time>
      </trkpt>
      <trkpt lat="50.28248" lon="4.42681">
        <ele>191.2</ele>
        <time>2025-11-16T08:05:17.000Z</time>
      </trkpt>
      <trkpt lat="50.28248" lon="4.42679">
        <ele>190.7</ele>
        <time>2025-11-16T08:05:18.000Z</time>
      </trkpt>
      <trkpt lat="50.28247" lon="4.42677">
        <ele>190.3</ele>
        <time>2025-11-16T08:05:19.000Z</time>
      </trkpt>
      <trkpt lat="50.28248" lon="4.42676">
        <ele>189.7</ele>
        <time>2025-11-16T08:05:20.000Z</time>
      </trkpt>
      <trkpt lat="50.28248" lon="4.42676">
        <ele>189.3</ele>
        <time>2025-11-16T08:05:21.000Z</time>
      </trkpt>
      <trkpt lat="50.28248" lon="4.42674">
        <ele>189</ele>
        <time>2025-11-16T08:05:22.000Z</time>
      </trkpt>
      <trkpt lat="50.28248" lon="4.42673">
        <ele>189.2</ele>
        <time>2025-11-16T08:05:23.000Z</time>
      </trkpt>
      <trkpt lat="50.28248" lon="4.42671">
        <ele>189</ele>
        <time>2025-11-16T08:05:24.000Z</time>
      </trkpt>
      <trkpt lat="50.28248" lon="4.4267">
        <ele>188.7</ele>
        <time>2025-11-16T08:05:25.000Z</time>
      </trkpt>
      <trkpt lat="50.28248" lon="4.42667">
        <ele>188.4</ele>
        <time>2025-11-16T08:05:26.000Z</time>
      </trkpt>
      <trkpt lat="50.28248" lon="4.42665">
        <ele>188.6</ele>
        <time>2025-11-16T08:05:27.000Z</time>
      </trkpt>
      <trkpt lat="50.28248" lon="4.42663">
        <ele>188.4</ele>
        <time>2025-11-16T08:05:28.000Z</time>
      </trkpt>
      <trkpt lat="50.28247" lon="4.4266">
        <ele>188.1</ele>
        <time>2025-11-16T08:05:29.000Z</time>
      </trkpt>
      <trkpt lat="50.28247" lon="4.42659">
        <ele>187.8</ele>
        <time>2025-11-16T08:05:30.000Z</time>
      </trkpt>
      <trkpt lat="50.28247" lon="4.42658">
        <ele>187.5</ele>
        <time>2025-11-16T08:05:31.000Z</time>
      </trkpt>
      <trkpt lat="50.28247" lon="4.42656">
        <ele>187.2</ele>
        <time>2025-11-16T08:05:32.000Z</time>
      </trkpt>
      <trkpt lat="50.28247" lon="4.42655">
        <ele>187</ele>
        <time>2025-11-16T08:05:33.000Z</time>
      </trkpt>
      <trkpt lat="50.28247" lon="4.42653">
        <ele>186.8</ele>
        <time>2025-11-16T08:05:34.000Z</time>
      </trkpt>
      <trkpt lat="50.28246" lon="4.42651">
        <ele>186.6</ele>
        <time>2025-11-16T08:05:35.000Z</time>
      </trkpt>
      <trkpt lat="50.28246" lon="4.42649">
        <ele>186.4</ele>
        <time>2025-11-16T08:05:36.000Z</time>
      </trkpt>
      <trkpt lat="50.28247" lon="4.42647">
        <ele>186.2</ele>
        <time>2025-11-16T08:05:37.000Z</time>
      </trkpt>
      <trkpt lat="50.28247" lon="4.42645">
        <ele>186</ele>
        <time>2025-11-16T08:05:38.000Z</time>
      </trkpt>
      <trkpt lat="50.28246" lon="4.42644">
        <ele>185.8</ele>
        <time>2025-11-16T08:05:39.000Z</time>
      </trkpt>
      <trkpt lat="50.28246" lon="4.42643">
        <ele>185.7</ele>
        <time>2025-11-16T08:05:40.000Z</time>
      </trkpt>
      <trkpt lat="50.28245" lon="4.42641">
        <ele>185.4</ele>
        <time>2025-11-16T08:05:41.000Z</time>
      </trkpt>
      <trkpt lat="50.28245" lon="4.42639">
        <ele>185.3</ele>
        <time>2025-11-16T08:05:42.000Z</time>
      </trkpt>
      <trkpt lat="50.28244" lon="4.42638">
        <ele>185.1</ele>
        <time>2025-11-16T08:05:43.000Z</time>
      </trkpt>
      <trkpt lat="50.28244" lon="4.42636">
        <ele>184.9</ele>
        <time>2025-11-16T08:05:44.000Z</time>
      </trkpt>
      <trkpt lat="50.28243" lon="4.42635">
        <ele>184.9</ele>
        <time>2025-11-16T08:05:45.000Z</time>
      </trkpt>
      <trkpt lat="50.28243" lon="4.42634">
        <ele>184.7</ele>
        <time>2025-11-16T08:05:46.000Z</time>
      </trkpt>
      <trkpt lat="50.28242" lon="4.42633">
        <ele>184.6</ele>
        <time>2025-11-16T08:05:47.000Z</time>
      </trkpt>
      <trkpt lat="50.28242" lon="4.42631">
        <ele>184.4</ele>
        <time>2025-11-16T08:05:48.000Z</time>
      </trkpt>
      <trkpt lat="50.28242" lon="4.4263">
        <ele>184.3</ele>
        <time>2025-11-16T08:05:49.000Z</time>
      </trkpt>
      <trkpt lat="50.28241" lon="4.42628">
        <ele>184.1</ele>
        <time>2025-11-16T08:05:50.000Z</time>
      </trkpt>
      <trkpt lat="50.2824" lon="4.42626">
        <ele>184.1</ele>
        <time>2025-11-16T08:05:51.000Z</time>
      </trkpt>
      <trkpt lat="50.28239" lon="4.42625">
        <ele>183.9</ele>
        <time>2025-11-16T08:05:52.000Z</time>
      </trkpt>
      <trkpt lat="50.28239" lon="4.42623">
        <ele>183.7</ele>
        <time>2025-11-16T08:05:53.000Z</time>
      </trkpt>
      <trkpt lat="50.28239" lon="4.42621">
        <ele>183.8</ele>
        <time>2025-11-16T08:05:54.000Z</time>
      </trkpt>
      <trkpt lat="50.28239" lon="4.4262">
        <ele>183.9</ele>
        <time>2025-11-16T08:05:55.000Z</time>
      </trkpt>
      <trkpt lat="50.28239" lon="4.42618">
        <ele>183.9</ele>
        <time>2025-11-16T08:05:56.000Z</time>
      </trkpt>
      <trkpt lat="50.28239" lon="4.42617">
        <ele>184.4</ele>
        <time>2025-11-16T08:05:57.000Z</time>
      </trkpt>
      <trkpt lat="50.28239" lon="4.42615">
        <ele>184.5</ele>
        <time>2025-11-16T08:05:58.000Z</time>
      </trkpt>
      <trkpt lat="50.28239" lon="4.42614">
        <ele>184.7</ele>
        <time>2025-11-16T08:05:59.000Z</time>
      </trkpt>
      <trkpt lat="50.28239" lon="4.42612">
        <ele>184.8</ele>
        <time>2025-11-16T08:06:00.000Z</time>
      </trkpt>
      <trkpt lat="50.28238" lon="4.4261">
        <ele>185</ele>
        <time>2025-11-16T08:06:01.000Z</time>
      </trkpt>
      <trkpt lat="50.28238" lon="4.42609">
        <ele>185.1</ele>
        <time>2025-11-16T08:06:02.000Z</time>
      </trkpt>
      <trkpt lat="50.28237" lon="4.42608">
        <ele>185.2</ele>
        <time>2025-11-16T08:06:03.000Z</time>
      </trkpt>
      <trkpt lat="50.28237" lon="4.42607">
        <ele>185.2</ele>
        <time>2025-11-16T08:06:04.000Z</time>
      </trkpt>
      <trkpt lat="50.28236" lon="4.42606">
        <ele>185.2</ele>
        <time>2025-11-16T08:06:05.000Z</time>
      </trkpt>
      <trkpt lat="50.28236" lon="4.42606">
        <ele>185.3</ele>
        <time>2025-11-16T08:06:06.000Z</time>
      </trkpt>
      <trkpt lat="50.28235" lon="4.42605">
        <ele>185.3</ele>
        <time>2025-11-16T08:06:07.000Z</time>
      </trkpt>
      <trkpt lat="50.28235" lon="4.42604">
        <ele>185.4</ele>
        <time>2025-11-16T08:06:08.000Z</time>
      </trkpt>
      <trkpt lat="50.28234" lon="4.42604">
        <ele>185.3</ele>
        <time>2025-11-16T08:06:09.000Z</time>
      </trkpt>
      <trkpt lat="50.28233" lon="4.42604">
        <ele>185.3</ele>
        <time>2025-11-16T08:06:10.000Z</time>
      </trkpt>
      <trkpt lat="50.28232" lon="4.42604">
        <ele>185.3</ele>
        <time>2025-11-16T08:06:11.000Z</time>
      </trkpt>
      <trkpt lat="50.28231" lon="4.42604">
        <ele>185.3</ele>
        <time>2025-11-16T08:06:12.000Z</time>
      </trkpt>
      <trkpt lat="50.28231" lon="4.42603">
        <ele>185.4</ele>
        <time>2025-11-16T08:06:13.000Z</time>
      </trkpt>
      <trkpt lat="50.2823" lon="4.42603">
        <ele>185.5</ele>
        <time>2025-11-16T08:06:14.000Z</time>
      </trkpt>
      <trkpt lat="50.2823" lon="4.42602">
        <ele>185.6</ele>
        <time>2025-11-16T08:06:15.000Z</time>
      </trkpt>
      <trkpt lat="50.28229" lon="4.42602">
        <ele>185.7</ele>
        <time>2025-11-16T08:06:16.000Z</time>
      </trkpt>
      <trkpt lat="50.28228" lon="4.42601">
        <ele>185.8</ele>
        <time>2025-11-16T08:06:17.000Z</time>
      </trkpt>
      <trkpt lat="50.28227" lon="4.426">
        <ele>185.9</ele>
        <time>2025-11-16T08:06:18.000Z</time>
      </trkpt>
      <trkpt lat="50.28225" lon="4.42599">
        <ele>186.1</ele>
        <time>2025-11-16T08:06:19.000Z</time>
      </trkpt>
      <trkpt lat="50.28224" lon="4.42599">
        <ele>186.2</ele>
        <time>2025-11-16T08:06:20.000Z</time>
      </trkpt>
      <trkpt lat="50.28223" lon="4.42599">
        <ele>186.3</ele>
        <time>2025-11-16T08:06:21.000Z</time>
      </trkpt>
      <trkpt lat="50.28222" lon="4.42599">
        <ele>186.4</ele>
        <time>2025-11-16T08:06:22.000Z</time>
      </trkpt>
      <trkpt lat="50.28222" lon="4.42599">
        <ele>186.4</ele>
        <time>2025-11-16T08:06:23.000Z</time>
      </trkpt>
      <trkpt lat="50.28221" lon="4.426">
        <ele>186.4</ele>
        <time>2025-11-16T08:06:24.000Z</time>
      </trkpt>
      <trkpt lat="50.2822" lon="4.426">
        <ele>186.5</ele>
        <time>2025-11-16T08:06:25.000Z</time>
      </trkpt>
      <trkpt lat="50.28219" lon="4.426">
        <ele>186.5</ele>
        <time>2025-11-16T08:06:26.000Z</time>
      </trkpt>
      <trkpt lat="50.28218" lon="4.42599">
        <ele>186.6</ele>
        <time>2025-11-16T08:06:27.000Z</time>
      </trkpt>
      <trkpt lat="50.28218" lon="4.426">
        <ele>186.7</ele>
        <time>2025-11-16T08:06:28.000Z</time>
      </trkpt>
      <trkpt lat="50.28217" lon="4.426">
        <ele>186.7</ele>
        <time>2025-11-16T08:06:29.000Z</time>
      </trkpt>
      <trkpt lat="50.28216" lon="4.426">
        <ele>186.8</ele>
        <time>2025-11-16T08:06:30.000Z</time>
      </trkpt>
      <trkpt lat="50.28215" lon="4.42599">
        <ele>186.8</ele>
        <time>2025-11-16T08:06:31.000Z</time>
      </trkpt>
      <trkpt lat="50.28214" lon="4.42599">
        <ele>186.8</ele>
        <time>2025-11-16T08:06:32.000Z</time>
      </trkpt>
      <trkpt lat="50.28213" lon="4.42599">
        <ele>186.9</ele>
        <time>2025-11-16T08:06:33.000Z</time>
      </trkpt>
      <trkpt lat="50.28211" lon="4.42598">
        <ele>187</ele>
        <time>2025-11-16T08:06:34.000Z</time>
      </trkpt>
      <trkpt lat="50.2821" lon="4.42598">
        <ele>187</ele>
        <time>2025-11-16T08:06:35.000Z</time>
      </trkpt>
      <trkpt lat="50.28209" lon="4.42598">
        <ele>187</ele>
        <time>2025-11-16T08:06:36.000Z</time>
      </trkpt>
      <trkpt lat="50.28208" lon="4.42598">
        <ele>187.1</ele>
        <time>2025-11-16T08:06:37.000Z</time>
      </trkpt>
      <trkpt lat="50.28206" lon="4.42598">
        <ele>187.1</ele>
        <time>2025-11-16T08:06:38.000Z</time>
      </trkpt>
      <trkpt lat="50.28205" lon="4.42599">
        <ele>187.1</ele>
        <time>2025-11-16T08:06:39.000Z</time>
      </trkpt>
      <trkpt lat="50.28204" lon="4.42599">
        <ele>187.1</ele>
        <time>2025-11-16T08:06:40.000Z</time>
      </trkpt>
      <trkpt lat="50.28202" lon="4.42601">
        <ele>187.1</ele>
        <time>2025-11-16T08:06:41.000Z</time>
      </trkpt>
      <trkpt lat="50.28201" lon="4.42602">
        <ele>187</ele>
        <time>2025-11-16T08:06:42.000Z</time>
      </trkpt>
      <trkpt lat="50.28199" lon="4.42603">
        <ele>186.9</ele>
        <time>2025-11-16T08:06:43.000Z</time>
      </trkpt>
      <trkpt lat="50.28199" lon="4.42605">
        <ele>186.6</ele>
        <time>2025-11-16T08:06:44.000Z</time>
      </trkpt>
      <trkpt lat="50.28197" lon="4.42606">
        <ele>186.6</ele>
        <time>2025-11-16T08:06:45.000Z</time>
      </trkpt>
      <trkpt lat="50.28196" lon="4.42606">
        <ele>186.6</ele>
        <time>2025-11-16T08:06:46.000Z</time>
      </trkpt>
      <trkpt lat="50.28195" lon="4.42605">
        <ele>186.5</ele>
        <time>2025-11-16T08:06:47.000Z</time>
      </trkpt>
      <trkpt lat="50.28193" lon="4.42604">
        <ele>186.4</ele>
        <time>2025-11-16T08:06:48.000Z</time>
      </trkpt>
      <trkpt lat="50.28192" lon="4.42602">
        <ele>186.4</ele>
        <time>2025-11-16T08:06:49.000Z</time>
      </trkpt>
      <trkpt lat="50.28191" lon="4.42602">
        <ele>186.4</ele>
        <time>2025-11-16T08:06:50.000Z</time>
      </trkpt>
      <trkpt lat="50.2819" lon="4.42601">
        <ele>186.5</ele>
        <time>2025-11-16T08:06:51.000Z</time>
      </trkpt>
      <trkpt lat="50.28189" lon="4.426">
        <ele>186.5</ele>
        <time>2025-11-16T08:06:52.000Z</time>
      </trkpt>
      <trkpt lat="50.28187" lon="4.42599">
        <ele>186.6</ele>
        <time>2025-11-16T08:06:53.000Z</time>
      </trkpt>
      <trkpt lat="50.28185" lon="4.42598">
        <ele>186.6</ele>
        <time>2025-11-16T08:06:54.000Z</time>
      </trkpt>
      <trkpt lat="50.28184" lon="4.42598">
        <ele>186.6</ele>
        <time>2025-11-16T08:06:55.000Z</time>
      </trkpt>
      <trkpt lat="50.28183" lon="4.42598">
        <ele>186.7</ele>
        <time>2025-11-16T08:06:56.000Z</time>
      </trkpt>
      <trkpt lat="50.28183" lon="4.42597">
        <ele>186.8</ele>
        <time>2025-11-16T08:06:57.000Z</time>
      </trkpt>
      <trkpt lat="50.28182" lon="4.42597">
        <ele>186.9</ele>
        <time>2025-11-16T08:06:58.000Z</time>
      </trkpt>
      <trkpt lat="50.28182" lon="4.42597">
        <ele>186.9</ele>
        <time>2025-11-16T08:06:59.000Z</time>
      </trkpt>
      <trkpt lat="50.28181" lon="4.42597">
        <ele>187</ele>
        <time>2025-11-16T08:07:00.000Z</time>
      </trkpt>
      <trkpt lat="50.28181" lon="4.42597">
        <ele>186.9</ele>
        <time>2025-11-16T08:07:01.000Z</time>
      </trkpt>
      <trkpt lat="50.28181" lon="4.42596">
        <ele>186.9</ele>
        <time>2025-11-16T08:07:02.000Z</time>
      </trkpt>
      <trkpt lat="50.2818" lon="4.42595">
        <ele>186.9</ele>
        <time>2025-11-16T08:07:03.000Z</time>
      </trkpt>
      <trkpt lat="50.28179" lon="4.42594">
        <ele>187</ele>
        <time>2025-11-16T08:07:04.000Z</time>
      </trkpt>
      <trkpt lat="50.28178" lon="4.42593">
        <ele>187.2</ele>
        <time>2025-11-16T08:07:05.000Z</time>
      </trkpt>
      <trkpt lat="50.28177" lon="4.42592">
        <ele>187.5</ele>
        <time>2025-11-16T08:07:06.000Z</time>
      </trkpt>
      <trkpt lat="50.28176" lon="4.42591">
        <ele>187.8</ele>
        <time>2025-11-16T08:07:07.000Z</time>
      </trkpt>
      <trkpt lat="50.28175" lon="4.4259">
        <ele>188.2</ele>
        <time>2025-11-16T08:07:08.000Z</time>
      </trkpt>
      <trkpt lat="50.28174" lon="4.42588">
        <ele>188.4</ele>
        <time>2025-11-16T08:07:09.000Z</time>
      </trkpt>
      <trkpt lat="50.28173" lon="4.42587">
        <ele>188.6</ele>
        <time>2025-11-16T08:07:10.000Z</time>
      </trkpt>
      <trkpt lat="50.28172" lon="4.42586">
        <ele>189</ele>
        <time>2025-11-16T08:07:11.000Z</time>
      </trkpt>
      <trkpt lat="50.28171" lon="4.42585">
        <ele>189.3</ele>
        <time>2025-11-16T08:07:12.000Z</time>
      </trkpt>
      <trkpt lat="50.28169" lon="4.42584">
        <ele>189.5</ele>
        <time>2025-11-16T08:07:13.000Z</time>
      </trkpt>
      <trkpt lat="50.28168" lon="4.42583">
        <ele>189.7</ele>
        <time>2025-11-16T08:07:14.000Z</time>
      </trkpt>
      <trkpt lat="50.28168" lon="4.42583">
        <ele>189.8</ele>
        <time>2025-11-16T08:07:15.000Z</time>
      </trkpt>
      <trkpt lat="50.28167" lon="4.42582">
        <ele>190</ele>
        <time>2025-11-16T08:07:16.000Z</time>
      </trkpt>
      <trkpt lat="50.28166" lon="4.42582">
        <ele>190.2</ele>
        <time>2025-11-16T08:07:17.000Z</time>
      </trkpt>
      <trkpt lat="50.28166" lon="4.42581">
        <ele>190.4</ele>
        <time>2025-11-16T08:07:18.000Z</time>
      </trkpt>
      <trkpt lat="50.28166" lon="4.42582">
        <ele>190.7</ele>
        <time>2025-11-16T08:07:19.000Z</time>
      </trkpt>
      <trkpt lat="50.28165" lon="4.42582">
        <ele>190.9</ele>
        <time>2025-11-16T08:07:20.000Z</time>
      </trkpt>
      <trkpt lat="50.28164" lon="4.42582">
        <ele>191.1</ele>
        <time>2025-11-16T08:07:21.000Z</time>
      </trkpt>
      <trkpt lat="50.28163" lon="4.42582">
        <ele>191.2</ele>
        <time>2025-11-16T08:07:22.000Z</time>
      </trkpt>
      <trkpt lat="50.28163" lon="4.42583">
        <ele>191.3</ele>
        <time>2025-11-16T08:07:23.000Z</time>
      </trkpt>
      <trkpt lat="50.28162" lon="4.42583">
        <ele>191.5</ele>
        <time>2025-11-16T08:07:24.000Z</time>
      </trkpt>
      <trkpt lat="50.28162" lon="4.42584">
        <ele>191.7</ele>
        <time>2025-11-16T08:07:25.000Z</time>
      </trkpt>
      <trkpt lat="50.28162" lon="4.42585">
        <ele>192</ele>
        <time>2025-11-16T08:07:26.000Z</time>
      </trkpt>
      <trkpt lat="50.28162" lon="4.42585">
        <ele>192.2</ele>
        <time>2025-11-16T08:07:27.000Z</time>
      </trkpt>
      <trkpt lat="50.28163" lon="4.42586">
        <ele>192.4</ele>
        <time>2025-11-16T08:07:28.000Z</time>
      </trkpt>
      <trkpt lat="50.28163" lon="4.42587">
        <ele>192.6</ele>
        <time>2025-11-16T08:07:29.000Z</time>
      </trkpt>
      <trkpt lat="50.28164" lon="4.42588">
        <ele>192.8</ele>
        <time>2025-11-16T08:07:30.000Z</time>
      </trkpt>
      <trkpt lat="50.28164" lon="4.42588">
        <ele>193</ele>
        <time>2025-11-16T08:07:31.000Z</time>
      </trkpt>
      <trkpt lat="50.28164" lon="4.42589">
        <ele>193.2</ele>
        <time>2025-11-16T08:07:32.000Z</time>
      </trkpt>
      <trkpt lat="50.28163" lon="4.42588">
        <ele>193.6</ele>
        <time>2025-11-16T08:07:33.000Z</time>
      </trkpt>
      <trkpt lat="50.28163" lon="4.42587">
        <ele>194.1</ele>
        <time>2025-11-16T08:07:34.000Z</time>
      </trkpt>
      <trkpt lat="50.28165" lon="4.42588">
        <ele>194.5</ele>
        <time>2025-11-16T08:07:35.000Z</time>
      </trkpt>
      <trkpt lat="50.28165" lon="4.42587">
        <ele>194.8</ele>
        <time>2025-11-16T08:07:36.000Z</time>
      </trkpt>
      <trkpt lat="50.28165" lon="4.42588">
        <ele>195.1</ele>
        <time>2025-11-16T08:07:37.000Z</time>
      </trkpt>
      <trkpt lat="50.28166" lon="4.42589">
        <ele>195.4</ele>
        <time>2025-11-16T08:07:38.000Z</time>
      </trkpt>
      <trkpt lat="50.28164" lon="4.42591">
        <ele>195.7</ele>
        <time>2025-11-16T08:07:39.000Z</time>
      </trkpt>
      <trkpt lat="50.28164" lon="4.42591">
        <ele>196.1</ele>
        <time>2025-11-16T08:07:40.000Z</time>
      </trkpt>
      <trkpt lat="50.28163" lon="4.42592">
        <ele>196.4</ele>
        <time>2025-11-16T08:07:41.000Z</time>
      </trkpt>
      <trkpt lat="50.28162" lon="4.42594">
        <ele>196.7</ele>
        <time>2025-11-16T08:07:42.000Z</time>
      </trkpt>
      <trkpt lat="50.2816" lon="4.42594">
        <ele>197.1</ele>
        <time>2025-11-16T08:07:43.000Z</time>
      </trkpt>
      <trkpt lat="50.28158" lon="4.42596">
        <ele>197.4</ele>
        <time>2025-11-16T08:07:44.000Z</time>
      </trkpt>
      <trkpt lat="50.28159" lon="4.42598">
        <ele>198.7</ele>
        <time>2025-11-16T08:07:45.000Z</time>
      </trkpt>
      <trkpt lat="50.28157" lon="4.42601">
        <ele>199.4</ele>
        <time>2025-11-16T08:07:46.000Z</time>
      </trkpt>
      <trkpt lat="50.28156" lon="4.42603">
        <ele>200.4</ele>
        <time>2025-11-16T08:07:47.000Z</time>
      </trkpt>
      <trkpt lat="50.28156" lon="4.42606">
        <ele>201.1</ele>
        <time>2025-11-16T08:07:48.000Z</time>
      </trkpt>
      <trkpt lat="50.28156" lon="4.4261">
        <ele>201.7</ele>
        <time>2025-11-16T08:07:49.000Z</time>
      </trkpt>
      <trkpt lat="50.28158" lon="4.42613">
        <ele>202.9</ele>
        <time>2025-11-16T08:07:50.000Z</time>
      </trkpt>
      <trkpt lat="50.2816" lon="4.42614">
        <ele>203.8</ele>
        <time>2025-11-16T08:07:51.000Z</time>
      </trkpt>
      <trkpt lat="50.28161" lon="4.42614">
        <ele>204.1</ele>
        <time>2025-11-16T08:07:52.000Z</time>
      </trkpt>
      <trkpt lat="50.28161" lon="4.42615">
        <ele>205.3</ele>
        <time>2025-11-16T08:07:53.000Z</time>
      </trkpt>
      <trkpt lat="50.28161" lon="4.42617">
        <ele>206.2</ele>
        <time>2025-11-16T08:07:54.000Z</time>
      </trkpt>
      <trkpt lat="50.2816" lon="4.42619">
        <ele>206.9</ele>
        <time>2025-11-16T08:07:55.000Z</time>
      </trkpt>
      <trkpt lat="50.2816" lon="4.42621">
        <ele>207.7</ele>
        <time>2025-11-16T08:07:56.000Z</time>
      </trkpt>
      <trkpt lat="50.2816" lon="4.42623">
        <ele>208.2</ele>
        <time>2025-11-16T08:07:57.000Z</time>
      </trkpt>
      <trkpt lat="50.2816" lon="4.42624">
        <ele>208.7</ele>
        <time>2025-11-16T08:07:58.000Z</time>
      </trkpt>
      <trkpt lat="50.2816" lon="4.42626">
        <ele>209</ele>
        <time>2025-11-16T08:07:59.000Z</time>
      </trkpt>
      <trkpt lat="50.2816" lon="4.42627">
        <ele>209.3</ele>
        <time>2025-11-16T08:08:00.000Z</time>
      </trkpt>
      <trkpt lat="50.2816" lon="4.42628">
        <ele>209.5</ele>
        <time>2025-11-16T08:08:01.000Z</time>
      </trkpt>
      <trkpt lat="50.2816" lon="4.4263">
        <ele>209.7</ele>
        <time>2025-11-16T08:08:02.000Z</time>
      </trkpt>
      <trkpt lat="50.2816" lon="4.42631">
        <ele>209.9</ele>
        <time>2025-11-16T08:08:03.000Z</time>
      </trkpt>
      <trkpt lat="50.2816" lon="4.42632">
        <ele>210.2</ele>
        <time>2025-11-16T08:08:04.000Z</time>
      </trkpt>
      <trkpt lat="50.2816" lon="4.42634">
        <ele>210.4</ele>
        <time>2025-11-16T08:08:05.000Z</time>
      </trkpt>
      <trkpt lat="50.2816" lon="4.42635">
        <ele>210.6</ele>
        <time>2025-11-16T08:08:06.000Z</time>
      </trkpt>
      <trkpt lat="50.28161" lon="4.42636">
        <ele>210.9</ele>
        <time>2025-11-16T08:08:07.000Z</time>
      </trkpt>
      <trkpt lat="50.28161" lon="4.42637">
        <ele>211.2</ele>
        <time>2025-11-16T08:08:08.000Z</time>
      </trkpt>
      <trkpt lat="50.28162" lon="4.42637">
        <ele>211.6</ele>
        <time>2025-11-16T08:08:09.000Z</time>
      </trkpt>
      <trkpt lat="50.28163" lon="4.42637">
        <ele>211.8</ele>
        <time>2025-11-16T08:08:10.000Z</time>
      </trkpt>
      <trkpt lat="50.28164" lon="4.42637">
        <ele>212</ele>
        <time>2025-11-16T08:08:11.000Z</time>
      </trkpt>
      <trkpt lat="50.28164" lon="4.42638">
        <ele>211.9</ele>
        <time>2025-11-16T08:08:12.000Z</time>
      </trkpt>
      <trkpt lat="50.28163" lon="4.42639">
        <ele>211.9</ele>
        <time>2025-11-16T08:08:13.000Z</time>
      </trkpt>
      <trkpt lat="50.28162" lon="4.42639">
        <ele>211.9</ele>
        <time>2025-11-16T08:08:14.000Z</time>
      </trkpt>
      <trkpt lat="50.28162" lon="4.42641">
        <ele>211.9</ele>
        <time>2025-11-16T08:08:15.000Z</time>
      </trkpt>
      <trkpt lat="50.28161" lon="4.42642">
        <ele>211.9</ele>
        <time>2025-11-16T08:08:16.000Z</time>
      </trkpt>
      <trkpt lat="50.28162" lon="4.42644">
        <ele>212</ele>
        <time>2025-11-16T08:08:17.000Z</time>
      </trkpt>
      <trkpt lat="50.28162" lon="4.42646">
        <ele>211.9</ele>
        <time>2025-11-16T08:08:18.000Z</time>
      </trkpt>
      <trkpt lat="50.28162" lon="4.42648">
        <ele>211.9</ele>
        <time>2025-11-16T08:08:19.000Z</time>
      </trkpt>
      <trkpt lat="50.28162" lon="4.4265">
        <ele>212</ele>
        <time>2025-11-16T08:08:20.000Z</time>
      </trkpt>
      <trkpt lat="50.28162" lon="4.42652">
        <ele>211.8</ele>
        <time>2025-11-16T08:08:21.000Z</time>
      </trkpt>
      <trkpt lat="50.28162" lon="4.42654">
        <ele>211.8</ele>
        <time>2025-11-16T08:08:22.000Z</time>
      </trkpt>
      <trkpt lat="50.28161" lon="4.42656">
        <ele>211.5</ele>
        <time>2025-11-16T08:08:23.000Z</time>
      </trkpt>
      <trkpt lat="50.28161" lon="4.42657">
        <ele>211.3</ele>
        <time>2025-11-16T08:08:24.000Z</time>
      </trkpt>
      <trkpt lat="50.28161" lon="4.42658">
        <ele>211.2</ele>
        <time>2025-11-16T08:08:25.000Z</time>
      </trkpt>
      <trkpt lat="50.28161" lon="4.42659">
        <ele>211.1</ele>
        <time>2025-11-16T08:08:26.000Z</time>
      </trkpt>
      <trkpt lat="50.28161" lon="4.4266">
        <ele>211</ele>
        <time>2025-11-16T08:08:27.000Z</time>
      </trkpt>
      <trkpt lat="50.2816" lon="4.42661">
        <ele>210.9</ele>
        <time>2025-11-16T08:08:28.000Z</time>
      </trkpt>
      <trkpt lat="50.28161" lon="4.42662">
        <ele>210.8</ele>
        <time>2025-11-16T08:08:29.000Z</time>
      </trkpt>
      <trkpt lat="50.2816" lon="4.42663">
        <ele>210.8</ele>
        <time>2025-11-16T08:08:30.000Z</time>
      </trkpt>
      <trkpt lat="50.28161" lon="4.42663">
        <ele>210.7</ele>
        <time>2025-11-16T08:08:31.000Z</time>
      </trkpt>
      <trkpt lat="50.2816" lon="4.42663">
        <ele>210.7</ele>
        <time>2025-11-16T08:08:32.000Z</time>
      </trkpt>
      <trkpt lat="50.2816" lon="4.42663">
        <ele>210.7</ele>
        <time>2025-11-16T08:08:33.000Z</time>
      </trkpt>
      <trkpt lat="50.2816" lon="4.42663">
        <ele>210.8</ele>
        <time>2025-11-16T08:08:34.000Z</time>
      </trkpt>
      <trkpt lat="50.2816" lon="4.42663">
        <ele>210.9</ele>
        <time>2025-11-16T08:08:35.000Z</time>
      </trkpt>
      <trkpt lat="50.2816" lon="4.42663">
        <ele>211.1</ele>
        <time>2025-11-16T08:08:36.000Z</time>
      </trkpt>
      <trkpt lat="50.28159" lon="4.42663">
        <ele>211.5</ele>
        <time>2025-11-16T08:08:37.000Z</time>
      </trkpt>
      <trkpt lat="50.2816" lon="4.42663">
        <ele>211.7</ele>
        <time>2025-11-16T08:08:38.000Z</time>
      </trkpt>
      <trkpt lat="50.2816" lon="4.42663">
        <ele>211.7</ele>
        <time>2025-11-16T08:08:39.000Z</time>
      </trkpt>
      <trkpt lat="50.2816" lon="4.42663">
        <ele>211.7</ele>
        <time>2025-11-16T08:08:40.000Z</time>
      </trkpt>
      <trkpt lat="50.2816" lon="4.42663">
        <ele>211.7</ele>
        <time>2025-11-16T08:08:41.000Z</time>
      </trkpt>
      <trkpt lat="50.2816" lon="4.42663">
        <ele>211.7</ele>
        <time>2025-11-16T08:08:42.000Z</time>
      </trkpt>
      <trkpt lat="50.2816" lon="4.42663">
        <ele>211.7</ele>
        <time>2025-11-16T08:08:43.000Z</time>
      </trkpt>
      <trkpt lat="50.28161" lon="4.42669">
        <ele>212.7</ele>
        <time>2025-11-16T08:08:44.000Z</time>
      </trkpt>
      <trkpt lat="50.28161" lon="4.42669">
        <ele>212.7</ele>
        <time>2025-11-16T08:08:45.000Z</time>
      </trkpt>
      <trkpt lat="50.28161" lon="4.4267">
        <ele>212.8</ele>
        <time>2025-11-16T08:08:46.000Z</time>
      </trkpt>
      <trkpt lat="50.28161" lon="4.42671">
        <ele>213</ele>
        <time>2025-11-16T08:08:47.000Z</time>
      </trkpt>
      <trkpt lat="50.28162" lon="4.42672">
        <ele>213.1</ele>
        <time>2025-11-16T08:08:48.000Z</time>
      </trkpt>
      <trkpt lat="50.28162" lon="4.42672">
        <ele>213.2</ele>
        <time>2025-11-16T08:08:49.000Z</time>
      </trkpt>
      <trkpt lat="50.28162" lon="4.42673">
        <ele>213.2</ele>
        <time>2025-11-16T08:08:50.000Z</time>
      </trkpt>
      <trkpt lat="50.28163" lon="4.42674">
        <ele>213.3</ele>
        <time>2025-11-16T08:08:51.000Z</time>
      </trkpt>
      <trkpt lat="50.28163" lon="4.42674">
        <ele>213.4</ele>
        <time>2025-11-16T08:08:52.000Z</time>
      </trkpt>
      <trkpt lat="50.28163" lon="4.42675">
        <ele>213.5</ele>
        <time>2025-11-16T08:08:53.000Z</time>
      </trkpt>
      <trkpt lat="50.28163" lon="4.42675">
        <ele>213.6</ele>
        <time>2025-11-16T08:08:54.000Z</time>
      </trkpt>
      <trkpt lat="50.28163" lon="4.42677">
        <ele>213.7</ele>
        <time>2025-11-16T08:08:55.000Z</time>
      </trkpt>
      <trkpt lat="50.28163" lon="4.42677">
        <ele>213.7</ele>
        <time>2025-11-16T08:08:56.000Z</time>
      </trkpt>
      <trkpt lat="50.28163" lon="4.42678">
        <ele>213.8</ele>
        <time>2025-11-16T08:08:57.000Z</time>
      </trkpt>
      <trkpt lat="50.28163" lon="4.42679">
        <ele>213.9</ele>
        <time>2025-11-16T08:08:58.000Z</time>
      </trkpt>
      <trkpt lat="50.28163" lon="4.4268">
        <ele>213.9</ele>
        <time>2025-11-16T08:08:59.000Z</time>
      </trkpt>
      <trkpt lat="50.28163" lon="4.42682">
        <ele>214</ele>
        <time>2025-11-16T08:09:00.000Z</time>
      </trkpt>
      <trkpt lat="50.28162" lon="4.42683">
        <ele>214.1</ele>
        <time>2025-11-16T08:09:01.000Z</time>
      </trkpt>
      <trkpt lat="50.28163" lon="4.42684">
        <ele>214.1</ele>
        <time>2025-11-16T08:09:02.000Z</time>
      </trkpt>
      <trkpt lat="50.28163" lon="4.42684">
        <ele>214.1</ele>
        <time>2025-11-16T08:09:03.000Z</time>
      </trkpt>
      <trkpt lat="50.28162" lon="4.42685">
        <ele>214.1</ele>
        <time>2025-11-16T08:09:04.000Z</time>
      </trkpt>
      <trkpt lat="50.28162" lon="4.42685">
        <ele>214.1</ele>
        <time>2025-11-16T08:09:05.000Z</time>
      </trkpt>
      <trkpt lat="50.28162" lon="4.42685">
        <ele>214.1</ele>
        <time>2025-11-16T08:09:06.000Z</time>
      </trkpt>
      <trkpt lat="50.28162" lon="4.42685">
        <ele>214.1</ele>
        <time>2025-11-16T08:09:07.000Z</time>
      </trkpt>
      <trkpt lat="50.28162" lon="4.42685">
        <ele>214.1</ele>
        <time>2025-11-16T08:09:08.000Z</time>
      </trkpt>
      <trkpt lat="50.28162" lon="4.42685">
        <ele>214.1</ele>
        <time>2025-11-16T08:09:09.000Z</time>
      </trkpt>
      <trkpt lat="50.28162" lon="4.42685">
        <ele>214.1</ele>
        <time>2025-11-16T08:09:10.000Z</time>
      </trkpt>
      <trkpt lat="50.28162" lon="4.42685">
        <ele>214.1</ele>
        <time>2025-11-16T08:09:11.000Z</time>
      </trkpt>
      <trkpt lat="50.28162" lon="4.42685">
        <ele>214.1</ele>
        <time>2025-11-16T08:09:12.000Z</time>
      </trkpt>
      <trkpt lat="50.28162" lon="4.42685">
        <ele>214.1</ele>
        <time>2025-11-16T08:09:13.000Z</time>
      </trkpt>
      <trkpt lat="50.28162" lon="4.42685">
        <ele>214.1</ele>
        <time>2025-11-16T08:09:14.000Z</time>
      </trkpt>
      <trkpt lat="50.28162" lon="4.42685">
        <ele>214.1</ele>
        <time>2025-11-16T08:09:15.000Z</time>
      </trkpt>
      <trkpt lat="50.28162" lon="4.42685">
        <ele>214.1</ele>
        <time>2025-11-16T08:09:16.000Z</time>
      </trkpt>
      <trkpt lat="50.28162" lon="4.42685">
        <ele>214.1</ele>
        <time>2025-11-16T08:09:17.000Z</time>
      </trkpt>
      <trkpt lat="50.28159" lon="4.42699">
        <ele>215.2</ele>
        <time>2025-11-16T08:09:18.000Z</time>
      </trkpt>
      <trkpt lat="50.28159" lon="4.42701">
        <ele>215.3</ele>
        <time>2025-11-16T08:09:19.000Z</time>
      </trkpt>
      <trkpt lat="50.28159" lon="4.42702">
        <ele>215.3</ele>
        <time>2025-11-16T08:09:20.000Z</time>
      </trkpt>
      <trkpt lat="50.28159" lon="4.42704">
        <ele>215.4</ele>
        <time>2025-11-16T08:09:21.000Z</time>
      </trkpt>
      <trkpt lat="50.28159" lon="4.42705">
        <ele>215.5</ele>
        <time>2025-11-16T08:09:22.000Z</time>
      </trkpt>
      <trkpt lat="50.28159" lon="4.42707">
        <ele>215.5</ele>
        <time>2025-11-16T08:09:23.000Z</time>
      </trkpt>
      <trkpt lat="50.28159" lon="4.42708">
        <ele>215.6</ele>
        <time>2025-11-16T08:09:24.000Z</time>
      </trkpt>
      <trkpt lat="50.28159" lon="4.42709">
        <ele>215.7</ele>
        <time>2025-11-16T08:09:25.000Z</time>
      </trkpt>
      <trkpt lat="50.28159" lon="4.4271">
        <ele>215.7</ele>
        <time>2025-11-16T08:09:26.000Z</time>
      </trkpt>
      <trkpt lat="50.28158" lon="4.42712">
        <ele>215.7</ele>
        <time>2025-11-16T08:09:27.000Z</time>
      </trkpt>
      <trkpt lat="50.28158" lon="4.42714">
        <ele>215.8</ele>
        <time>2025-11-16T08:09:28.000Z</time>
      </trkpt>
      <trkpt lat="50.28158" lon="4.42715">
        <ele>215.8</ele>
        <time>2025-11-16T08:09:29.000Z</time>
      </trkpt>
      <trkpt lat="50.28157" lon="4.42716">
        <ele>215.8</ele>
        <time>2025-11-16T08:09:30.000Z</time>
      </trkpt>
      <trkpt lat="50.28157" lon="4.42718">
        <ele>215.9</ele>
        <time>2025-11-16T08:09:31.000Z</time>
      </trkpt>
      <trkpt lat="50.28157" lon="4.42719">
        <ele>216.1</ele>
        <time>2025-11-16T08:09:32.000Z</time>
      </trkpt>
      <trkpt lat="50.28158" lon="4.4272">
        <ele>216.3</ele>
        <time>2025-11-16T08:09:33.000Z</time>
      </trkpt>
      <trkpt lat="50.28158" lon="4.42722">
        <ele>216.4</ele>
        <time>2025-11-16T08:09:34.000Z</time>
      </trkpt>
      <trkpt lat="50.28158" lon="4.42723">
        <ele>216.6</ele>
        <time>2025-11-16T08:09:35.000Z</time>
      </trkpt>
      <trkpt lat="50.28158" lon="4.42724">
        <ele>216.8</ele>
        <time>2025-11-16T08:09:36.000Z</time>
      </trkpt>
      <trkpt lat="50.28159" lon="4.42725">
        <ele>216.9</ele>
        <time>2025-11-16T08:09:37.000Z</time>
      </trkpt>
      <trkpt lat="50.28159" lon="4.42726">
        <ele>216.9</ele>
        <time>2025-11-16T08:09:38.000Z</time>
      </trkpt>
      <trkpt lat="50.28159" lon="4.42727">
        <ele>216.8</ele>
        <time>2025-11-16T08:09:39.000Z</time>
      </trkpt>
      <trkpt lat="50.28159" lon="4.42728">
        <ele>216.9</ele>
        <time>2025-11-16T08:09:40.000Z</time>
      </trkpt>
      <trkpt lat="50.2816" lon="4.42729">
        <ele>217.1</ele>
        <time>2025-11-16T08:09:41.000Z</time>
      </trkpt>
      <trkpt lat="50.2816" lon="4.42731">
        <ele>217.3</ele>
        <time>2025-11-16T08:09:42.000Z</time>
      </trkpt>
      <trkpt lat="50.28161" lon="4.42733">
        <ele>217.5</ele>
        <time>2025-11-16T08:09:43.000Z</time>
      </trkpt>
      <trkpt lat="50.2816" lon="4.42735">
        <ele>217.5</ele>
        <time>2025-11-16T08:09:44.000Z</time>
      </trkpt>
      <trkpt lat="50.2816" lon="4.42737">
        <ele>217.8</ele>
        <time>2025-11-16T08:09:45.000Z</time>
      </trkpt>
      <trkpt lat="50.2816" lon="4.42738">
        <ele>218</ele>
        <time>2025-11-16T08:09:46.000Z</time>
      </trkpt>
      <trkpt lat="50.28161" lon="4.4274">
        <ele>218.2</ele>
        <time>2025-11-16T08:09:47.000Z</time>
      </trkpt>
      <trkpt lat="50.2816" lon="4.42742">
        <ele>218.4</ele>
        <time>2025-11-16T08:09:48.000Z</time>
      </trkpt>
      <trkpt lat="50.2816" lon="4.42744">
        <ele>218.7</ele>
        <time>2025-11-16T08:09:49.000Z</time>
      </trkpt>
      <trkpt lat="50.2816" lon="4.42745">
        <ele>218.8</ele>
        <time>2025-11-16T08:09:50.000Z</time>
      </trkpt>
      <trkpt lat="50.2816" lon="4.42747">
        <ele>218.8</ele>
        <time>2025-11-16T08:09:51.000Z</time>
      </trkpt>
      <trkpt lat="50.2816" lon="4.42748">
        <ele>218.8</ele>
        <time>2025-11-16T08:09:52.000Z</time>
      </trkpt>
      <trkpt lat="50.28159" lon="4.4275">
        <ele>219</ele>
        <time>2025-11-16T08:09:53.000Z</time>
      </trkpt>
      <trkpt lat="50.28159" lon="4.42751">
        <ele>219.2</ele>
        <time>2025-11-16T08:09:54.000Z</time>
      </trkpt>
      <trkpt lat="50.28158" lon="4.42754">
        <ele>219.6</ele>
        <time>2025-11-16T08:09:55.000Z</time>
      </trkpt>
      <trkpt lat="50.28157" lon="4.42756">
        <ele>220</ele>
        <time>2025-11-16T08:09:56.000Z</time>
      </trkpt>
      <trkpt lat="50.28157" lon="4.42757">
        <ele>220</ele>
        <time>2025-11-16T08:09:57.000Z</time>
      </trkpt>
      <trkpt lat="50.28157" lon="4.42757">
        <ele>220</ele>
        <time>2025-11-16T08:09:58.000Z</time>
      </trkpt>
      <trkpt lat="50.28157" lon="4.42758">
        <ele>219.7</ele>
        <time>2025-11-16T08:09:59.000Z</time>
      </trkpt>
      <trkpt lat="50.28157" lon="4.42758">
        <ele>220</ele>
        <time>2025-11-16T08:10:00.000Z</time>
      </trkpt>
      <trkpt lat="50.28157" lon="4.42758">
        <ele>220</ele>
        <time>2025-11-16T08:10:01.000Z</time>
      </trkpt>
      <trkpt lat="50.28156" lon="4.42758">
        <ele>220</ele>
        <time>2025-11-16T08:10:02.000Z</time>
      </trkpt>
      <trkpt lat="50.28155" lon="4.42757">
        <ele>220.2</ele>
        <time>2025-11-16T08:10:03.000Z</time>
      </trkpt>
      <trkpt lat="50.28154" lon="4.42757">
        <ele>220.4</ele>
        <time>2025-11-16T08:10:04.000Z</time>
      </trkpt>
      <trkpt lat="50.28154" lon="4.42756">
        <ele>220.6</ele>
        <time>2025-11-16T08:10:05.000Z</time>
      </trkpt>
      <trkpt lat="50.28152" lon="4.42756">
        <ele>220.8</ele>
        <time>2025-11-16T08:10:06.000Z</time>
      </trkpt>
      <trkpt lat="50.28151" lon="4.42754">
        <ele>220.8</ele>
        <time>2025-11-16T08:10:07.000Z</time>
      </trkpt>
      <trkpt lat="50.28151" lon="4.42753">
        <ele>221</ele>
        <time>2025-11-16T08:10:08.000Z</time>
      </trkpt>
      <trkpt lat="50.2815" lon="4.42752">
        <ele>221</ele>
        <time>2025-11-16T08:10:09.000Z</time>
      </trkpt>
      <trkpt lat="50.2815" lon="4.4275">
        <ele>221.2</ele>
        <time>2025-11-16T08:10:10.000Z</time>
      </trkpt>
      <trkpt lat="50.28149" lon="4.4275">
        <ele>221.5</ele>
        <time>2025-11-16T08:10:11.000Z</time>
      </trkpt>
      <trkpt lat="50.28149" lon="4.42749">
        <ele>221.8</ele>
        <time>2025-11-16T08:10:12.000Z</time>
      </trkpt>
      <trkpt lat="50.28149" lon="4.42749">
        <ele>221.8</ele>
        <time>2025-11-16T08:10:13.000Z</time>
      </trkpt>
      <trkpt lat="50.28148" lon="4.42748">
        <ele>221.8</ele>
        <time>2025-11-16T08:10:14.000Z</time>
      </trkpt>
      <trkpt lat="50.28148" lon="4.42748">
        <ele>221.8</ele>
        <time>2025-11-16T08:10:15.000Z</time>
      </trkpt>
      <trkpt lat="50.28147" lon="4.42747">
        <ele>222</ele>
        <time>2025-11-16T08:10:16.000Z</time>
      </trkpt>
      <trkpt lat="50.28146" lon="4.42746">
        <ele>222</ele>
        <time>2025-11-16T08:10:17.000Z</time>
      </trkpt>
      <trkpt lat="50.28146" lon="4.42744">
        <ele>222</ele>
        <time>2025-11-16T08:10:18.000Z</time>
      </trkpt>
      <trkpt lat="50.28145" lon="4.42742">
        <ele>222</ele>
        <time>2025-11-16T08:10:19.000Z</time>
      </trkpt>
      <trkpt lat="50.28145" lon="4.4274">
        <ele>221.9</ele>
        <time>2025-11-16T08:10:20.000Z</time>
      </trkpt>
      <trkpt lat="50.28145" lon="4.42738">
        <ele>221.9</ele>
        <time>2025-11-16T08:10:21.000Z</time>
      </trkpt>
      <trkpt lat="50.28145" lon="4.42735">
        <ele>221.9</ele>
        <time>2025-11-16T08:10:22.000Z</time>
      </trkpt>
      <trkpt lat="50.28144" lon="4.42733">
        <ele>221.9</ele>
        <time>2025-11-16T08:10:23.000Z</time>
      </trkpt>
      <trkpt lat="50.28143" lon="4.42732">
        <ele>221.8</ele>
        <time>2025-11-16T08:10:24.000Z</time>
      </trkpt>
      <trkpt lat="50.28142" lon="4.42731">
        <ele>221.8</ele>
        <time>2025-11-16T08:10:25.000Z</time>
      </trkpt>
      <trkpt lat="50.28142" lon="4.4273">
        <ele>221.8</ele>
        <time>2025-11-16T08:10:26.000Z</time>
      </trkpt>
      <trkpt lat="50.28141" lon="4.4273">
        <ele>221.7</ele>
        <time>2025-11-16T08:10:27.000Z</time>
      </trkpt>
      <trkpt lat="50.28141" lon="4.4273">
        <ele>221.6</ele>
        <time>2025-11-16T08:10:28.000Z</time>
      </trkpt>
      <trkpt lat="50.28141" lon="4.4273">
        <ele>221.7</ele>
        <time>2025-11-16T08:10:29.000Z</time>
      </trkpt>
      <trkpt lat="50.2814" lon="4.4273">
        <ele>221.7</ele>
        <time>2025-11-16T08:10:30.000Z</time>
      </trkpt>
      <trkpt lat="50.2814" lon="4.42729">
        <ele>221.7</ele>
        <time>2025-11-16T08:10:31.000Z</time>
      </trkpt>
      <trkpt lat="50.2814" lon="4.42728">
        <ele>221.6</ele>
        <time>2025-11-16T08:10:32.000Z</time>
      </trkpt>
      <trkpt lat="50.2814" lon="4.42727">
        <ele>221.6</ele>
        <time>2025-11-16T08:10:33.000Z</time>
      </trkpt>
      <trkpt lat="50.2814" lon="4.42726">
        <ele>221.8</ele>
        <time>2025-11-16T08:10:34.000Z</time>
      </trkpt>
      <trkpt lat="50.2814" lon="4.42726">
        <ele>221.8</ele>
        <time>2025-11-16T08:10:35.000Z</time>
      </trkpt>
      <trkpt lat="50.2814" lon="4.42725">
        <ele>221.8</ele>
        <time>2025-11-16T08:10:36.000Z</time>
      </trkpt>
      <trkpt lat="50.2814" lon="4.42724">
        <ele>222</ele>
        <time>2025-11-16T08:10:37.000Z</time>
      </trkpt>
      <trkpt lat="50.28139" lon="4.42722">
        <ele>222.1</ele>
        <time>2025-11-16T08:10:38.000Z</time>
      </trkpt>
      <trkpt lat="50.28138" lon="4.42721">
        <ele>222.1</ele>
        <time>2025-11-16T08:10:39.000Z</time>
      </trkpt>
      <trkpt lat="50.28138" lon="4.4272">
        <ele>222.1</ele>
        <time>2025-11-16T08:10:40.000Z</time>
      </trkpt>
      <trkpt lat="50.28137" lon="4.42719">
        <ele>222.1</ele>
        <time>2025-11-16T08:10:41.000Z</time>
      </trkpt>
      <trkpt lat="50.28137" lon="4.42717">
        <ele>221.9</ele>
        <time>2025-11-16T08:10:42.000Z</time>
      </trkpt>
      <trkpt lat="50.28136" lon="4.42715">
        <ele>221.9</ele>
        <time>2025-11-16T08:10:43.000Z</time>
      </trkpt>
      <trkpt lat="50.28135" lon="4.42714">
        <ele>221.6</ele>
        <time>2025-11-16T08:10:44.000Z</time>
      </trkpt>
      <trkpt lat="50.28135" lon="4.42712">
        <ele>221.5</ele>
        <time>2025-11-16T08:10:45.000Z</time>
      </trkpt>
      <trkpt lat="50.28134" lon="4.42711">
        <ele>221.3</ele>
        <time>2025-11-16T08:10:46.000Z</time>
      </trkpt>
      <trkpt lat="50.28134" lon="4.4271">
        <ele>220.9</ele>
        <time>2025-11-16T08:10:47.000Z</time>
      </trkpt>
      <trkpt lat="50.28133" lon="4.42708">
        <ele>220.7</ele>
        <time>2025-11-16T08:10:48.000Z</time>
      </trkpt>
      <trkpt lat="50.28132" lon="4.42707">
        <ele>220.6</ele>
        <time>2025-11-16T08:10:49.000Z</time>
      </trkpt>
      <trkpt lat="50.28132" lon="4.42706">
        <ele>220.4</ele>
        <time>2025-11-16T08:10:50.000Z</time>
      </trkpt>
      <trkpt lat="50.28132" lon="4.42705">
        <ele>220.2</ele>
        <time>2025-11-16T08:10:51.000Z</time>
      </trkpt>
      <trkpt lat="50.28132" lon="4.42704">
        <ele>220.2</ele>
        <time>2025-11-16T08:10:52.000Z</time>
      </trkpt>
      <trkpt lat="50.28131" lon="4.42702">
        <ele>220.1</ele>
        <time>2025-11-16T08:10:53.000Z</time>
      </trkpt>
      <trkpt lat="50.28131" lon="4.42701">
        <ele>219.9</ele>
        <time>2025-11-16T08:10:54.000Z</time>
      </trkpt>
      <trkpt lat="50.2813" lon="4.42699">
        <ele>219.7</ele>
        <time>2025-11-16T08:10:55.000Z</time>
      </trkpt>
      <trkpt lat="50.2813" lon="4.42699">
        <ele>219.5</ele>
        <time>2025-11-16T08:10:56.000Z</time>
      </trkpt>
      <trkpt lat="50.28129" lon="4.42697">
        <ele>219.3</ele>
        <time>2025-11-16T08:10:57.000Z</time>
      </trkpt>
      <trkpt lat="50.28129" lon="4.42695">
        <ele>219.3</ele>
        <time>2025-11-16T08:10:58.000Z</time>
      </trkpt>
      <trkpt lat="50.28128" lon="4.42694">
        <ele>219.2</ele>
        <time>2025-11-16T08:10:59.000Z</time>
      </trkpt>
      <trkpt lat="50.28127" lon="4.42693">
        <ele>219</ele>
        <time>2025-11-16T08:11:00.000Z</time>
      </trkpt>
      <trkpt lat="50.28127" lon="4.42691">
        <ele>219</ele>
        <time>2025-11-16T08:11:01.000Z</time>
      </trkpt>
      <trkpt lat="50.28127" lon="4.42689">
        <ele>218.9</ele>
        <time>2025-11-16T08:11:02.000Z</time>
      </trkpt>
      <trkpt lat="50.28127" lon="4.42687">
        <ele>218.9</ele>
        <time>2025-11-16T08:11:03.000Z</time>
      </trkpt>
      <trkpt lat="50.28126" lon="4.42686">
        <ele>218.9</ele>
        <time>2025-11-16T08:11:04.000Z</time>
      </trkpt>
      <trkpt lat="50.28125" lon="4.42684">
        <ele>218.9</ele>
        <time>2025-11-16T08:11:05.000Z</time>
      </trkpt>
      <trkpt lat="50.28125" lon="4.42683">
        <ele>218.9</ele>
        <time>2025-11-16T08:11:06.000Z</time>
      </trkpt>
      <trkpt lat="50.28125" lon="4.42682">
        <ele>218.8</ele>
        <time>2025-11-16T08:11:07.000Z</time>
      </trkpt>
      <trkpt lat="50.28124" lon="4.42681">
        <ele>218.9</ele>
        <time>2025-11-16T08:11:08.000Z</time>
      </trkpt>
      <trkpt lat="50.28124" lon="4.4268">
        <ele>219</ele>
        <time>2025-11-16T08:11:09.000Z</time>
      </trkpt>
      <trkpt lat="50.28124" lon="4.42678">
        <ele>219.1</ele>
        <time>2025-11-16T08:11:10.000Z</time>
      </trkpt>
      <trkpt lat="50.28124" lon="4.42677">
        <ele>219.2</ele>
        <time>2025-11-16T08:11:11.000Z</time>
      </trkpt>
      <trkpt lat="50.28124" lon="4.42675">
        <ele>219.3</ele>
        <time>2025-11-16T08:11:12.000Z</time>
      </trkpt>
      <trkpt lat="50.28123" lon="4.42674">
        <ele>219.4</ele>
        <time>2025-11-16T08:11:13.000Z</time>
      </trkpt>
      <trkpt lat="50.28123" lon="4.42672">
        <ele>219.6</ele>
        <time>2025-11-16T08:11:14.000Z</time>
      </trkpt>
      <trkpt lat="50.28122" lon="4.4267">
        <ele>219.5</ele>
        <time>2025-11-16T08:11:15.000Z</time>
      </trkpt>
      <trkpt lat="50.28121" lon="4.42669">
        <ele>219.5</ele>
        <time>2025-11-16T08:11:16.000Z</time>
      </trkpt>
      <trkpt lat="50.28121" lon="4.42668">
        <ele>219.4</ele>
        <time>2025-11-16T08:11:17.000Z</time>
      </trkpt>
      <trkpt lat="50.28121" lon="4.42667">
        <ele>219.5</ele>
        <time>2025-11-16T08:11:18.000Z</time>
      </trkpt>
      <trkpt lat="50.2812" lon="4.42666">
        <ele>219.6</ele>
        <time>2025-11-16T08:11:19.000Z</time>
      </trkpt>
      <trkpt lat="50.28119" lon="4.42664">
        <ele>219.6</ele>
        <time>2025-11-16T08:11:20.000Z</time>
      </trkpt>
      <trkpt lat="50.28118" lon="4.42663">
        <ele>219.6</ele>
        <time>2025-11-16T08:11:21.000Z</time>
      </trkpt>
      <trkpt lat="50.28117" lon="4.42662">
        <ele>219.6</ele>
        <time>2025-11-16T08:11:22.000Z</time>
      </trkpt>
      <trkpt lat="50.28116" lon="4.4266">
        <ele>219.5</ele>
        <time>2025-11-16T08:11:23.000Z</time>
      </trkpt>
      <trkpt lat="50.28116" lon="4.42658">
        <ele>219.5</ele>
        <time>2025-11-16T08:11:24.000Z</time>
      </trkpt>
      <trkpt lat="50.28115" lon="4.42656">
        <ele>219.2</ele>
        <time>2025-11-16T08:11:25.000Z</time>
      </trkpt>
      <trkpt lat="50.28114" lon="4.42655">
        <ele>219.1</ele>
        <time>2025-11-16T08:11:26.000Z</time>
      </trkpt>
      <trkpt lat="50.28113" lon="4.42653">
        <ele>219</ele>
        <time>2025-11-16T08:11:27.000Z</time>
      </trkpt>
      <trkpt lat="50.28112" lon="4.42652">
        <ele>219.2</ele>
        <time>2025-11-16T08:11:28.000Z</time>
      </trkpt>
      <trkpt lat="50.28111" lon="4.42652">
        <ele>218.9</ele>
        <time>2025-11-16T08:11:29.000Z</time>
      </trkpt>
      <trkpt lat="50.2811" lon="4.42651">
        <ele>219.2</ele>
        <time>2025-11-16T08:11:30.000Z</time>
      </trkpt>
      <trkpt lat="50.2811" lon="4.4265">
        <ele>219.3</ele>
        <time>2025-11-16T08:11:31.000Z</time>
      </trkpt>
      <trkpt lat="50.28109" lon="4.42648">
        <ele>219.4</ele>
        <time>2025-11-16T08:11:32.000Z</time>
      </trkpt>
      <trkpt lat="50.28109" lon="4.42648">
        <ele>219.5</ele>
        <time>2025-11-16T08:11:33.000Z</time>
      </trkpt>
      <trkpt lat="50.28108" lon="4.42647">
        <ele>219.7</ele>
        <time>2025-11-16T08:11:34.000Z</time>
      </trkpt>
      <trkpt lat="50.28107" lon="4.42645">
        <ele>219.9</ele>
        <time>2025-11-16T08:11:35.000Z</time>
      </trkpt>
      <trkpt lat="50.28106" lon="4.42644">
        <ele>220</ele>
        <time>2025-11-16T08:11:36.000Z</time>
      </trkpt>
      <trkpt lat="50.28104" lon="4.42643">
        <ele>220</ele>
        <time>2025-11-16T08:11:37.000Z</time>
      </trkpt>
      <trkpt lat="50.28103" lon="4.42642">
        <ele>220</ele>
        <time>2025-11-16T08:11:38.000Z</time>
      </trkpt>
      <trkpt lat="50.28102" lon="4.4264">
        <ele>220</ele>
        <time>2025-11-16T08:11:39.000Z</time>
      </trkpt>
      <trkpt lat="50.28101" lon="4.42639">
        <ele>220.1</ele>
        <time>2025-11-16T08:11:40.000Z</time>
      </trkpt>
      <trkpt lat="50.28101" lon="4.42637">
        <ele>220.6</ele>
        <time>2025-11-16T08:11:41.000Z</time>
      </trkpt>
      <trkpt lat="50.281" lon="4.42635">
        <ele>221.3</ele>
        <time>2025-11-16T08:11:42.000Z</time>
      </trkpt>
      <trkpt lat="50.281" lon="4.42633">
        <ele>222.3</ele>
        <time>2025-11-16T08:11:43.000Z</time>
      </trkpt>
      <trkpt lat="50.28099" lon="4.42631">
        <ele>222.9</ele>
        <time>2025-11-16T08:11:44.000Z</time>
      </trkpt>
      <trkpt lat="50.28099" lon="4.42628">
        <ele>223.6</ele>
        <time>2025-11-16T08:11:45.000Z</time>
      </trkpt>
      <trkpt lat="50.28099" lon="4.42626">
        <ele>224.2</ele>
        <time>2025-11-16T08:11:46.000Z</time>
      </trkpt>
      <trkpt lat="50.28098" lon="4.42624">
        <ele>224.9</ele>
        <time>2025-11-16T08:11:47.000Z</time>
      </trkpt>
      <trkpt lat="50.28097" lon="4.42623">
        <ele>225.6</ele>
        <time>2025-11-16T08:11:48.000Z</time>
      </trkpt>
      <trkpt lat="50.28097" lon="4.42621">
        <ele>226.2</ele>
        <time>2025-11-16T08:11:49.000Z</time>
      </trkpt>
      <trkpt lat="50.28097" lon="4.4262">
        <ele>226.4</ele>
        <time>2025-11-16T08:11:50.000Z</time>
      </trkpt>
      <trkpt lat="50.28096" lon="4.42618">
        <ele>226.7</ele>
        <time>2025-11-16T08:11:51.000Z</time>
      </trkpt>
      <trkpt lat="50.28096" lon="4.42617">
        <ele>227.1</ele>
        <time>2025-11-16T08:11:52.000Z</time>
      </trkpt>
      <trkpt lat="50.28095" lon="4.42616">
        <ele>227.5</ele>
        <time>2025-11-16T08:11:53.000Z</time>
      </trkpt>
      <trkpt lat="50.28094" lon="4.42615">
        <ele>227.9</ele>
        <time>2025-11-16T08:11:54.000Z</time>
      </trkpt>
      <trkpt lat="50.28093" lon="4.42613">
        <ele>228.2</ele>
        <time>2025-11-16T08:11:55.000Z</time>
      </trkpt>
      <trkpt lat="50.28092" lon="4.42612">
        <ele>228.2</ele>
        <time>2025-11-16T08:11:56.000Z</time>
      </trkpt>
      <trkpt lat="50.28091" lon="4.42612">
        <ele>228.3</ele>
        <time>2025-11-16T08:11:57.000Z</time>
      </trkpt>
      <trkpt lat="50.2809" lon="4.42612">
        <ele>228.3</ele>
        <time>2025-11-16T08:11:58.000Z</time>
      </trkpt>
      <trkpt lat="50.2809" lon="4.42611">
        <ele>228.4</ele>
        <time>2025-11-16T08:11:59.000Z</time>
      </trkpt>
      <trkpt lat="50.28089" lon="4.42609">
        <ele>228.4</ele>
        <time>2025-11-16T08:12:00.000Z</time>
      </trkpt>
      <trkpt lat="50.28088" lon="4.42608">
        <ele>228.3</ele>
        <time>2025-11-16T08:12:01.000Z</time>
      </trkpt>
      <trkpt lat="50.28087" lon="4.42607">
        <ele>228.2</ele>
        <time>2025-11-16T08:12:02.000Z</time>
      </trkpt>
      <trkpt lat="50.28086" lon="4.42605">
        <ele>228.2</ele>
        <time>2025-11-16T08:12:03.000Z</time>
      </trkpt>
      <trkpt lat="50.28086" lon="4.42604">
        <ele>228.1</ele>
        <time>2025-11-16T08:12:04.000Z</time>
      </trkpt>
      <trkpt lat="50.28085" lon="4.42603">
        <ele>227.9</ele>
        <time>2025-11-16T08:12:05.000Z</time>
      </trkpt>
      <trkpt lat="50.28085" lon="4.42601">
        <ele>227.7</ele>
        <time>2025-11-16T08:12:06.000Z</time>
      </trkpt>
      <trkpt lat="50.28084" lon="4.426">
        <ele>227.5</ele>
        <time>2025-11-16T08:12:07.000Z</time>
      </trkpt>
      <trkpt lat="50.28083" lon="4.42599">
        <ele>227.3</ele>
        <time>2025-11-16T08:12:08.000Z</time>
      </trkpt>
      <trkpt lat="50.28083" lon="4.42598">
        <ele>227.1</ele>
        <time>2025-11-16T08:12:09.000Z</time>
      </trkpt>
      <trkpt lat="50.28082" lon="4.42597">
        <ele>226.7</ele>
        <time>2025-11-16T08:12:10.000Z</time>
      </trkpt>
      <trkpt lat="50.28081" lon="4.42595">
        <ele>226.3</ele>
        <time>2025-11-16T08:12:11.000Z</time>
      </trkpt>
      <trkpt lat="50.28081" lon="4.42594">
        <ele>226</ele>
        <time>2025-11-16T08:12:12.000Z</time>
      </trkpt>
      <trkpt lat="50.2808" lon="4.42592">
        <ele>225.7</ele>
        <time>2025-11-16T08:12:13.000Z</time>
      </trkpt>
      <trkpt lat="50.28079" lon="4.42591">
        <ele>225.4</ele>
        <time>2025-11-16T08:12:14.000Z</time>
      </trkpt>
      <trkpt lat="50.28079" lon="4.42591">
        <ele>225.1</ele>
        <time>2025-11-16T08:12:15.000Z</time>
      </trkpt>
      <trkpt lat="50.28078" lon="4.42591">
        <ele>224.6</ele>
        <time>2025-11-16T08:12:16.000Z</time>
      </trkpt>
      <trkpt lat="50.28077" lon="4.4259">
        <ele>224.1</ele>
        <time>2025-11-16T08:12:17.000Z</time>
      </trkpt>
      <trkpt lat="50.28077" lon="4.42589">
        <ele>223.6</ele>
        <time>2025-11-16T08:12:18.000Z</time>
      </trkpt>
      <trkpt lat="50.28077" lon="4.42587">
        <ele>223.4</ele>
        <time>2025-11-16T08:12:19.000Z</time>
      </trkpt>
      <trkpt lat="50.28076" lon="4.42585">
        <ele>223.2</ele>
        <time>2025-11-16T08:12:20.000Z</time>
      </trkpt>
      <trkpt lat="50.28074" lon="4.42585">
        <ele>222.8</ele>
        <time>2025-11-16T08:12:21.000Z</time>
      </trkpt>
      <trkpt lat="50.28073" lon="4.42586">
        <ele>222.4</ele>
        <time>2025-11-16T08:12:22.000Z</time>
      </trkpt>
      <trkpt lat="50.28071" lon="4.42585">
        <ele>222.2</ele>
        <time>2025-11-16T08:12:23.000Z</time>
      </trkpt>
      <trkpt lat="50.2807" lon="4.42584">
        <ele>221.9</ele>
        <time>2025-11-16T08:12:24.000Z</time>
      </trkpt>
      <trkpt lat="50.2807" lon="4.42581">
        <ele>221.8</ele>
        <time>2025-11-16T08:12:25.000Z</time>
      </trkpt>
      <trkpt lat="50.28069" lon="4.42579">
        <ele>221.7</ele>
        <time>2025-11-16T08:12:26.000Z</time>
      </trkpt>
      <trkpt lat="50.28069" lon="4.42578">
        <ele>221.6</ele>
        <time>2025-11-16T08:12:27.000Z</time>
      </trkpt>
      <trkpt lat="50.28069" lon="4.42576">
        <ele>221.6</ele>
        <time>2025-11-16T08:12:28.000Z</time>
      </trkpt>
      <trkpt lat="50.28069" lon="4.42574">
        <ele>221.4</ele>
        <time>2025-11-16T08:12:29.000Z</time>
      </trkpt>
      <trkpt lat="50.2807" lon="4.42573">
        <ele>221.4</ele>
        <time>2025-11-16T08:12:30.000Z</time>
      </trkpt>
      <trkpt lat="50.2807" lon="4.4257">
        <ele>221.3</ele>
        <time>2025-11-16T08:12:31.000Z</time>
      </trkpt>
      <trkpt lat="50.28069" lon="4.42569">
        <ele>221.3</ele>
        <time>2025-11-16T08:12:32.000Z</time>
      </trkpt>
      <trkpt lat="50.28069" lon="4.42567">
        <ele>221.1</ele>
        <time>2025-11-16T08:12:33.000Z</time>
      </trkpt>
      <trkpt lat="50.28068" lon="4.42565">
        <ele>220.9</ele>
        <time>2025-11-16T08:12:34.000Z</time>
      </trkpt>
      <trkpt lat="50.28067" lon="4.42563">
        <ele>220.7</ele>
        <time>2025-11-16T08:12:35.000Z</time>
      </trkpt>
      <trkpt lat="50.28067" lon="4.42562">
        <ele>220.7</ele>
        <time>2025-11-16T08:12:36.000Z</time>
      </trkpt>
      <trkpt lat="50.28066" lon="4.4256">
        <ele>220.7</ele>
        <time>2025-11-16T08:12:37.000Z</time>
      </trkpt>
      <trkpt lat="50.28065" lon="4.42559">
        <ele>220.6</ele>
        <time>2025-11-16T08:12:38.000Z</time>
      </trkpt>
      <trkpt lat="50.28065" lon="4.42557">
        <ele>220.6</ele>
        <time>2025-11-16T08:12:39.000Z</time>
      </trkpt>
      <trkpt lat="50.28064" lon="4.42556">
        <ele>220.4</ele>
        <time>2025-11-16T08:12:40.000Z</time>
      </trkpt>
      <trkpt lat="50.28064" lon="4.42555">
        <ele>220.2</ele>
        <time>2025-11-16T08:12:41.000Z</time>
      </trkpt>
      <trkpt lat="50.28063" lon="4.42554">
        <ele>220</ele>
        <time>2025-11-16T08:12:42.000Z</time>
      </trkpt>
      <trkpt lat="50.28062" lon="4.42553">
        <ele>219.8</ele>
        <time>2025-11-16T08:12:43.000Z</time>
      </trkpt>
      <trkpt lat="50.28061" lon="4.42552">
        <ele>219.7</ele>
        <time>2025-11-16T08:12:44.000Z</time>
      </trkpt>
      <trkpt lat="50.28061" lon="4.4255">
        <ele>219.5</ele>
        <time>2025-11-16T08:12:45.000Z</time>
      </trkpt>
      <trkpt lat="50.2806" lon="4.42549">
        <ele>219.4</ele>
        <time>2025-11-16T08:12:46.000Z</time>
      </trkpt>
      <trkpt lat="50.28059" lon="4.42548">
        <ele>219.3</ele>
        <time>2025-11-16T08:12:47.000Z</time>
      </trkpt>
      <trkpt lat="50.28059" lon="4.42547">
        <ele>219.1</ele>
        <time>2025-11-16T08:12:48.000Z</time>
      </trkpt>
      <trkpt lat="50.28058" lon="4.42546">
        <ele>219</ele>
        <time>2025-11-16T08:12:49.000Z</time>
      </trkpt>
      <trkpt lat="50.28058" lon="4.42544">
        <ele>218.8</ele>
        <time>2025-11-16T08:12:50.000Z</time>
      </trkpt>
      <trkpt lat="50.28057" lon="4.42543">
        <ele>218.6</ele>
        <time>2025-11-16T08:12:51.000Z</time>
      </trkpt>
      <trkpt lat="50.28056" lon="4.42541">
        <ele>218.4</ele>
        <time>2025-11-16T08:12:52.000Z</time>
      </trkpt>
      <trkpt lat="50.28056" lon="4.4254">
        <ele>218.3</ele>
        <time>2025-11-16T08:12:53.000Z</time>
      </trkpt>
      <trkpt lat="50.28055" lon="4.4254">
        <ele>218.1</ele>
        <time>2025-11-16T08:12:54.000Z</time>
      </trkpt>
      <trkpt lat="50.28055" lon="4.42539">
        <ele>217.9</ele>
        <time>2025-11-16T08:12:55.000Z</time>
      </trkpt>
      <trkpt lat="50.28055" lon="4.42539">
        <ele>217.8</ele>
        <time>2025-11-16T08:12:56.000Z</time>
      </trkpt>
      <trkpt lat="50.28055" lon="4.42539">
        <ele>217.8</ele>
        <time>2025-11-16T08:12:57.000Z</time>
      </trkpt>
      <trkpt lat="50.28054" lon="4.42539">
        <ele>217.8</ele>
        <time>2025-11-16T08:12:58.000Z</time>
      </trkpt>
      <trkpt lat="50.28054" lon="4.42538">
        <ele>217.7</ele>
        <time>2025-11-16T08:12:59.000Z</time>
      </trkpt>
      <trkpt lat="50.28053" lon="4.42537">
        <ele>217.6</ele>
        <time>2025-11-16T08:13:00.000Z</time>
      </trkpt>
      <trkpt lat="50.28053" lon="4.42536">
        <ele>217.4</ele>
        <time>2025-11-16T08:13:01.000Z</time>
      </trkpt>
      <trkpt lat="50.28053" lon="4.42536">
        <ele>217.3</ele>
        <time>2025-11-16T08:13:02.000Z</time>
      </trkpt>
      <trkpt lat="50.28052" lon="4.42535">
        <ele>217.1</ele>
        <time>2025-11-16T08:13:03.000Z</time>
      </trkpt>
      <trkpt lat="50.28052" lon="4.42534">
        <ele>216.9</ele>
        <time>2025-11-16T08:13:04.000Z</time>
      </trkpt>
      <trkpt lat="50.28052" lon="4.42533">
        <ele>216.7</ele>
        <time>2025-11-16T08:13:05.000Z</time>
      </trkpt>
      <trkpt lat="50.28051" lon="4.42532">
        <ele>216.4</ele>
        <time>2025-11-16T08:13:06.000Z</time>
      </trkpt>
      <trkpt lat="50.2805" lon="4.4253">
        <ele>216.3</ele>
        <time>2025-11-16T08:13:07.000Z</time>
      </trkpt>
      <trkpt lat="50.2805" lon="4.42529">
        <ele>216</ele>
        <time>2025-11-16T08:13:08.000Z</time>
      </trkpt>
      <trkpt lat="50.28049" lon="4.42528">
        <ele>215.8</ele>
        <time>2025-11-16T08:13:09.000Z</time>
      </trkpt>
      <trkpt lat="50.28048" lon="4.42527">
        <ele>215.6</ele>
        <time>2025-11-16T08:13:10.000Z</time>
      </trkpt>
      <trkpt lat="50.28047" lon="4.42525">
        <ele>215.6</ele>
        <time>2025-11-16T08:13:11.000Z</time>
      </trkpt>
      <trkpt lat="50.28048" lon="4.42524">
        <ele>215.5</ele>
        <time>2025-11-16T08:13:12.000Z</time>
      </trkpt>
      <trkpt lat="50.28048" lon="4.42523">
        <ele>215.4</ele>
        <time>2025-11-16T08:13:13.000Z</time>
      </trkpt>
      <trkpt lat="50.28047" lon="4.42521">
        <ele>215.3</ele>
        <time>2025-11-16T08:13:14.000Z</time>
      </trkpt>
      <trkpt lat="50.28046" lon="4.4252">
        <ele>215.1</ele>
        <time>2025-11-16T08:13:15.000Z</time>
      </trkpt>
      <trkpt lat="50.28046" lon="4.42519">
        <ele>214.9</ele>
        <time>2025-11-16T08:13:16.000Z</time>
      </trkpt>
      <trkpt lat="50.28045" lon="4.42517">
        <ele>214.8</ele>
        <time>2025-11-16T08:13:17.000Z</time>
      </trkpt>
      <trkpt lat="50.28045" lon="4.42516">
        <ele>214.6</ele>
        <time>2025-11-16T08:13:18.000Z</time>
      </trkpt>
      <trkpt lat="50.28044" lon="4.42516">
        <ele>214.4</ele>
        <time>2025-11-16T08:13:19.000Z</time>
      </trkpt>
      <trkpt lat="50.28044" lon="4.42515">
        <ele>214.2</ele>
        <time>2025-11-16T08:13:20.000Z</time>
      </trkpt>
      <trkpt lat="50.28044" lon="4.42514">
        <ele>214.1</ele>
        <time>2025-11-16T08:13:21.000Z</time>
      </trkpt>
      <trkpt lat="50.28044" lon="4.42513">
        <ele>214</ele>
        <time>2025-11-16T08:13:22.000Z</time>
      </trkpt>
      <trkpt lat="50.28044" lon="4.42512">
        <ele>213.9</ele>
        <time>2025-11-16T08:13:23.000Z</time>
      </trkpt>
      <trkpt lat="50.28044" lon="4.42511">
        <ele>213.7</ele>
        <time>2025-11-16T08:13:24.000Z</time>
      </trkpt>
      <trkpt lat="50.28044" lon="4.42509">
        <ele>213.6</ele>
        <time>2025-11-16T08:13:25.000Z</time>
      </trkpt>
      <trkpt lat="50.28044" lon="4.42507">
        <ele>213.4</ele>
        <time>2025-11-16T08:13:26.000Z</time>
      </trkpt>
      <trkpt lat="50.28044" lon="4.42506">
        <ele>213.2</ele>
        <time>2025-11-16T08:13:27.000Z</time>
      </trkpt>
      <trkpt lat="50.28044" lon="4.42504">
        <ele>213.1</ele>
        <time>2025-11-16T08:13:28.000Z</time>
      </trkpt>
      <trkpt lat="50.28043" lon="4.42502">
        <ele>212.9</ele>
        <time>2025-11-16T08:13:29.000Z</time>
      </trkpt>
      <trkpt lat="50.28043" lon="4.425">
        <ele>212.8</ele>
        <time>2025-11-16T08:13:30.000Z</time>
      </trkpt>
      <trkpt lat="50.28042" lon="4.42497">
        <ele>212.7</ele>
        <time>2025-11-16T08:13:31.000Z</time>
      </trkpt>
      <trkpt lat="50.28041" lon="4.42495">
        <ele>212.8</ele>
        <time>2025-11-16T08:13:32.000Z</time>
      </trkpt>
      <trkpt lat="50.2804" lon="4.42493">
        <ele>212.8</ele>
        <time>2025-11-16T08:13:33.000Z</time>
      </trkpt>
      <trkpt lat="50.2804" lon="4.42492">
        <ele>212.7</ele>
        <time>2025-11-16T08:13:34.000Z</time>
      </trkpt>
      <trkpt lat="50.28039" lon="4.4249">
        <ele>212.6</ele>
        <time>2025-11-16T08:13:35.000Z</time>
      </trkpt>
      <trkpt lat="50.28039" lon="4.42489">
        <ele>212.4</ele>
        <time>2025-11-16T08:13:36.000Z</time>
      </trkpt>
      <trkpt lat="50.28038" lon="4.42488">
        <ele>212.2</ele>
        <time>2025-11-16T08:13:37.000Z</time>
      </trkpt>
      <trkpt lat="50.28038" lon="4.42487">
        <ele>212</ele>
        <time>2025-11-16T08:13:38.000Z</time>
      </trkpt>
      <trkpt lat="50.28037" lon="4.42486">
        <ele>211.8</ele>
        <time>2025-11-16T08:13:39.000Z</time>
      </trkpt>
      <trkpt lat="50.28036" lon="4.42484">
        <ele>211.7</ele>
        <time>2025-11-16T08:13:40.000Z</time>
      </trkpt>
      <trkpt lat="50.28035" lon="4.42482">
        <ele>211.6</ele>
        <time>2025-11-16T08:13:41.000Z</time>
      </trkpt>
      <trkpt lat="50.28034" lon="4.4248">
        <ele>211.7</ele>
        <time>2025-11-16T08:13:42.000Z</time>
      </trkpt>
      <trkpt lat="50.28033" lon="4.42478">
        <ele>211.8</ele>
        <time>2025-11-16T08:13:43.000Z</time>
      </trkpt>
      <trkpt lat="50.28032" lon="4.42475">
        <ele>211.5</ele>
        <time>2025-11-16T08:13:44.000Z</time>
      </trkpt>
      <trkpt lat="50.28032" lon="4.42472">
        <ele>211.2</ele>
        <time>2025-11-16T08:13:45.000Z</time>
      </trkpt>
      <trkpt lat="50.28031" lon="4.42469">
        <ele>211</ele>
        <time>2025-11-16T08:13:46.000Z</time>
      </trkpt>
      <trkpt lat="50.2803" lon="4.42466">
        <ele>211.2</ele>
        <time>2025-11-16T08:13:47.000Z</time>
      </trkpt>
      <trkpt lat="50.28029" lon="4.42463">
        <ele>211.2</ele>
        <time>2025-11-16T08:13:48.000Z</time>
      </trkpt>
      <trkpt lat="50.28028" lon="4.4246">
        <ele>211.1</ele>
        <time>2025-11-16T08:13:49.000Z</time>
      </trkpt>
      <trkpt lat="50.28027" lon="4.42458">
        <ele>211</ele>
        <time>2025-11-16T08:13:50.000Z</time>
      </trkpt>
      <trkpt lat="50.28027" lon="4.42455">
        <ele>210.8</ele>
        <time>2025-11-16T08:13:51.000Z</time>
      </trkpt>
      <trkpt lat="50.28026" lon="4.42453">
        <ele>210.8</ele>
        <time>2025-11-16T08:13:52.000Z</time>
      </trkpt>
      <trkpt lat="50.28026" lon="4.42451">
        <ele>210.9</ele>
        <time>2025-11-16T08:13:53.000Z</time>
      </trkpt>
      <trkpt lat="50.28026" lon="4.42449">
        <ele>211.1</ele>
        <time>2025-11-16T08:13:54.000Z</time>
      </trkpt>
      <trkpt lat="50.28025" lon="4.42448">
        <ele>211.1</ele>
        <time>2025-11-16T08:13:55.000Z</time>
      </trkpt>
      <trkpt lat="50.28024" lon="4.42446">
        <ele>211.1</ele>
        <time>2025-11-16T08:13:56.000Z</time>
      </trkpt>
      <trkpt lat="50.28023" lon="4.42445">
        <ele>211.1</ele>
        <time>2025-11-16T08:13:57.000Z</time>
      </trkpt>
      <trkpt lat="50.28023" lon="4.42443">
        <ele>211.1</ele>
        <time>2025-11-16T08:13:58.000Z</time>
      </trkpt>
      <trkpt lat="50.28022" lon="4.42441">
        <ele>211.2</ele>
        <time>2025-11-16T08:13:59.000Z</time>
      </trkpt>
      <trkpt lat="50.28022" lon="4.4244">
        <ele>211.2</ele>
        <time>2025-11-16T08:14:00.000Z</time>
      </trkpt>
      <trkpt lat="50.28021" lon="4.42439">
        <ele>211.3</ele>
        <time>2025-11-16T08:14:01.000Z</time>
      </trkpt>
      <trkpt lat="50.28021" lon="4.42437">
        <ele>211.3</ele>
        <time>2025-11-16T08:14:02.000Z</time>
      </trkpt>
      <trkpt lat="50.2802" lon="4.42436">
        <ele>211.4</ele>
        <time>2025-11-16T08:14:03.000Z</time>
      </trkpt>
      <trkpt lat="50.2802" lon="4.42434">
        <ele>211.5</ele>
        <time>2025-11-16T08:14:04.000Z</time>
      </trkpt>
      <trkpt lat="50.2802" lon="4.42433">
        <ele>211.6</ele>
        <time>2025-11-16T08:14:05.000Z</time>
      </trkpt>
      <trkpt lat="50.28019" lon="4.42431">
        <ele>211.9</ele>
        <time>2025-11-16T08:14:06.000Z</time>
      </trkpt>
      <trkpt lat="50.28019" lon="4.4243">
        <ele>212.2</ele>
        <time>2025-11-16T08:14:07.000Z</time>
      </trkpt>
      <trkpt lat="50.28019" lon="4.42428">
        <ele>212.5</ele>
        <time>2025-11-16T08:14:08.000Z</time>
      </trkpt>
      <trkpt lat="50.28018" lon="4.42427">
        <ele>212.7</ele>
        <time>2025-11-16T08:14:09.000Z</time>
      </trkpt>
      <trkpt lat="50.28017" lon="4.42426">
        <ele>212.9</ele>
        <time>2025-11-16T08:14:10.000Z</time>
      </trkpt>
      <trkpt lat="50.28017" lon="4.42425">
        <ele>213</ele>
        <time>2025-11-16T08:14:11.000Z</time>
      </trkpt>
      <trkpt lat="50.28016" lon="4.42423">
        <ele>213.1</ele>
        <time>2025-11-16T08:14:12.000Z</time>
      </trkpt>
      <trkpt lat="50.28016" lon="4.42422">
        <ele>213.2</ele>
        <time>2025-11-16T08:14:13.000Z</time>
      </trkpt>
      <trkpt lat="50.28015" lon="4.4242">
        <ele>213.3</ele>
        <time>2025-11-16T08:14:14.000Z</time>
      </trkpt>
      <trkpt lat="50.28015" lon="4.42419">
        <ele>213.3</ele>
        <time>2025-11-16T08:14:15.000Z</time>
      </trkpt>
      <trkpt lat="50.28014" lon="4.42417">
        <ele>213.4</ele>
        <time>2025-11-16T08:14:16.000Z</time>
      </trkpt>
      <trkpt lat="50.28013" lon="4.42416">
        <ele>213.5</ele>
        <time>2025-11-16T08:14:17.000Z</time>
      </trkpt>
      <trkpt lat="50.28013" lon="4.42415">
        <ele>213.7</ele>
        <time>2025-11-16T08:14:18.000Z</time>
      </trkpt>
      <trkpt lat="50.28013" lon="4.42414">
        <ele>213.8</ele>
        <time>2025-11-16T08:14:19.000Z</time>
      </trkpt>
      <trkpt lat="50.28013" lon="4.42412">
        <ele>214</ele>
        <time>2025-11-16T08:14:20.000Z</time>
      </trkpt>
      <trkpt lat="50.28012" lon="4.42411">
        <ele>214.2</ele>
        <time>2025-11-16T08:14:21.000Z</time>
      </trkpt>
      <trkpt lat="50.28012" lon="4.4241">
        <ele>214.3</ele>
        <time>2025-11-16T08:14:22.000Z</time>
      </trkpt>
      <trkpt lat="50.28012" lon="4.42409">
        <ele>214.3</ele>
        <time>2025-11-16T08:14:23.000Z</time>
      </trkpt>
      <trkpt lat="50.28012" lon="4.42408">
        <ele>214.3</ele>
        <time>2025-11-16T08:14:24.000Z</time>
      </trkpt>
      <trkpt lat="50.28011" lon="4.42406">
        <ele>214.4</ele>
        <time>2025-11-16T08:14:25.000Z</time>
      </trkpt>
      <trkpt lat="50.2801" lon="4.42405">
        <ele>214.4</ele>
        <time>2025-11-16T08:14:26.000Z</time>
      </trkpt>
      <trkpt lat="50.28009" lon="4.42403">
        <ele>214.4</ele>
        <time>2025-11-16T08:14:27.000Z</time>
      </trkpt>
      <trkpt lat="50.28008" lon="4.42402">
        <ele>214.4</ele>
        <time>2025-11-16T08:14:28.000Z</time>
      </trkpt>
      <trkpt lat="50.28007" lon="4.424">
        <ele>214.5</ele>
        <time>2025-11-16T08:14:29.000Z</time>
      </trkpt>
      <trkpt lat="50.28007" lon="4.42399">
        <ele>214.7</ele>
        <time>2025-11-16T08:14:30.000Z</time>
      </trkpt>
      <trkpt lat="50.28007" lon="4.42397">
        <ele>214.8</ele>
        <time>2025-11-16T08:14:31.000Z</time>
      </trkpt>
      <trkpt lat="50.28007" lon="4.42395">
        <ele>214.9</ele>
        <time>2025-11-16T08:14:32.000Z</time>
      </trkpt>
      <trkpt lat="50.28006" lon="4.42394">
        <ele>215.1</ele>
        <time>2025-11-16T08:14:33.000Z</time>
      </trkpt>
      <trkpt lat="50.28005" lon="4.42393">
        <ele>215.2</ele>
        <time>2025-11-16T08:14:34.000Z</time>
      </trkpt>
      <trkpt lat="50.28005" lon="4.42391">
        <ele>215.2</ele>
        <time>2025-11-16T08:14:35.000Z</time>
      </trkpt>
      <trkpt lat="50.28005" lon="4.4239">
        <ele>215.3</ele>
        <time>2025-11-16T08:14:36.000Z</time>
      </trkpt>
      <trkpt lat="50.28004" lon="4.42388">
        <ele>215.6</ele>
        <time>2025-11-16T08:14:37.000Z</time>
      </trkpt>
      <trkpt lat="50.28004" lon="4.42385">
        <ele>215.7</ele>
        <time>2025-11-16T08:14:38.000Z</time>
      </trkpt>
      <trkpt lat="50.28003" lon="4.42383">
        <ele>216.1</ele>
        <time>2025-11-16T08:14:39.000Z</time>
      </trkpt>
      <trkpt lat="50.28003" lon="4.42381">
        <ele>216.4</ele>
        <time>2025-11-16T08:14:40.000Z</time>
      </trkpt>
      <trkpt lat="50.28003" lon="4.42379">
        <ele>216.7</ele>
        <time>2025-11-16T08:14:41.000Z</time>
      </trkpt>
      <trkpt lat="50.28002" lon="4.42376">
        <ele>217</ele>
        <time>2025-11-16T08:14:42.000Z</time>
      </trkpt>
      <trkpt lat="50.28001" lon="4.42374">
        <ele>217.2</ele>
        <time>2025-11-16T08:14:43.000Z</time>
      </trkpt>
      <trkpt lat="50.28001" lon="4.42372">
        <ele>217.3</ele>
        <time>2025-11-16T08:14:44.000Z</time>
      </trkpt>
      <trkpt lat="50.28" lon="4.4237">
        <ele>217.3</ele>
        <time>2025-11-16T08:14:45.000Z</time>
      </trkpt>
      <trkpt lat="50.28" lon="4.42368">
        <ele>217.4</ele>
        <time>2025-11-16T08:14:46.000Z</time>
      </trkpt>
      <trkpt lat="50.27999" lon="4.42367">
        <ele>217.3</ele>
        <time>2025-11-16T08:14:47.000Z</time>
      </trkpt>
      <trkpt lat="50.27999" lon="4.42365">
        <ele>217.3</ele>
        <time>2025-11-16T08:14:48.000Z</time>
      </trkpt>
      <trkpt lat="50.27998" lon="4.42364">
        <ele>217.2</ele>
        <time>2025-11-16T08:14:49.000Z</time>
      </trkpt>
      <trkpt lat="50.27997" lon="4.42362">
        <ele>217.2</ele>
        <time>2025-11-16T08:14:50.000Z</time>
      </trkpt>
      <trkpt lat="50.27996" lon="4.42361">
        <ele>217.1</ele>
        <time>2025-11-16T08:14:51.000Z</time>
      </trkpt>
      <trkpt lat="50.27996" lon="4.42359">
        <ele>217.1</ele>
        <time>2025-11-16T08:14:52.000Z</time>
      </trkpt>
      <trkpt lat="50.27995" lon="4.42357">
        <ele>217</ele>
        <time>2025-11-16T08:14:53.000Z</time>
      </trkpt>
      <trkpt lat="50.27994" lon="4.42355">
        <ele>217</ele>
        <time>2025-11-16T08:14:54.000Z</time>
      </trkpt>
      <trkpt lat="50.27993" lon="4.42354">
        <ele>216.9</ele>
        <time>2025-11-16T08:14:55.000Z</time>
      </trkpt>
      <trkpt lat="50.27992" lon="4.42353">
        <ele>216.9</ele>
        <time>2025-11-16T08:14:56.000Z</time>
      </trkpt>
      <trkpt lat="50.27992" lon="4.42351">
        <ele>216.9</ele>
        <time>2025-11-16T08:14:57.000Z</time>
      </trkpt>
      <trkpt lat="50.27991" lon="4.4235">
        <ele>216.9</ele>
        <time>2025-11-16T08:14:58.000Z</time>
      </trkpt>
      <trkpt lat="50.27991" lon="4.42348">
        <ele>216.9</ele>
        <time>2025-11-16T08:14:59.000Z</time>
      </trkpt>
      <trkpt lat="50.27991" lon="4.42347">
        <ele>216.9</ele>
        <time>2025-11-16T08:15:00.000Z</time>
      </trkpt>
      <trkpt lat="50.2799" lon="4.42345">
        <ele>217</ele>
        <time>2025-11-16T08:15:01.000Z</time>
      </trkpt>
      <trkpt lat="50.2799" lon="4.42343">
        <ele>217.1</ele>
        <time>2025-11-16T08:15:02.000Z</time>
      </trkpt>
      <trkpt lat="50.27989" lon="4.42342">
        <ele>217.3</ele>
        <time>2025-11-16T08:15:03.000Z</time>
      </trkpt>
      <trkpt lat="50.27989" lon="4.42341">
        <ele>217.3</ele>
        <time>2025-11-16T08:15:04.000Z</time>
      </trkpt>
      <trkpt lat="50.27988" lon="4.42339">
        <ele>217.3</ele>
        <time>2025-11-16T08:15:05.000Z</time>
      </trkpt>
      <trkpt lat="50.27988" lon="4.42337">
        <ele>217.3</ele>
        <time>2025-11-16T08:15:06.000Z</time>
      </trkpt>
      <trkpt lat="50.27987" lon="4.42336">
        <ele>217.3</ele>
        <time>2025-11-16T08:15:07.000Z</time>
      </trkpt>
      <trkpt lat="50.27986" lon="4.42334">
        <ele>217.3</ele>
        <time>2025-11-16T08:15:08.000Z</time>
      </trkpt>
      <trkpt lat="50.27985" lon="4.42332">
        <ele>217.4</ele>
        <time>2025-11-16T08:15:09.000Z</time>
      </trkpt>
      <trkpt lat="50.27984" lon="4.4233">
        <ele>217.6</ele>
        <time>2025-11-16T08:15:10.000Z</time>
      </trkpt>
      <trkpt lat="50.27984" lon="4.42327">
        <ele>217.8</ele>
        <time>2025-11-16T08:15:11.000Z</time>
      </trkpt>
      <trkpt lat="50.27983" lon="4.42327">
        <ele>217.8</ele>
        <time>2025-11-16T08:15:12.000Z</time>
      </trkpt>
      <trkpt lat="50.27983" lon="4.42326">
        <ele>217.9</ele>
        <time>2025-11-16T08:15:13.000Z</time>
      </trkpt>
      <trkpt lat="50.27983" lon="4.42325">
        <ele>217.8</ele>
        <time>2025-11-16T08:15:14.000Z</time>
      </trkpt>
      <trkpt lat="50.27983" lon="4.42324">
        <ele>217.8</ele>
        <time>2025-11-16T08:15:15.000Z</time>
      </trkpt>
      <trkpt lat="50.27982" lon="4.42322">
        <ele>217.8</ele>
        <time>2025-11-16T08:15:16.000Z</time>
      </trkpt>
      <trkpt lat="50.27982" lon="4.4232">
        <ele>217.9</ele>
        <time>2025-11-16T08:15:17.000Z</time>
      </trkpt>
      <trkpt lat="50.27982" lon="4.42319">
        <ele>217.9</ele>
        <time>2025-11-16T08:15:18.000Z</time>
      </trkpt>
      <trkpt lat="50.27982" lon="4.42317">
        <ele>218</ele>
        <time>2025-11-16T08:15:19.000Z</time>
      </trkpt>
      <trkpt lat="50.27981" lon="4.42316">
        <ele>218.2</ele>
        <time>2025-11-16T08:15:20.000Z</time>
      </trkpt>
      <trkpt lat="50.27981" lon="4.42314">
        <ele>218.3</ele>
        <time>2025-11-16T08:15:21.000Z</time>
      </trkpt>
      <trkpt lat="50.27981" lon="4.42312">
        <ele>218.3</ele>
        <time>2025-11-16T08:15:22.000Z</time>
      </trkpt>
      <trkpt lat="50.2798" lon="4.42311">
        <ele>218.3</ele>
        <time>2025-11-16T08:15:23.000Z</time>
      </trkpt>
      <trkpt lat="50.27979" lon="4.4231">
        <ele>218.3</ele>
        <time>2025-11-16T08:15:24.000Z</time>
      </trkpt>
      <trkpt lat="50.27978" lon="4.42308">
        <ele>218.2</ele>
        <time>2025-11-16T08:15:25.000Z</time>
      </trkpt>
      <trkpt lat="50.27978" lon="4.42306">
        <ele>218.1</ele>
        <time>2025-11-16T08:15:26.000Z</time>
      </trkpt>
      <trkpt lat="50.27977" lon="4.42304">
        <ele>218.1</ele>
        <time>2025-11-16T08:15:27.000Z</time>
      </trkpt>
      <trkpt lat="50.27976" lon="4.42302">
        <ele>218</ele>
        <time>2025-11-16T08:15:28.000Z</time>
      </trkpt>
      <trkpt lat="50.27975" lon="4.423">
        <ele>218</ele>
        <time>2025-11-16T08:15:29.000Z</time>
      </trkpt>
      <trkpt lat="50.27975" lon="4.42297">
        <ele>218</ele>
        <time>2025-11-16T08:15:30.000Z</time>
      </trkpt>
      <trkpt lat="50.27974" lon="4.42295">
        <ele>218.1</ele>
        <time>2025-11-16T08:15:31.000Z</time>
      </trkpt>
      <trkpt lat="50.27974" lon="4.42293">
        <ele>218.3</ele>
        <time>2025-11-16T08:15:32.000Z</time>
      </trkpt>
      <trkpt lat="50.27973" lon="4.4229">
        <ele>218.7</ele>
        <time>2025-11-16T08:15:33.000Z</time>
      </trkpt>
      <trkpt lat="50.27973" lon="4.42288">
        <ele>219</ele>
        <time>2025-11-16T08:15:34.000Z</time>
      </trkpt>
      <trkpt lat="50.27972" lon="4.42286">
        <ele>219.1</ele>
        <time>2025-11-16T08:15:35.000Z</time>
      </trkpt>
      <trkpt lat="50.27971" lon="4.42285">
        <ele>219.1</ele>
        <time>2025-11-16T08:15:36.000Z</time>
      </trkpt>
      <trkpt lat="50.2797" lon="4.42283">
        <ele>219.1</ele>
        <time>2025-11-16T08:15:37.000Z</time>
      </trkpt>
      <trkpt lat="50.27969" lon="4.42281">
        <ele>219</ele>
        <time>2025-11-16T08:15:38.000Z</time>
      </trkpt>
      <trkpt lat="50.27968" lon="4.42279">
        <ele>219</ele>
        <time>2025-11-16T08:15:39.000Z</time>
      </trkpt>
      <trkpt lat="50.27968" lon="4.42278">
        <ele>218.9</ele>
        <time>2025-11-16T08:15:40.000Z</time>
      </trkpt>
      <trkpt lat="50.27967" lon="4.42277">
        <ele>218.9</ele>
        <time>2025-11-16T08:15:41.000Z</time>
      </trkpt>
      <trkpt lat="50.27967" lon="4.42277">
        <ele>218.8</ele>
        <time>2025-11-16T08:15:42.000Z</time>
      </trkpt>
      <trkpt lat="50.27967" lon="4.42275">
        <ele>218.9</ele>
        <time>2025-11-16T08:15:43.000Z</time>
      </trkpt>
      <trkpt lat="50.27966" lon="4.42274">
        <ele>218.9</ele>
        <time>2025-11-16T08:15:44.000Z</time>
      </trkpt>
      <trkpt lat="50.27965" lon="4.42273">
        <ele>218.9</ele>
        <time>2025-11-16T08:15:45.000Z</time>
      </trkpt>
      <trkpt lat="50.27965" lon="4.42272">
        <ele>218.9</ele>
        <time>2025-11-16T08:15:46.000Z</time>
      </trkpt>
      <trkpt lat="50.27964" lon="4.4227">
        <ele>218.9</ele>
        <time>2025-11-16T08:15:47.000Z</time>
      </trkpt>
      <trkpt lat="50.27964" lon="4.42269">
        <ele>218.8</ele>
        <time>2025-11-16T08:15:48.000Z</time>
      </trkpt>
      <trkpt lat="50.27964" lon="4.42267">
        <ele>218.8</ele>
        <time>2025-11-16T08:15:49.000Z</time>
      </trkpt>
      <trkpt lat="50.27963" lon="4.42266">
        <ele>218.7</ele>
        <time>2025-11-16T08:15:50.000Z</time>
      </trkpt>
      <trkpt lat="50.27963" lon="4.42264">
        <ele>219</ele>
        <time>2025-11-16T08:15:51.000Z</time>
      </trkpt>
      <trkpt lat="50.27963" lon="4.42262">
        <ele>219</ele>
        <time>2025-11-16T08:15:52.000Z</time>
      </trkpt>
      <trkpt lat="50.27962" lon="4.4226">
        <ele>219.1</ele>
        <time>2025-11-16T08:15:53.000Z</time>
      </trkpt>
      <trkpt lat="50.27962" lon="4.42258">
        <ele>219.3</ele>
        <time>2025-11-16T08:15:54.000Z</time>
      </trkpt>
      <trkpt lat="50.27962" lon="4.42256">
        <ele>219.4</ele>
        <time>2025-11-16T08:15:55.000Z</time>
      </trkpt>
      <trkpt lat="50.27961" lon="4.42254">
        <ele>219.5</ele>
        <time>2025-11-16T08:15:56.000Z</time>
      </trkpt>
      <trkpt lat="50.2796" lon="4.42252">
        <ele>219.6</ele>
        <time>2025-11-16T08:15:57.000Z</time>
      </trkpt>
      <trkpt lat="50.2796" lon="4.42251">
        <ele>219.6</ele>
        <time>2025-11-16T08:15:58.000Z</time>
      </trkpt>
      <trkpt lat="50.27959" lon="4.42249">
        <ele>219.8</ele>
        <time>2025-11-16T08:15:59.000Z</time>
      </trkpt>
      <trkpt lat="50.27959" lon="4.42248">
        <ele>219.9</ele>
        <time>2025-11-16T08:16:00.000Z</time>
      </trkpt>
      <trkpt lat="50.27958" lon="4.42246">
        <ele>219.9</ele>
        <time>2025-11-16T08:16:01.000Z</time>
      </trkpt>
      <trkpt lat="50.27958" lon="4.42244">
        <ele>219.9</ele>
        <time>2025-11-16T08:16:02.000Z</time>
      </trkpt>
      <trkpt lat="50.27957" lon="4.42242">
        <ele>220</ele>
        <time>2025-11-16T08:16:03.000Z</time>
      </trkpt>
      <trkpt lat="50.27957" lon="4.4224">
        <ele>220</ele>
        <time>2025-11-16T08:16:04.000Z</time>
      </trkpt>
      <trkpt lat="50.27956" lon="4.42238">
        <ele>219.9</ele>
        <time>2025-11-16T08:16:05.000Z</time>
      </trkpt>
      <trkpt lat="50.27956" lon="4.42236">
        <ele>220.2</ele>
        <time>2025-11-16T08:16:06.000Z</time>
      </trkpt>
      <trkpt lat="50.27956" lon="4.42233">
        <ele>220.4</ele>
        <time>2025-11-16T08:16:07.000Z</time>
      </trkpt>
      <trkpt lat="50.27955" lon="4.4223">
        <ele>220.6</ele>
        <time>2025-11-16T08:16:08.000Z</time>
      </trkpt>
      <trkpt lat="50.27955" lon="4.42227">
        <ele>220.9</ele>
        <time>2025-11-16T08:16:09.000Z</time>
      </trkpt>
      <trkpt lat="50.27954" lon="4.42225">
        <ele>221.2</ele>
        <time>2025-11-16T08:16:10.000Z</time>
      </trkpt>
      <trkpt lat="50.27954" lon="4.42223">
        <ele>221.5</ele>
        <time>2025-11-16T08:16:11.000Z</time>
      </trkpt>
      <trkpt lat="50.27953" lon="4.4222">
        <ele>221.7</ele>
        <time>2025-11-16T08:16:12.000Z</time>
      </trkpt>
      <trkpt lat="50.27953" lon="4.42217">
        <ele>222</ele>
        <time>2025-11-16T08:16:13.000Z</time>
      </trkpt>
      <trkpt lat="50.27952" lon="4.42215">
        <ele>222.2</ele>
        <time>2025-11-16T08:16:14.000Z</time>
      </trkpt>
      <trkpt lat="50.27951" lon="4.42213">
        <ele>222.4</ele>
        <time>2025-11-16T08:16:15.000Z</time>
      </trkpt>
      <trkpt lat="50.27951" lon="4.42211">
        <ele>222.7</ele>
        <time>2025-11-16T08:16:16.000Z</time>
      </trkpt>
      <trkpt lat="50.2795" lon="4.42209">
        <ele>222.9</ele>
        <time>2025-11-16T08:16:17.000Z</time>
      </trkpt>
      <trkpt lat="50.2795" lon="4.42207">
        <ele>223.2</ele>
        <time>2025-11-16T08:16:18.000Z</time>
      </trkpt>
      <trkpt lat="50.27949" lon="4.42206">
        <ele>223.6</ele>
        <time>2025-11-16T08:16:19.000Z</time>
      </trkpt>
      <trkpt lat="50.27949" lon="4.42203">
        <ele>223.9</ele>
        <time>2025-11-16T08:16:20.000Z</time>
      </trkpt>
      <trkpt lat="50.27949" lon="4.422">
        <ele>224.2</ele>
        <time>2025-11-16T08:16:21.000Z</time>
      </trkpt>
      <trkpt lat="50.27949" lon="4.42198">
        <ele>224.3</ele>
        <time>2025-11-16T08:16:22.000Z</time>
      </trkpt>
      <trkpt lat="50.27948" lon="4.42195">
        <ele>224.5</ele>
        <time>2025-11-16T08:16:23.000Z</time>
      </trkpt>
      <trkpt lat="50.27948" lon="4.42192">
        <ele>224.7</ele>
        <time>2025-11-16T08:16:24.000Z</time>
      </trkpt>
      <trkpt lat="50.27948" lon="4.4219">
        <ele>224.9</ele>
        <time>2025-11-16T08:16:25.000Z</time>
      </trkpt>
      <trkpt lat="50.27948" lon="4.42187">
        <ele>225.1</ele>
        <time>2025-11-16T08:16:26.000Z</time>
      </trkpt>
      <trkpt lat="50.27948" lon="4.42185">
        <ele>225.2</ele>
        <time>2025-11-16T08:16:27.000Z</time>
      </trkpt>
      <trkpt lat="50.27947" lon="4.42183">
        <ele>225.3</ele>
        <time>2025-11-16T08:16:28.000Z</time>
      </trkpt>
      <trkpt lat="50.27948" lon="4.42182">
        <ele>225.5</ele>
        <time>2025-11-16T08:16:29.000Z</time>
      </trkpt>
      <trkpt lat="50.27948" lon="4.4218">
        <ele>225.6</ele>
        <time>2025-11-16T08:16:30.000Z</time>
      </trkpt>
      <trkpt lat="50.27948" lon="4.42178">
        <ele>225.6</ele>
        <time>2025-11-16T08:16:31.000Z</time>
      </trkpt>
      <trkpt lat="50.27947" lon="4.42176">
        <ele>225.7</ele>
        <time>2025-11-16T08:16:32.000Z</time>
      </trkpt>
      <trkpt lat="50.27947" lon="4.42174">
        <ele>225.9</ele>
        <time>2025-11-16T08:16:33.000Z</time>
      </trkpt>
      <trkpt lat="50.27947" lon="4.42172">
        <ele>226</ele>
        <time>2025-11-16T08:16:34.000Z</time>
      </trkpt>
      <trkpt lat="50.27947" lon="4.4217">
        <ele>226.2</ele>
        <time>2025-11-16T08:16:35.000Z</time>
      </trkpt>
      <trkpt lat="50.27947" lon="4.42168">
        <ele>226.3</ele>
        <time>2025-11-16T08:16:36.000Z</time>
      </trkpt>
      <trkpt lat="50.27947" lon="4.42166">
        <ele>226.4</ele>
        <time>2025-11-16T08:16:37.000Z</time>
      </trkpt>
      <trkpt lat="50.27947" lon="4.42164">
        <ele>226.4</ele>
        <time>2025-11-16T08:16:38.000Z</time>
      </trkpt>
      <trkpt lat="50.27947" lon="4.42163">
        <ele>226.4</ele>
        <time>2025-11-16T08:16:39.000Z</time>
      </trkpt>
      <trkpt lat="50.27947" lon="4.42161">
        <ele>226.5</ele>
        <time>2025-11-16T08:16:40.000Z</time>
      </trkpt>
      <trkpt lat="50.27947" lon="4.42159">
        <ele>226.6</ele>
        <time>2025-11-16T08:16:41.000Z</time>
      </trkpt>
      <trkpt lat="50.27947" lon="4.42157">
        <ele>226.5</ele>
        <time>2025-11-16T08:16:42.000Z</time>
      </trkpt>
      <trkpt lat="50.27947" lon="4.42155">
        <ele>226.6</ele>
        <time>2025-11-16T08:16:43.000Z</time>
      </trkpt>
      <trkpt lat="50.27947" lon="4.42153">
        <ele>226.7</ele>
        <time>2025-11-16T08:16:44.000Z</time>
      </trkpt>
      <trkpt lat="50.27947" lon="4.42152">
        <ele>226.9</ele>
        <time>2025-11-16T08:16:45.000Z</time>
      </trkpt>
      <trkpt lat="50.27947" lon="4.4215">
        <ele>227.1</ele>
        <time>2025-11-16T08:16:46.000Z</time>
      </trkpt>
      <trkpt lat="50.27946" lon="4.42148">
        <ele>227.3</ele>
        <time>2025-11-16T08:16:47.000Z</time>
      </trkpt>
      <trkpt lat="50.27946" lon="4.42146">
        <ele>227.4</ele>
        <time>2025-11-16T08:16:48.000Z</time>
      </trkpt>
      <trkpt lat="50.27946" lon="4.42143">
        <ele>227.4</ele>
        <time>2025-11-16T08:16:49.000Z</time>
      </trkpt>
      <trkpt lat="50.27946" lon="4.42141">
        <ele>227.7</ele>
        <time>2025-11-16T08:16:50.000Z</time>
      </trkpt>
      <trkpt lat="50.27945" lon="4.42139">
        <ele>227.2</ele>
        <time>2025-11-16T08:16:51.000Z</time>
      </trkpt>
      <trkpt lat="50.27945" lon="4.42138">
        <ele>226.7</ele>
        <time>2025-11-16T08:16:52.000Z</time>
      </trkpt>
      <trkpt lat="50.27944" lon="4.42136">
        <ele>226.1</ele>
        <time>2025-11-16T08:16:53.000Z</time>
      </trkpt>
      <trkpt lat="50.27944" lon="4.42132">
        <ele>226.5</ele>
        <time>2025-11-16T08:16:54.000Z</time>
      </trkpt>
      <trkpt lat="50.27945" lon="4.4213">
        <ele>225.7</ele>
        <time>2025-11-16T08:16:55.000Z</time>
      </trkpt>
      <trkpt lat="50.27945" lon="4.42127">
        <ele>225.1</ele>
        <time>2025-11-16T08:16:56.000Z</time>
      </trkpt>
      <trkpt lat="50.27944" lon="4.42125">
        <ele>224.9</ele>
        <time>2025-11-16T08:16:57.000Z</time>
      </trkpt>
      <trkpt lat="50.27944" lon="4.42123">
        <ele>224.9</ele>
        <time>2025-11-16T08:16:58.000Z</time>
      </trkpt>
      <trkpt lat="50.27944" lon="4.42122">
        <ele>224.8</ele>
        <time>2025-11-16T08:16:59.000Z</time>
      </trkpt>
      <trkpt lat="50.27945" lon="4.4212">
        <ele>224.8</ele>
        <time>2025-11-16T08:17:00.000Z</time>
      </trkpt>
      <trkpt lat="50.27944" lon="4.42117">
        <ele>225</ele>
        <time>2025-11-16T08:17:01.000Z</time>
      </trkpt>
      <trkpt lat="50.27944" lon="4.42117">
        <ele>224.8</ele>
        <time>2025-11-16T08:17:02.000Z</time>
      </trkpt>
      <trkpt lat="50.27945" lon="4.42116">
        <ele>225.1</ele>
        <time>2025-11-16T08:17:03.000Z</time>
      </trkpt>
      <trkpt lat="50.27944" lon="4.42114">
        <ele>225.6</ele>
        <time>2025-11-16T08:17:04.000Z</time>
      </trkpt>
      <trkpt lat="50.27945" lon="4.42111">
        <ele>225.7</ele>
        <time>2025-11-16T08:17:05.000Z</time>
      </trkpt>
      <trkpt lat="50.27944" lon="4.42109">
        <ele>226.2</ele>
        <time>2025-11-16T08:17:06.000Z</time>
      </trkpt>
      <trkpt lat="50.27945" lon="4.42107">
        <ele>226.6</ele>
        <time>2025-11-16T08:17:07.000Z</time>
      </trkpt>
      <trkpt lat="50.27944" lon="4.42105">
        <ele>226.6</ele>
        <time>2025-11-16T08:17:08.000Z</time>
      </trkpt>
      <trkpt lat="50.27944" lon="4.42104">
        <ele>227</ele>
        <time>2025-11-16T08:17:09.000Z</time>
      </trkpt>
      <trkpt lat="50.27944" lon="4.42103">
        <ele>227.2</ele>
        <time>2025-11-16T08:17:10.000Z</time>
      </trkpt>
      <trkpt lat="50.27944" lon="4.42101">
        <ele>227.5</ele>
        <time>2025-11-16T08:17:11.000Z</time>
      </trkpt>
      <trkpt lat="50.27944" lon="4.42099">
        <ele>228</ele>
        <time>2025-11-16T08:17:12.000Z</time>
      </trkpt>
      <trkpt lat="50.27944" lon="4.42097">
        <ele>228.2</ele>
        <time>2025-11-16T08:17:13.000Z</time>
      </trkpt>
      <trkpt lat="50.27944" lon="4.42095">
        <ele>228.5</ele>
        <time>2025-11-16T08:17:14.000Z</time>
      </trkpt>
      <trkpt lat="50.27944" lon="4.42094">
        <ele>228.7</ele>
        <time>2025-11-16T08:17:15.000Z</time>
      </trkpt>
      <trkpt lat="50.27944" lon="4.42092">
        <ele>228.7</ele>
        <time>2025-11-16T08:17:16.000Z</time>
      </trkpt>
      <trkpt lat="50.27945" lon="4.4209">
        <ele>228.7</ele>
        <time>2025-11-16T08:17:17.000Z</time>
      </trkpt>
      <trkpt lat="50.27945" lon="4.42087">
        <ele>228.6</ele>
        <time>2025-11-16T08:17:18.000Z</time>
      </trkpt>
      <trkpt lat="50.27945" lon="4.42085">
        <ele>228.8</ele>
        <time>2025-11-16T08:17:19.000Z</time>
      </trkpt>
      <trkpt lat="50.27945" lon="4.42083">
        <ele>228.8</ele>
        <time>2025-11-16T08:17:20.000Z</time>
      </trkpt>
      <trkpt lat="50.27945" lon="4.42081">
        <ele>228.8</ele>
        <time>2025-11-16T08:17:21.000Z</time>
      </trkpt>
      <trkpt lat="50.27945" lon="4.42079">
        <ele>229</ele>
        <time>2025-11-16T08:17:22.000Z</time>
      </trkpt>
      <trkpt lat="50.27945" lon="4.42077">
        <ele>229.4</ele>
        <time>2025-11-16T08:17:23.000Z</time>
      </trkpt>
      <trkpt lat="50.27946" lon="4.42075">
        <ele>229.6</ele>
        <time>2025-11-16T08:17:24.000Z</time>
      </trkpt>
      <trkpt lat="50.27947" lon="4.42073">
        <ele>229.5</ele>
        <time>2025-11-16T08:17:25.000Z</time>
      </trkpt>
      <trkpt lat="50.27947" lon="4.42072">
        <ele>229.2</ele>
        <time>2025-11-16T08:17:26.000Z</time>
      </trkpt>
      <trkpt lat="50.27948" lon="4.4207">
        <ele>229</ele>
        <time>2025-11-16T08:17:27.000Z</time>
      </trkpt>
      <trkpt lat="50.27948" lon="4.42069">
        <ele>228.7</ele>
        <time>2025-11-16T08:17:28.000Z</time>
      </trkpt>
      <trkpt lat="50.27948" lon="4.42067">
        <ele>228.3</ele>
        <time>2025-11-16T08:17:29.000Z</time>
      </trkpt>
      <trkpt lat="50.27947" lon="4.42065">
        <ele>228.2</ele>
        <time>2025-11-16T08:17:30.000Z</time>
      </trkpt>
      <trkpt lat="50.27947" lon="4.42063">
        <ele>228</ele>
        <time>2025-11-16T08:17:31.000Z</time>
      </trkpt>
      <trkpt lat="50.27947" lon="4.42061">
        <ele>227.9</ele>
        <time>2025-11-16T08:17:32.000Z</time>
      </trkpt>
      <trkpt lat="50.27947" lon="4.42059">
        <ele>227.7</ele>
        <time>2025-11-16T08:17:33.000Z</time>
      </trkpt>
      <trkpt lat="50.27947" lon="4.42057">
        <ele>227.4</ele>
        <time>2025-11-16T08:17:34.000Z</time>
      </trkpt>
      <trkpt lat="50.27947" lon="4.42055">
        <ele>226.8</ele>
        <time>2025-11-16T08:17:35.000Z</time>
      </trkpt>
      <trkpt lat="50.27947" lon="4.42053">
        <ele>226.4</ele>
        <time>2025-11-16T08:17:36.000Z</time>
      </trkpt>
      <trkpt lat="50.27947" lon="4.4205">
        <ele>226.2</ele>
        <time>2025-11-16T08:17:37.000Z</time>
      </trkpt>
      <trkpt lat="50.27947" lon="4.42047">
        <ele>226</ele>
        <time>2025-11-16T08:17:38.000Z</time>
      </trkpt>
      <trkpt lat="50.27947" lon="4.42045">
        <ele>226</ele>
        <time>2025-11-16T08:17:39.000Z</time>
      </trkpt>
      <trkpt lat="50.27947" lon="4.42044">
        <ele>226</ele>
        <time>2025-11-16T08:17:40.000Z</time>
      </trkpt>
      <trkpt lat="50.27947" lon="4.42042">
        <ele>225.9</ele>
        <time>2025-11-16T08:17:41.000Z</time>
      </trkpt>
      <trkpt lat="50.27948" lon="4.42041">
        <ele>225.9</ele>
        <time>2025-11-16T08:17:42.000Z</time>
      </trkpt>
      <trkpt lat="50.27948" lon="4.4204">
        <ele>225.8</ele>
        <time>2025-11-16T08:17:43.000Z</time>
      </trkpt>
      <trkpt lat="50.27948" lon="4.42038">
        <ele>225.7</ele>
        <time>2025-11-16T08:17:44.000Z</time>
      </trkpt>
      <trkpt lat="50.27948" lon="4.42036">
        <ele>225.7</ele>
        <time>2025-11-16T08:17:45.000Z</time>
      </trkpt>
      <trkpt lat="50.27948" lon="4.42035">
        <ele>225.5</ele>
        <time>2025-11-16T08:17:46.000Z</time>
      </trkpt>
      <trkpt lat="50.27948" lon="4.42033">
        <ele>225.5</ele>
        <time>2025-11-16T08:17:47.000Z</time>
      </trkpt>
      <trkpt lat="50.27948" lon="4.42031">
        <ele>225.4</ele>
        <time>2025-11-16T08:17:48.000Z</time>
      </trkpt>
      <trkpt lat="50.27948" lon="4.4203">
        <ele>225.4</ele>
        <time>2025-11-16T08:17:49.000Z</time>
      </trkpt>
      <trkpt lat="50.27948" lon="4.42029">
        <ele>225.4</ele>
        <time>2025-11-16T08:17:50.000Z</time>
      </trkpt>
      <trkpt lat="50.27949" lon="4.42027">
        <ele>225.4</ele>
        <time>2025-11-16T08:17:51.000Z</time>
      </trkpt>
      <trkpt lat="50.27949" lon="4.42025">
        <ele>225.3</ele>
        <time>2025-11-16T08:17:52.000Z</time>
      </trkpt>
      <trkpt lat="50.27949" lon="4.42023">
        <ele>225.2</ele>
        <time>2025-11-16T08:17:53.000Z</time>
      </trkpt>
      <trkpt lat="50.27949" lon="4.42021">
        <ele>225</ele>
        <time>2025-11-16T08:17:54.000Z</time>
      </trkpt>
      <trkpt lat="50.27949" lon="4.4202">
        <ele>224.8</ele>
        <time>2025-11-16T08:17:55.000Z</time>
      </trkpt>
      <trkpt lat="50.27949" lon="4.4202">
        <ele>224.5</ele>
        <time>2025-11-16T08:17:56.000Z</time>
      </trkpt>
      <trkpt lat="50.27949" lon="4.42018">
        <ele>224.3</ele>
        <time>2025-11-16T08:17:57.000Z</time>
      </trkpt>
      <trkpt lat="50.27948" lon="4.42018">
        <ele>224</ele>
        <time>2025-11-16T08:17:58.000Z</time>
      </trkpt>
      <trkpt lat="50.27948" lon="4.42017">
        <ele>223.6</ele>
        <time>2025-11-16T08:17:59.000Z</time>
      </trkpt>
      <trkpt lat="50.27948" lon="4.42016">
        <ele>223.2</ele>
        <time>2025-11-16T08:18:00.000Z</time>
      </trkpt>
      <trkpt lat="50.27948" lon="4.42014">
        <ele>222.9</ele>
        <time>2025-11-16T08:18:01.000Z</time>
      </trkpt>
      <trkpt lat="50.27948" lon="4.42012">
        <ele>222.8</ele>
        <time>2025-11-16T08:18:02.000Z</time>
      </trkpt>
      <trkpt lat="50.27948" lon="4.4201">
        <ele>222.7</ele>
        <time>2025-11-16T08:18:03.000Z</time>
      </trkpt>
      <trkpt lat="50.27948" lon="4.42008">
        <ele>222.7</ele>
        <time>2025-11-16T08:18:04.000Z</time>
      </trkpt>
      <trkpt lat="50.27948" lon="4.42006">
        <ele>222.7</ele>
        <time>2025-11-16T08:18:05.000Z</time>
      </trkpt>
      <trkpt lat="50.27949" lon="4.42004">
        <ele>222.7</ele>
        <time>2025-11-16T08:18:06.000Z</time>
      </trkpt>
      <trkpt lat="50.27949" lon="4.42002">
        <ele>222.7</ele>
        <time>2025-11-16T08:18:07.000Z</time>
      </trkpt>
      <trkpt lat="50.27949" lon="4.42">
        <ele>222.6</ele>
        <time>2025-11-16T08:18:08.000Z</time>
      </trkpt>
      <trkpt lat="50.27949" lon="4.41998">
        <ele>222.5</ele>
        <time>2025-11-16T08:18:09.000Z</time>
      </trkpt>
      <trkpt lat="50.2795" lon="4.41996">
        <ele>222.4</ele>
        <time>2025-11-16T08:18:10.000Z</time>
      </trkpt>
      <trkpt lat="50.2795" lon="4.41994">
        <ele>222.4</ele>
        <time>2025-11-16T08:18:11.000Z</time>
      </trkpt>
      <trkpt lat="50.2795" lon="4.41993">
        <ele>222.2</ele>
        <time>2025-11-16T08:18:12.000Z</time>
      </trkpt>
      <trkpt lat="50.27951" lon="4.41991">
        <ele>221.9</ele>
        <time>2025-11-16T08:18:13.000Z</time>
      </trkpt>
      <trkpt lat="50.27951" lon="4.4199">
        <ele>221.8</ele>
        <time>2025-11-16T08:18:14.000Z</time>
      </trkpt>
      <trkpt lat="50.27951" lon="4.41989">
        <ele>221.9</ele>
        <time>2025-11-16T08:18:15.000Z</time>
      </trkpt>
      <trkpt lat="50.27951" lon="4.41988">
        <ele>221.9</ele>
        <time>2025-11-16T08:18:16.000Z</time>
      </trkpt>
      <trkpt lat="50.27951" lon="4.41986">
        <ele>221.9</ele>
        <time>2025-11-16T08:18:17.000Z</time>
      </trkpt>
      <trkpt lat="50.27952" lon="4.41985">
        <ele>222</ele>
        <time>2025-11-16T08:18:18.000Z</time>
      </trkpt>
      <trkpt lat="50.27953" lon="4.41983">
        <ele>222.1</ele>
        <time>2025-11-16T08:18:19.000Z</time>
      </trkpt>
      <trkpt lat="50.27953" lon="4.41981">
        <ele>222.3</ele>
        <time>2025-11-16T08:18:20.000Z</time>
      </trkpt>
      <trkpt lat="50.27953" lon="4.4198">
        <ele>222.4</ele>
        <time>2025-11-16T08:18:21.000Z</time>
      </trkpt>
      <trkpt lat="50.27954" lon="4.41978">
        <ele>222.5</ele>
        <time>2025-11-16T08:18:22.000Z</time>
      </trkpt>
      <trkpt lat="50.27954" lon="4.41977">
        <ele>222.6</ele>
        <time>2025-11-16T08:18:23.000Z</time>
      </trkpt>
      <trkpt lat="50.27954" lon="4.41974">
        <ele>222.9</ele>
        <time>2025-11-16T08:18:24.000Z</time>
      </trkpt>
      <trkpt lat="50.27953" lon="4.41971">
        <ele>223</ele>
        <time>2025-11-16T08:18:25.000Z</time>
      </trkpt>
      <trkpt lat="50.27953" lon="4.41968">
        <ele>223.1</ele>
        <time>2025-11-16T08:18:26.000Z</time>
      </trkpt>
      <trkpt lat="50.27953" lon="4.41966">
        <ele>223.1</ele>
        <time>2025-11-16T08:18:27.000Z</time>
      </trkpt>
      <trkpt lat="50.27952" lon="4.41964">
        <ele>223.1</ele>
        <time>2025-11-16T08:18:28.000Z</time>
      </trkpt>
      <trkpt lat="50.27952" lon="4.41962">
        <ele>223.1</ele>
        <time>2025-11-16T08:18:29.000Z</time>
      </trkpt>
      <trkpt lat="50.27953" lon="4.4196">
        <ele>223.1</ele>
        <time>2025-11-16T08:18:30.000Z</time>
      </trkpt>
      <trkpt lat="50.27953" lon="4.41958">
        <ele>223.2</ele>
        <time>2025-11-16T08:18:31.000Z</time>
      </trkpt>
      <trkpt lat="50.27954" lon="4.41956">
        <ele>223.3</ele>
        <time>2025-11-16T08:18:32.000Z</time>
      </trkpt>
      <trkpt lat="50.27954" lon="4.41954">
        <ele>223.5</ele>
        <time>2025-11-16T08:18:33.000Z</time>
      </trkpt>
      <trkpt lat="50.27954" lon="4.41952">
        <ele>223.6</ele>
        <time>2025-11-16T08:18:34.000Z</time>
      </trkpt>
      <trkpt lat="50.27954" lon="4.4195">
        <ele>223.8</ele>
        <time>2025-11-16T08:18:35.000Z</time>
      </trkpt>
      <trkpt lat="50.27954" lon="4.41948">
        <ele>223.9</ele>
        <time>2025-11-16T08:18:36.000Z</time>
      </trkpt>
      <trkpt lat="50.27955" lon="4.41946">
        <ele>224.1</ele>
        <time>2025-11-16T08:18:37.000Z</time>
      </trkpt>
      <trkpt lat="50.27955" lon="4.41943">
        <ele>224.3</ele>
        <time>2025-11-16T08:18:38.000Z</time>
      </trkpt>
      <trkpt lat="50.27955" lon="4.41942">
        <ele>224.5</ele>
        <time>2025-11-16T08:18:39.000Z</time>
      </trkpt>
      <trkpt lat="50.27955" lon="4.4194">
        <ele>224.7</ele>
        <time>2025-11-16T08:18:40.000Z</time>
      </trkpt>
      <trkpt lat="50.27954" lon="4.41938">
        <ele>224.8</ele>
        <time>2025-11-16T08:18:41.000Z</time>
      </trkpt>
      <trkpt lat="50.27954" lon="4.41936">
        <ele>225</ele>
        <time>2025-11-16T08:18:42.000Z</time>
      </trkpt>
      <trkpt lat="50.27954" lon="4.41934">
        <ele>225.3</ele>
        <time>2025-11-16T08:18:43.000Z</time>
      </trkpt>
      <trkpt lat="50.27954" lon="4.41932">
        <ele>225.5</ele>
        <time>2025-11-16T08:18:44.000Z</time>
      </trkpt>
      <trkpt lat="50.27954" lon="4.4193">
        <ele>225.8</ele>
        <time>2025-11-16T08:18:45.000Z</time>
      </trkpt>
      <trkpt lat="50.27954" lon="4.41928">
        <ele>226.2</ele>
        <time>2025-11-16T08:18:46.000Z</time>
      </trkpt>
      <trkpt lat="50.27954" lon="4.41926">
        <ele>226.5</ele>
        <time>2025-11-16T08:18:47.000Z</time>
      </trkpt>
      <trkpt lat="50.27954" lon="4.41925">
        <ele>226.8</ele>
        <time>2025-11-16T08:18:48.000Z</time>
      </trkpt>
      <trkpt lat="50.27954" lon="4.41923">
        <ele>227</ele>
        <time>2025-11-16T08:18:49.000Z</time>
      </trkpt>
      <trkpt lat="50.27955" lon="4.41921">
        <ele>227.2</ele>
        <time>2025-11-16T08:18:50.000Z</time>
      </trkpt>
      <trkpt lat="50.27955" lon="4.4192">
        <ele>227.2</ele>
        <time>2025-11-16T08:18:51.000Z</time>
      </trkpt>
      <trkpt lat="50.27955" lon="4.41919">
        <ele>227.4</ele>
        <time>2025-11-16T08:18:52.000Z</time>
      </trkpt>
      <trkpt lat="50.27956" lon="4.41917">
        <ele>227.5</ele>
        <time>2025-11-16T08:18:53.000Z</time>
      </trkpt>
      <trkpt lat="50.27957" lon="4.41916">
        <ele>227.5</ele>
        <time>2025-11-16T08:18:54.000Z</time>
      </trkpt>
      <trkpt lat="50.27957" lon="4.41914">
        <ele>227.6</ele>
        <time>2025-11-16T08:18:55.000Z</time>
      </trkpt>
      <trkpt lat="50.27958" lon="4.41913">
        <ele>227.7</ele>
        <time>2025-11-16T08:18:56.000Z</time>
      </trkpt>
      <trkpt lat="50.27958" lon="4.41911">
        <ele>227.9</ele>
        <time>2025-11-16T08:18:57.000Z</time>
      </trkpt>
      <trkpt lat="50.27958" lon="4.41909">
        <ele>228</ele>
        <time>2025-11-16T08:18:58.000Z</time>
      </trkpt>
      <trkpt lat="50.27959" lon="4.41908">
        <ele>228.1</ele>
        <time>2025-11-16T08:18:59.000Z</time>
      </trkpt>
      <trkpt lat="50.27958" lon="4.41907">
        <ele>228.1</ele>
        <time>2025-11-16T08:19:00.000Z</time>
      </trkpt>
      <trkpt lat="50.27958" lon="4.41906">
        <ele>228.1</ele>
        <time>2025-11-16T08:19:01.000Z</time>
      </trkpt>
      <trkpt lat="50.27959" lon="4.41905">
        <ele>228.1</ele>
        <time>2025-11-16T08:19:02.000Z</time>
      </trkpt>
      <trkpt lat="50.27959" lon="4.41903">
        <ele>228</ele>
        <time>2025-11-16T08:19:03.000Z</time>
      </trkpt>
      <trkpt lat="50.27959" lon="4.41902">
        <ele>228</ele>
        <time>2025-11-16T08:19:04.000Z</time>
      </trkpt>
      <trkpt lat="50.27959" lon="4.419">
        <ele>228</ele>
        <time>2025-11-16T08:19:05.000Z</time>
      </trkpt>
      <trkpt lat="50.27959" lon="4.41898">
        <ele>228.1</ele>
        <time>2025-11-16T08:19:06.000Z</time>
      </trkpt>
      <trkpt lat="50.2796" lon="4.41896">
        <ele>228</ele>
        <time>2025-11-16T08:19:07.000Z</time>
      </trkpt>
      <trkpt lat="50.2796" lon="4.41894">
        <ele>228</ele>
        <time>2025-11-16T08:19:08.000Z</time>
      </trkpt>
      <trkpt lat="50.2796" lon="4.41892">
        <ele>228</ele>
        <time>2025-11-16T08:19:09.000Z</time>
      </trkpt>
      <trkpt lat="50.27961" lon="4.4189">
        <ele>228.1</ele>
        <time>2025-11-16T08:19:10.000Z</time>
      </trkpt>
      <trkpt lat="50.27961" lon="4.41888">
        <ele>227.9</ele>
        <time>2025-11-16T08:19:11.000Z</time>
      </trkpt>
      <trkpt lat="50.27962" lon="4.41887">
        <ele>227.8</ele>
        <time>2025-11-16T08:19:12.000Z</time>
      </trkpt>
      <trkpt lat="50.27963" lon="4.41885">
        <ele>227.7</ele>
        <time>2025-11-16T08:19:13.000Z</time>
      </trkpt>
      <trkpt lat="50.27963" lon="4.41884">
        <ele>227.5</ele>
        <time>2025-11-16T08:19:14.000Z</time>
      </trkpt>
      <trkpt lat="50.27963" lon="4.41882">
        <ele>227.5</ele>
        <time>2025-11-16T08:19:15.000Z</time>
      </trkpt>
      <trkpt lat="50.27964" lon="4.4188">
        <ele>227.5</ele>
        <time>2025-11-16T08:19:16.000Z</time>
      </trkpt>
      <trkpt lat="50.27964" lon="4.41878">
        <ele>227.4</ele>
        <time>2025-11-16T08:19:17.000Z</time>
      </trkpt>
      <trkpt lat="50.27964" lon="4.41876">
        <ele>227.4</ele>
        <time>2025-11-16T08:19:18.000Z</time>
      </trkpt>
      <trkpt lat="50.27965" lon="4.41874">
        <ele>227.3</ele>
        <time>2025-11-16T08:19:19.000Z</time>
      </trkpt>
      <trkpt lat="50.27965" lon="4.41871">
        <ele>227.3</ele>
        <time>2025-11-16T08:19:20.000Z</time>
      </trkpt>
      <trkpt lat="50.27965" lon="4.41868">
        <ele>227.2</ele>
        <time>2025-11-16T08:19:21.000Z</time>
      </trkpt>
      <trkpt lat="50.27966" lon="4.41866">
        <ele>227.1</ele>
        <time>2025-11-16T08:19:22.000Z</time>
      </trkpt>
      <trkpt lat="50.27966" lon="4.41864">
        <ele>227</ele>
        <time>2025-11-16T08:19:23.000Z</time>
      </trkpt>
      <trkpt lat="50.27967" lon="4.41862">
        <ele>226.8</ele>
        <time>2025-11-16T08:19:24.000Z</time>
      </trkpt>
      <trkpt lat="50.27967" lon="4.4186">
        <ele>226.6</ele>
        <time>2025-11-16T08:19:25.000Z</time>
      </trkpt>
      <trkpt lat="50.27966" lon="4.41858">
        <ele>226.4</ele>
        <time>2025-11-16T08:19:26.000Z</time>
      </trkpt>
      <trkpt lat="50.27966" lon="4.41857">
        <ele>226.2</ele>
        <time>2025-11-16T08:19:27.000Z</time>
      </trkpt>
      <trkpt lat="50.27967" lon="4.41855">
        <ele>226</ele>
        <time>2025-11-16T08:19:28.000Z</time>
      </trkpt>
      <trkpt lat="50.27967" lon="4.41854">
        <ele>225.7</ele>
        <time>2025-11-16T08:19:29.000Z</time>
      </trkpt>
      <trkpt lat="50.27966" lon="4.41852">
        <ele>225.5</ele>
        <time>2025-11-16T08:19:30.000Z</time>
      </trkpt>
      <trkpt lat="50.27966" lon="4.4185">
        <ele>225.2</ele>
        <time>2025-11-16T08:19:31.000Z</time>
      </trkpt>
      <trkpt lat="50.27965" lon="4.41848">
        <ele>225</ele>
        <time>2025-11-16T08:19:32.000Z</time>
      </trkpt>
      <trkpt lat="50.27965" lon="4.41847">
        <ele>224.8</ele>
        <time>2025-11-16T08:19:33.000Z</time>
      </trkpt>
      <trkpt lat="50.27965" lon="4.41845">
        <ele>224.5</ele>
        <time>2025-11-16T08:19:34.000Z</time>
      </trkpt>
      <trkpt lat="50.27965" lon="4.41844">
        <ele>224.4</ele>
        <time>2025-11-16T08:19:35.000Z</time>
      </trkpt>
      <trkpt lat="50.27964" lon="4.41842">
        <ele>224.3</ele>
        <time>2025-11-16T08:19:36.000Z</time>
      </trkpt>
      <trkpt lat="50.27964" lon="4.41841">
        <ele>224.2</ele>
        <time>2025-11-16T08:19:37.000Z</time>
      </trkpt>
      <trkpt lat="50.27965" lon="4.41839">
        <ele>224.2</ele>
        <time>2025-11-16T08:19:38.000Z</time>
      </trkpt>
      <trkpt lat="50.27964" lon="4.41837">
        <ele>224</ele>
        <time>2025-11-16T08:19:39.000Z</time>
      </trkpt>
      <trkpt lat="50.27964" lon="4.41836">
        <ele>223.9</ele>
        <time>2025-11-16T08:19:40.000Z</time>
      </trkpt>
      <trkpt lat="50.27964" lon="4.41834">
        <ele>223.8</ele>
        <time>2025-11-16T08:19:41.000Z</time>
      </trkpt>
      <trkpt lat="50.27964" lon="4.41833">
        <ele>223.9</ele>
        <time>2025-11-16T08:19:42.000Z</time>
      </trkpt>
      <trkpt lat="50.27963" lon="4.41832">
        <ele>223.9</ele>
        <time>2025-11-16T08:19:43.000Z</time>
      </trkpt>
      <trkpt lat="50.27963" lon="4.41831">
        <ele>224</ele>
        <time>2025-11-16T08:19:44.000Z</time>
      </trkpt>
      <trkpt lat="50.27962" lon="4.4183">
        <ele>224</ele>
        <time>2025-11-16T08:19:45.000Z</time>
      </trkpt>
      <trkpt lat="50.27961" lon="4.41829">
        <ele>224</ele>
        <time>2025-11-16T08:19:46.000Z</time>
      </trkpt>
      <trkpt lat="50.2796" lon="4.41827">
        <ele>223.9</ele>
        <time>2025-11-16T08:19:47.000Z</time>
      </trkpt>
      <trkpt lat="50.27959" lon="4.41825">
        <ele>223.8</ele>
        <time>2025-11-16T08:19:48.000Z</time>
      </trkpt>
      <trkpt lat="50.27957" lon="4.41824">
        <ele>223.6</ele>
        <time>2025-11-16T08:19:49.000Z</time>
      </trkpt>
      <trkpt lat="50.27956" lon="4.41822">
        <ele>223.3</ele>
        <time>2025-11-16T08:19:50.000Z</time>
      </trkpt>
      <trkpt lat="50.27954" lon="4.41821">
        <ele>222.9</ele>
        <time>2025-11-16T08:19:51.000Z</time>
      </trkpt>
      <trkpt lat="50.27953" lon="4.41819">
        <ele>222.7</ele>
        <time>2025-11-16T08:19:52.000Z</time>
      </trkpt>
      <trkpt lat="50.27952" lon="4.41817">
        <ele>222.5</ele>
        <time>2025-11-16T08:19:53.000Z</time>
      </trkpt>
      <trkpt lat="50.2795" lon="4.41816">
        <ele>222.2</ele>
        <time>2025-11-16T08:19:54.000Z</time>
      </trkpt>
      <trkpt lat="50.2795" lon="4.41814">
        <ele>221.9</ele>
        <time>2025-11-16T08:19:55.000Z</time>
      </trkpt>
      <trkpt lat="50.27949" lon="4.41812">
        <ele>221.8</ele>
        <time>2025-11-16T08:19:56.000Z</time>
      </trkpt>
      <trkpt lat="50.27948" lon="4.41811">
        <ele>221.6</ele>
        <time>2025-11-16T08:19:57.000Z</time>
      </trkpt>
      <trkpt lat="50.27947" lon="4.41809">
        <ele>221.5</ele>
        <time>2025-11-16T08:19:58.000Z</time>
      </trkpt>
      <trkpt lat="50.27945" lon="4.41808">
        <ele>221.3</ele>
        <time>2025-11-16T08:19:59.000Z</time>
      </trkpt>
      <trkpt lat="50.27944" lon="4.41806">
        <ele>221</ele>
        <time>2025-11-16T08:20:00.000Z</time>
      </trkpt>
      <trkpt lat="50.27943" lon="4.41805">
        <ele>220.9</ele>
        <time>2025-11-16T08:20:01.000Z</time>
      </trkpt>
      <trkpt lat="50.27942" lon="4.41804">
        <ele>220.7</ele>
        <time>2025-11-16T08:20:02.000Z</time>
      </trkpt>
      <trkpt lat="50.27941" lon="4.41802">
        <ele>220.5</ele>
        <time>2025-11-16T08:20:03.000Z</time>
      </trkpt>
      <trkpt lat="50.27939" lon="4.41801">
        <ele>220.4</ele>
        <time>2025-11-16T08:20:04.000Z</time>
      </trkpt>
      <trkpt lat="50.27938" lon="4.41799">
        <ele>220.2</ele>
        <time>2025-11-16T08:20:05.000Z</time>
      </trkpt>
      <trkpt lat="50.27937" lon="4.41797">
        <ele>220.1</ele>
        <time>2025-11-16T08:20:06.000Z</time>
      </trkpt>
      <trkpt lat="50.27935" lon="4.41796">
        <ele>219.9</ele>
        <time>2025-11-16T08:20:07.000Z</time>
      </trkpt>
      <trkpt lat="50.27934" lon="4.41794">
        <ele>219.9</ele>
        <time>2025-11-16T08:20:08.000Z</time>
      </trkpt>
      <trkpt lat="50.27933" lon="4.41792">
        <ele>219.9</ele>
        <time>2025-11-16T08:20:09.000Z</time>
      </trkpt>
      <trkpt lat="50.27932" lon="4.4179">
        <ele>219.9</ele>
        <time>2025-11-16T08:20:10.000Z</time>
      </trkpt>
      <trkpt lat="50.27931" lon="4.41789">
        <ele>219.9</ele>
        <time>2025-11-16T08:20:11.000Z</time>
      </trkpt>
      <trkpt lat="50.2793" lon="4.41787">
        <ele>219.9</ele>
        <time>2025-11-16T08:20:12.000Z</time>
      </trkpt>
      <trkpt lat="50.27928" lon="4.41786">
        <ele>220</ele>
        <time>2025-11-16T08:20:13.000Z</time>
      </trkpt>
      <trkpt lat="50.27927" lon="4.41785">
        <ele>220</ele>
        <time>2025-11-16T08:20:14.000Z</time>
      </trkpt>
      <trkpt lat="50.27926" lon="4.41784">
        <ele>220</ele>
        <time>2025-11-16T08:20:15.000Z</time>
      </trkpt>
      <trkpt lat="50.27925" lon="4.41783">
        <ele>220</ele>
        <time>2025-11-16T08:20:16.000Z</time>
      </trkpt>
      <trkpt lat="50.27924" lon="4.41781">
        <ele>219.9</ele>
        <time>2025-11-16T08:20:17.000Z</time>
      </trkpt>
      <trkpt lat="50.27922" lon="4.4178">
        <ele>220</ele>
        <time>2025-11-16T08:20:18.000Z</time>
      </trkpt>
      <trkpt lat="50.27921" lon="4.41779">
        <ele>220.1</ele>
        <time>2025-11-16T08:20:19.000Z</time>
      </trkpt>
      <trkpt lat="50.2792" lon="4.41777">
        <ele>220.1</ele>
        <time>2025-11-16T08:20:20.000Z</time>
      </trkpt>
      <trkpt lat="50.27919" lon="4.41775">
        <ele>220.2</ele>
        <time>2025-11-16T08:20:21.000Z</time>
      </trkpt>
      <trkpt lat="50.27917" lon="4.41774">
        <ele>220.1</ele>
        <time>2025-11-16T08:20:22.000Z</time>
      </trkpt>
      <trkpt lat="50.27916" lon="4.41774">
        <ele>220.3</ele>
        <time>2025-11-16T08:20:23.000Z</time>
      </trkpt>
      <trkpt lat="50.27915" lon="4.41772">
        <ele>220.3</ele>
        <time>2025-11-16T08:20:24.000Z</time>
      </trkpt>
      <trkpt lat="50.27914" lon="4.41771">
        <ele>220.4</ele>
        <time>2025-11-16T08:20:25.000Z</time>
      </trkpt>
      <trkpt lat="50.27913" lon="4.4177">
        <ele>220.3</ele>
        <time>2025-11-16T08:20:26.000Z</time>
      </trkpt>
      <trkpt lat="50.27913" lon="4.41768">
        <ele>219.6</ele>
        <time>2025-11-16T08:20:27.000Z</time>
      </trkpt>
      <trkpt lat="50.27913" lon="4.41766">
        <ele>219.2</ele>
        <time>2025-11-16T08:20:28.000Z</time>
      </trkpt>
      <trkpt lat="50.27912" lon="4.41764">
        <ele>218.7</ele>
        <time>2025-11-16T08:20:29.000Z</time>
      </trkpt>
      <trkpt lat="50.27911" lon="4.41763">
        <ele>218.8</ele>
        <time>2025-11-16T08:20:30.000Z</time>
      </trkpt>
      <trkpt lat="50.2791" lon="4.41762">
        <ele>218.9</ele>
        <time>2025-11-16T08:20:31.000Z</time>
      </trkpt>
      <trkpt lat="50.27909" lon="4.41761">
        <ele>218.8</ele>
        <time>2025-11-16T08:20:32.000Z</time>
      </trkpt>
      <trkpt lat="50.27908" lon="4.4176">
        <ele>218.9</ele>
        <time>2025-11-16T08:20:33.000Z</time>
      </trkpt>
      <trkpt lat="50.27907" lon="4.41759">
        <ele>219</ele>
        <time>2025-11-16T08:20:34.000Z</time>
      </trkpt>
      <trkpt lat="50.27905" lon="4.41757">
        <ele>219.1</ele>
        <time>2025-11-16T08:20:35.000Z</time>
      </trkpt>
      <trkpt lat="50.27904" lon="4.41755">
        <ele>219.2</ele>
        <time>2025-11-16T08:20:36.000Z</time>
      </trkpt>
      <trkpt lat="50.27903" lon="4.41753">
        <ele>219.4</ele>
        <time>2025-11-16T08:20:37.000Z</time>
      </trkpt>
      <trkpt lat="50.27902" lon="4.41751">
        <ele>219.8</ele>
        <time>2025-11-16T08:20:38.000Z</time>
      </trkpt>
      <trkpt lat="50.27901" lon="4.41748">
        <ele>220.1</ele>
        <time>2025-11-16T08:20:39.000Z</time>
      </trkpt>
      <trkpt lat="50.279" lon="4.41745">
        <ele>220.5</ele>
        <time>2025-11-16T08:20:40.000Z</time>
      </trkpt>
      <trkpt lat="50.27898" lon="4.41743">
        <ele>220.9</ele>
        <time>2025-11-16T08:20:41.000Z</time>
      </trkpt>
      <trkpt lat="50.27897" lon="4.4174">
        <ele>221.5</ele>
        <time>2025-11-16T08:20:42.000Z</time>
      </trkpt>
      <trkpt lat="50.27896" lon="4.41737">
        <ele>221.8</ele>
        <time>2025-11-16T08:20:43.000Z</time>
      </trkpt>
      <trkpt lat="50.27895" lon="4.41736">
        <ele>222.3</ele>
        <time>2025-11-16T08:20:44.000Z</time>
      </trkpt>
      <trkpt lat="50.27893" lon="4.41734">
        <ele>222.8</ele>
        <time>2025-11-16T08:20:45.000Z</time>
      </trkpt>
      <trkpt lat="50.27892" lon="4.41732">
        <ele>223.4</ele>
        <time>2025-11-16T08:20:46.000Z</time>
      </trkpt>
      <trkpt lat="50.27892" lon="4.4173">
        <ele>223.8</ele>
        <time>2025-11-16T08:20:47.000Z</time>
      </trkpt>
      <trkpt lat="50.27891" lon="4.41729">
        <ele>224.2</ele>
        <time>2025-11-16T08:20:48.000Z</time>
      </trkpt>
      <trkpt lat="50.27891" lon="4.41727">
        <ele>224.2</ele>
        <time>2025-11-16T08:20:49.000Z</time>
      </trkpt>
      <trkpt lat="50.2789" lon="4.41725">
        <ele>224.2</ele>
        <time>2025-11-16T08:20:50.000Z</time>
      </trkpt>
      <trkpt lat="50.27888" lon="4.41723">
        <ele>224.1</ele>
        <time>2025-11-16T08:20:51.000Z</time>
      </trkpt>
      <trkpt lat="50.27886" lon="4.41721">
        <ele>223.7</ele>
        <time>2025-11-16T08:20:52.000Z</time>
      </trkpt>
      <trkpt lat="50.27885" lon="4.41719">
        <ele>223.1</ele>
        <time>2025-11-16T08:20:53.000Z</time>
      </trkpt>
      <trkpt lat="50.27884" lon="4.41717">
        <ele>222.8</ele>
        <time>2025-11-16T08:20:54.000Z</time>
      </trkpt>
      <trkpt lat="50.27883" lon="4.41716">
        <ele>222.7</ele>
        <time>2025-11-16T08:20:55.000Z</time>
      </trkpt>
      <trkpt lat="50.27882" lon="4.41714">
        <ele>222.6</ele>
        <time>2025-11-16T08:20:56.000Z</time>
      </trkpt>
      <trkpt lat="50.27881" lon="4.41712">
        <ele>222.6</ele>
        <time>2025-11-16T08:20:57.000Z</time>
      </trkpt>
      <trkpt lat="50.2788" lon="4.4171">
        <ele>222.7</ele>
        <time>2025-11-16T08:20:58.000Z</time>
      </trkpt>
      <trkpt lat="50.27879" lon="4.41708">
        <ele>222.8</ele>
        <time>2025-11-16T08:20:59.000Z</time>
      </trkpt>
      <trkpt lat="50.27878" lon="4.41707">
        <ele>222.9</ele>
        <time>2025-11-16T08:21:00.000Z</time>
      </trkpt>
      <trkpt lat="50.27877" lon="4.41706">
        <ele>222.9</ele>
        <time>2025-11-16T08:21:01.000Z</time>
      </trkpt>
      <trkpt lat="50.27877" lon="4.41704">
        <ele>223</ele>
        <time>2025-11-16T08:21:02.000Z</time>
      </trkpt>
      <trkpt lat="50.27877" lon="4.41703">
        <ele>223.2</ele>
        <time>2025-11-16T08:21:03.000Z</time>
      </trkpt>
      <trkpt lat="50.27876" lon="4.41701">
        <ele>223.3</ele>
        <time>2025-11-16T08:21:04.000Z</time>
      </trkpt>
      <trkpt lat="50.27875" lon="4.41699">
        <ele>223.2</ele>
        <time>2025-11-16T08:21:05.000Z</time>
      </trkpt>
      <trkpt lat="50.27874" lon="4.41697">
        <ele>223.2</ele>
        <time>2025-11-16T08:21:06.000Z</time>
      </trkpt>
      <trkpt lat="50.27873" lon="4.41695">
        <ele>223.1</ele>
        <time>2025-11-16T08:21:07.000Z</time>
      </trkpt>
      <trkpt lat="50.27872" lon="4.41693">
        <ele>223.2</ele>
        <time>2025-11-16T08:21:08.000Z</time>
      </trkpt>
      <trkpt lat="50.27871" lon="4.41692">
        <ele>222.9</ele>
        <time>2025-11-16T08:21:09.000Z</time>
      </trkpt>
      <trkpt lat="50.2787" lon="4.4169">
        <ele>222.6</ele>
        <time>2025-11-16T08:21:10.000Z</time>
      </trkpt>
      <trkpt lat="50.27869" lon="4.41688">
        <ele>222.2</ele>
        <time>2025-11-16T08:21:11.000Z</time>
      </trkpt>
      <trkpt lat="50.27868" lon="4.41686">
        <ele>222.6</ele>
        <time>2025-11-16T08:21:12.000Z</time>
      </trkpt>
      <trkpt lat="50.27868" lon="4.41685">
        <ele>222.6</ele>
        <time>2025-11-16T08:21:13.000Z</time>
      </trkpt>
      <trkpt lat="50.27867" lon="4.41683">
        <ele>222.8</ele>
        <time>2025-11-16T08:21:14.000Z</time>
      </trkpt>
      <trkpt lat="50.27866" lon="4.4168">
        <ele>222.7</ele>
        <time>2025-11-16T08:21:15.000Z</time>
      </trkpt>
      <trkpt lat="50.27866" lon="4.41678">
        <ele>223.3</ele>
        <time>2025-11-16T08:21:16.000Z</time>
      </trkpt>
      <trkpt lat="50.27866" lon="4.41676">
        <ele>222.8</ele>
        <time>2025-11-16T08:21:17.000Z</time>
      </trkpt>
      <trkpt lat="50.27866" lon="4.41675">
        <ele>222.7</ele>
        <time>2025-11-16T08:21:18.000Z</time>
      </trkpt>
      <trkpt lat="50.27865" lon="4.41672">
        <ele>223</ele>
        <time>2025-11-16T08:21:19.000Z</time>
      </trkpt>
      <trkpt lat="50.27865" lon="4.4167">
        <ele>223.1</ele>
        <time>2025-11-16T08:21:20.000Z</time>
      </trkpt>
      <trkpt lat="50.27864" lon="4.41668">
        <ele>223.3</ele>
        <time>2025-11-16T08:21:21.000Z</time>
      </trkpt>
      <trkpt lat="50.27863" lon="4.41666">
        <ele>223.3</ele>
        <time>2025-11-16T08:21:22.000Z</time>
      </trkpt>
      <trkpt lat="50.27863" lon="4.41663">
        <ele>222.7</ele>
        <time>2025-11-16T08:21:23.000Z</time>
      </trkpt>
      <trkpt lat="50.27861" lon="4.41661">
        <ele>222.2</ele>
        <time>2025-11-16T08:21:24.000Z</time>
      </trkpt>
      <trkpt lat="50.27861" lon="4.41659">
        <ele>222.3</ele>
        <time>2025-11-16T08:21:25.000Z</time>
      </trkpt>
      <trkpt lat="50.27861" lon="4.41657">
        <ele>222.4</ele>
        <time>2025-11-16T08:21:26.000Z</time>
      </trkpt>
      <trkpt lat="50.27861" lon="4.41655">
        <ele>222.3</ele>
        <time>2025-11-16T08:21:27.000Z</time>
      </trkpt>
      <trkpt lat="50.27861" lon="4.41653">
        <ele>222.4</ele>
        <time>2025-11-16T08:21:28.000Z</time>
      </trkpt>
      <trkpt lat="50.27861" lon="4.41651">
        <ele>222.2</ele>
        <time>2025-11-16T08:21:29.000Z</time>
      </trkpt>
      <trkpt lat="50.27862" lon="4.41649">
        <ele>222</ele>
        <time>2025-11-16T08:21:30.000Z</time>
      </trkpt>
      <trkpt lat="50.27862" lon="4.41649">
        <ele>221.7</ele>
        <time>2025-11-16T08:21:31.000Z</time>
      </trkpt>
      <trkpt lat="50.27861" lon="4.4165">
        <ele>221.6</ele>
        <time>2025-11-16T08:21:32.000Z</time>
      </trkpt>
      <trkpt lat="50.27861" lon="4.41648">
        <ele>221.7</ele>
        <time>2025-11-16T08:21:33.000Z</time>
      </trkpt>
      <trkpt lat="50.2786" lon="4.41646">
        <ele>221.6</ele>
        <time>2025-11-16T08:21:34.000Z</time>
      </trkpt>
      <trkpt lat="50.2786" lon="4.41643">
        <ele>221.4</ele>
        <time>2025-11-16T08:21:35.000Z</time>
      </trkpt>
      <trkpt lat="50.2786" lon="4.41641">
        <ele>221.4</ele>
        <time>2025-11-16T08:21:36.000Z</time>
      </trkpt>
      <trkpt lat="50.2786" lon="4.41639">
        <ele>221.2</ele>
        <time>2025-11-16T08:21:37.000Z</time>
      </trkpt>
      <trkpt lat="50.2786" lon="4.41637">
        <ele>221</ele>
        <time>2025-11-16T08:21:38.000Z</time>
      </trkpt>
      <trkpt lat="50.2786" lon="4.41635">
        <ele>220.7</ele>
        <time>2025-11-16T08:21:39.000Z</time>
      </trkpt>
      <trkpt lat="50.2786" lon="4.41634">
        <ele>220.5</ele>
        <time>2025-11-16T08:21:40.000Z</time>
      </trkpt>
      <trkpt lat="50.2786" lon="4.41632">
        <ele>220.2</ele>
        <time>2025-11-16T08:21:41.000Z</time>
      </trkpt>
      <trkpt lat="50.27861" lon="4.4163">
        <ele>219.9</ele>
        <time>2025-11-16T08:21:42.000Z</time>
      </trkpt>
      <trkpt lat="50.2786" lon="4.41627">
        <ele>219.8</ele>
        <time>2025-11-16T08:21:43.000Z</time>
      </trkpt>
      <trkpt lat="50.2786" lon="4.41626">
        <ele>219.5</ele>
        <time>2025-11-16T08:21:44.000Z</time>
      </trkpt>
      <trkpt lat="50.2786" lon="4.41624">
        <ele>219.4</ele>
        <time>2025-11-16T08:21:45.000Z</time>
      </trkpt>
      <trkpt lat="50.2786" lon="4.41623">
        <ele>219.1</ele>
        <time>2025-11-16T08:21:46.000Z</time>
      </trkpt>
      <trkpt lat="50.27859" lon="4.41621">
        <ele>219.1</ele>
        <time>2025-11-16T08:21:47.000Z</time>
      </trkpt>
      <trkpt lat="50.27859" lon="4.41619">
        <ele>218.9</ele>
        <time>2025-11-16T08:21:48.000Z</time>
      </trkpt>
      <trkpt lat="50.27859" lon="4.41615">
        <ele>219.2</ele>
        <time>2025-11-16T08:21:49.000Z</time>
      </trkpt>
      <trkpt lat="50.27859" lon="4.41613">
        <ele>219.2</ele>
        <time>2025-11-16T08:21:50.000Z</time>
      </trkpt>
      <trkpt lat="50.27859" lon="4.4161">
        <ele>218.9</ele>
        <time>2025-11-16T08:21:51.000Z</time>
      </trkpt>
      <trkpt lat="50.27859" lon="4.41607">
        <ele>218.9</ele>
        <time>2025-11-16T08:21:52.000Z</time>
      </trkpt>
      <trkpt lat="50.27859" lon="4.41604">
        <ele>219.5</ele>
        <time>2025-11-16T08:21:53.000Z</time>
      </trkpt>
      <trkpt lat="50.27859" lon="4.41603">
        <ele>219.7</ele>
        <time>2025-11-16T08:21:54.000Z</time>
      </trkpt>
      <trkpt lat="50.27859" lon="4.41602">
        <ele>219.6</ele>
        <time>2025-11-16T08:21:55.000Z</time>
      </trkpt>
      <trkpt lat="50.27858" lon="4.41601">
        <ele>218.8</ele>
        <time>2025-11-16T08:21:56.000Z</time>
      </trkpt>
      <trkpt lat="50.27858" lon="4.41599">
        <ele>218.4</ele>
        <time>2025-11-16T08:21:57.000Z</time>
      </trkpt>
      <trkpt lat="50.27857" lon="4.41596">
        <ele>218.1</ele>
        <time>2025-11-16T08:21:58.000Z</time>
      </trkpt>
      <trkpt lat="50.27857" lon="4.41594">
        <ele>217.7</ele>
        <time>2025-11-16T08:21:59.000Z</time>
      </trkpt>
      <trkpt lat="50.27856" lon="4.41591">
        <ele>217.3</ele>
        <time>2025-11-16T08:22:00.000Z</time>
      </trkpt>
      <trkpt lat="50.27856" lon="4.41588">
        <ele>217</ele>
        <time>2025-11-16T08:22:01.000Z</time>
      </trkpt>
      <trkpt lat="50.27855" lon="4.41585">
        <ele>216.6</ele>
        <time>2025-11-16T08:22:02.000Z</time>
      </trkpt>
      <trkpt lat="50.27855" lon="4.41583">
        <ele>216.4</ele>
        <time>2025-11-16T08:22:03.000Z</time>
      </trkpt>
      <trkpt lat="50.27855" lon="4.41581">
        <ele>216.1</ele>
        <time>2025-11-16T08:22:04.000Z</time>
      </trkpt>
      <trkpt lat="50.27855" lon="4.41579">
        <ele>215.9</ele>
        <time>2025-11-16T08:22:05.000Z</time>
      </trkpt>
      <trkpt lat="50.27854" lon="4.41577">
        <ele>215.7</ele>
        <time>2025-11-16T08:22:06.000Z</time>
      </trkpt>
      <trkpt lat="50.27854" lon="4.41574">
        <ele>215.3</ele>
        <time>2025-11-16T08:22:07.000Z</time>
      </trkpt>
      <trkpt lat="50.27854" lon="4.41572">
        <ele>215.2</ele>
        <time>2025-11-16T08:22:08.000Z</time>
      </trkpt>
      <trkpt lat="50.27853" lon="4.41571">
        <ele>214.9</ele>
        <time>2025-11-16T08:22:09.000Z</time>
      </trkpt>
      <trkpt lat="50.27853" lon="4.41569">
        <ele>214.8</ele>
        <time>2025-11-16T08:22:10.000Z</time>
      </trkpt>
      <trkpt lat="50.27853" lon="4.41567">
        <ele>214.5</ele>
        <time>2025-11-16T08:22:11.000Z</time>
      </trkpt>
      <trkpt lat="50.27853" lon="4.41565">
        <ele>214.4</ele>
        <time>2025-11-16T08:22:12.000Z</time>
      </trkpt>
      <trkpt lat="50.27853" lon="4.41563">
        <ele>214.4</ele>
        <time>2025-11-16T08:22:13.000Z</time>
      </trkpt>
      <trkpt lat="50.27853" lon="4.41562">
        <ele>214.3</ele>
        <time>2025-11-16T08:22:14.000Z</time>
      </trkpt>
      <trkpt lat="50.27852" lon="4.4156">
        <ele>214.1</ele>
        <time>2025-11-16T08:22:15.000Z</time>
      </trkpt>
      <trkpt lat="50.27852" lon="4.41559">
        <ele>213.9</ele>
        <time>2025-11-16T08:22:16.000Z</time>
      </trkpt>
      <trkpt lat="50.27853" lon="4.41557">
        <ele>213.7</ele>
        <time>2025-11-16T08:22:17.000Z</time>
      </trkpt>
      <trkpt lat="50.27853" lon="4.41556">
        <ele>213.4</ele>
        <time>2025-11-16T08:22:18.000Z</time>
      </trkpt>
      <trkpt lat="50.27854" lon="4.41555">
        <ele>213.2</ele>
        <time>2025-11-16T08:22:19.000Z</time>
      </trkpt>
      <trkpt lat="50.27854" lon="4.41553">
        <ele>213</ele>
        <time>2025-11-16T08:22:20.000Z</time>
      </trkpt>
      <trkpt lat="50.27855" lon="4.41551">
        <ele>212.7</ele>
        <time>2025-11-16T08:22:21.000Z</time>
      </trkpt>
      <trkpt lat="50.27855" lon="4.41549">
        <ele>212.5</ele>
        <time>2025-11-16T08:22:22.000Z</time>
      </trkpt>
      <trkpt lat="50.27855" lon="4.41548">
        <ele>212.2</ele>
        <time>2025-11-16T08:22:23.000Z</time>
      </trkpt>
      <trkpt lat="50.27855" lon="4.41546">
        <ele>211.9</ele>
        <time>2025-11-16T08:22:24.000Z</time>
      </trkpt>
      <trkpt lat="50.27856" lon="4.41545">
        <ele>211.6</ele>
        <time>2025-11-16T08:22:25.000Z</time>
      </trkpt>
      <trkpt lat="50.27856" lon="4.41543">
        <ele>211.4</ele>
        <time>2025-11-16T08:22:26.000Z</time>
      </trkpt>
      <trkpt lat="50.27855" lon="4.41541">
        <ele>211.3</ele>
        <time>2025-11-16T08:22:27.000Z</time>
      </trkpt>
      <trkpt lat="50.27855" lon="4.41538">
        <ele>211.1</ele>
        <time>2025-11-16T08:22:28.000Z</time>
      </trkpt>
      <trkpt lat="50.27855" lon="4.41536">
        <ele>210.9</ele>
        <time>2025-11-16T08:22:29.000Z</time>
      </trkpt>
      <trkpt lat="50.27853" lon="4.41533">
        <ele>211.6</ele>
        <time>2025-11-16T08:22:30.000Z</time>
      </trkpt>
      <trkpt lat="50.27853" lon="4.4153">
        <ele>212.4</ele>
        <time>2025-11-16T08:22:31.000Z</time>
      </trkpt>
      <trkpt lat="50.27852" lon="4.41529">
        <ele>212.9</ele>
        <time>2025-11-16T08:22:32.000Z</time>
      </trkpt>
      <trkpt lat="50.27852" lon="4.41528">
        <ele>213.2</ele>
        <time>2025-11-16T08:22:33.000Z</time>
      </trkpt>
      <trkpt lat="50.27853" lon="4.41527">
        <ele>213.5</ele>
        <time>2025-11-16T08:22:34.000Z</time>
      </trkpt>
      <trkpt lat="50.27852" lon="4.41525">
        <ele>213.7</ele>
        <time>2025-11-16T08:22:35.000Z</time>
      </trkpt>
      <trkpt lat="50.27852" lon="4.41523">
        <ele>213.8</ele>
        <time>2025-11-16T08:22:36.000Z</time>
      </trkpt>
      <trkpt lat="50.27852" lon="4.4152">
        <ele>214</ele>
        <time>2025-11-16T08:22:37.000Z</time>
      </trkpt>
      <trkpt lat="50.27851" lon="4.41518">
        <ele>214.2</ele>
        <time>2025-11-16T08:22:38.000Z</time>
      </trkpt>
      <trkpt lat="50.27851" lon="4.41516">
        <ele>214.5</ele>
        <time>2025-11-16T08:22:39.000Z</time>
      </trkpt>
      <trkpt lat="50.27851" lon="4.41514">
        <ele>214.9</ele>
        <time>2025-11-16T08:22:40.000Z</time>
      </trkpt>
      <trkpt lat="50.27851" lon="4.41514">
        <ele>214.7</ele>
        <time>2025-11-16T08:22:41.000Z</time>
      </trkpt>
      <trkpt lat="50.27851" lon="4.41511">
        <ele>214.8</ele>
        <time>2025-11-16T08:22:42.000Z</time>
      </trkpt>
      <trkpt lat="50.2785" lon="4.41509">
        <ele>214.7</ele>
        <time>2025-11-16T08:22:43.000Z</time>
      </trkpt>
      <trkpt lat="50.2785" lon="4.41507">
        <ele>214.5</ele>
        <time>2025-11-16T08:22:44.000Z</time>
      </trkpt>
      <trkpt lat="50.2785" lon="4.41505">
        <ele>214.5</ele>
        <time>2025-11-16T08:22:45.000Z</time>
      </trkpt>
      <trkpt lat="50.27849" lon="4.41502">
        <ele>214.6</ele>
        <time>2025-11-16T08:22:46.000Z</time>
      </trkpt>
      <trkpt lat="50.27849" lon="4.41499">
        <ele>214.8</ele>
        <time>2025-11-16T08:22:47.000Z</time>
      </trkpt>
      <trkpt lat="50.27848" lon="4.41495">
        <ele>215</ele>
        <time>2025-11-16T08:22:48.000Z</time>
      </trkpt>
      <trkpt lat="50.27847" lon="4.41492">
        <ele>215.2</ele>
        <time>2025-11-16T08:22:49.000Z</time>
      </trkpt>
      <trkpt lat="50.27847" lon="4.41493">
        <ele>214.9</ele>
        <time>2025-11-16T08:22:50.000Z</time>
      </trkpt>
      <trkpt lat="50.27847" lon="4.4149">
        <ele>215</ele>
        <time>2025-11-16T08:22:51.000Z</time>
      </trkpt>
      <trkpt lat="50.27846" lon="4.41489">
        <ele>214.9</ele>
        <time>2025-11-16T08:22:52.000Z</time>
      </trkpt>
      <trkpt lat="50.27846" lon="4.41489">
        <ele>214.6</ele>
        <time>2025-11-16T08:22:53.000Z</time>
      </trkpt>
      <trkpt lat="50.27845" lon="4.41486">
        <ele>214.6</ele>
        <time>2025-11-16T08:22:54.000Z</time>
      </trkpt>
      <trkpt lat="50.27845" lon="4.41485">
        <ele>214.6</ele>
        <time>2025-11-16T08:22:55.000Z</time>
      </trkpt>
      <trkpt lat="50.27845" lon="4.41483">
        <ele>214.4</ele>
        <time>2025-11-16T08:22:56.000Z</time>
      </trkpt>
      <trkpt lat="50.27845" lon="4.41481">
        <ele>214.5</ele>
        <time>2025-11-16T08:22:57.000Z</time>
      </trkpt>
      <trkpt lat="50.27845" lon="4.4148">
        <ele>214.4</ele>
        <time>2025-11-16T08:22:58.000Z</time>
      </trkpt>
      <trkpt lat="50.27844" lon="4.41477">
        <ele>214.4</ele>
        <time>2025-11-16T08:22:59.000Z</time>
      </trkpt>
      <trkpt lat="50.27843" lon="4.41474">
        <ele>214.4</ele>
        <time>2025-11-16T08:23:00.000Z</time>
      </trkpt>
      <trkpt lat="50.27842" lon="4.41471">
        <ele>214.4</ele>
        <time>2025-11-16T08:23:01.000Z</time>
      </trkpt>
      <trkpt lat="50.27841" lon="4.41468">
        <ele>214.4</ele>
        <time>2025-11-16T08:23:02.000Z</time>
      </trkpt>
      <trkpt lat="50.27839" lon="4.41466">
        <ele>214.3</ele>
        <time>2025-11-16T08:23:03.000Z</time>
      </trkpt>
      <trkpt lat="50.27838" lon="4.41464">
        <ele>214.3</ele>
        <time>2025-11-16T08:23:04.000Z</time>
      </trkpt>
      <trkpt lat="50.27837" lon="4.41461">
        <ele>214.6</ele>
        <time>2025-11-16T08:23:05.000Z</time>
      </trkpt>
      <trkpt lat="50.27836" lon="4.41458">
        <ele>214.9</ele>
        <time>2025-11-16T08:23:06.000Z</time>
      </trkpt>
      <trkpt lat="50.27836" lon="4.41455">
        <ele>215.2</ele>
        <time>2025-11-16T08:23:07.000Z</time>
      </trkpt>
      <trkpt lat="50.27835" lon="4.41453">
        <ele>215.7</ele>
        <time>2025-11-16T08:23:08.000Z</time>
      </trkpt>
      <trkpt lat="50.27834" lon="4.4145">
        <ele>216</ele>
        <time>2025-11-16T08:23:09.000Z</time>
      </trkpt>
      <trkpt lat="50.27833" lon="4.41448">
        <ele>216.1</ele>
        <time>2025-11-16T08:23:10.000Z</time>
      </trkpt>
      <trkpt lat="50.27832" lon="4.41445">
        <ele>216.3</ele>
        <time>2025-11-16T08:23:11.000Z</time>
      </trkpt>
      <trkpt lat="50.27832" lon="4.41444">
        <ele>216.3</ele>
        <time>2025-11-16T08:23:12.000Z</time>
      </trkpt>
      <trkpt lat="50.27831" lon="4.41442">
        <ele>216.7</ele>
        <time>2025-11-16T08:23:13.000Z</time>
      </trkpt>
      <trkpt lat="50.27829" lon="4.41439">
        <ele>217</ele>
        <time>2025-11-16T08:23:14.000Z</time>
      </trkpt>
      <trkpt lat="50.27828" lon="4.41437">
        <ele>217.1</ele>
        <time>2025-11-16T08:23:15.000Z</time>
      </trkpt>
      <trkpt lat="50.27827" lon="4.41436">
        <ele>217</ele>
        <time>2025-11-16T08:23:16.000Z</time>
      </trkpt>
      <trkpt lat="50.27826" lon="4.41434">
        <ele>217</ele>
        <time>2025-11-16T08:23:17.000Z</time>
      </trkpt>
      <trkpt lat="50.27825" lon="4.41433">
        <ele>217</ele>
        <time>2025-11-16T08:23:18.000Z</time>
      </trkpt>
      <trkpt lat="50.27825" lon="4.41431">
        <ele>216.8</ele>
        <time>2025-11-16T08:23:19.000Z</time>
      </trkpt>
      <trkpt lat="50.27824" lon="4.41431">
        <ele>216.7</ele>
        <time>2025-11-16T08:23:20.000Z</time>
      </trkpt>
      <trkpt lat="50.27824" lon="4.4143">
        <ele>216.5</ele>
        <time>2025-11-16T08:23:21.000Z</time>
      </trkpt>
      <trkpt lat="50.27823" lon="4.41429">
        <ele>216.4</ele>
        <time>2025-11-16T08:23:22.000Z</time>
      </trkpt>
      <trkpt lat="50.27822" lon="4.41427">
        <ele>216.3</ele>
        <time>2025-11-16T08:23:23.000Z</time>
      </trkpt>
      <trkpt lat="50.27821" lon="4.41425">
        <ele>216.2</ele>
        <time>2025-11-16T08:23:24.000Z</time>
      </trkpt>
      <trkpt lat="50.2782" lon="4.41423">
        <ele>216.2</ele>
        <time>2025-11-16T08:23:25.000Z</time>
      </trkpt>
      <trkpt lat="50.2782" lon="4.41421">
        <ele>216.1</ele>
        <time>2025-11-16T08:23:26.000Z</time>
      </trkpt>
      <trkpt lat="50.27819" lon="4.41419">
        <ele>216</ele>
        <time>2025-11-16T08:23:27.000Z</time>
      </trkpt>
      <trkpt lat="50.27818" lon="4.41417">
        <ele>215.8</ele>
        <time>2025-11-16T08:23:28.000Z</time>
      </trkpt>
      <trkpt lat="50.27817" lon="4.41414">
        <ele>215.8</ele>
        <time>2025-11-16T08:23:29.000Z</time>
      </trkpt>
      <trkpt lat="50.27816" lon="4.41412">
        <ele>215.6</ele>
        <time>2025-11-16T08:23:30.000Z</time>
      </trkpt>
      <trkpt lat="50.27815" lon="4.4141">
        <ele>215.4</ele>
        <time>2025-11-16T08:23:31.000Z</time>
      </trkpt>
      <trkpt lat="50.27814" lon="4.41408">
        <ele>215.1</ele>
        <time>2025-11-16T08:23:32.000Z</time>
      </trkpt>
      <trkpt lat="50.27813" lon="4.41406">
        <ele>215</ele>
        <time>2025-11-16T08:23:33.000Z</time>
      </trkpt>
      <trkpt lat="50.27812" lon="4.41404">
        <ele>214.8</ele>
        <time>2025-11-16T08:23:34.000Z</time>
      </trkpt>
      <trkpt lat="50.27812" lon="4.41402">
        <ele>214.7</ele>
        <time>2025-11-16T08:23:35.000Z</time>
      </trkpt>
      <trkpt lat="50.27811" lon="4.414">
        <ele>214.6</ele>
        <time>2025-11-16T08:23:36.000Z</time>
      </trkpt>
      <trkpt lat="50.27811" lon="4.41397">
        <ele>214.7</ele>
        <time>2025-11-16T08:23:37.000Z</time>
      </trkpt>
      <trkpt lat="50.2781" lon="4.41395">
        <ele>214.5</ele>
        <time>2025-11-16T08:23:38.000Z</time>
      </trkpt>
      <trkpt lat="50.2781" lon="4.41393">
        <ele>214.3</ele>
        <time>2025-11-16T08:23:39.000Z</time>
      </trkpt>
      <trkpt lat="50.27809" lon="4.4139">
        <ele>214.4</ele>
        <time>2025-11-16T08:23:40.000Z</time>
      </trkpt>
      <trkpt lat="50.27809" lon="4.41388">
        <ele>214.2</ele>
        <time>2025-11-16T08:23:41.000Z</time>
      </trkpt>
      <trkpt lat="50.27808" lon="4.41386">
        <ele>214.1</ele>
        <time>2025-11-16T08:23:42.000Z</time>
      </trkpt>
      <trkpt lat="50.27808" lon="4.41383">
        <ele>214</ele>
        <time>2025-11-16T08:23:43.000Z</time>
      </trkpt>
      <trkpt lat="50.27807" lon="4.41381">
        <ele>214</ele>
        <time>2025-11-16T08:23:44.000Z</time>
      </trkpt>
      <trkpt lat="50.27807" lon="4.41379">
        <ele>213.9</ele>
        <time>2025-11-16T08:23:45.000Z</time>
      </trkpt>
      <trkpt lat="50.27806" lon="4.41378">
        <ele>213.8</ele>
        <time>2025-11-16T08:23:46.000Z</time>
      </trkpt>
      <trkpt lat="50.27805" lon="4.41376">
        <ele>213.7</ele>
        <time>2025-11-16T08:23:47.000Z</time>
      </trkpt>
      <trkpt lat="50.27805" lon="4.41374">
        <ele>213.6</ele>
        <time>2025-11-16T08:23:48.000Z</time>
      </trkpt>
      <trkpt lat="50.27804" lon="4.41373">
        <ele>213.5</ele>
        <time>2025-11-16T08:23:49.000Z</time>
      </trkpt>
      <trkpt lat="50.27803" lon="4.41372">
        <ele>213.3</ele>
        <time>2025-11-16T08:23:50.000Z</time>
      </trkpt>
      <trkpt lat="50.27802" lon="4.41371">
        <ele>213.3</ele>
        <time>2025-11-16T08:23:51.000Z</time>
      </trkpt>
      <trkpt lat="50.27802" lon="4.41369">
        <ele>213.3</ele>
        <time>2025-11-16T08:23:52.000Z</time>
      </trkpt>
      <trkpt lat="50.27802" lon="4.41367">
        <ele>213.3</ele>
        <time>2025-11-16T08:23:53.000Z</time>
      </trkpt>
      <trkpt lat="50.27801" lon="4.41365">
        <ele>213.2</ele>
        <time>2025-11-16T08:23:54.000Z</time>
      </trkpt>
      <trkpt lat="50.27801" lon="4.41363">
        <ele>213.3</ele>
        <time>2025-11-16T08:23:55.000Z</time>
      </trkpt>
      <trkpt lat="50.278" lon="4.41361">
        <ele>213.5</ele>
        <time>2025-11-16T08:23:56.000Z</time>
      </trkpt>
      <trkpt lat="50.278" lon="4.41359">
        <ele>213.6</ele>
        <time>2025-11-16T08:23:57.000Z</time>
      </trkpt>
      <trkpt lat="50.27799" lon="4.41357">
        <ele>213.7</ele>
        <time>2025-11-16T08:23:58.000Z</time>
      </trkpt>
      <trkpt lat="50.27798" lon="4.41355">
        <ele>213.8</ele>
        <time>2025-11-16T08:23:59.000Z</time>
      </trkpt>
      <trkpt lat="50.27798" lon="4.41353">
        <ele>213.8</ele>
        <time>2025-11-16T08:24:00.000Z</time>
      </trkpt>
      <trkpt lat="50.27797" lon="4.41351">
        <ele>213.7</ele>
        <time>2025-11-16T08:24:01.000Z</time>
      </trkpt>
      <trkpt lat="50.27796" lon="4.41349">
        <ele>213.7</ele>
        <time>2025-11-16T08:24:02.000Z</time>
      </trkpt>
      <trkpt lat="50.27795" lon="4.41346">
        <ele>213.8</ele>
        <time>2025-11-16T08:24:03.000Z</time>
      </trkpt>
      <trkpt lat="50.27794" lon="4.41343">
        <ele>213.8</ele>
        <time>2025-11-16T08:24:04.000Z</time>
      </trkpt>
      <trkpt lat="50.27792" lon="4.41341">
        <ele>213.7</ele>
        <time>2025-11-16T08:24:05.000Z</time>
      </trkpt>
      <trkpt lat="50.27791" lon="4.41338">
        <ele>213.7</ele>
        <time>2025-11-16T08:24:06.000Z</time>
      </trkpt>
      <trkpt lat="50.27789" lon="4.41336">
        <ele>213.6</ele>
        <time>2025-11-16T08:24:07.000Z</time>
      </trkpt>
      <trkpt lat="50.27788" lon="4.41333">
        <ele>213.3</ele>
        <time>2025-11-16T08:24:08.000Z</time>
      </trkpt>
      <trkpt lat="50.27786" lon="4.41331">
        <ele>213.1</ele>
        <time>2025-11-16T08:24:09.000Z</time>
      </trkpt>
      <trkpt lat="50.27785" lon="4.41329">
        <ele>212.9</ele>
        <time>2025-11-16T08:24:10.000Z</time>
      </trkpt>
      <trkpt lat="50.27784" lon="4.41327">
        <ele>212.6</ele>
        <time>2025-11-16T08:24:11.000Z</time>
      </trkpt>
      <trkpt lat="50.27783" lon="4.41326">
        <ele>212.5</ele>
        <time>2025-11-16T08:24:12.000Z</time>
      </trkpt>
      <trkpt lat="50.27782" lon="4.41324">
        <ele>212.2</ele>
        <time>2025-11-16T08:24:13.000Z</time>
      </trkpt>
      <trkpt lat="50.27781" lon="4.41322">
        <ele>212</ele>
        <time>2025-11-16T08:24:14.000Z</time>
      </trkpt>
      <trkpt lat="50.2778" lon="4.4132">
        <ele>211.8</ele>
        <time>2025-11-16T08:24:15.000Z</time>
      </trkpt>
      <trkpt lat="50.27779" lon="4.41319">
        <ele>211.8</ele>
        <time>2025-11-16T08:24:16.000Z</time>
      </trkpt>
      <trkpt lat="50.27778" lon="4.41318">
        <ele>211.7</ele>
        <time>2025-11-16T08:24:17.000Z</time>
      </trkpt>
      <trkpt lat="50.27778" lon="4.41316">
        <ele>211.7</ele>
        <time>2025-11-16T08:24:18.000Z</time>
      </trkpt>
      <trkpt lat="50.27777" lon="4.41315">
        <ele>211.7</ele>
        <time>2025-11-16T08:24:19.000Z</time>
      </trkpt>
      <trkpt lat="50.27776" lon="4.41313">
        <ele>211.7</ele>
        <time>2025-11-16T08:24:20.000Z</time>
      </trkpt>
      <trkpt lat="50.27775" lon="4.41312">
        <ele>211.7</ele>
        <time>2025-11-16T08:24:21.000Z</time>
      </trkpt>
      <trkpt lat="50.27774" lon="4.41311">
        <ele>211.6</ele>
        <time>2025-11-16T08:24:22.000Z</time>
      </trkpt>
      <trkpt lat="50.27773" lon="4.4131">
        <ele>211.5</ele>
        <time>2025-11-16T08:24:23.000Z</time>
      </trkpt>
      <trkpt lat="50.27772" lon="4.41309">
        <ele>211.4</ele>
        <time>2025-11-16T08:24:24.000Z</time>
      </trkpt>
      <trkpt lat="50.27771" lon="4.41308">
        <ele>211.2</ele>
        <time>2025-11-16T08:24:25.000Z</time>
      </trkpt>
      <trkpt lat="50.2777" lon="4.41307">
        <ele>211</ele>
        <time>2025-11-16T08:24:26.000Z</time>
      </trkpt>
      <trkpt lat="50.2777" lon="4.41306">
        <ele>210.6</ele>
        <time>2025-11-16T08:24:27.000Z</time>
      </trkpt>
      <trkpt lat="50.27769" lon="4.41305">
        <ele>210.4</ele>
        <time>2025-11-16T08:24:28.000Z</time>
      </trkpt>
      <trkpt lat="50.27768" lon="4.41304">
        <ele>210.3</ele>
        <time>2025-11-16T08:24:29.000Z</time>
      </trkpt>
      <trkpt lat="50.27767" lon="4.41303">
        <ele>210.1</ele>
        <time>2025-11-16T08:24:30.000Z</time>
      </trkpt>
      <trkpt lat="50.27766" lon="4.41302">
        <ele>210</ele>
        <time>2025-11-16T08:24:31.000Z</time>
      </trkpt>
      <trkpt lat="50.27766" lon="4.41301">
        <ele>209.8</ele>
        <time>2025-11-16T08:24:32.000Z</time>
      </trkpt>
      <trkpt lat="50.27765" lon="4.41299">
        <ele>209.5</ele>
        <time>2025-11-16T08:24:33.000Z</time>
      </trkpt>
      <trkpt lat="50.27765" lon="4.41297">
        <ele>209.3</ele>
        <time>2025-11-16T08:24:34.000Z</time>
      </trkpt>
      <trkpt lat="50.27764" lon="4.41295">
        <ele>209</ele>
        <time>2025-11-16T08:24:35.000Z</time>
      </trkpt>
      <trkpt lat="50.27763" lon="4.41293">
        <ele>208.9</ele>
        <time>2025-11-16T08:24:36.000Z</time>
      </trkpt>
      <trkpt lat="50.27762" lon="4.41291">
        <ele>208.9</ele>
        <time>2025-11-16T08:24:37.000Z</time>
      </trkpt>
      <trkpt lat="50.27761" lon="4.4129">
        <ele>208.7</ele>
        <time>2025-11-16T08:24:38.000Z</time>
      </trkpt>
      <trkpt lat="50.2776" lon="4.41288">
        <ele>208.7</ele>
        <time>2025-11-16T08:24:39.000Z</time>
      </trkpt>
      <trkpt lat="50.27759" lon="4.41287">
        <ele>208.8</ele>
        <time>2025-11-16T08:24:40.000Z</time>
      </trkpt>
      <trkpt lat="50.27758" lon="4.41285">
        <ele>208.9</ele>
        <time>2025-11-16T08:24:41.000Z</time>
      </trkpt>
      <trkpt lat="50.27757" lon="4.41282">
        <ele>208.9</ele>
        <time>2025-11-16T08:24:42.000Z</time>
      </trkpt>
      <trkpt lat="50.27757" lon="4.4128">
        <ele>209</ele>
        <time>2025-11-16T08:24:43.000Z</time>
      </trkpt>
      <trkpt lat="50.27755" lon="4.41278">
        <ele>209.1</ele>
        <time>2025-11-16T08:24:44.000Z</time>
      </trkpt>
      <trkpt lat="50.27754" lon="4.41276">
        <ele>209</ele>
        <time>2025-11-16T08:24:45.000Z</time>
      </trkpt>
      <trkpt lat="50.27753" lon="4.41274">
        <ele>209.1</ele>
        <time>2025-11-16T08:24:46.000Z</time>
      </trkpt>
      <trkpt lat="50.27752" lon="4.41273">
        <ele>209.3</ele>
        <time>2025-11-16T08:24:47.000Z</time>
      </trkpt>
      <trkpt lat="50.27751" lon="4.41271">
        <ele>209.5</ele>
        <time>2025-11-16T08:24:48.000Z</time>
      </trkpt>
      <trkpt lat="50.27749" lon="4.4127">
        <ele>209.5</ele>
        <time>2025-11-16T08:24:49.000Z</time>
      </trkpt>
      <trkpt lat="50.27748" lon="4.41268">
        <ele>209.6</ele>
        <time>2025-11-16T08:24:50.000Z</time>
      </trkpt>
      <trkpt lat="50.27746" lon="4.41267">
        <ele>209.6</ele>
        <time>2025-11-16T08:24:51.000Z</time>
      </trkpt>
      <trkpt lat="50.27744" lon="4.41265">
        <ele>209.5</ele>
        <time>2025-11-16T08:24:52.000Z</time>
      </trkpt>
      <trkpt lat="50.27743" lon="4.41264">
        <ele>209.6</ele>
        <time>2025-11-16T08:24:53.000Z</time>
      </trkpt>
      <trkpt lat="50.27742" lon="4.41263">
        <ele>209.7</ele>
        <time>2025-11-16T08:24:54.000Z</time>
      </trkpt>
      <trkpt lat="50.27741" lon="4.41262">
        <ele>209.8</ele>
        <time>2025-11-16T08:24:55.000Z</time>
      </trkpt>
      <trkpt lat="50.2774" lon="4.41261">
        <ele>209.8</ele>
        <time>2025-11-16T08:24:56.000Z</time>
      </trkpt>
      <trkpt lat="50.27738" lon="4.41259">
        <ele>209.6</ele>
        <time>2025-11-16T08:24:57.000Z</time>
      </trkpt>
      <trkpt lat="50.27737" lon="4.41258">
        <ele>209.5</ele>
        <time>2025-11-16T08:24:58.000Z</time>
      </trkpt>
      <trkpt lat="50.27736" lon="4.41256">
        <ele>209.3</ele>
        <time>2025-11-16T08:24:59.000Z</time>
      </trkpt>
      <trkpt lat="50.27734" lon="4.41252">
        <ele>208.7</ele>
        <time>2025-11-16T08:25:00.000Z</time>
      </trkpt>
      <trkpt lat="50.27733" lon="4.41249">
        <ele>208.9</ele>
        <time>2025-11-16T08:25:01.000Z</time>
      </trkpt>
      <trkpt lat="50.27731" lon="4.41247">
        <ele>209.1</ele>
        <time>2025-11-16T08:25:02.000Z</time>
      </trkpt>
      <trkpt lat="50.27729" lon="4.41245">
        <ele>208.7</ele>
        <time>2025-11-16T08:25:03.000Z</time>
      </trkpt>
      <trkpt lat="50.27728" lon="4.41243">
        <ele>208.2</ele>
        <time>2025-11-16T08:25:04.000Z</time>
      </trkpt>
      <trkpt lat="50.27727" lon="4.41241">
        <ele>207.9</ele>
        <time>2025-11-16T08:25:05.000Z</time>
      </trkpt>
      <trkpt lat="50.27726" lon="4.4124">
        <ele>207.6</ele>
        <time>2025-11-16T08:25:06.000Z</time>
      </trkpt>
      <trkpt lat="50.27724" lon="4.41238">
        <ele>207.4</ele>
        <time>2025-11-16T08:25:07.000Z</time>
      </trkpt>
      <trkpt lat="50.27723" lon="4.41237">
        <ele>206.9</ele>
        <time>2025-11-16T08:25:08.000Z</time>
      </trkpt>
      <trkpt lat="50.27722" lon="4.41236">
        <ele>206.2</ele>
        <time>2025-11-16T08:25:09.000Z</time>
      </trkpt>
      <trkpt lat="50.27722" lon="4.41235">
        <ele>206</ele>
        <time>2025-11-16T08:25:10.000Z</time>
      </trkpt>
      <trkpt lat="50.27721" lon="4.41233">
        <ele>205.9</ele>
        <time>2025-11-16T08:25:11.000Z</time>
      </trkpt>
      <trkpt lat="50.2772" lon="4.41232">
        <ele>205.8</ele>
        <time>2025-11-16T08:25:12.000Z</time>
      </trkpt>
      <trkpt lat="50.2772" lon="4.41231">
        <ele>205.7</ele>
        <time>2025-11-16T08:25:13.000Z</time>
      </trkpt>
      <trkpt lat="50.27719" lon="4.41228">
        <ele>205.7</ele>
        <time>2025-11-16T08:25:14.000Z</time>
      </trkpt>
      <trkpt lat="50.27718" lon="4.41226">
        <ele>206.1</ele>
        <time>2025-11-16T08:25:15.000Z</time>
      </trkpt>
      <trkpt lat="50.27716" lon="4.41224">
        <ele>206.4</ele>
        <time>2025-11-16T08:25:16.000Z</time>
      </trkpt>
      <trkpt lat="50.27715" lon="4.41223">
        <ele>206.2</ele>
        <time>2025-11-16T08:25:17.000Z</time>
      </trkpt>
      <trkpt lat="50.27714" lon="4.41223">
        <ele>206.1</ele>
        <time>2025-11-16T08:25:18.000Z</time>
      </trkpt>
      <trkpt lat="50.27713" lon="4.41222">
        <ele>205.9</ele>
        <time>2025-11-16T08:25:19.000Z</time>
      </trkpt>
      <trkpt lat="50.27712" lon="4.41222">
        <ele>205.7</ele>
        <time>2025-11-16T08:25:20.000Z</time>
      </trkpt>
      <trkpt lat="50.27711" lon="4.41222">
        <ele>205.3</ele>
        <time>2025-11-16T08:25:21.000Z</time>
      </trkpt>
      <trkpt lat="50.2771" lon="4.41221">
        <ele>205.1</ele>
        <time>2025-11-16T08:25:22.000Z</time>
      </trkpt>
      <trkpt lat="50.27708" lon="4.41219">
        <ele>204.7</ele>
        <time>2025-11-16T08:25:23.000Z</time>
      </trkpt>
      <trkpt lat="50.27706" lon="4.41217">
        <ele>205</ele>
        <time>2025-11-16T08:25:24.000Z</time>
      </trkpt>
      <trkpt lat="50.27704" lon="4.41214">
        <ele>205.3</ele>
        <time>2025-11-16T08:25:25.000Z</time>
      </trkpt>
      <trkpt lat="50.27704" lon="4.41212">
        <ele>206.1</ele>
        <time>2025-11-16T08:25:26.000Z</time>
      </trkpt>
      <trkpt lat="50.27704" lon="4.4121">
        <ele>206</ele>
        <time>2025-11-16T08:25:27.000Z</time>
      </trkpt>
      <trkpt lat="50.27703" lon="4.4121">
        <ele>206</ele>
        <time>2025-11-16T08:25:28.000Z</time>
      </trkpt>
      <trkpt lat="50.27702" lon="4.41209">
        <ele>206.4</ele>
        <time>2025-11-16T08:25:29.000Z</time>
      </trkpt>
      <trkpt lat="50.27701" lon="4.41208">
        <ele>206.5</ele>
        <time>2025-11-16T08:25:30.000Z</time>
      </trkpt>
      <trkpt lat="50.277" lon="4.41206">
        <ele>206.8</ele>
        <time>2025-11-16T08:25:31.000Z</time>
      </trkpt>
      <trkpt lat="50.27699" lon="4.41205">
        <ele>207</ele>
        <time>2025-11-16T08:25:32.000Z</time>
      </trkpt>
      <trkpt lat="50.27698" lon="4.41203">
        <ele>207.1</ele>
        <time>2025-11-16T08:25:33.000Z</time>
      </trkpt>
      <trkpt lat="50.27697" lon="4.41203">
        <ele>207</ele>
        <time>2025-11-16T08:25:34.000Z</time>
      </trkpt>
      <trkpt lat="50.27696" lon="4.41202">
        <ele>206.7</ele>
        <time>2025-11-16T08:25:35.000Z</time>
      </trkpt>
      <trkpt lat="50.27696" lon="4.41201">
        <ele>206.4</ele>
        <time>2025-11-16T08:25:36.000Z</time>
      </trkpt>
      <trkpt lat="50.27695" lon="4.41201">
        <ele>205.5</ele>
        <time>2025-11-16T08:25:37.000Z</time>
      </trkpt>
      <trkpt lat="50.27695" lon="4.41201">
        <ele>204.9</ele>
        <time>2025-11-16T08:25:38.000Z</time>
      </trkpt>
      <trkpt lat="50.27694" lon="4.41199">
        <ele>204.5</ele>
        <time>2025-11-16T08:25:39.000Z</time>
      </trkpt>
      <trkpt lat="50.27694" lon="4.41198">
        <ele>204</ele>
        <time>2025-11-16T08:25:40.000Z</time>
      </trkpt>
      <trkpt lat="50.27693" lon="4.41197">
        <ele>203.3</ele>
        <time>2025-11-16T08:25:41.000Z</time>
      </trkpt>
      <trkpt lat="50.27692" lon="4.41195">
        <ele>202.8</ele>
        <time>2025-11-16T08:25:42.000Z</time>
      </trkpt>
      <trkpt lat="50.2769" lon="4.41193">
        <ele>202.6</ele>
        <time>2025-11-16T08:25:43.000Z</time>
      </trkpt>
      <trkpt lat="50.27689" lon="4.41192">
        <ele>202.4</ele>
        <time>2025-11-16T08:25:44.000Z</time>
      </trkpt>
      <trkpt lat="50.27688" lon="4.41191">
        <ele>202.1</ele>
        <time>2025-11-16T08:25:45.000Z</time>
      </trkpt>
      <trkpt lat="50.27687" lon="4.4119">
        <ele>202.1</ele>
        <time>2025-11-16T08:25:46.000Z</time>
      </trkpt>
      <trkpt lat="50.27685" lon="4.41189">
        <ele>201.9</ele>
        <time>2025-11-16T08:25:47.000Z</time>
      </trkpt>
      <trkpt lat="50.27684" lon="4.41188">
        <ele>201.7</ele>
        <time>2025-11-16T08:25:48.000Z</time>
      </trkpt>
      <trkpt lat="50.27684" lon="4.41186">
        <ele>201.5</ele>
        <time>2025-11-16T08:25:49.000Z</time>
      </trkpt>
      <trkpt lat="50.27682" lon="4.41185">
        <ele>201.3</ele>
        <time>2025-11-16T08:25:50.000Z</time>
      </trkpt>
      <trkpt lat="50.27681" lon="4.41185">
        <ele>201.1</ele>
        <time>2025-11-16T08:25:51.000Z</time>
      </trkpt>
      <trkpt lat="50.2768" lon="4.41184">
        <ele>200.9</ele>
        <time>2025-11-16T08:25:52.000Z</time>
      </trkpt>
      <trkpt lat="50.27679" lon="4.41182">
        <ele>200.7</ele>
        <time>2025-11-16T08:25:53.000Z</time>
      </trkpt>
      <trkpt lat="50.27679" lon="4.41181">
        <ele>200.6</ele>
        <time>2025-11-16T08:25:54.000Z</time>
      </trkpt>
      <trkpt lat="50.27678" lon="4.4118">
        <ele>200.6</ele>
        <time>2025-11-16T08:25:55.000Z</time>
      </trkpt>
      <trkpt lat="50.27676" lon="4.41178">
        <ele>200.8</ele>
        <time>2025-11-16T08:25:56.000Z</time>
      </trkpt>
      <trkpt lat="50.27675" lon="4.41176">
        <ele>201</ele>
        <time>2025-11-16T08:25:57.000Z</time>
      </trkpt>
      <trkpt lat="50.27673" lon="4.41173">
        <ele>201.2</ele>
        <time>2025-11-16T08:25:58.000Z</time>
      </trkpt>
      <trkpt lat="50.27672" lon="4.41172">
        <ele>201.5</ele>
        <time>2025-11-16T08:25:59.000Z</time>
      </trkpt>
      <trkpt lat="50.27671" lon="4.4117">
        <ele>201.8</ele>
        <time>2025-11-16T08:26:00.000Z</time>
      </trkpt>
      <trkpt lat="50.2767" lon="4.41168">
        <ele>202.1</ele>
        <time>2025-11-16T08:26:01.000Z</time>
      </trkpt>
      <trkpt lat="50.27669" lon="4.41166">
        <ele>202.3</ele>
        <time>2025-11-16T08:26:02.000Z</time>
      </trkpt>
      <trkpt lat="50.27668" lon="4.41163">
        <ele>202.7</ele>
        <time>2025-11-16T08:26:03.000Z</time>
      </trkpt>
      <trkpt lat="50.27666" lon="4.4116">
        <ele>203.4</ele>
        <time>2025-11-16T08:26:04.000Z</time>
      </trkpt>
      <trkpt lat="50.27665" lon="4.41156">
        <ele>204.1</ele>
        <time>2025-11-16T08:26:05.000Z</time>
      </trkpt>
      <trkpt lat="50.27663" lon="4.41154">
        <ele>204.5</ele>
        <time>2025-11-16T08:26:06.000Z</time>
      </trkpt>
      <trkpt lat="50.27662" lon="4.41151">
        <ele>204.7</ele>
        <time>2025-11-16T08:26:07.000Z</time>
      </trkpt>
      <trkpt lat="50.27661" lon="4.41149">
        <ele>205.3</ele>
        <time>2025-11-16T08:26:08.000Z</time>
      </trkpt>
      <trkpt lat="50.27659" lon="4.41147">
        <ele>205.6</ele>
        <time>2025-11-16T08:26:09.000Z</time>
      </trkpt>
      <trkpt lat="50.27658" lon="4.41146">
        <ele>205.9</ele>
        <time>2025-11-16T08:26:10.000Z</time>
      </trkpt>
      <trkpt lat="50.27657" lon="4.41144">
        <ele>206</ele>
        <time>2025-11-16T08:26:11.000Z</time>
      </trkpt>
      <trkpt lat="50.27656" lon="4.41142">
        <ele>206.3</ele>
        <time>2025-11-16T08:26:12.000Z</time>
      </trkpt>
      <trkpt lat="50.27656" lon="4.4114">
        <ele>206.6</ele>
        <time>2025-11-16T08:26:13.000Z</time>
      </trkpt>
      <trkpt lat="50.27655" lon="4.41138">
        <ele>206.9</ele>
        <time>2025-11-16T08:26:14.000Z</time>
      </trkpt>
      <trkpt lat="50.27654" lon="4.41135">
        <ele>207.1</ele>
        <time>2025-11-16T08:26:15.000Z</time>
      </trkpt>
      <trkpt lat="50.27654" lon="4.41133">
        <ele>207.3</ele>
        <time>2025-11-16T08:26:16.000Z</time>
      </trkpt>
      <trkpt lat="50.27653" lon="4.4113">
        <ele>207.6</ele>
        <time>2025-11-16T08:26:17.000Z</time>
      </trkpt>
      <trkpt lat="50.27652" lon="4.41128">
        <ele>207.8</ele>
        <time>2025-11-16T08:26:18.000Z</time>
      </trkpt>
      <trkpt lat="50.27652" lon="4.41126">
        <ele>208.2</ele>
        <time>2025-11-16T08:26:19.000Z</time>
      </trkpt>
      <trkpt lat="50.27652" lon="4.41123">
        <ele>208.4</ele>
        <time>2025-11-16T08:26:20.000Z</time>
      </trkpt>
      <trkpt lat="50.27651" lon="4.41121">
        <ele>208.6</ele>
        <time>2025-11-16T08:26:21.000Z</time>
      </trkpt>
      <trkpt lat="50.2765" lon="4.4112">
        <ele>208.7</ele>
        <time>2025-11-16T08:26:22.000Z</time>
      </trkpt>
      <trkpt lat="50.27649" lon="4.41118">
        <ele>208.8</ele>
        <time>2025-11-16T08:26:23.000Z</time>
      </trkpt>
      <trkpt lat="50.27648" lon="4.41116">
        <ele>209.1</ele>
        <time>2025-11-16T08:26:24.000Z</time>
      </trkpt>
      <trkpt lat="50.27648" lon="4.41114">
        <ele>209.6</ele>
        <time>2025-11-16T08:26:25.000Z</time>
      </trkpt>
      <trkpt lat="50.27647" lon="4.41112">
        <ele>210.2</ele>
        <time>2025-11-16T08:26:26.000Z</time>
      </trkpt>
      <trkpt lat="50.27647" lon="4.41109">
        <ele>210.8</ele>
        <time>2025-11-16T08:26:27.000Z</time>
      </trkpt>
      <trkpt lat="50.27646" lon="4.41107">
        <ele>211.2</ele>
        <time>2025-11-16T08:26:28.000Z</time>
      </trkpt>
      <trkpt lat="50.27646" lon="4.41105">
        <ele>211.3</ele>
        <time>2025-11-16T08:26:29.000Z</time>
      </trkpt>
      <trkpt lat="50.27645" lon="4.41103">
        <ele>211.6</ele>
        <time>2025-11-16T08:26:30.000Z</time>
      </trkpt>
      <trkpt lat="50.27645" lon="4.41102">
        <ele>211.7</ele>
        <time>2025-11-16T08:26:31.000Z</time>
      </trkpt>
      <trkpt lat="50.27644" lon="4.411">
        <ele>211.7</ele>
        <time>2025-11-16T08:26:32.000Z</time>
      </trkpt>
      <trkpt lat="50.27644" lon="4.41097">
        <ele>211.8</ele>
        <time>2025-11-16T08:26:33.000Z</time>
      </trkpt>
      <trkpt lat="50.27644" lon="4.41095">
        <ele>211.7</ele>
        <time>2025-11-16T08:26:34.000Z</time>
      </trkpt>
      <trkpt lat="50.27645" lon="4.41093">
        <ele>211.7</ele>
        <time>2025-11-16T08:26:35.000Z</time>
      </trkpt>
      <trkpt lat="50.27645" lon="4.41091">
        <ele>211.8</ele>
        <time>2025-11-16T08:26:36.000Z</time>
      </trkpt>
      <trkpt lat="50.27645" lon="4.41088">
        <ele>211.8</ele>
        <time>2025-11-16T08:26:37.000Z</time>
      </trkpt>
      <trkpt lat="50.27645" lon="4.41085">
        <ele>212</ele>
        <time>2025-11-16T08:26:38.000Z</time>
      </trkpt>
      <trkpt lat="50.27645" lon="4.41082">
        <ele>212.2</ele>
        <time>2025-11-16T08:26:39.000Z</time>
      </trkpt>
      <trkpt lat="50.27645" lon="4.4108">
        <ele>212.2</ele>
        <time>2025-11-16T08:26:40.000Z</time>
      </trkpt>
      <trkpt lat="50.27644" lon="4.41077">
        <ele>212.3</ele>
        <time>2025-11-16T08:26:41.000Z</time>
      </trkpt>
      <trkpt lat="50.27643" lon="4.41075">
        <ele>212.2</ele>
        <time>2025-11-16T08:26:42.000Z</time>
      </trkpt>
      <trkpt lat="50.27642" lon="4.41072">
        <ele>212.1</ele>
        <time>2025-11-16T08:26:43.000Z</time>
      </trkpt>
      <trkpt lat="50.27642" lon="4.41071">
        <ele>211.9</ele>
        <time>2025-11-16T08:26:44.000Z</time>
      </trkpt>
      <trkpt lat="50.27641" lon="4.41069">
        <ele>211.8</ele>
        <time>2025-11-16T08:26:45.000Z</time>
      </trkpt>
      <trkpt lat="50.27641" lon="4.41067">
        <ele>211.8</ele>
        <time>2025-11-16T08:26:46.000Z</time>
      </trkpt>
      <trkpt lat="50.2764" lon="4.41066">
        <ele>211.7</ele>
        <time>2025-11-16T08:26:47.000Z</time>
      </trkpt>
      <trkpt lat="50.2764" lon="4.41065">
        <ele>211.6</ele>
        <time>2025-11-16T08:26:48.000Z</time>
      </trkpt>
      <trkpt lat="50.27639" lon="4.41064">
        <ele>211.6</ele>
        <time>2025-11-16T08:26:49.000Z</time>
      </trkpt>
      <trkpt lat="50.27638" lon="4.41062">
        <ele>211.6</ele>
        <time>2025-11-16T08:26:50.000Z</time>
      </trkpt>
      <trkpt lat="50.27638" lon="4.4106">
        <ele>211.8</ele>
        <time>2025-11-16T08:26:51.000Z</time>
      </trkpt>
      <trkpt lat="50.27637" lon="4.41059">
        <ele>211.9</ele>
        <time>2025-11-16T08:26:52.000Z</time>
      </trkpt>
      <trkpt lat="50.27637" lon="4.41057">
        <ele>212</ele>
        <time>2025-11-16T08:26:53.000Z</time>
      </trkpt>
      <trkpt lat="50.27636" lon="4.41054">
        <ele>212.1</ele>
        <time>2025-11-16T08:26:54.000Z</time>
      </trkpt>
      <trkpt lat="50.27636" lon="4.41052">
        <ele>212.3</ele>
        <time>2025-11-16T08:26:55.000Z</time>
      </trkpt>
      <trkpt lat="50.27635" lon="4.41048">
        <ele>212.5</ele>
        <time>2025-11-16T08:26:56.000Z</time>
      </trkpt>
      <trkpt lat="50.27635" lon="4.41045">
        <ele>212.7</ele>
        <time>2025-11-16T08:26:57.000Z</time>
      </trkpt>
      <trkpt lat="50.27635" lon="4.4104">
        <ele>212.7</ele>
        <time>2025-11-16T08:26:58.000Z</time>
      </trkpt>
      <trkpt lat="50.27634" lon="4.41038">
        <ele>213</ele>
        <time>2025-11-16T08:26:59.000Z</time>
      </trkpt>
      <trkpt lat="50.27634" lon="4.41034">
        <ele>212.7</ele>
        <time>2025-11-16T08:27:00.000Z</time>
      </trkpt>
      <trkpt lat="50.27633" lon="4.41031">
        <ele>212.5</ele>
        <time>2025-11-16T08:27:01.000Z</time>
      </trkpt>
      <trkpt lat="50.27631" lon="4.41028">
        <ele>212.3</ele>
        <time>2025-11-16T08:27:02.000Z</time>
      </trkpt>
      <trkpt lat="50.2763" lon="4.41025">
        <ele>212</ele>
        <time>2025-11-16T08:27:03.000Z</time>
      </trkpt>
      <trkpt lat="50.27629" lon="4.41023">
        <ele>211.7</ele>
        <time>2025-11-16T08:27:04.000Z</time>
      </trkpt>
      <trkpt lat="50.27629" lon="4.41021">
        <ele>211.4</ele>
        <time>2025-11-16T08:27:05.000Z</time>
      </trkpt>
      <trkpt lat="50.27629" lon="4.41019">
        <ele>211.2</ele>
        <time>2025-11-16T08:27:06.000Z</time>
      </trkpt>
      <trkpt lat="50.27629" lon="4.41017">
        <ele>211</ele>
        <time>2025-11-16T08:27:07.000Z</time>
      </trkpt>
      <trkpt lat="50.27627" lon="4.41015">
        <ele>210.3</ele>
        <time>2025-11-16T08:27:08.000Z</time>
      </trkpt>
      <trkpt lat="50.27627" lon="4.41013">
        <ele>210.2</ele>
        <time>2025-11-16T08:27:09.000Z</time>
      </trkpt>
      <trkpt lat="50.27627" lon="4.41011">
        <ele>210.1</ele>
        <time>2025-11-16T08:27:10.000Z</time>
      </trkpt>
      <trkpt lat="50.27627" lon="4.41009">
        <ele>210.1</ele>
        <time>2025-11-16T08:27:11.000Z</time>
      </trkpt>
      <trkpt lat="50.27627" lon="4.41006">
        <ele>210.1</ele>
        <time>2025-11-16T08:27:12.000Z</time>
      </trkpt>
      <trkpt lat="50.27627" lon="4.41004">
        <ele>210.3</ele>
        <time>2025-11-16T08:27:13.000Z</time>
      </trkpt>
      <trkpt lat="50.27627" lon="4.41003">
        <ele>210.2</ele>
        <time>2025-11-16T08:27:14.000Z</time>
      </trkpt>
      <trkpt lat="50.27627" lon="4.41001">
        <ele>210.2</ele>
        <time>2025-11-16T08:27:15.000Z</time>
      </trkpt>
      <trkpt lat="50.27627" lon="4.40999">
        <ele>210.2</ele>
        <time>2025-11-16T08:27:16.000Z</time>
      </trkpt>
      <trkpt lat="50.27627" lon="4.40997">
        <ele>210.1</ele>
        <time>2025-11-16T08:27:17.000Z</time>
      </trkpt>
      <trkpt lat="50.27628" lon="4.40994">
        <ele>209.9</ele>
        <time>2025-11-16T08:27:18.000Z</time>
      </trkpt>
      <trkpt lat="50.27627" lon="4.40991">
        <ele>209.6</ele>
        <time>2025-11-16T08:27:19.000Z</time>
      </trkpt>
      <trkpt lat="50.27627" lon="4.40989">
        <ele>209.3</ele>
        <time>2025-11-16T08:27:20.000Z</time>
      </trkpt>
      <trkpt lat="50.27627" lon="4.40987">
        <ele>209</ele>
        <time>2025-11-16T08:27:21.000Z</time>
      </trkpt>
      <trkpt lat="50.27627" lon="4.40984">
        <ele>208.8</ele>
        <time>2025-11-16T08:27:22.000Z</time>
      </trkpt>
      <trkpt lat="50.27627" lon="4.40982">
        <ele>208.6</ele>
        <time>2025-11-16T08:27:23.000Z</time>
      </trkpt>
      <trkpt lat="50.27626" lon="4.4098">
        <ele>208.2</ele>
        <time>2025-11-16T08:27:24.000Z</time>
      </trkpt>
      <trkpt lat="50.27626" lon="4.40978">
        <ele>208</ele>
        <time>2025-11-16T08:27:25.000Z</time>
      </trkpt>
      <trkpt lat="50.27627" lon="4.40975">
        <ele>207.6</ele>
        <time>2025-11-16T08:27:26.000Z</time>
      </trkpt>
      <trkpt lat="50.27627" lon="4.40973">
        <ele>207.1</ele>
        <time>2025-11-16T08:27:27.000Z</time>
      </trkpt>
      <trkpt lat="50.27627" lon="4.4097">
        <ele>206.7</ele>
        <time>2025-11-16T08:27:28.000Z</time>
      </trkpt>
      <trkpt lat="50.27627" lon="4.40967">
        <ele>206.2</ele>
        <time>2025-11-16T08:27:29.000Z</time>
      </trkpt>
      <trkpt lat="50.27627" lon="4.40964">
        <ele>205.8</ele>
        <time>2025-11-16T08:27:30.000Z</time>
      </trkpt>
      <trkpt lat="50.27626" lon="4.40962">
        <ele>205.6</ele>
        <time>2025-11-16T08:27:31.000Z</time>
      </trkpt>
      <trkpt lat="50.27626" lon="4.4096">
        <ele>205.3</ele>
        <time>2025-11-16T08:27:32.000Z</time>
      </trkpt>
      <trkpt lat="50.27625" lon="4.40957">
        <ele>205</ele>
        <time>2025-11-16T08:27:33.000Z</time>
      </trkpt>
      <trkpt lat="50.27626" lon="4.40955">
        <ele>204.3</ele>
        <time>2025-11-16T08:27:34.000Z</time>
      </trkpt>
      <trkpt lat="50.27625" lon="4.40952">
        <ele>204</ele>
        <time>2025-11-16T08:27:35.000Z</time>
      </trkpt>
      <trkpt lat="50.27626" lon="4.4095">
        <ele>203.9</ele>
        <time>2025-11-16T08:27:36.000Z</time>
      </trkpt>
      <trkpt lat="50.27626" lon="4.40947">
        <ele>203.9</ele>
        <time>2025-11-16T08:27:37.000Z</time>
      </trkpt>
      <trkpt lat="50.27626" lon="4.40945">
        <ele>203.7</ele>
        <time>2025-11-16T08:27:38.000Z</time>
      </trkpt>
      <trkpt lat="50.27627" lon="4.40944">
        <ele>203.6</ele>
        <time>2025-11-16T08:27:39.000Z</time>
      </trkpt>
      <trkpt lat="50.27627" lon="4.40942">
        <ele>203.1</ele>
        <time>2025-11-16T08:27:40.000Z</time>
      </trkpt>
      <trkpt lat="50.27627" lon="4.4094">
        <ele>202.6</ele>
        <time>2025-11-16T08:27:41.000Z</time>
      </trkpt>
      <trkpt lat="50.27627" lon="4.40938">
        <ele>202.2</ele>
        <time>2025-11-16T08:27:42.000Z</time>
      </trkpt>
      <trkpt lat="50.27628" lon="4.40936">
        <ele>201.9</ele>
        <time>2025-11-16T08:27:43.000Z</time>
      </trkpt>
      <trkpt lat="50.27628" lon="4.40933">
        <ele>201.8</ele>
        <time>2025-11-16T08:27:44.000Z</time>
      </trkpt>
      <trkpt lat="50.27629" lon="4.40931">
        <ele>201.7</ele>
        <time>2025-11-16T08:27:45.000Z</time>
      </trkpt>
      <trkpt lat="50.27629" lon="4.40929">
        <ele>201.6</ele>
        <time>2025-11-16T08:27:46.000Z</time>
      </trkpt>
      <trkpt lat="50.2763" lon="4.40927">
        <ele>201.3</ele>
        <time>2025-11-16T08:27:47.000Z</time>
      </trkpt>
      <trkpt lat="50.27631" lon="4.40924">
        <ele>201.1</ele>
        <time>2025-11-16T08:27:48.000Z</time>
      </trkpt>
      <trkpt lat="50.27633" lon="4.40922">
        <ele>200.9</ele>
        <time>2025-11-16T08:27:49.000Z</time>
      </trkpt>
      <trkpt lat="50.27634" lon="4.4092">
        <ele>200.9</ele>
        <time>2025-11-16T08:27:50.000Z</time>
      </trkpt>
      <trkpt lat="50.27634" lon="4.40919">
        <ele>200.7</ele>
        <time>2025-11-16T08:27:51.000Z</time>
      </trkpt>
      <trkpt lat="50.27635" lon="4.40917">
        <ele>200.6</ele>
        <time>2025-11-16T08:27:52.000Z</time>
      </trkpt>
      <trkpt lat="50.27636" lon="4.40914">
        <ele>200.5</ele>
        <time>2025-11-16T08:27:53.000Z</time>
      </trkpt>
      <trkpt lat="50.27637" lon="4.40912">
        <ele>200.6</ele>
        <time>2025-11-16T08:27:54.000Z</time>
      </trkpt>
      <trkpt lat="50.27638" lon="4.4091">
        <ele>200.5</ele>
        <time>2025-11-16T08:27:55.000Z</time>
      </trkpt>
      <trkpt lat="50.27638" lon="4.40908">
        <ele>200.6</ele>
        <time>2025-11-16T08:27:56.000Z</time>
      </trkpt>
      <trkpt lat="50.27638" lon="4.40905">
        <ele>200.5</ele>
        <time>2025-11-16T08:27:57.000Z</time>
      </trkpt>
      <trkpt lat="50.27638" lon="4.40903">
        <ele>200.2</ele>
        <time>2025-11-16T08:27:58.000Z</time>
      </trkpt>
      <trkpt lat="50.27639" lon="4.40901">
        <ele>200.2</ele>
        <time>2025-11-16T08:27:59.000Z</time>
      </trkpt>
      <trkpt lat="50.2764" lon="4.40899">
        <ele>200.1</ele>
        <time>2025-11-16T08:28:00.000Z</time>
      </trkpt>
      <trkpt lat="50.27642" lon="4.40898">
        <ele>200.1</ele>
        <time>2025-11-16T08:28:01.000Z</time>
      </trkpt>
      <trkpt lat="50.27643" lon="4.40896">
        <ele>200.1</ele>
        <time>2025-11-16T08:28:02.000Z</time>
      </trkpt>
      <trkpt lat="50.27644" lon="4.40894">
        <ele>200.1</ele>
        <time>2025-11-16T08:28:03.000Z</time>
      </trkpt>
      <trkpt lat="50.27646" lon="4.40892">
        <ele>200</ele>
        <time>2025-11-16T08:28:04.000Z</time>
      </trkpt>
      <trkpt lat="50.27648" lon="4.40891">
        <ele>200</ele>
        <time>2025-11-16T08:28:05.000Z</time>
      </trkpt>
      <trkpt lat="50.2765" lon="4.4089">
        <ele>200.1</ele>
        <time>2025-11-16T08:28:06.000Z</time>
      </trkpt>
      <trkpt lat="50.27652" lon="4.40888">
        <ele>200.2</ele>
        <time>2025-11-16T08:28:07.000Z</time>
      </trkpt>
      <trkpt lat="50.27653" lon="4.40885">
        <ele>200.3</ele>
        <time>2025-11-16T08:28:08.000Z</time>
      </trkpt>
      <trkpt lat="50.27654" lon="4.40883">
        <ele>200.3</ele>
        <time>2025-11-16T08:28:09.000Z</time>
      </trkpt>
      <trkpt lat="50.27654" lon="4.40881">
        <ele>200.3</ele>
        <time>2025-11-16T08:28:10.000Z</time>
      </trkpt>
      <trkpt lat="50.27655" lon="4.40879">
        <ele>200.1</ele>
        <time>2025-11-16T08:28:11.000Z</time>
      </trkpt>
      <trkpt lat="50.27655" lon="4.40877">
        <ele>200</ele>
        <time>2025-11-16T08:28:12.000Z</time>
      </trkpt>
      <trkpt lat="50.27656" lon="4.40876">
        <ele>200</ele>
        <time>2025-11-16T08:28:13.000Z</time>
      </trkpt>
      <trkpt lat="50.27657" lon="4.40874">
        <ele>200</ele>
        <time>2025-11-16T08:28:14.000Z</time>
      </trkpt>
      <trkpt lat="50.27656" lon="4.40872">
        <ele>200.2</ele>
        <time>2025-11-16T08:28:15.000Z</time>
      </trkpt>
      <trkpt lat="50.27656" lon="4.4087">
        <ele>200.4</ele>
        <time>2025-11-16T08:28:16.000Z</time>
      </trkpt>
      <trkpt lat="50.27655" lon="4.40868">
        <ele>200.3</ele>
        <time>2025-11-16T08:28:17.000Z</time>
      </trkpt>
      <trkpt lat="50.27653" lon="4.40866">
        <ele>200.3</ele>
        <time>2025-11-16T08:28:18.000Z</time>
      </trkpt>
      <trkpt lat="50.27654" lon="4.40864">
        <ele>200.4</ele>
        <time>2025-11-16T08:28:19.000Z</time>
      </trkpt>
      <trkpt lat="50.27654" lon="4.40862">
        <ele>200.7</ele>
        <time>2025-11-16T08:28:20.000Z</time>
      </trkpt>
      <trkpt lat="50.27655" lon="4.40861">
        <ele>200.9</ele>
        <time>2025-11-16T08:28:21.000Z</time>
      </trkpt>
      <trkpt lat="50.27656" lon="4.40859">
        <ele>201</ele>
        <time>2025-11-16T08:28:22.000Z</time>
      </trkpt>
      <trkpt lat="50.27657" lon="4.40858">
        <ele>201.3</ele>
        <time>2025-11-16T08:28:23.000Z</time>
      </trkpt>
      <trkpt lat="50.27659" lon="4.40857">
        <ele>201.3</ele>
        <time>2025-11-16T08:28:24.000Z</time>
      </trkpt>
      <trkpt lat="50.27658" lon="4.40855">
        <ele>200.9</ele>
        <time>2025-11-16T08:28:25.000Z</time>
      </trkpt>
      <trkpt lat="50.27658" lon="4.40853">
        <ele>200.9</ele>
        <time>2025-11-16T08:28:26.000Z</time>
      </trkpt>
      <trkpt lat="50.27658" lon="4.4085">
        <ele>201.1</ele>
        <time>2025-11-16T08:28:27.000Z</time>
      </trkpt>
      <trkpt lat="50.27658" lon="4.40848">
        <ele>201</ele>
        <time>2025-11-16T08:28:28.000Z</time>
      </trkpt>
      <trkpt lat="50.27658" lon="4.40846">
        <ele>201.1</ele>
        <time>2025-11-16T08:28:29.000Z</time>
      </trkpt>
      <trkpt lat="50.27658" lon="4.40843">
        <ele>201.2</ele>
        <time>2025-11-16T08:28:30.000Z</time>
      </trkpt>
      <trkpt lat="50.27659" lon="4.40841">
        <ele>201.2</ele>
        <time>2025-11-16T08:28:31.000Z</time>
      </trkpt>
      <trkpt lat="50.27659" lon="4.40838">
        <ele>201.1</ele>
        <time>2025-11-16T08:28:32.000Z</time>
      </trkpt>
      <trkpt lat="50.27661" lon="4.40834">
        <ele>201.4</ele>
        <time>2025-11-16T08:28:33.000Z</time>
      </trkpt>
      <trkpt lat="50.27662" lon="4.40832">
        <ele>201.7</ele>
        <time>2025-11-16T08:28:34.000Z</time>
      </trkpt>
      <trkpt lat="50.27663" lon="4.40829">
        <ele>201.8</ele>
        <time>2025-11-16T08:28:35.000Z</time>
      </trkpt>
      <trkpt lat="50.27664" lon="4.40826">
        <ele>201.9</ele>
        <time>2025-11-16T08:28:36.000Z</time>
      </trkpt>
      <trkpt lat="50.27665" lon="4.40825">
        <ele>202</ele>
        <time>2025-11-16T08:28:37.000Z</time>
      </trkpt>
      <trkpt lat="50.27665" lon="4.40823">
        <ele>202</ele>
        <time>2025-11-16T08:28:38.000Z</time>
      </trkpt>
      <trkpt lat="50.27666" lon="4.40821">
        <ele>201.8</ele>
        <time>2025-11-16T08:28:39.000Z</time>
      </trkpt>
      <trkpt lat="50.27667" lon="4.40819">
        <ele>201.7</ele>
        <time>2025-11-16T08:28:40.000Z</time>
      </trkpt>
      <trkpt lat="50.27668" lon="4.40817">
        <ele>201.7</ele>
        <time>2025-11-16T08:28:41.000Z</time>
      </trkpt>
      <trkpt lat="50.27669" lon="4.40815">
        <ele>201.5</ele>
        <time>2025-11-16T08:28:42.000Z</time>
      </trkpt>
      <trkpt lat="50.2767" lon="4.40813">
        <ele>201.7</ele>
        <time>2025-11-16T08:28:43.000Z</time>
      </trkpt>
      <trkpt lat="50.27671" lon="4.4081">
        <ele>202.2</ele>
        <time>2025-11-16T08:28:44.000Z</time>
      </trkpt>
      <trkpt lat="50.27672" lon="4.40808">
        <ele>202.6</ele>
        <time>2025-11-16T08:28:45.000Z</time>
      </trkpt>
      <trkpt lat="50.27674" lon="4.40806">
        <ele>203</ele>
        <time>2025-11-16T08:28:46.000Z</time>
      </trkpt>
      <trkpt lat="50.27674" lon="4.40803">
        <ele>203.3</ele>
        <time>2025-11-16T08:28:47.000Z</time>
      </trkpt>
      <trkpt lat="50.27675" lon="4.40801">
        <ele>203.6</ele>
        <time>2025-11-16T08:28:48.000Z</time>
      </trkpt>
      <trkpt lat="50.27676" lon="4.40799">
        <ele>203.9</ele>
        <time>2025-11-16T08:28:49.000Z</time>
      </trkpt>
      <trkpt lat="50.27676" lon="4.40797">
        <ele>204.3</ele>
        <time>2025-11-16T08:28:50.000Z</time>
      </trkpt>
      <trkpt lat="50.27678" lon="4.40794">
        <ele>204.5</ele>
        <time>2025-11-16T08:28:51.000Z</time>
      </trkpt>
      <trkpt lat="50.27678" lon="4.40792">
        <ele>204.6</ele>
        <time>2025-11-16T08:28:52.000Z</time>
      </trkpt>
      <trkpt lat="50.27679" lon="4.4079">
        <ele>204.7</ele>
        <time>2025-11-16T08:28:53.000Z</time>
      </trkpt>
      <trkpt lat="50.2768" lon="4.40788">
        <ele>204.7</ele>
        <time>2025-11-16T08:28:54.000Z</time>
      </trkpt>
      <trkpt lat="50.2768" lon="4.40786">
        <ele>204.8</ele>
        <time>2025-11-16T08:28:55.000Z</time>
      </trkpt>
      <trkpt lat="50.27681" lon="4.40785">
        <ele>205.1</ele>
        <time>2025-11-16T08:28:56.000Z</time>
      </trkpt>
      <trkpt lat="50.27682" lon="4.40784">
        <ele>205.3</ele>
        <time>2025-11-16T08:28:57.000Z</time>
      </trkpt>
      <trkpt lat="50.27682" lon="4.40782">
        <ele>205.6</ele>
        <time>2025-11-16T08:28:58.000Z</time>
      </trkpt>
      <trkpt lat="50.27683" lon="4.40781">
        <ele>205.9</ele>
        <time>2025-11-16T08:28:59.000Z</time>
      </trkpt>
      <trkpt lat="50.27683" lon="4.4078">
        <ele>206.2</ele>
        <time>2025-11-16T08:29:00.000Z</time>
      </trkpt>
      <trkpt lat="50.27684" lon="4.40778">
        <ele>206.1</ele>
        <time>2025-11-16T08:29:01.000Z</time>
      </trkpt>
      <trkpt lat="50.27685" lon="4.40776">
        <ele>206.2</ele>
        <time>2025-11-16T08:29:02.000Z</time>
      </trkpt>
      <trkpt lat="50.27685" lon="4.40773">
        <ele>206.4</ele>
        <time>2025-11-16T08:29:03.000Z</time>
      </trkpt>
      <trkpt lat="50.27685" lon="4.40772">
        <ele>206.6</ele>
        <time>2025-11-16T08:29:04.000Z</time>
      </trkpt>
      <trkpt lat="50.27685" lon="4.40769">
        <ele>207</ele>
        <time>2025-11-16T08:29:05.000Z</time>
      </trkpt>
      <trkpt lat="50.27685" lon="4.40767">
        <ele>207.2</ele>
        <time>2025-11-16T08:29:06.000Z</time>
      </trkpt>
      <trkpt lat="50.27683" lon="4.40765">
        <ele>207.5</ele>
        <time>2025-11-16T08:29:07.000Z</time>
      </trkpt>
      <trkpt lat="50.27682" lon="4.40761">
        <ele>207.8</ele>
        <time>2025-11-16T08:29:08.000Z</time>
      </trkpt>
      <trkpt lat="50.27681" lon="4.40757">
        <ele>207.4</ele>
        <time>2025-11-16T08:29:09.000Z</time>
      </trkpt>
      <trkpt lat="50.27681" lon="4.40753">
        <ele>207.7</ele>
        <time>2025-11-16T08:29:10.000Z</time>
      </trkpt>
      <trkpt lat="50.2768" lon="4.40752">
        <ele>205.6</ele>
        <time>2025-11-16T08:29:11.000Z</time>
      </trkpt>
      <trkpt lat="50.27679" lon="4.40751">
        <ele>204.4</ele>
        <time>2025-11-16T08:29:12.000Z</time>
      </trkpt>
      <trkpt lat="50.27679" lon="4.40749">
        <ele>203.1</ele>
        <time>2025-11-16T08:29:13.000Z</time>
      </trkpt>
      <trkpt lat="50.27679" lon="4.40747">
        <ele>201.4</ele>
        <time>2025-11-16T08:29:14.000Z</time>
      </trkpt>
      <trkpt lat="50.27679" lon="4.40742">
        <ele>199.6</ele>
        <time>2025-11-16T08:29:15.000Z</time>
      </trkpt>
      <trkpt lat="50.27681" lon="4.40741">
        <ele>198.2</ele>
        <time>2025-11-16T08:29:16.000Z</time>
      </trkpt>
      <trkpt lat="50.27681" lon="4.40739">
        <ele>198</ele>
        <time>2025-11-16T08:29:17.000Z</time>
      </trkpt>
      <trkpt lat="50.27681" lon="4.40736">
        <ele>197.5</ele>
        <time>2025-11-16T08:29:18.000Z</time>
      </trkpt>
      <trkpt lat="50.27681" lon="4.40733">
        <ele>197.5</ele>
        <time>2025-11-16T08:29:19.000Z</time>
      </trkpt>
      <trkpt lat="50.27681" lon="4.40732">
        <ele>197.6</ele>
        <time>2025-11-16T08:29:20.000Z</time>
      </trkpt>
      <trkpt lat="50.27681" lon="4.40729">
        <ele>198</ele>
        <time>2025-11-16T08:29:21.000Z</time>
      </trkpt>
      <trkpt lat="50.2768" lon="4.40728">
        <ele>198.1</ele>
        <time>2025-11-16T08:29:22.000Z</time>
      </trkpt>
      <trkpt lat="50.2768" lon="4.40726">
        <ele>197.7</ele>
        <time>2025-11-16T08:29:23.000Z</time>
      </trkpt>
      <trkpt lat="50.27681" lon="4.40725">
        <ele>198.1</ele>
        <time>2025-11-16T08:29:24.000Z</time>
      </trkpt>
      <trkpt lat="50.27682" lon="4.40723">
        <ele>198.4</ele>
        <time>2025-11-16T08:29:25.000Z</time>
      </trkpt>
      <trkpt lat="50.27683" lon="4.40723">
        <ele>198.5</ele>
        <time>2025-11-16T08:29:26.000Z</time>
      </trkpt>
      <trkpt lat="50.27685" lon="4.40723">
        <ele>198.7</ele>
        <time>2025-11-16T08:29:27.000Z</time>
      </trkpt>
      <trkpt lat="50.27687" lon="4.40725">
        <ele>198.9</ele>
        <time>2025-11-16T08:29:28.000Z</time>
      </trkpt>
      <trkpt lat="50.27688" lon="4.40725">
        <ele>199.3</ele>
        <time>2025-11-16T08:29:29.000Z</time>
      </trkpt>
      <trkpt lat="50.2769" lon="4.40726">
        <ele>198.6</ele>
        <time>2025-11-16T08:29:30.000Z</time>
      </trkpt>
      <trkpt lat="50.27692" lon="4.40727">
        <ele>198.6</ele>
        <time>2025-11-16T08:29:31.000Z</time>
      </trkpt>
      <trkpt lat="50.27693" lon="4.40728">
        <ele>198.7</ele>
        <time>2025-11-16T08:29:32.000Z</time>
      </trkpt>
      <trkpt lat="50.27695" lon="4.40729">
        <ele>198.7</ele>
        <time>2025-11-16T08:29:33.000Z</time>
      </trkpt>
      <trkpt lat="50.27697" lon="4.40729">
        <ele>199.1</ele>
        <time>2025-11-16T08:29:34.000Z</time>
      </trkpt>
      <trkpt lat="50.27698" lon="4.4073">
        <ele>199.6</ele>
        <time>2025-11-16T08:29:35.000Z</time>
      </trkpt>
      <trkpt lat="50.277" lon="4.4073">
        <ele>199.9</ele>
        <time>2025-11-16T08:29:36.000Z</time>
      </trkpt>
      <trkpt lat="50.27701" lon="4.40732">
        <ele>200.4</ele>
        <time>2025-11-16T08:29:37.000Z</time>
      </trkpt>
      <trkpt lat="50.27701" lon="4.4073">
        <ele>201.1</ele>
        <time>2025-11-16T08:29:38.000Z</time>
      </trkpt>
      <trkpt lat="50.27702" lon="4.40731">
        <ele>201.6</ele>
        <time>2025-11-16T08:29:39.000Z</time>
      </trkpt>
      <trkpt lat="50.27703" lon="4.40731">
        <ele>202.2</ele>
        <time>2025-11-16T08:29:40.000Z</time>
      </trkpt>
      <trkpt lat="50.27704" lon="4.4073">
        <ele>202.3</ele>
        <time>2025-11-16T08:29:41.000Z</time>
      </trkpt>
      <trkpt lat="50.27705" lon="4.4073">
        <ele>202.5</ele>
        <time>2025-11-16T08:29:42.000Z</time>
      </trkpt>
      <trkpt lat="50.27705" lon="4.4073">
        <ele>202.2</ele>
        <time>2025-11-16T08:29:43.000Z</time>
      </trkpt>
      <trkpt lat="50.27706" lon="4.40731">
        <ele>201.8</ele>
        <time>2025-11-16T08:29:44.000Z</time>
      </trkpt>
      <trkpt lat="50.27707" lon="4.4073">
        <ele>201.4</ele>
        <time>2025-11-16T08:29:45.000Z</time>
      </trkpt>
      <trkpt lat="50.27709" lon="4.40729">
        <ele>201.1</ele>
        <time>2025-11-16T08:29:46.000Z</time>
      </trkpt>
      <trkpt lat="50.2771" lon="4.4073">
        <ele>200.8</ele>
        <time>2025-11-16T08:29:47.000Z</time>
      </trkpt>
      <trkpt lat="50.27711" lon="4.4073">
        <ele>200.6</ele>
        <time>2025-11-16T08:29:48.000Z</time>
      </trkpt>
      <trkpt lat="50.27712" lon="4.40729">
        <ele>200.5</ele>
        <time>2025-11-16T08:29:49.000Z</time>
      </trkpt>
      <trkpt lat="50.27713" lon="4.40729">
        <ele>200.6</ele>
        <time>2025-11-16T08:29:50.000Z</time>
      </trkpt>
      <trkpt lat="50.27714" lon="4.40728">
        <ele>200.5</ele>
        <time>2025-11-16T08:29:51.000Z</time>
      </trkpt>
      <trkpt lat="50.27716" lon="4.40728">
        <ele>200.3</ele>
        <time>2025-11-16T08:29:52.000Z</time>
      </trkpt>
      <trkpt lat="50.27717" lon="4.40728">
        <ele>200.2</ele>
        <time>2025-11-16T08:29:53.000Z</time>
      </trkpt>
      <trkpt lat="50.27718" lon="4.40728">
        <ele>200.4</ele>
        <time>2025-11-16T08:29:54.000Z</time>
      </trkpt>
      <trkpt lat="50.27719" lon="4.40728">
        <ele>200.3</ele>
        <time>2025-11-16T08:29:55.000Z</time>
      </trkpt>
      <trkpt lat="50.27721" lon="4.40728">
        <ele>200.1</ele>
        <time>2025-11-16T08:29:56.000Z</time>
      </trkpt>
      <trkpt lat="50.27722" lon="4.40729">
        <ele>200.2</ele>
        <time>2025-11-16T08:29:57.000Z</time>
      </trkpt>
      <trkpt lat="50.27723" lon="4.40729">
        <ele>200.3</ele>
        <time>2025-11-16T08:29:58.000Z</time>
      </trkpt>
      <trkpt lat="50.27723" lon="4.40729">
        <ele>200.3</ele>
        <time>2025-11-16T08:29:59.000Z</time>
      </trkpt>
      <trkpt lat="50.27725" lon="4.4073">
        <ele>200.3</ele>
        <time>2025-11-16T08:30:00.000Z</time>
      </trkpt>
      <trkpt lat="50.27725" lon="4.40731">
        <ele>200.4</ele>
        <time>2025-11-16T08:30:01.000Z</time>
      </trkpt>
      <trkpt lat="50.27727" lon="4.40732">
        <ele>200.2</ele>
        <time>2025-11-16T08:30:02.000Z</time>
      </trkpt>
      <trkpt lat="50.27728" lon="4.40733">
        <ele>200.3</ele>
        <time>2025-11-16T08:30:03.000Z</time>
      </trkpt>
      <trkpt lat="50.27729" lon="4.40734">
        <ele>200.3</ele>
        <time>2025-11-16T08:30:04.000Z</time>
      </trkpt>
      <trkpt lat="50.27731" lon="4.40735">
        <ele>200.4</ele>
        <time>2025-11-16T08:30:05.000Z</time>
      </trkpt>
      <trkpt lat="50.27732" lon="4.40737">
        <ele>200.5</ele>
        <time>2025-11-16T08:30:06.000Z</time>
      </trkpt>
      <trkpt lat="50.27734" lon="4.40738">
        <ele>200.6</ele>
        <time>2025-11-16T08:30:07.000Z</time>
      </trkpt>
      <trkpt lat="50.27735" lon="4.40739">
        <ele>200.7</ele>
        <time>2025-11-16T08:30:08.000Z</time>
      </trkpt>
      <trkpt lat="50.27737" lon="4.4074">
        <ele>200.6</ele>
        <time>2025-11-16T08:30:09.000Z</time>
      </trkpt>
      <trkpt lat="50.27738" lon="4.4074">
        <ele>200.6</ele>
        <time>2025-11-16T08:30:10.000Z</time>
      </trkpt>
      <trkpt lat="50.27739" lon="4.4074">
        <ele>200.4</ele>
        <time>2025-11-16T08:30:11.000Z</time>
      </trkpt>
      <trkpt lat="50.2774" lon="4.40741">
        <ele>200.5</ele>
        <time>2025-11-16T08:30:12.000Z</time>
      </trkpt>
      <trkpt lat="50.27741" lon="4.40742">
        <ele>200.4</ele>
        <time>2025-11-16T08:30:13.000Z</time>
      </trkpt>
      <trkpt lat="50.27742" lon="4.40743">
        <ele>200.3</ele>
        <time>2025-11-16T08:30:14.000Z</time>
      </trkpt>
      <trkpt lat="50.27743" lon="4.40744">
        <ele>200.3</ele>
        <time>2025-11-16T08:30:15.000Z</time>
      </trkpt>
      <trkpt lat="50.27744" lon="4.40745">
        <ele>200.3</ele>
        <time>2025-11-16T08:30:16.000Z</time>
      </trkpt>
      <trkpt lat="50.27745" lon="4.40747">
        <ele>200.2</ele>
        <time>2025-11-16T08:30:17.000Z</time>
      </trkpt>
      <trkpt lat="50.27746" lon="4.40748">
        <ele>199.8</ele>
        <time>2025-11-16T08:30:18.000Z</time>
      </trkpt>
      <trkpt lat="50.27749" lon="4.4075">
        <ele>199.2</ele>
        <time>2025-11-16T08:30:19.000Z</time>
      </trkpt>
      <trkpt lat="50.2775" lon="4.40752">
        <ele>199.3</ele>
        <time>2025-11-16T08:30:20.000Z</time>
      </trkpt>
      <trkpt lat="50.27751" lon="4.40753">
        <ele>199.1</ele>
        <time>2025-11-16T08:30:21.000Z</time>
      </trkpt>
      <trkpt lat="50.27752" lon="4.40754">
        <ele>199</ele>
        <time>2025-11-16T08:30:22.000Z</time>
      </trkpt>
      <trkpt lat="50.27753" lon="4.40754">
        <ele>198.8</ele>
        <time>2025-11-16T08:30:23.000Z</time>
      </trkpt>
      <trkpt lat="50.27753" lon="4.40755">
        <ele>198.5</ele>
        <time>2025-11-16T08:30:24.000Z</time>
      </trkpt>
      <trkpt lat="50.27754" lon="4.40756">
        <ele>198.4</ele>
        <time>2025-11-16T08:30:25.000Z</time>
      </trkpt>
      <trkpt lat="50.27754" lon="4.40757">
        <ele>198.1</ele>
        <time>2025-11-16T08:30:26.000Z</time>
      </trkpt>
      <trkpt lat="50.27756" lon="4.40758">
        <ele>197.8</ele>
        <time>2025-11-16T08:30:27.000Z</time>
      </trkpt>
      <trkpt lat="50.27756" lon="4.4076">
        <ele>197.4</ele>
        <time>2025-11-16T08:30:28.000Z</time>
      </trkpt>
      <trkpt lat="50.27757" lon="4.4076">
        <ele>197.3</ele>
        <time>2025-11-16T08:30:29.000Z</time>
      </trkpt>
      <trkpt lat="50.27758" lon="4.40761">
        <ele>197.1</ele>
        <time>2025-11-16T08:30:30.000Z</time>
      </trkpt>
      <trkpt lat="50.27758" lon="4.40762">
        <ele>197</ele>
        <time>2025-11-16T08:30:31.000Z</time>
      </trkpt>
      <trkpt lat="50.27759" lon="4.40764">
        <ele>197</ele>
        <time>2025-11-16T08:30:32.000Z</time>
      </trkpt>
      <trkpt lat="50.27759" lon="4.40765">
        <ele>196.8</ele>
        <time>2025-11-16T08:30:33.000Z</time>
      </trkpt>
      <trkpt lat="50.2776" lon="4.40766">
        <ele>196.8</ele>
        <time>2025-11-16T08:30:34.000Z</time>
      </trkpt>
      <trkpt lat="50.27761" lon="4.40768">
        <ele>196.9</ele>
        <time>2025-11-16T08:30:35.000Z</time>
      </trkpt>
      <trkpt lat="50.27761" lon="4.4077">
        <ele>197</ele>
        <time>2025-11-16T08:30:36.000Z</time>
      </trkpt>
      <trkpt lat="50.27762" lon="4.40771">
        <ele>197.2</ele>
        <time>2025-11-16T08:30:37.000Z</time>
      </trkpt>
      <trkpt lat="50.27762" lon="4.40772">
        <ele>197.4</ele>
        <time>2025-11-16T08:30:38.000Z</time>
      </trkpt>
      <trkpt lat="50.27763" lon="4.40773">
        <ele>197.5</ele>
        <time>2025-11-16T08:30:39.000Z</time>
      </trkpt>
      <trkpt lat="50.27764" lon="4.40773">
        <ele>197.7</ele>
        <time>2025-11-16T08:30:40.000Z</time>
      </trkpt>
      <trkpt lat="50.27764" lon="4.40774">
        <ele>197.9</ele>
        <time>2025-11-16T08:30:41.000Z</time>
      </trkpt>
      <trkpt lat="50.27765" lon="4.40776">
        <ele>198.2</ele>
        <time>2025-11-16T08:30:42.000Z</time>
      </trkpt>
      <trkpt lat="50.27767" lon="4.40778">
        <ele>198.5</ele>
        <time>2025-11-16T08:30:43.000Z</time>
      </trkpt>
      <trkpt lat="50.27768" lon="4.40781">
        <ele>198.5</ele>
        <time>2025-11-16T08:30:44.000Z</time>
      </trkpt>
      <trkpt lat="50.27769" lon="4.40783">
        <ele>198.4</ele>
        <time>2025-11-16T08:30:45.000Z</time>
      </trkpt>
      <trkpt lat="50.27771" lon="4.40786">
        <ele>198.2</ele>
        <time>2025-11-16T08:30:46.000Z</time>
      </trkpt>
      <trkpt lat="50.27773" lon="4.40788">
        <ele>198</ele>
        <time>2025-11-16T08:30:47.000Z</time>
      </trkpt>
      <trkpt lat="50.27775" lon="4.4079">
        <ele>197.9</ele>
        <time>2025-11-16T08:30:48.000Z</time>
      </trkpt>
      <trkpt lat="50.27776" lon="4.40792">
        <ele>197.8</ele>
        <time>2025-11-16T08:30:49.000Z</time>
      </trkpt>
      <trkpt lat="50.27778" lon="4.40794">
        <ele>197.8</ele>
        <time>2025-11-16T08:30:50.000Z</time>
      </trkpt>
      <trkpt lat="50.2778" lon="4.40796">
        <ele>198</ele>
        <time>2025-11-16T08:30:51.000Z</time>
      </trkpt>
      <trkpt lat="50.27781" lon="4.40798">
        <ele>198.2</ele>
        <time>2025-11-16T08:30:52.000Z</time>
      </trkpt>
      <trkpt lat="50.27782" lon="4.408">
        <ele>198.3</ele>
        <time>2025-11-16T08:30:53.000Z</time>
      </trkpt>
      <trkpt lat="50.27784" lon="4.40802">
        <ele>198.4</ele>
        <time>2025-11-16T08:30:54.000Z</time>
      </trkpt>
      <trkpt lat="50.27785" lon="4.40804">
        <ele>198.5</ele>
        <time>2025-11-16T08:30:55.000Z</time>
      </trkpt>
      <trkpt lat="50.27786" lon="4.40806">
        <ele>198.6</ele>
        <time>2025-11-16T08:30:56.000Z</time>
      </trkpt>
      <trkpt lat="50.27787" lon="4.40808">
        <ele>198.8</ele>
        <time>2025-11-16T08:30:57.000Z</time>
      </trkpt>
      <trkpt lat="50.27788" lon="4.4081">
        <ele>198.9</ele>
        <time>2025-11-16T08:30:58.000Z</time>
      </trkpt>
      <trkpt lat="50.27789" lon="4.40812">
        <ele>198.9</ele>
        <time>2025-11-16T08:30:59.000Z</time>
      </trkpt>
      <trkpt lat="50.2779" lon="4.40815">
        <ele>199</ele>
        <time>2025-11-16T08:31:00.000Z</time>
      </trkpt>
      <trkpt lat="50.27791" lon="4.40817">
        <ele>199.1</ele>
        <time>2025-11-16T08:31:01.000Z</time>
      </trkpt>
      <trkpt lat="50.27792" lon="4.40819">
        <ele>199.1</ele>
        <time>2025-11-16T08:31:02.000Z</time>
      </trkpt>
      <trkpt lat="50.27792" lon="4.40821">
        <ele>199.1</ele>
        <time>2025-11-16T08:31:03.000Z</time>
      </trkpt>
      <trkpt lat="50.27794" lon="4.40823">
        <ele>199</ele>
        <time>2025-11-16T08:31:04.000Z</time>
      </trkpt>
      <trkpt lat="50.27795" lon="4.40824">
        <ele>199</ele>
        <time>2025-11-16T08:31:05.000Z</time>
      </trkpt>
      <trkpt lat="50.27795" lon="4.40826">
        <ele>199</ele>
        <time>2025-11-16T08:31:06.000Z</time>
      </trkpt>
      <trkpt lat="50.27796" lon="4.40828">
        <ele>198.8</ele>
        <time>2025-11-16T08:31:07.000Z</time>
      </trkpt>
      <trkpt lat="50.27797" lon="4.4083">
        <ele>198.6</ele>
        <time>2025-11-16T08:31:08.000Z</time>
      </trkpt>
      <trkpt lat="50.27798" lon="4.40832">
        <ele>198.5</ele>
        <time>2025-11-16T08:31:09.000Z</time>
      </trkpt>
      <trkpt lat="50.27799" lon="4.40834">
        <ele>198.3</ele>
        <time>2025-11-16T08:31:10.000Z</time>
      </trkpt>
      <trkpt lat="50.278" lon="4.40837">
        <ele>198.2</ele>
        <time>2025-11-16T08:31:11.000Z</time>
      </trkpt>
      <trkpt lat="50.278" lon="4.40839">
        <ele>198.2</ele>
        <time>2025-11-16T08:31:12.000Z</time>
      </trkpt>
      <trkpt lat="50.27801" lon="4.40841">
        <ele>198</ele>
        <time>2025-11-16T08:31:13.000Z</time>
      </trkpt>
      <trkpt lat="50.27802" lon="4.40842">
        <ele>197.6</ele>
        <time>2025-11-16T08:31:14.000Z</time>
      </trkpt>
      <trkpt lat="50.27802" lon="4.40844">
        <ele>197.4</ele>
        <time>2025-11-16T08:31:15.000Z</time>
      </trkpt>
      <trkpt lat="50.27803" lon="4.40845">
        <ele>197.3</ele>
        <time>2025-11-16T08:31:16.000Z</time>
      </trkpt>
      <trkpt lat="50.27803" lon="4.40847">
        <ele>197.2</ele>
        <time>2025-11-16T08:31:17.000Z</time>
      </trkpt>
      <trkpt lat="50.27804" lon="4.40848">
        <ele>197.1</ele>
        <time>2025-11-16T08:31:18.000Z</time>
      </trkpt>
      <trkpt lat="50.27805" lon="4.4085">
        <ele>196.7</ele>
        <time>2025-11-16T08:31:19.000Z</time>
      </trkpt>
      <trkpt lat="50.27805" lon="4.40852">
        <ele>196.3</ele>
        <time>2025-11-16T08:31:20.000Z</time>
      </trkpt>
      <trkpt lat="50.27806" lon="4.40854">
        <ele>196.1</ele>
        <time>2025-11-16T08:31:21.000Z</time>
      </trkpt>
      <trkpt lat="50.27807" lon="4.40856">
        <ele>196</ele>
        <time>2025-11-16T08:31:22.000Z</time>
      </trkpt>
      <trkpt lat="50.27808" lon="4.40858">
        <ele>195.8</ele>
        <time>2025-11-16T08:31:23.000Z</time>
      </trkpt>
      <trkpt lat="50.27808" lon="4.4086">
        <ele>195.6</ele>
        <time>2025-11-16T08:31:24.000Z</time>
      </trkpt>
      <trkpt lat="50.27809" lon="4.40861">
        <ele>195.5</ele>
        <time>2025-11-16T08:31:25.000Z</time>
      </trkpt>
      <trkpt lat="50.2781" lon="4.40863">
        <ele>195.4</ele>
        <time>2025-11-16T08:31:26.000Z</time>
      </trkpt>
      <trkpt lat="50.27811" lon="4.40864">
        <ele>195.4</ele>
        <time>2025-11-16T08:31:27.000Z</time>
      </trkpt>
      <trkpt lat="50.27812" lon="4.40866">
        <ele>195.3</ele>
        <time>2025-11-16T08:31:28.000Z</time>
      </trkpt>
      <trkpt lat="50.27813" lon="4.40867">
        <ele>195.2</ele>
        <time>2025-11-16T08:31:29.000Z</time>
      </trkpt>
      <trkpt lat="50.27813" lon="4.40869">
        <ele>195.2</ele>
        <time>2025-11-16T08:31:30.000Z</time>
      </trkpt>
      <trkpt lat="50.27814" lon="4.4087">
        <ele>195.1</ele>
        <time>2025-11-16T08:31:31.000Z</time>
      </trkpt>
      <trkpt lat="50.27814" lon="4.40872">
        <ele>195.3</ele>
        <time>2025-11-16T08:31:32.000Z</time>
      </trkpt>
      <trkpt lat="50.27815" lon="4.40874">
        <ele>195.4</ele>
        <time>2025-11-16T08:31:33.000Z</time>
      </trkpt>
      <trkpt lat="50.27816" lon="4.40875">
        <ele>195.4</ele>
        <time>2025-11-16T08:31:34.000Z</time>
      </trkpt>
      <trkpt lat="50.27817" lon="4.40877">
        <ele>195.5</ele>
        <time>2025-11-16T08:31:35.000Z</time>
      </trkpt>
      <trkpt lat="50.27818" lon="4.40879">
        <ele>195.6</ele>
        <time>2025-11-16T08:31:36.000Z</time>
      </trkpt>
      <trkpt lat="50.27819" lon="4.4088">
        <ele>195.6</ele>
        <time>2025-11-16T08:31:37.000Z</time>
      </trkpt>
      <trkpt lat="50.2782" lon="4.40882">
        <ele>195.6</ele>
        <time>2025-11-16T08:31:38.000Z</time>
      </trkpt>
      <trkpt lat="50.27821" lon="4.40882">
        <ele>195.5</ele>
        <time>2025-11-16T08:31:39.000Z</time>
      </trkpt>
      <trkpt lat="50.27822" lon="4.40883">
        <ele>195.5</ele>
        <time>2025-11-16T08:31:40.000Z</time>
      </trkpt>
      <trkpt lat="50.27824" lon="4.40884">
        <ele>195.6</ele>
        <time>2025-11-16T08:31:41.000Z</time>
      </trkpt>
      <trkpt lat="50.27825" lon="4.40886">
        <ele>195.7</ele>
        <time>2025-11-16T08:31:42.000Z</time>
      </trkpt>
      <trkpt lat="50.27825" lon="4.40888">
        <ele>195.9</ele>
        <time>2025-11-16T08:31:43.000Z</time>
      </trkpt>
      <trkpt lat="50.27826" lon="4.4089">
        <ele>195.9</ele>
        <time>2025-11-16T08:31:44.000Z</time>
      </trkpt>
      <trkpt lat="50.27828" lon="4.40892">
        <ele>196</ele>
        <time>2025-11-16T08:31:45.000Z</time>
      </trkpt>
      <trkpt lat="50.27829" lon="4.40894">
        <ele>196.2</ele>
        <time>2025-11-16T08:31:46.000Z</time>
      </trkpt>
      <trkpt lat="50.27831" lon="4.40895">
        <ele>196</ele>
        <time>2025-11-16T08:31:47.000Z</time>
      </trkpt>
      <trkpt lat="50.27832" lon="4.40897">
        <ele>195.8</ele>
        <time>2025-11-16T08:31:48.000Z</time>
      </trkpt>
      <trkpt lat="50.27833" lon="4.40898">
        <ele>195.6</ele>
        <time>2025-11-16T08:31:49.000Z</time>
      </trkpt>
      <trkpt lat="50.27834" lon="4.409">
        <ele>195.5</ele>
        <time>2025-11-16T08:31:50.000Z</time>
      </trkpt>
      <trkpt lat="50.27835" lon="4.40901">
        <ele>195.4</ele>
        <time>2025-11-16T08:31:51.000Z</time>
      </trkpt>
      <trkpt lat="50.27836" lon="4.40903">
        <ele>195.4</ele>
        <time>2025-11-16T08:31:52.000Z</time>
      </trkpt>
      <trkpt lat="50.27837" lon="4.40904">
        <ele>195.4</ele>
        <time>2025-11-16T08:31:53.000Z</time>
      </trkpt>
      <trkpt lat="50.27839" lon="4.40906">
        <ele>195.2</ele>
        <time>2025-11-16T08:31:54.000Z</time>
      </trkpt>
      <trkpt lat="50.2784" lon="4.40907">
        <ele>194.9</ele>
        <time>2025-11-16T08:31:55.000Z</time>
      </trkpt>
      <trkpt lat="50.27842" lon="4.40909">
        <ele>194.8</ele>
        <time>2025-11-16T08:31:56.000Z</time>
      </trkpt>
      <trkpt lat="50.27844" lon="4.40909">
        <ele>194.7</ele>
        <time>2025-11-16T08:31:57.000Z</time>
      </trkpt>
      <trkpt lat="50.27846" lon="4.4091">
        <ele>194.5</ele>
        <time>2025-11-16T08:31:58.000Z</time>
      </trkpt>
      <trkpt lat="50.27848" lon="4.40911">
        <ele>194.1</ele>
        <time>2025-11-16T08:31:59.000Z</time>
      </trkpt>
      <trkpt lat="50.2785" lon="4.40912">
        <ele>193.9</ele>
        <time>2025-11-16T08:32:00.000Z</time>
      </trkpt>
      <trkpt lat="50.27851" lon="4.40913">
        <ele>193.6</ele>
        <time>2025-11-16T08:32:01.000Z</time>
      </trkpt>
      <trkpt lat="50.27853" lon="4.40913">
        <ele>193.2</ele>
        <time>2025-11-16T08:32:02.000Z</time>
      </trkpt>
      <trkpt lat="50.27856" lon="4.40913">
        <ele>192.5</ele>
        <time>2025-11-16T08:32:03.000Z</time>
      </trkpt>
      <trkpt lat="50.27857" lon="4.40914">
        <ele>192.1</ele>
        <time>2025-11-16T08:32:04.000Z</time>
      </trkpt>
      <trkpt lat="50.27859" lon="4.40915">
        <ele>191.6</ele>
        <time>2025-11-16T08:32:05.000Z</time>
      </trkpt>
      <trkpt lat="50.27861" lon="4.40915">
        <ele>191.1</ele>
        <time>2025-11-16T08:32:06.000Z</time>
      </trkpt>
      <trkpt lat="50.27862" lon="4.40916">
        <ele>190.7</ele>
        <time>2025-11-16T08:32:07.000Z</time>
      </trkpt>
      <trkpt lat="50.27863" lon="4.40917">
        <ele>190.4</ele>
        <time>2025-11-16T08:32:08.000Z</time>
      </trkpt>
      <trkpt lat="50.27864" lon="4.40917">
        <ele>190.2</ele>
        <time>2025-11-16T08:32:09.000Z</time>
      </trkpt>
      <trkpt lat="50.27865" lon="4.40918">
        <ele>189.8</ele>
        <time>2025-11-16T08:32:10.000Z</time>
      </trkpt>
      <trkpt lat="50.27866" lon="4.4092">
        <ele>189.6</ele>
        <time>2025-11-16T08:32:11.000Z</time>
      </trkpt>
      <trkpt lat="50.27867" lon="4.4092">
        <ele>189.3</ele>
        <time>2025-11-16T08:32:12.000Z</time>
      </trkpt>
      <trkpt lat="50.27869" lon="4.40921">
        <ele>189.1</ele>
        <time>2025-11-16T08:32:13.000Z</time>
      </trkpt>
      <trkpt lat="50.2787" lon="4.40922">
        <ele>188.9</ele>
        <time>2025-11-16T08:32:14.000Z</time>
      </trkpt>
      <trkpt lat="50.27871" lon="4.40923">
        <ele>188.9</ele>
        <time>2025-11-16T08:32:15.000Z</time>
      </trkpt>
      <trkpt lat="50.27871" lon="4.40924">
        <ele>189.2</ele>
        <time>2025-11-16T08:32:16.000Z</time>
      </trkpt>
      <trkpt lat="50.27872" lon="4.40925">
        <ele>189.3</ele>
        <time>2025-11-16T08:32:17.000Z</time>
      </trkpt>
      <trkpt lat="50.27873" lon="4.40926">
        <ele>189.6</ele>
        <time>2025-11-16T08:32:18.000Z</time>
      </trkpt>
      <trkpt lat="50.27874" lon="4.40928">
        <ele>189.7</ele>
        <time>2025-11-16T08:32:19.000Z</time>
      </trkpt>
      <trkpt lat="50.27875" lon="4.40929">
        <ele>190</ele>
        <time>2025-11-16T08:32:20.000Z</time>
      </trkpt>
      <trkpt lat="50.27876" lon="4.4093">
        <ele>190.1</ele>
        <time>2025-11-16T08:32:21.000Z</time>
      </trkpt>
      <trkpt lat="50.27877" lon="4.4093">
        <ele>190.2</ele>
        <time>2025-11-16T08:32:22.000Z</time>
      </trkpt>
      <trkpt lat="50.27878" lon="4.4093">
        <ele>190.4</ele>
        <time>2025-11-16T08:32:23.000Z</time>
      </trkpt>
      <trkpt lat="50.27879" lon="4.4093">
        <ele>190.6</ele>
        <time>2025-11-16T08:32:24.000Z</time>
      </trkpt>
      <trkpt lat="50.2788" lon="4.40931">
        <ele>190.8</ele>
        <time>2025-11-16T08:32:25.000Z</time>
      </trkpt>
      <trkpt lat="50.27881" lon="4.40932">
        <ele>191.2</ele>
        <time>2025-11-16T08:32:26.000Z</time>
      </trkpt>
      <trkpt lat="50.27882" lon="4.40932">
        <ele>191.4</ele>
        <time>2025-11-16T08:32:27.000Z</time>
      </trkpt>
      <trkpt lat="50.27882" lon="4.40933">
        <ele>191.8</ele>
        <time>2025-11-16T08:32:28.000Z</time>
      </trkpt>
      <trkpt lat="50.27883" lon="4.40934">
        <ele>192.1</ele>
        <time>2025-11-16T08:32:29.000Z</time>
      </trkpt>
      <trkpt lat="50.27884" lon="4.40935">
        <ele>192.3</ele>
        <time>2025-11-16T08:32:30.000Z</time>
      </trkpt>
      <trkpt lat="50.27885" lon="4.40936">
        <ele>192.6</ele>
        <time>2025-11-16T08:32:31.000Z</time>
      </trkpt>
      <trkpt lat="50.27886" lon="4.40938">
        <ele>192.9</ele>
        <time>2025-11-16T08:32:32.000Z</time>
      </trkpt>
      <trkpt lat="50.27887" lon="4.40939">
        <ele>193.3</ele>
        <time>2025-11-16T08:32:33.000Z</time>
      </trkpt>
      <trkpt lat="50.27888" lon="4.4094">
        <ele>193.4</ele>
        <time>2025-11-16T08:32:34.000Z</time>
      </trkpt>
      <trkpt lat="50.27888" lon="4.40941">
        <ele>193.6</ele>
        <time>2025-11-16T08:32:35.000Z</time>
      </trkpt>
      <trkpt lat="50.2789" lon="4.40942">
        <ele>193.7</ele>
        <time>2025-11-16T08:32:36.000Z</time>
      </trkpt>
      <trkpt lat="50.27891" lon="4.40943">
        <ele>193.8</ele>
        <time>2025-11-16T08:32:37.000Z</time>
      </trkpt>
      <trkpt lat="50.27892" lon="4.40944">
        <ele>194.1</ele>
        <time>2025-11-16T08:32:38.000Z</time>
      </trkpt>
      <trkpt lat="50.27893" lon="4.40945">
        <ele>194.1</ele>
        <time>2025-11-16T08:32:39.000Z</time>
      </trkpt>
      <trkpt lat="50.27895" lon="4.40945">
        <ele>194.1</ele>
        <time>2025-11-16T08:32:40.000Z</time>
      </trkpt>
      <trkpt lat="50.27896" lon="4.40945">
        <ele>194</ele>
        <time>2025-11-16T08:32:41.000Z</time>
      </trkpt>
      <trkpt lat="50.27898" lon="4.40946">
        <ele>193.8</ele>
        <time>2025-11-16T08:32:42.000Z</time>
      </trkpt>
      <trkpt lat="50.279" lon="4.40947">
        <ele>193.8</ele>
        <time>2025-11-16T08:32:43.000Z</time>
      </trkpt>
      <trkpt lat="50.27902" lon="4.40949">
        <ele>193.8</ele>
        <time>2025-11-16T08:32:44.000Z</time>
      </trkpt>
      <trkpt lat="50.27903" lon="4.4095">
        <ele>193.8</ele>
        <time>2025-11-16T08:32:45.000Z</time>
      </trkpt>
      <trkpt lat="50.27905" lon="4.40951">
        <ele>193.8</ele>
        <time>2025-11-16T08:32:46.000Z</time>
      </trkpt>
      <trkpt lat="50.27906" lon="4.40951">
        <ele>193.6</ele>
        <time>2025-11-16T08:32:47.000Z</time>
      </trkpt>
      <trkpt lat="50.27908" lon="4.40952">
        <ele>193.6</ele>
        <time>2025-11-16T08:32:48.000Z</time>
      </trkpt>
      <trkpt lat="50.27909" lon="4.40953">
        <ele>193.7</ele>
        <time>2025-11-16T08:32:49.000Z</time>
      </trkpt>
      <trkpt lat="50.27911" lon="4.40954">
        <ele>193.8</ele>
        <time>2025-11-16T08:32:50.000Z</time>
      </trkpt>
      <trkpt lat="50.27912" lon="4.40955">
        <ele>193.8</ele>
        <time>2025-11-16T08:32:51.000Z</time>
      </trkpt>
      <trkpt lat="50.27914" lon="4.40956">
        <ele>193.8</ele>
        <time>2025-11-16T08:32:52.000Z</time>
      </trkpt>
      <trkpt lat="50.27916" lon="4.40957">
        <ele>193.8</ele>
        <time>2025-11-16T08:32:53.000Z</time>
      </trkpt>
      <trkpt lat="50.27917" lon="4.40957">
        <ele>193.7</ele>
        <time>2025-11-16T08:32:54.000Z</time>
      </trkpt>
      <trkpt lat="50.27919" lon="4.40957">
        <ele>193.7</ele>
        <time>2025-11-16T08:32:55.000Z</time>
      </trkpt>
      <trkpt lat="50.2792" lon="4.40956">
        <ele>193.6</ele>
        <time>2025-11-16T08:32:56.000Z</time>
      </trkpt>
      <trkpt lat="50.27921" lon="4.40957">
        <ele>193.6</ele>
        <time>2025-11-16T08:32:57.000Z</time>
      </trkpt>
      <trkpt lat="50.27923" lon="4.40957">
        <ele>193.4</ele>
        <time>2025-11-16T08:32:58.000Z</time>
      </trkpt>
      <trkpt lat="50.27925" lon="4.40958">
        <ele>193.4</ele>
        <time>2025-11-16T08:32:59.000Z</time>
      </trkpt>
      <trkpt lat="50.27926" lon="4.4096">
        <ele>193.3</ele>
        <time>2025-11-16T08:33:00.000Z</time>
      </trkpt>
      <trkpt lat="50.27928" lon="4.40961">
        <ele>193.3</ele>
        <time>2025-11-16T08:33:01.000Z</time>
      </trkpt>
      <trkpt lat="50.27929" lon="4.40962">
        <ele>193</ele>
        <time>2025-11-16T08:33:02.000Z</time>
      </trkpt>
      <trkpt lat="50.2793" lon="4.40963">
        <ele>192.9</ele>
        <time>2025-11-16T08:33:03.000Z</time>
      </trkpt>
      <trkpt lat="50.27931" lon="4.40963">
        <ele>192.7</ele>
        <time>2025-11-16T08:33:04.000Z</time>
      </trkpt>
      <trkpt lat="50.27932" lon="4.40964">
        <ele>192.4</ele>
        <time>2025-11-16T08:33:05.000Z</time>
      </trkpt>
      <trkpt lat="50.27933" lon="4.40964">
        <ele>192.2</ele>
        <time>2025-11-16T08:33:06.000Z</time>
      </trkpt>
      <trkpt lat="50.27934" lon="4.40964">
        <ele>192.1</ele>
        <time>2025-11-16T08:33:07.000Z</time>
      </trkpt>
      <trkpt lat="50.27935" lon="4.40964">
        <ele>191.8</ele>
        <time>2025-11-16T08:33:08.000Z</time>
      </trkpt>
      <trkpt lat="50.27936" lon="4.40964">
        <ele>191.7</ele>
        <time>2025-11-16T08:33:09.000Z</time>
      </trkpt>
      <trkpt lat="50.27936" lon="4.40963">
        <ele>191.6</ele>
        <time>2025-11-16T08:33:10.000Z</time>
      </trkpt>
      <trkpt lat="50.27937" lon="4.40963">
        <ele>191.5</ele>
        <time>2025-11-16T08:33:11.000Z</time>
      </trkpt>
      <trkpt lat="50.27938" lon="4.40963">
        <ele>191.4</ele>
        <time>2025-11-16T08:33:12.000Z</time>
      </trkpt>
      <trkpt lat="50.27939" lon="4.40962">
        <ele>191.4</ele>
        <time>2025-11-16T08:33:13.000Z</time>
      </trkpt>
      <trkpt lat="50.27939" lon="4.40962">
        <ele>191.4</ele>
        <time>2025-11-16T08:33:14.000Z</time>
      </trkpt>
      <trkpt lat="50.2794" lon="4.40962">
        <ele>191.3</ele>
        <time>2025-11-16T08:33:15.000Z</time>
      </trkpt>
      <trkpt lat="50.27941" lon="4.40961">
        <ele>191.3</ele>
        <time>2025-11-16T08:33:16.000Z</time>
      </trkpt>
      <trkpt lat="50.27942" lon="4.40961">
        <ele>191.3</ele>
        <time>2025-11-16T08:33:17.000Z</time>
      </trkpt>
      <trkpt lat="50.27943" lon="4.40962">
        <ele>191.3</ele>
        <time>2025-11-16T08:33:18.000Z</time>
      </trkpt>
      <trkpt lat="50.27944" lon="4.40962">
        <ele>191.3</ele>
        <time>2025-11-16T08:33:19.000Z</time>
      </trkpt>
      <trkpt lat="50.27945" lon="4.40963">
        <ele>191.3</ele>
        <time>2025-11-16T08:33:20.000Z</time>
      </trkpt>
      <trkpt lat="50.27946" lon="4.40963">
        <ele>191.3</ele>
        <time>2025-11-16T08:33:21.000Z</time>
      </trkpt>
      <trkpt lat="50.27948" lon="4.40963">
        <ele>191.3</ele>
        <time>2025-11-16T08:33:22.000Z</time>
      </trkpt>
      <trkpt lat="50.27949" lon="4.40963">
        <ele>191.3</ele>
        <time>2025-11-16T08:33:23.000Z</time>
      </trkpt>
      <trkpt lat="50.2795" lon="4.40964">
        <ele>191.4</ele>
        <time>2025-11-16T08:33:24.000Z</time>
      </trkpt>
      <trkpt lat="50.27951" lon="4.40964">
        <ele>191.4</ele>
        <time>2025-11-16T08:33:25.000Z</time>
      </trkpt>
      <trkpt lat="50.27952" lon="4.40965">
        <ele>191.5</ele>
        <time>2025-11-16T08:33:26.000Z</time>
      </trkpt>
      <trkpt lat="50.27953" lon="4.40966">
        <ele>191.6</ele>
        <time>2025-11-16T08:33:27.000Z</time>
      </trkpt>
      <trkpt lat="50.27955" lon="4.40966">
        <ele>191.7</ele>
        <time>2025-11-16T08:33:28.000Z</time>
      </trkpt>
      <trkpt lat="50.27956" lon="4.40966">
        <ele>191.9</ele>
        <time>2025-11-16T08:33:29.000Z</time>
      </trkpt>
      <trkpt lat="50.27957" lon="4.40966">
        <ele>192.2</ele>
        <time>2025-11-16T08:33:30.000Z</time>
      </trkpt>
      <trkpt lat="50.27958" lon="4.40967">
        <ele>192.3</ele>
        <time>2025-11-16T08:33:31.000Z</time>
      </trkpt>
      <trkpt lat="50.2796" lon="4.40966">
        <ele>192.5</ele>
        <time>2025-11-16T08:33:32.000Z</time>
      </trkpt>
      <trkpt lat="50.27961" lon="4.40966">
        <ele>192.5</ele>
        <time>2025-11-16T08:33:33.000Z</time>
      </trkpt>
      <trkpt lat="50.27962" lon="4.40966">
        <ele>192.5</ele>
        <time>2025-11-16T08:33:34.000Z</time>
      </trkpt>
      <trkpt lat="50.27963" lon="4.40966">
        <ele>192.6</ele>
        <time>2025-11-16T08:33:35.000Z</time>
      </trkpt>
      <trkpt lat="50.27965" lon="4.40966">
        <ele>192.7</ele>
        <time>2025-11-16T08:33:36.000Z</time>
      </trkpt>
      <trkpt lat="50.27966" lon="4.40967">
        <ele>192.8</ele>
        <time>2025-11-16T08:33:37.000Z</time>
      </trkpt>
      <trkpt lat="50.27967" lon="4.40967">
        <ele>193</ele>
        <time>2025-11-16T08:33:38.000Z</time>
      </trkpt>
      <trkpt lat="50.27968" lon="4.40966">
        <ele>193.1</ele>
        <time>2025-11-16T08:33:39.000Z</time>
      </trkpt>
      <trkpt lat="50.27969" lon="4.40967">
        <ele>193.2</ele>
        <time>2025-11-16T08:33:40.000Z</time>
      </trkpt>
      <trkpt lat="50.27971" lon="4.40967">
        <ele>193.3</ele>
        <time>2025-11-16T08:33:41.000Z</time>
      </trkpt>
      <trkpt lat="50.27972" lon="4.40967">
        <ele>193.5</ele>
        <time>2025-11-16T08:33:42.000Z</time>
      </trkpt>
      <trkpt lat="50.27973" lon="4.40967">
        <ele>193.5</ele>
        <time>2025-11-16T08:33:43.000Z</time>
      </trkpt>
      <trkpt lat="50.27975" lon="4.40967">
        <ele>193.7</ele>
        <time>2025-11-16T08:33:44.000Z</time>
      </trkpt>
      <trkpt lat="50.27977" lon="4.40967">
        <ele>193.9</ele>
        <time>2025-11-16T08:33:45.000Z</time>
      </trkpt>
      <trkpt lat="50.27979" lon="4.40967">
        <ele>194</ele>
        <time>2025-11-16T08:33:46.000Z</time>
      </trkpt>
      <trkpt lat="50.2798" lon="4.40967">
        <ele>194.1</ele>
        <time>2025-11-16T08:33:47.000Z</time>
      </trkpt>
      <trkpt lat="50.27982" lon="4.40968">
        <ele>194.1</ele>
        <time>2025-11-16T08:33:48.000Z</time>
      </trkpt>
      <trkpt lat="50.27983" lon="4.40967">
        <ele>194.2</ele>
        <time>2025-11-16T08:33:49.000Z</time>
      </trkpt>
      <trkpt lat="50.27985" lon="4.40968">
        <ele>194.1</ele>
        <time>2025-11-16T08:33:50.000Z</time>
      </trkpt>
      <trkpt lat="50.27987" lon="4.40967">
        <ele>194.2</ele>
        <time>2025-11-16T08:33:51.000Z</time>
      </trkpt>
      <trkpt lat="50.27989" lon="4.40967">
        <ele>194.1</ele>
        <time>2025-11-16T08:33:52.000Z</time>
      </trkpt>
      <trkpt lat="50.2799" lon="4.40966">
        <ele>194.2</ele>
        <time>2025-11-16T08:33:53.000Z</time>
      </trkpt>
      <trkpt lat="50.27992" lon="4.40966">
        <ele>194.2</ele>
        <time>2025-11-16T08:33:54.000Z</time>
      </trkpt>
      <trkpt lat="50.27993" lon="4.40965">
        <ele>194.4</ele>
        <time>2025-11-16T08:33:55.000Z</time>
      </trkpt>
      <trkpt lat="50.27994" lon="4.40965">
        <ele>194.4</ele>
        <time>2025-11-16T08:33:56.000Z</time>
      </trkpt>
      <trkpt lat="50.27995" lon="4.40965">
        <ele>194.5</ele>
        <time>2025-11-16T08:33:57.000Z</time>
      </trkpt>
      <trkpt lat="50.27996" lon="4.40965">
        <ele>194.6</ele>
        <time>2025-11-16T08:33:58.000Z</time>
      </trkpt>
      <trkpt lat="50.27998" lon="4.40965">
        <ele>194.8</ele>
        <time>2025-11-16T08:33:59.000Z</time>
      </trkpt>
      <trkpt lat="50.27999" lon="4.40966">
        <ele>194.9</ele>
        <time>2025-11-16T08:34:00.000Z</time>
      </trkpt>
      <trkpt lat="50.28001" lon="4.40966">
        <ele>195</ele>
        <time>2025-11-16T08:34:01.000Z</time>
      </trkpt>
      <trkpt lat="50.28002" lon="4.40966">
        <ele>195.2</ele>
        <time>2025-11-16T08:34:02.000Z</time>
      </trkpt>
      <trkpt lat="50.28004" lon="4.40965">
        <ele>195.3</ele>
        <time>2025-11-16T08:34:03.000Z</time>
      </trkpt>
      <trkpt lat="50.28005" lon="4.40964">
        <ele>195.5</ele>
        <time>2025-11-16T08:34:04.000Z</time>
      </trkpt>
      <trkpt lat="50.28006" lon="4.40964">
        <ele>195.8</ele>
        <time>2025-11-16T08:34:05.000Z</time>
      </trkpt>
      <trkpt lat="50.28008" lon="4.40964">
        <ele>196</ele>
        <time>2025-11-16T08:34:06.000Z</time>
      </trkpt>
      <trkpt lat="50.28009" lon="4.40963">
        <ele>196.3</ele>
        <time>2025-11-16T08:34:07.000Z</time>
      </trkpt>
      <trkpt lat="50.2801" lon="4.40963">
        <ele>196.6</ele>
        <time>2025-11-16T08:34:08.000Z</time>
      </trkpt>
      <trkpt lat="50.28012" lon="4.40963">
        <ele>196.7</ele>
        <time>2025-11-16T08:34:09.000Z</time>
      </trkpt>
      <trkpt lat="50.28013" lon="4.40962">
        <ele>196.8</ele>
        <time>2025-11-16T08:34:10.000Z</time>
      </trkpt>
      <trkpt lat="50.28014" lon="4.40961">
        <ele>197</ele>
        <time>2025-11-16T08:34:11.000Z</time>
      </trkpt>
      <trkpt lat="50.28015" lon="4.40961">
        <ele>197.2</ele>
        <time>2025-11-16T08:34:12.000Z</time>
      </trkpt>
      <trkpt lat="50.28016" lon="4.40961">
        <ele>197.3</ele>
        <time>2025-11-16T08:34:13.000Z</time>
      </trkpt>
      <trkpt lat="50.28018" lon="4.4096">
        <ele>197.5</ele>
        <time>2025-11-16T08:34:14.000Z</time>
      </trkpt>
      <trkpt lat="50.28019" lon="4.4096">
        <ele>197.6</ele>
        <time>2025-11-16T08:34:15.000Z</time>
      </trkpt>
      <trkpt lat="50.2802" lon="4.40959">
        <ele>197.7</ele>
        <time>2025-11-16T08:34:16.000Z</time>
      </trkpt>
      <trkpt lat="50.28021" lon="4.40959">
        <ele>197.8</ele>
        <time>2025-11-16T08:34:17.000Z</time>
      </trkpt>
      <trkpt lat="50.28021" lon="4.40959">
        <ele>197.9</ele>
        <time>2025-11-16T08:34:18.000Z</time>
      </trkpt>
      <trkpt lat="50.28022" lon="4.40959">
        <ele>198</ele>
        <time>2025-11-16T08:34:19.000Z</time>
      </trkpt>
      <trkpt lat="50.28023" lon="4.40959">
        <ele>198</ele>
        <time>2025-11-16T08:34:20.000Z</time>
      </trkpt>
      <trkpt lat="50.28024" lon="4.40959">
        <ele>198.1</ele>
        <time>2025-11-16T08:34:21.000Z</time>
      </trkpt>
      <trkpt lat="50.28025" lon="4.40958">
        <ele>198.1</ele>
        <time>2025-11-16T08:34:22.000Z</time>
      </trkpt>
      <trkpt lat="50.28026" lon="4.40959">
        <ele>198.1</ele>
        <time>2025-11-16T08:34:23.000Z</time>
      </trkpt>
      <trkpt lat="50.28028" lon="4.40959">
        <ele>198.1</ele>
        <time>2025-11-16T08:34:24.000Z</time>
      </trkpt>
      <trkpt lat="50.28029" lon="4.40959">
        <ele>198</ele>
        <time>2025-11-16T08:34:25.000Z</time>
      </trkpt>
      <trkpt lat="50.28031" lon="4.40958">
        <ele>198.2</ele>
        <time>2025-11-16T08:34:26.000Z</time>
      </trkpt>
      <trkpt lat="50.28032" lon="4.40958">
        <ele>198.4</ele>
        <time>2025-11-16T08:34:27.000Z</time>
      </trkpt>
      <trkpt lat="50.28033" lon="4.40959">
        <ele>198.3</ele>
        <time>2025-11-16T08:34:28.000Z</time>
      </trkpt>
      <trkpt lat="50.28035" lon="4.40959">
        <ele>198.4</ele>
        <time>2025-11-16T08:34:29.000Z</time>
      </trkpt>
      <trkpt lat="50.28037" lon="4.4096">
        <ele>198.4</ele>
        <time>2025-11-16T08:34:30.000Z</time>
      </trkpt>
      <trkpt lat="50.28039" lon="4.4096">
        <ele>198.3</ele>
        <time>2025-11-16T08:34:31.000Z</time>
      </trkpt>
      <trkpt lat="50.28041" lon="4.4096">
        <ele>198.3</ele>
        <time>2025-11-16T08:34:32.000Z</time>
      </trkpt>
      <trkpt lat="50.28043" lon="4.4096">
        <ele>198.3</ele>
        <time>2025-11-16T08:34:33.000Z</time>
      </trkpt>
      <trkpt lat="50.28045" lon="4.40961">
        <ele>198.4</ele>
        <time>2025-11-16T08:34:34.000Z</time>
      </trkpt>
      <trkpt lat="50.28047" lon="4.40961">
        <ele>198.4</ele>
        <time>2025-11-16T08:34:35.000Z</time>
      </trkpt>
      <trkpt lat="50.2805" lon="4.40962">
        <ele>198.5</ele>
        <time>2025-11-16T08:34:36.000Z</time>
      </trkpt>
      <trkpt lat="50.28052" lon="4.40962">
        <ele>198.5</ele>
        <time>2025-11-16T08:34:37.000Z</time>
      </trkpt>
      <trkpt lat="50.28054" lon="4.40962">
        <ele>198.6</ele>
        <time>2025-11-16T08:34:38.000Z</time>
      </trkpt>
      <trkpt lat="50.28056" lon="4.40962">
        <ele>198.7</ele>
        <time>2025-11-16T08:34:39.000Z</time>
      </trkpt>
      <trkpt lat="50.28058" lon="4.40962">
        <ele>198.6</ele>
        <time>2025-11-16T08:34:40.000Z</time>
      </trkpt>
      <trkpt lat="50.2806" lon="4.40961">
        <ele>198.7</ele>
        <time>2025-11-16T08:34:41.000Z</time>
      </trkpt>
      <trkpt lat="50.28061" lon="4.40961">
        <ele>198.6</ele>
        <time>2025-11-16T08:34:42.000Z</time>
      </trkpt>
      <trkpt lat="50.28062" lon="4.40961">
        <ele>198.6</ele>
        <time>2025-11-16T08:34:43.000Z</time>
      </trkpt>
      <trkpt lat="50.28064" lon="4.40961">
        <ele>198.5</ele>
        <time>2025-11-16T08:34:44.000Z</time>
      </trkpt>
      <trkpt lat="50.28065" lon="4.4096">
        <ele>198.2</ele>
        <time>2025-11-16T08:34:45.000Z</time>
      </trkpt>
      <trkpt lat="50.28066" lon="4.4096">
        <ele>197.9</ele>
        <time>2025-11-16T08:34:46.000Z</time>
      </trkpt>
      <trkpt lat="50.28067" lon="4.40959">
        <ele>197.7</ele>
        <time>2025-11-16T08:34:47.000Z</time>
      </trkpt>
      <trkpt lat="50.28068" lon="4.40958">
        <ele>197.6</ele>
        <time>2025-11-16T08:34:48.000Z</time>
      </trkpt>
      <trkpt lat="50.28068" lon="4.40957">
        <ele>197.5</ele>
        <time>2025-11-16T08:34:49.000Z</time>
      </trkpt>
      <trkpt lat="50.28069" lon="4.40957">
        <ele>197.2</ele>
        <time>2025-11-16T08:34:50.000Z</time>
      </trkpt>
      <trkpt lat="50.28069" lon="4.40957">
        <ele>197.1</ele>
        <time>2025-11-16T08:34:51.000Z</time>
      </trkpt>
      <trkpt lat="50.28071" lon="4.40957">
        <ele>196.9</ele>
        <time>2025-11-16T08:34:52.000Z</time>
      </trkpt>
      <trkpt lat="50.28071" lon="4.40957">
        <ele>196.7</ele>
        <time>2025-11-16T08:34:53.000Z</time>
      </trkpt>
      <trkpt lat="50.28072" lon="4.40956">
        <ele>196.3</ele>
        <time>2025-11-16T08:34:54.000Z</time>
      </trkpt>
      <trkpt lat="50.28073" lon="4.40956">
        <ele>196.1</ele>
        <time>2025-11-16T08:34:55.000Z</time>
      </trkpt>
      <trkpt lat="50.28075" lon="4.40956">
        <ele>195.9</ele>
        <time>2025-11-16T08:34:56.000Z</time>
      </trkpt>
      <trkpt lat="50.28076" lon="4.40955">
        <ele>195.6</ele>
        <time>2025-11-16T08:34:57.000Z</time>
      </trkpt>
      <trkpt lat="50.28077" lon="4.40955">
        <ele>195.3</ele>
        <time>2025-11-16T08:34:58.000Z</time>
      </trkpt>
      <trkpt lat="50.28078" lon="4.40955">
        <ele>195</ele>
        <time>2025-11-16T08:34:59.000Z</time>
      </trkpt>
      <trkpt lat="50.2808" lon="4.40956">
        <ele>194.6</ele>
        <time>2025-11-16T08:35:00.000Z</time>
      </trkpt>
      <trkpt lat="50.28081" lon="4.40956">
        <ele>194.1</ele>
        <time>2025-11-16T08:35:01.000Z</time>
      </trkpt>
      <trkpt lat="50.28083" lon="4.40956">
        <ele>193.8</ele>
        <time>2025-11-16T08:35:02.000Z</time>
      </trkpt>
      <trkpt lat="50.28085" lon="4.40955">
        <ele>193.4</ele>
        <time>2025-11-16T08:35:03.000Z</time>
      </trkpt>
      <trkpt lat="50.28086" lon="4.40955">
        <ele>193.1</ele>
        <time>2025-11-16T08:35:04.000Z</time>
      </trkpt>
      <trkpt lat="50.28088" lon="4.40954">
        <ele>192.8</ele>
        <time>2025-11-16T08:35:05.000Z</time>
      </trkpt>
      <trkpt lat="50.2809" lon="4.40954">
        <ele>192.5</ele>
        <time>2025-11-16T08:35:06.000Z</time>
      </trkpt>
      <trkpt lat="50.28092" lon="4.40954">
        <ele>192.4</ele>
        <time>2025-11-16T08:35:07.000Z</time>
      </trkpt>
      <trkpt lat="50.28094" lon="4.40954">
        <ele>192.4</ele>
        <time>2025-11-16T08:35:08.000Z</time>
      </trkpt>
      <trkpt lat="50.28095" lon="4.40953">
        <ele>192.5</ele>
        <time>2025-11-16T08:35:09.000Z</time>
      </trkpt>
      <trkpt lat="50.28096" lon="4.40953">
        <ele>192.5</ele>
        <time>2025-11-16T08:35:10.000Z</time>
      </trkpt>
      <trkpt lat="50.28096" lon="4.40952">
        <ele>192.3</ele>
        <time>2025-11-16T08:35:11.000Z</time>
      </trkpt>
      <trkpt lat="50.28097" lon="4.40952">
        <ele>192.4</ele>
        <time>2025-11-16T08:35:12.000Z</time>
      </trkpt>
      <trkpt lat="50.28098" lon="4.40952">
        <ele>192.5</ele>
        <time>2025-11-16T08:35:13.000Z</time>
      </trkpt>
      <trkpt lat="50.28098" lon="4.40951">
        <ele>192.5</ele>
        <time>2025-11-16T08:35:14.000Z</time>
      </trkpt>
      <trkpt lat="50.28099" lon="4.40951">
        <ele>192.7</ele>
        <time>2025-11-16T08:35:15.000Z</time>
      </trkpt>
      <trkpt lat="50.281" lon="4.4095">
        <ele>193</ele>
        <time>2025-11-16T08:35:16.000Z</time>
      </trkpt>
      <trkpt lat="50.28101" lon="4.4095">
        <ele>193.1</ele>
        <time>2025-11-16T08:35:17.000Z</time>
      </trkpt>
      <trkpt lat="50.28103" lon="4.40949">
        <ele>193.1</ele>
        <time>2025-11-16T08:35:18.000Z</time>
      </trkpt>
      <trkpt lat="50.28104" lon="4.40948">
        <ele>193.1</ele>
        <time>2025-11-16T08:35:19.000Z</time>
      </trkpt>
      <trkpt lat="50.28106" lon="4.40947">
        <ele>193.1</ele>
        <time>2025-11-16T08:35:20.000Z</time>
      </trkpt>
      <trkpt lat="50.28108" lon="4.40946">
        <ele>193.1</ele>
        <time>2025-11-16T08:35:21.000Z</time>
      </trkpt>
      <trkpt lat="50.28109" lon="4.40946">
        <ele>193.2</ele>
        <time>2025-11-16T08:35:22.000Z</time>
      </trkpt>
      <trkpt lat="50.28112" lon="4.40944">
        <ele>193.3</ele>
        <time>2025-11-16T08:35:23.000Z</time>
      </trkpt>
      <trkpt lat="50.28114" lon="4.40943">
        <ele>193.2</ele>
        <time>2025-11-16T08:35:24.000Z</time>
      </trkpt>
      <trkpt lat="50.28115" lon="4.40941">
        <ele>193.2</ele>
        <time>2025-11-16T08:35:25.000Z</time>
      </trkpt>
      <trkpt lat="50.28118" lon="4.4094">
        <ele>193.1</ele>
        <time>2025-11-16T08:35:26.000Z</time>
      </trkpt>
      <trkpt lat="50.2812" lon="4.40939">
        <ele>193.1</ele>
        <time>2025-11-16T08:35:27.000Z</time>
      </trkpt>
      <trkpt lat="50.28123" lon="4.40938">
        <ele>193</ele>
        <time>2025-11-16T08:35:28.000Z</time>
      </trkpt>
      <trkpt lat="50.28125" lon="4.40937">
        <ele>193</ele>
        <time>2025-11-16T08:35:29.000Z</time>
      </trkpt>
      <trkpt lat="50.28126" lon="4.40937">
        <ele>192.8</ele>
        <time>2025-11-16T08:35:30.000Z</time>
      </trkpt>
      <trkpt lat="50.28128" lon="4.40936">
        <ele>192.7</ele>
        <time>2025-11-16T08:35:31.000Z</time>
      </trkpt>
      <trkpt lat="50.28129" lon="4.40934">
        <ele>192.8</ele>
        <time>2025-11-16T08:35:32.000Z</time>
      </trkpt>
      <trkpt lat="50.2813" lon="4.40933">
        <ele>192.4</ele>
        <time>2025-11-16T08:35:33.000Z</time>
      </trkpt>
      <trkpt lat="50.28131" lon="4.40932">
        <ele>192.1</ele>
        <time>2025-11-16T08:35:34.000Z</time>
      </trkpt>
      <trkpt lat="50.28132" lon="4.40931">
        <ele>191.8</ele>
        <time>2025-11-16T08:35:35.000Z</time>
      </trkpt>
      <trkpt lat="50.28133" lon="4.4093">
        <ele>191.6</ele>
        <time>2025-11-16T08:35:36.000Z</time>
      </trkpt>
      <trkpt lat="50.28134" lon="4.40929">
        <ele>191.4</ele>
        <time>2025-11-16T08:35:37.000Z</time>
      </trkpt>
      <trkpt lat="50.28136" lon="4.40928">
        <ele>191.2</ele>
        <time>2025-11-16T08:35:38.000Z</time>
      </trkpt>
      <trkpt lat="50.28137" lon="4.40927">
        <ele>190.9</ele>
        <time>2025-11-16T08:35:39.000Z</time>
      </trkpt>
      <trkpt lat="50.28139" lon="4.40927">
        <ele>190.7</ele>
        <time>2025-11-16T08:35:40.000Z</time>
      </trkpt>
      <trkpt lat="50.2814" lon="4.40926">
        <ele>190.6</ele>
        <time>2025-11-16T08:35:41.000Z</time>
      </trkpt>
      <trkpt lat="50.28142" lon="4.40924">
        <ele>190.5</ele>
        <time>2025-11-16T08:35:42.000Z</time>
      </trkpt>
      <trkpt lat="50.28143" lon="4.40923">
        <ele>190.2</ele>
        <time>2025-11-16T08:35:43.000Z</time>
      </trkpt>
      <trkpt lat="50.28145" lon="4.40922">
        <ele>189.9</ele>
        <time>2025-11-16T08:35:44.000Z</time>
      </trkpt>
      <trkpt lat="50.28146" lon="4.40921">
        <ele>189.6</ele>
        <time>2025-11-16T08:35:45.000Z</time>
      </trkpt>
      <trkpt lat="50.28147" lon="4.40921">
        <ele>189.3</ele>
        <time>2025-11-16T08:35:46.000Z</time>
      </trkpt>
      <trkpt lat="50.28149" lon="4.4092">
        <ele>189.1</ele>
        <time>2025-11-16T08:35:47.000Z</time>
      </trkpt>
      <trkpt lat="50.2815" lon="4.40919">
        <ele>189.1</ele>
        <time>2025-11-16T08:35:48.000Z</time>
      </trkpt>
      <trkpt lat="50.28151" lon="4.40919">
        <ele>188.9</ele>
        <time>2025-11-16T08:35:49.000Z</time>
      </trkpt>
      <trkpt lat="50.28153" lon="4.40918">
        <ele>189</ele>
        <time>2025-11-16T08:35:50.000Z</time>
      </trkpt>
      <trkpt lat="50.28154" lon="4.40917">
        <ele>188.9</ele>
        <time>2025-11-16T08:35:51.000Z</time>
      </trkpt>
      <trkpt lat="50.28155" lon="4.40916">
        <ele>188.8</ele>
        <time>2025-11-16T08:35:52.000Z</time>
      </trkpt>
      <trkpt lat="50.28157" lon="4.40914">
        <ele>188.7</ele>
        <time>2025-11-16T08:35:53.000Z</time>
      </trkpt>
      <trkpt lat="50.28158" lon="4.40913">
        <ele>188.7</ele>
        <time>2025-11-16T08:35:54.000Z</time>
      </trkpt>
      <trkpt lat="50.2816" lon="4.40913">
        <ele>188.6</ele>
        <time>2025-11-16T08:35:55.000Z</time>
      </trkpt>
      <trkpt lat="50.28161" lon="4.40912">
        <ele>188.6</ele>
        <time>2025-11-16T08:35:56.000Z</time>
      </trkpt>
      <trkpt lat="50.28162" lon="4.40912">
        <ele>188.5</ele>
        <time>2025-11-16T08:35:57.000Z</time>
      </trkpt>
      <trkpt lat="50.28164" lon="4.40911">
        <ele>188.3</ele>
        <time>2025-11-16T08:35:58.000Z</time>
      </trkpt>
      <trkpt lat="50.28165" lon="4.4091">
        <ele>188.3</ele>
        <time>2025-11-16T08:35:59.000Z</time>
      </trkpt>
      <trkpt lat="50.28166" lon="4.40909">
        <ele>188.3</ele>
        <time>2025-11-16T08:36:00.000Z</time>
      </trkpt>
      <trkpt lat="50.28168" lon="4.40908">
        <ele>188.4</ele>
        <time>2025-11-16T08:36:01.000Z</time>
      </trkpt>
      <trkpt lat="50.28169" lon="4.40907">
        <ele>188.6</ele>
        <time>2025-11-16T08:36:02.000Z</time>
      </trkpt>
      <trkpt lat="50.2817" lon="4.40906">
        <ele>188.8</ele>
        <time>2025-11-16T08:36:03.000Z</time>
      </trkpt>
      <trkpt lat="50.28171" lon="4.40904">
        <ele>188.9</ele>
        <time>2025-11-16T08:36:04.000Z</time>
      </trkpt>
      <trkpt lat="50.28172" lon="4.40903">
        <ele>189.1</ele>
        <time>2025-11-16T08:36:05.000Z</time>
      </trkpt>
      <trkpt lat="50.28173" lon="4.40902">
        <ele>189.2</ele>
        <time>2025-11-16T08:36:06.000Z</time>
      </trkpt>
      <trkpt lat="50.28174" lon="4.409">
        <ele>189.4</ele>
        <time>2025-11-16T08:36:07.000Z</time>
      </trkpt>
      <trkpt lat="50.28176" lon="4.40899">
        <ele>189.4</ele>
        <time>2025-11-16T08:36:08.000Z</time>
      </trkpt>
      <trkpt lat="50.28177" lon="4.40898">
        <ele>189.8</ele>
        <time>2025-11-16T08:36:09.000Z</time>
      </trkpt>
      <trkpt lat="50.28178" lon="4.40898">
        <ele>189.9</ele>
        <time>2025-11-16T08:36:10.000Z</time>
      </trkpt>
      <trkpt lat="50.2818" lon="4.40897">
        <ele>190.1</ele>
        <time>2025-11-16T08:36:11.000Z</time>
      </trkpt>
      <trkpt lat="50.28181" lon="4.40897">
        <ele>190.2</ele>
        <time>2025-11-16T08:36:12.000Z</time>
      </trkpt>
      <trkpt lat="50.28182" lon="4.40897">
        <ele>190.4</ele>
        <time>2025-11-16T08:36:13.000Z</time>
      </trkpt>
      <trkpt lat="50.28183" lon="4.40897">
        <ele>190.7</ele>
        <time>2025-11-16T08:36:14.000Z</time>
      </trkpt>
      <trkpt lat="50.28184" lon="4.40896">
        <ele>190.8</ele>
        <time>2025-11-16T08:36:15.000Z</time>
      </trkpt>
      <trkpt lat="50.28185" lon="4.40896">
        <ele>191</ele>
        <time>2025-11-16T08:36:16.000Z</time>
      </trkpt>
      <trkpt lat="50.28186" lon="4.40895">
        <ele>191.2</ele>
        <time>2025-11-16T08:36:17.000Z</time>
      </trkpt>
      <trkpt lat="50.28187" lon="4.40893">
        <ele>191.5</ele>
        <time>2025-11-16T08:36:18.000Z</time>
      </trkpt>
      <trkpt lat="50.28188" lon="4.40892">
        <ele>191.8</ele>
        <time>2025-11-16T08:36:19.000Z</time>
      </trkpt>
      <trkpt lat="50.28189" lon="4.4089">
        <ele>191.8</ele>
        <time>2025-11-16T08:36:20.000Z</time>
      </trkpt>
      <trkpt lat="50.2819" lon="4.40889">
        <ele>191.8</ele>
        <time>2025-11-16T08:36:21.000Z</time>
      </trkpt>
      <trkpt lat="50.28191" lon="4.40887">
        <ele>191.8</ele>
        <time>2025-11-16T08:36:22.000Z</time>
      </trkpt>
      <trkpt lat="50.28192" lon="4.40885">
        <ele>191.8</ele>
        <time>2025-11-16T08:36:23.000Z</time>
      </trkpt>
      <trkpt lat="50.28194" lon="4.40884">
        <ele>191.7</ele>
        <time>2025-11-16T08:36:24.000Z</time>
      </trkpt>
      <trkpt lat="50.28195" lon="4.40884">
        <ele>191.7</ele>
        <time>2025-11-16T08:36:25.000Z</time>
      </trkpt>
      <trkpt lat="50.28197" lon="4.40882">
        <ele>191.6</ele>
        <time>2025-11-16T08:36:26.000Z</time>
      </trkpt>
      <trkpt lat="50.28198" lon="4.40881">
        <ele>191.5</ele>
        <time>2025-11-16T08:36:27.000Z</time>
      </trkpt>
      <trkpt lat="50.28199" lon="4.40879">
        <ele>191.1</ele>
        <time>2025-11-16T08:36:28.000Z</time>
      </trkpt>
      <trkpt lat="50.28199" lon="4.40877">
        <ele>190.4</ele>
        <time>2025-11-16T08:36:29.000Z</time>
      </trkpt>
      <trkpt lat="50.28199" lon="4.40875">
        <ele>189.8</ele>
        <time>2025-11-16T08:36:30.000Z</time>
      </trkpt>
      <trkpt lat="50.28201" lon="4.40874">
        <ele>189.8</ele>
        <time>2025-11-16T08:36:31.000Z</time>
      </trkpt>
      <trkpt lat="50.28202" lon="4.40873">
        <ele>189.7</ele>
        <time>2025-11-16T08:36:32.000Z</time>
      </trkpt>
      <trkpt lat="50.28204" lon="4.40872">
        <ele>189.5</ele>
        <time>2025-11-16T08:36:33.000Z</time>
      </trkpt>
      <trkpt lat="50.28206" lon="4.40871">
        <ele>189.4</ele>
        <time>2025-11-16T08:36:34.000Z</time>
      </trkpt>
      <trkpt lat="50.28209" lon="4.40871">
        <ele>189.4</ele>
        <time>2025-11-16T08:36:35.000Z</time>
      </trkpt>
      <trkpt lat="50.28211" lon="4.4087">
        <ele>189.4</ele>
        <time>2025-11-16T08:36:36.000Z</time>
      </trkpt>
      <trkpt lat="50.28214" lon="4.40869">
        <ele>189.4</ele>
        <time>2025-11-16T08:36:37.000Z</time>
      </trkpt>
      <trkpt lat="50.28216" lon="4.40868">
        <ele>189.6</ele>
        <time>2025-11-16T08:36:38.000Z</time>
      </trkpt>
      <trkpt lat="50.28218" lon="4.40868">
        <ele>189.9</ele>
        <time>2025-11-16T08:36:39.000Z</time>
      </trkpt>
      <trkpt lat="50.2822" lon="4.40867">
        <ele>190.3</ele>
        <time>2025-11-16T08:36:40.000Z</time>
      </trkpt>
      <trkpt lat="50.28222" lon="4.40867">
        <ele>189.9</ele>
        <time>2025-11-16T08:36:41.000Z</time>
      </trkpt>
      <trkpt lat="50.28225" lon="4.40867">
        <ele>190</ele>
        <time>2025-11-16T08:36:42.000Z</time>
      </trkpt>
      <trkpt lat="50.28226" lon="4.40867">
        <ele>190.2</ele>
        <time>2025-11-16T08:36:43.000Z</time>
      </trkpt>
      <trkpt lat="50.28228" lon="4.40867">
        <ele>190.2</ele>
        <time>2025-11-16T08:36:44.000Z</time>
      </trkpt>
      <trkpt lat="50.28229" lon="4.40866">
        <ele>190.4</ele>
        <time>2025-11-16T08:36:45.000Z</time>
      </trkpt>
      <trkpt lat="50.28229" lon="4.40865">
        <ele>190.6</ele>
        <time>2025-11-16T08:36:46.000Z</time>
      </trkpt>
      <trkpt lat="50.2823" lon="4.40865">
        <ele>190.7</ele>
        <time>2025-11-16T08:36:47.000Z</time>
      </trkpt>
      <trkpt lat="50.2823" lon="4.40864">
        <ele>191</ele>
        <time>2025-11-16T08:36:48.000Z</time>
      </trkpt>
      <trkpt lat="50.28231" lon="4.40863">
        <ele>191</ele>
        <time>2025-11-16T08:36:49.000Z</time>
      </trkpt>
      <trkpt lat="50.28232" lon="4.40862">
        <ele>191.1</ele>
        <time>2025-11-16T08:36:50.000Z</time>
      </trkpt>
      <trkpt lat="50.28232" lon="4.40861">
        <ele>191.2</ele>
        <time>2025-11-16T08:36:51.000Z</time>
      </trkpt>
      <trkpt lat="50.28233" lon="4.4086">
        <ele>191.5</ele>
        <time>2025-11-16T08:36:52.000Z</time>
      </trkpt>
      <trkpt lat="50.28234" lon="4.40859">
        <ele>191.6</ele>
        <time>2025-11-16T08:36:53.000Z</time>
      </trkpt>
      <trkpt lat="50.28235" lon="4.40857">
        <ele>191.6</ele>
        <time>2025-11-16T08:36:54.000Z</time>
      </trkpt>
      <trkpt lat="50.28236" lon="4.40856">
        <ele>191.9</ele>
        <time>2025-11-16T08:36:55.000Z</time>
      </trkpt>
      <trkpt lat="50.28236" lon="4.40854">
        <ele>192.1</ele>
        <time>2025-11-16T08:36:56.000Z</time>
      </trkpt>
      <trkpt lat="50.28237" lon="4.40852">
        <ele>192.4</ele>
        <time>2025-11-16T08:36:57.000Z</time>
      </trkpt>
      <trkpt lat="50.28237" lon="4.40851">
        <ele>192.5</ele>
        <time>2025-11-16T08:36:58.000Z</time>
      </trkpt>
      <trkpt lat="50.28238" lon="4.4085">
        <ele>192.3</ele>
        <time>2025-11-16T08:36:59.000Z</time>
      </trkpt>
      <trkpt lat="50.28239" lon="4.40848">
        <ele>192.2</ele>
        <time>2025-11-16T08:37:00.000Z</time>
      </trkpt>
      <trkpt lat="50.28241" lon="4.40847">
        <ele>192</ele>
        <time>2025-11-16T08:37:01.000Z</time>
      </trkpt>
      <trkpt lat="50.28242" lon="4.40846">
        <ele>191.9</ele>
        <time>2025-11-16T08:37:02.000Z</time>
      </trkpt>
      <trkpt lat="50.28243" lon="4.40844">
        <ele>191.4</ele>
        <time>2025-11-16T08:37:03.000Z</time>
      </trkpt>
      <trkpt lat="50.28245" lon="4.40842">
        <ele>191</ele>
        <time>2025-11-16T08:37:04.000Z</time>
      </trkpt>
      <trkpt lat="50.28246" lon="4.4084">
        <ele>190.8</ele>
        <time>2025-11-16T08:37:05.000Z</time>
      </trkpt>
      <trkpt lat="50.28247" lon="4.40838">
        <ele>190.5</ele>
        <time>2025-11-16T08:37:06.000Z</time>
      </trkpt>
      <trkpt lat="50.28248" lon="4.40836">
        <ele>190.1</ele>
        <time>2025-11-16T08:37:07.000Z</time>
      </trkpt>
      <trkpt lat="50.2825" lon="4.40834">
        <ele>189.7</ele>
        <time>2025-11-16T08:37:08.000Z</time>
      </trkpt>
      <trkpt lat="50.28251" lon="4.40833">
        <ele>189.4</ele>
        <time>2025-11-16T08:37:09.000Z</time>
      </trkpt>
      <trkpt lat="50.28252" lon="4.40832">
        <ele>189.2</ele>
        <time>2025-11-16T08:37:10.000Z</time>
      </trkpt>
      <trkpt lat="50.28253" lon="4.4083">
        <ele>189.1</ele>
        <time>2025-11-16T08:37:11.000Z</time>
      </trkpt>
      <trkpt lat="50.28254" lon="4.40829">
        <ele>189.1</ele>
        <time>2025-11-16T08:37:12.000Z</time>
      </trkpt>
      <trkpt lat="50.28254" lon="4.40827">
        <ele>189.3</ele>
        <time>2025-11-16T08:37:13.000Z</time>
      </trkpt>
      <trkpt lat="50.28255" lon="4.40826">
        <ele>189.4</ele>
        <time>2025-11-16T08:37:14.000Z</time>
      </trkpt>
      <trkpt lat="50.28256" lon="4.40824">
        <ele>189.6</ele>
        <time>2025-11-16T08:37:15.000Z</time>
      </trkpt>
      <trkpt lat="50.28257" lon="4.40822">
        <ele>189.7</ele>
        <time>2025-11-16T08:37:16.000Z</time>
      </trkpt>
      <trkpt lat="50.28258" lon="4.4082">
        <ele>189.7</ele>
        <time>2025-11-16T08:37:17.000Z</time>
      </trkpt>
      <trkpt lat="50.2826" lon="4.40819">
        <ele>189.6</ele>
        <time>2025-11-16T08:37:18.000Z</time>
      </trkpt>
      <trkpt lat="50.28261" lon="4.40817">
        <ele>189.6</ele>
        <time>2025-11-16T08:37:19.000Z</time>
      </trkpt>
      <trkpt lat="50.28262" lon="4.40815">
        <ele>189.5</ele>
        <time>2025-11-16T08:37:20.000Z</time>
      </trkpt>
      <trkpt lat="50.28262" lon="4.40813">
        <ele>189.3</ele>
        <time>2025-11-16T08:37:21.000Z</time>
      </trkpt>
      <trkpt lat="50.28263" lon="4.40811">
        <ele>189.1</ele>
        <time>2025-11-16T08:37:22.000Z</time>
      </trkpt>
      <trkpt lat="50.28265" lon="4.40809">
        <ele>188.8</ele>
        <time>2025-11-16T08:37:23.000Z</time>
      </trkpt>
      <trkpt lat="50.28265" lon="4.40807">
        <ele>188.5</ele>
        <time>2025-11-16T08:37:24.000Z</time>
      </trkpt>
      <trkpt lat="50.28266" lon="4.40805">
        <ele>188.4</ele>
        <time>2025-11-16T08:37:25.000Z</time>
      </trkpt>
      <trkpt lat="50.28267" lon="4.40802">
        <ele>188.2</ele>
        <time>2025-11-16T08:37:26.000Z</time>
      </trkpt>
      <trkpt lat="50.28269" lon="4.408">
        <ele>188</ele>
        <time>2025-11-16T08:37:27.000Z</time>
      </trkpt>
      <trkpt lat="50.2827" lon="4.40798">
        <ele>187.9</ele>
        <time>2025-11-16T08:37:28.000Z</time>
      </trkpt>
      <trkpt lat="50.28271" lon="4.40797">
        <ele>187.9</ele>
        <time>2025-11-16T08:37:29.000Z</time>
      </trkpt>
      <trkpt lat="50.28272" lon="4.40796">
        <ele>187.7</ele>
        <time>2025-11-16T08:37:30.000Z</time>
      </trkpt>
      <trkpt lat="50.28272" lon="4.40795">
        <ele>187.7</ele>
        <time>2025-11-16T08:37:31.000Z</time>
      </trkpt>
      <trkpt lat="50.28274" lon="4.40793">
        <ele>187.7</ele>
        <time>2025-11-16T08:37:32.000Z</time>
      </trkpt>
      <trkpt lat="50.28275" lon="4.40792">
        <ele>187.8</ele>
        <time>2025-11-16T08:37:33.000Z</time>
      </trkpt>
      <trkpt lat="50.28276" lon="4.4079">
        <ele>187.8</ele>
        <time>2025-11-16T08:37:34.000Z</time>
      </trkpt>
      <trkpt lat="50.28277" lon="4.40788">
        <ele>187.8</ele>
        <time>2025-11-16T08:37:35.000Z</time>
      </trkpt>
      <trkpt lat="50.28278" lon="4.40786">
        <ele>187.7</ele>
        <time>2025-11-16T08:37:36.000Z</time>
      </trkpt>
      <trkpt lat="50.28279" lon="4.40785">
        <ele>187.6</ele>
        <time>2025-11-16T08:37:37.000Z</time>
      </trkpt>
      <trkpt lat="50.28279" lon="4.40783">
        <ele>187.7</ele>
        <time>2025-11-16T08:37:38.000Z</time>
      </trkpt>
      <trkpt lat="50.2828" lon="4.40781">
        <ele>187.6</ele>
        <time>2025-11-16T08:37:39.000Z</time>
      </trkpt>
      <trkpt lat="50.28282" lon="4.40779">
        <ele>187.5</ele>
        <time>2025-11-16T08:37:40.000Z</time>
      </trkpt>
      <trkpt lat="50.28283" lon="4.40778">
        <ele>187.5</ele>
        <time>2025-11-16T08:37:41.000Z</time>
      </trkpt>
      <trkpt lat="50.28284" lon="4.40776">
        <ele>187.5</ele>
        <time>2025-11-16T08:37:42.000Z</time>
      </trkpt>
      <trkpt lat="50.28286" lon="4.40774">
        <ele>187.5</ele>
        <time>2025-11-16T08:37:43.000Z</time>
      </trkpt>
      <trkpt lat="50.28287" lon="4.40772">
        <ele>187.5</ele>
        <time>2025-11-16T08:37:44.000Z</time>
      </trkpt>
      <trkpt lat="50.28289" lon="4.40771">
        <ele>187.1</ele>
        <time>2025-11-16T08:37:45.000Z</time>
      </trkpt>
      <trkpt lat="50.28291" lon="4.40769">
        <ele>187.1</ele>
        <time>2025-11-16T08:37:46.000Z</time>
      </trkpt>
      <trkpt lat="50.28292" lon="4.40767">
        <ele>186.6</ele>
        <time>2025-11-16T08:37:47.000Z</time>
      </trkpt>
      <trkpt lat="50.28292" lon="4.40764">
        <ele>186.6</ele>
        <time>2025-11-16T08:37:48.000Z</time>
      </trkpt>
      <trkpt lat="50.28293" lon="4.40762">
        <ele>186.6</ele>
        <time>2025-11-16T08:37:49.000Z</time>
      </trkpt>
      <trkpt lat="50.28293" lon="4.4076">
        <ele>186.6</ele>
        <time>2025-11-16T08:37:50.000Z</time>
      </trkpt>
      <trkpt lat="50.28294" lon="4.40758">
        <ele>186.9</ele>
        <time>2025-11-16T08:37:51.000Z</time>
      </trkpt>
      <trkpt lat="50.28294" lon="4.40756">
        <ele>187.4</ele>
        <time>2025-11-16T08:37:52.000Z</time>
      </trkpt>
      <trkpt lat="50.28295" lon="4.40754">
        <ele>187.9</ele>
        <time>2025-11-16T08:37:53.000Z</time>
      </trkpt>
      <trkpt lat="50.28296" lon="4.40752">
        <ele>188.3</ele>
        <time>2025-11-16T08:37:54.000Z</time>
      </trkpt>
      <trkpt lat="50.28297" lon="4.40749">
        <ele>188.6</ele>
        <time>2025-11-16T08:37:55.000Z</time>
      </trkpt>
      <trkpt lat="50.28298" lon="4.40747">
        <ele>188.8</ele>
        <time>2025-11-16T08:37:56.000Z</time>
      </trkpt>
      <trkpt lat="50.28298" lon="4.40744">
        <ele>189.1</ele>
        <time>2025-11-16T08:37:57.000Z</time>
      </trkpt>
      <trkpt lat="50.28299" lon="4.40742">
        <ele>189.4</ele>
        <time>2025-11-16T08:37:58.000Z</time>
      </trkpt>
      <trkpt lat="50.283" lon="4.40741">
        <ele>189.7</ele>
        <time>2025-11-16T08:37:59.000Z</time>
      </trkpt>
      <trkpt lat="50.28301" lon="4.40738">
        <ele>189.8</ele>
        <time>2025-11-16T08:38:00.000Z</time>
      </trkpt>
      <trkpt lat="50.28302" lon="4.40737">
        <ele>189.9</ele>
        <time>2025-11-16T08:38:01.000Z</time>
      </trkpt>
      <trkpt lat="50.28302" lon="4.40735">
        <ele>189.9</ele>
        <time>2025-11-16T08:38:02.000Z</time>
      </trkpt>
      <trkpt lat="50.28303" lon="4.40733">
        <ele>190.1</ele>
        <time>2025-11-16T08:38:03.000Z</time>
      </trkpt>
      <trkpt lat="50.28304" lon="4.40731">
        <ele>190.4</ele>
        <time>2025-11-16T08:38:04.000Z</time>
      </trkpt>
      <trkpt lat="50.28305" lon="4.40729">
        <ele>190.5</ele>
        <time>2025-11-16T08:38:05.000Z</time>
      </trkpt>
      <trkpt lat="50.28306" lon="4.40728">
        <ele>190.4</ele>
        <time>2025-11-16T08:38:06.000Z</time>
      </trkpt>
      <trkpt lat="50.28307" lon="4.40727">
        <ele>190.2</ele>
        <time>2025-11-16T08:38:07.000Z</time>
      </trkpt>
      <trkpt lat="50.28308" lon="4.40725">
        <ele>190</ele>
        <time>2025-11-16T08:38:08.000Z</time>
      </trkpt>
      <trkpt lat="50.2831" lon="4.40724">
        <ele>189.6</ele>
        <time>2025-11-16T08:38:09.000Z</time>
      </trkpt>
      <trkpt lat="50.28311" lon="4.40724">
        <ele>189.4</ele>
        <time>2025-11-16T08:38:10.000Z</time>
      </trkpt>
      <trkpt lat="50.28312" lon="4.40723">
        <ele>189.4</ele>
        <time>2025-11-16T08:38:11.000Z</time>
      </trkpt>
      <trkpt lat="50.28313" lon="4.40723">
        <ele>189.5</ele>
        <time>2025-11-16T08:38:12.000Z</time>
      </trkpt>
      <trkpt lat="50.28313" lon="4.40722">
        <ele>189.4</ele>
        <time>2025-11-16T08:38:13.000Z</time>
      </trkpt>
      <trkpt lat="50.28314" lon="4.40722">
        <ele>189.5</ele>
        <time>2025-11-16T08:38:14.000Z</time>
      </trkpt>
      <trkpt lat="50.28315" lon="4.40721">
        <ele>189.5</ele>
        <time>2025-11-16T08:38:15.000Z</time>
      </trkpt>
      <trkpt lat="50.28315" lon="4.4072">
        <ele>189.5</ele>
        <time>2025-11-16T08:38:16.000Z</time>
      </trkpt>
      <trkpt lat="50.28316" lon="4.40719">
        <ele>189.6</ele>
        <time>2025-11-16T08:38:17.000Z</time>
      </trkpt>
      <trkpt lat="50.28316" lon="4.40717">
        <ele>189.8</ele>
        <time>2025-11-16T08:38:18.000Z</time>
      </trkpt>
      <trkpt lat="50.28317" lon="4.40716">
        <ele>189.9</ele>
        <time>2025-11-16T08:38:19.000Z</time>
      </trkpt>
      <trkpt lat="50.28318" lon="4.40715">
        <ele>189.9</ele>
        <time>2025-11-16T08:38:20.000Z</time>
      </trkpt>
      <trkpt lat="50.28319" lon="4.40712">
        <ele>189.9</ele>
        <time>2025-11-16T08:38:21.000Z</time>
      </trkpt>
      <trkpt lat="50.28321" lon="4.4071">
        <ele>190</ele>
        <time>2025-11-16T08:38:22.000Z</time>
      </trkpt>
      <trkpt lat="50.28322" lon="4.40709">
        <ele>190.1</ele>
        <time>2025-11-16T08:38:23.000Z</time>
      </trkpt>
      <trkpt lat="50.28323" lon="4.40707">
        <ele>190</ele>
        <time>2025-11-16T08:38:24.000Z</time>
      </trkpt>
      <trkpt lat="50.28324" lon="4.40706">
        <ele>189.9</ele>
        <time>2025-11-16T08:38:25.000Z</time>
      </trkpt>
      <trkpt lat="50.28325" lon="4.40705">
        <ele>189.9</ele>
        <time>2025-11-16T08:38:26.000Z</time>
      </trkpt>
      <trkpt lat="50.28326" lon="4.40703">
        <ele>190.1</ele>
        <time>2025-11-16T08:38:27.000Z</time>
      </trkpt>
      <trkpt lat="50.28327" lon="4.40701">
        <ele>190</ele>
        <time>2025-11-16T08:38:28.000Z</time>
      </trkpt>
      <trkpt lat="50.28327" lon="4.40699">
        <ele>190.2</ele>
        <time>2025-11-16T08:38:29.000Z</time>
      </trkpt>
      <trkpt lat="50.28328" lon="4.40698">
        <ele>190.2</ele>
        <time>2025-11-16T08:38:30.000Z</time>
      </trkpt>
      <trkpt lat="50.28329" lon="4.40697">
        <ele>190.1</ele>
        <time>2025-11-16T08:38:31.000Z</time>
      </trkpt>
      <trkpt lat="50.2833" lon="4.40696">
        <ele>189.9</ele>
        <time>2025-11-16T08:38:32.000Z</time>
      </trkpt>
      <trkpt lat="50.28331" lon="4.40695">
        <ele>189.7</ele>
        <time>2025-11-16T08:38:33.000Z</time>
      </trkpt>
      <trkpt lat="50.28331" lon="4.40694">
        <ele>189.7</ele>
        <time>2025-11-16T08:38:34.000Z</time>
      </trkpt>
      <trkpt lat="50.28332" lon="4.40692">
        <ele>189.6</ele>
        <time>2025-11-16T08:38:35.000Z</time>
      </trkpt>
      <trkpt lat="50.28333" lon="4.4069">
        <ele>189.5</ele>
        <time>2025-11-16T08:38:36.000Z</time>
      </trkpt>
      <trkpt lat="50.28334" lon="4.40688">
        <ele>189.2</ele>
        <time>2025-11-16T08:38:37.000Z</time>
      </trkpt>
      <trkpt lat="50.28335" lon="4.40686">
        <ele>188.9</ele>
        <time>2025-11-16T08:38:38.000Z</time>
      </trkpt>
      <trkpt lat="50.28336" lon="4.40684">
        <ele>188.6</ele>
        <time>2025-11-16T08:38:39.000Z</time>
      </trkpt>
      <trkpt lat="50.28337" lon="4.40682">
        <ele>188.3</ele>
        <time>2025-11-16T08:38:40.000Z</time>
      </trkpt>
      <trkpt lat="50.28338" lon="4.4068">
        <ele>187.9</ele>
        <time>2025-11-16T08:38:41.000Z</time>
      </trkpt>
      <trkpt lat="50.28339" lon="4.40678">
        <ele>187.6</ele>
        <time>2025-11-16T08:38:42.000Z</time>
      </trkpt>
      <trkpt lat="50.28341" lon="4.40676">
        <ele>187.2</ele>
        <time>2025-11-16T08:38:43.000Z</time>
      </trkpt>
      <trkpt lat="50.28342" lon="4.40674">
        <ele>186.8</ele>
        <time>2025-11-16T08:38:44.000Z</time>
      </trkpt>
      <trkpt lat="50.28343" lon="4.40672">
        <ele>186.5</ele>
        <time>2025-11-16T08:38:45.000Z</time>
      </trkpt>
      <trkpt lat="50.28344" lon="4.40671">
        <ele>186.6</ele>
        <time>2025-11-16T08:38:46.000Z</time>
      </trkpt>
      <trkpt lat="50.28345" lon="4.40669">
        <ele>186.5</ele>
        <time>2025-11-16T08:38:47.000Z</time>
      </trkpt>
      <trkpt lat="50.28346" lon="4.40668">
        <ele>186.2</ele>
        <time>2025-11-16T08:38:48.000Z</time>
      </trkpt>
      <trkpt lat="50.28346" lon="4.40667">
        <ele>186</ele>
        <time>2025-11-16T08:38:49.000Z</time>
      </trkpt>
      <trkpt lat="50.28347" lon="4.40665">
        <ele>185.9</ele>
        <time>2025-11-16T08:38:50.000Z</time>
      </trkpt>
      <trkpt lat="50.28348" lon="4.40663">
        <ele>186</ele>
        <time>2025-11-16T08:38:51.000Z</time>
      </trkpt>
      <trkpt lat="50.28349" lon="4.40661">
        <ele>185.9</ele>
        <time>2025-11-16T08:38:52.000Z</time>
      </trkpt>
      <trkpt lat="50.28349" lon="4.40659">
        <ele>185.9</ele>
        <time>2025-11-16T08:38:53.000Z</time>
      </trkpt>
      <trkpt lat="50.2835" lon="4.40657">
        <ele>186</ele>
        <time>2025-11-16T08:38:54.000Z</time>
      </trkpt>
      <trkpt lat="50.28351" lon="4.40655">
        <ele>185.9</ele>
        <time>2025-11-16T08:38:55.000Z</time>
      </trkpt>
      <trkpt lat="50.28352" lon="4.40654">
        <ele>185.9</ele>
        <time>2025-11-16T08:38:56.000Z</time>
      </trkpt>
      <trkpt lat="50.28353" lon="4.40651">
        <ele>185.8</ele>
        <time>2025-11-16T08:38:57.000Z</time>
      </trkpt>
      <trkpt lat="50.28354" lon="4.40649">
        <ele>185.6</ele>
        <time>2025-11-16T08:38:58.000Z</time>
      </trkpt>
      <trkpt lat="50.28355" lon="4.40647">
        <ele>185.6</ele>
        <time>2025-11-16T08:38:59.000Z</time>
      </trkpt>
      <trkpt lat="50.28356" lon="4.40645">
        <ele>185.5</ele>
        <time>2025-11-16T08:39:00.000Z</time>
      </trkpt>
      <trkpt lat="50.28357" lon="4.40644">
        <ele>185.5</ele>
        <time>2025-11-16T08:39:01.000Z</time>
      </trkpt>
      <trkpt lat="50.28357" lon="4.40642">
        <ele>185.4</ele>
        <time>2025-11-16T08:39:02.000Z</time>
      </trkpt>
      <trkpt lat="50.28358" lon="4.40641">
        <ele>185.2</ele>
        <time>2025-11-16T08:39:03.000Z</time>
      </trkpt>
      <trkpt lat="50.28359" lon="4.40639">
        <ele>185.2</ele>
        <time>2025-11-16T08:39:04.000Z</time>
      </trkpt>
      <trkpt lat="50.28359" lon="4.40638">
        <ele>185.2</ele>
        <time>2025-11-16T08:39:05.000Z</time>
      </trkpt>
      <trkpt lat="50.2836" lon="4.40636">
        <ele>185</ele>
        <time>2025-11-16T08:39:06.000Z</time>
      </trkpt>
      <trkpt lat="50.2836" lon="4.40634">
        <ele>185</ele>
        <time>2025-11-16T08:39:07.000Z</time>
      </trkpt>
      <trkpt lat="50.2836" lon="4.40633">
        <ele>185</ele>
        <time>2025-11-16T08:39:08.000Z</time>
      </trkpt>
      <trkpt lat="50.28361" lon="4.40631">
        <ele>185</ele>
        <time>2025-11-16T08:39:09.000Z</time>
      </trkpt>
      <trkpt lat="50.28361" lon="4.40631">
        <ele>185.1</ele>
        <time>2025-11-16T08:39:10.000Z</time>
      </trkpt>
      <trkpt lat="50.28361" lon="4.4063">
        <ele>185.2</ele>
        <time>2025-11-16T08:39:11.000Z</time>
      </trkpt>
      <trkpt lat="50.28362" lon="4.40628">
        <ele>185.3</ele>
        <time>2025-11-16T08:39:12.000Z</time>
      </trkpt>
      <trkpt lat="50.28362" lon="4.40627">
        <ele>185.4</ele>
        <time>2025-11-16T08:39:13.000Z</time>
      </trkpt>
      <trkpt lat="50.28362" lon="4.40625">
        <ele>185.7</ele>
        <time>2025-11-16T08:39:14.000Z</time>
      </trkpt>
      <trkpt lat="50.28363" lon="4.40623">
        <ele>186</ele>
        <time>2025-11-16T08:39:15.000Z</time>
      </trkpt>
      <trkpt lat="50.28363" lon="4.40621">
        <ele>186.2</ele>
        <time>2025-11-16T08:39:16.000Z</time>
      </trkpt>
      <trkpt lat="50.28364" lon="4.4062">
        <ele>186.6</ele>
        <time>2025-11-16T08:39:17.000Z</time>
      </trkpt>
      <trkpt lat="50.28364" lon="4.40618">
        <ele>186.8</ele>
        <time>2025-11-16T08:39:18.000Z</time>
      </trkpt>
      <trkpt lat="50.28365" lon="4.40616">
        <ele>187</ele>
        <time>2025-11-16T08:39:19.000Z</time>
      </trkpt>
      <trkpt lat="50.28366" lon="4.40614">
        <ele>187</ele>
        <time>2025-11-16T08:39:20.000Z</time>
      </trkpt>
      <trkpt lat="50.28366" lon="4.40611">
        <ele>187.1</ele>
        <time>2025-11-16T08:39:21.000Z</time>
      </trkpt>
      <trkpt lat="50.28367" lon="4.4061">
        <ele>187.1</ele>
        <time>2025-11-16T08:39:22.000Z</time>
      </trkpt>
      <trkpt lat="50.28368" lon="4.40608">
        <ele>187.2</ele>
        <time>2025-11-16T08:39:23.000Z</time>
      </trkpt>
      <trkpt lat="50.28368" lon="4.40605">
        <ele>187.2</ele>
        <time>2025-11-16T08:39:24.000Z</time>
      </trkpt>
      <trkpt lat="50.28369" lon="4.40604">
        <ele>187.3</ele>
        <time>2025-11-16T08:39:25.000Z</time>
      </trkpt>
      <trkpt lat="50.2837" lon="4.40602">
        <ele>187.4</ele>
        <time>2025-11-16T08:39:26.000Z</time>
      </trkpt>
      <trkpt lat="50.2837" lon="4.406">
        <ele>187.4</ele>
        <time>2025-11-16T08:39:27.000Z</time>
      </trkpt>
      <trkpt lat="50.28371" lon="4.40599">
        <ele>187.5</ele>
        <time>2025-11-16T08:39:28.000Z</time>
      </trkpt>
      <trkpt lat="50.28372" lon="4.40598">
        <ele>187.5</ele>
        <time>2025-11-16T08:39:29.000Z</time>
      </trkpt>
      <trkpt lat="50.28372" lon="4.40596">
        <ele>187.4</ele>
        <time>2025-11-16T08:39:30.000Z</time>
      </trkpt>
      <trkpt lat="50.28373" lon="4.40594">
        <ele>187.5</ele>
        <time>2025-11-16T08:39:31.000Z</time>
      </trkpt>
      <trkpt lat="50.28374" lon="4.40593">
        <ele>187.5</ele>
        <time>2025-11-16T08:39:32.000Z</time>
      </trkpt>
      <trkpt lat="50.28375" lon="4.40591">
        <ele>187.4</ele>
        <time>2025-11-16T08:39:33.000Z</time>
      </trkpt>
      <trkpt lat="50.28376" lon="4.40588">
        <ele>187.5</ele>
        <time>2025-11-16T08:39:34.000Z</time>
      </trkpt>
      <trkpt lat="50.28377" lon="4.40586">
        <ele>187.6</ele>
        <time>2025-11-16T08:39:35.000Z</time>
      </trkpt>
      <trkpt lat="50.28377" lon="4.40583">
        <ele>187.4</ele>
        <time>2025-11-16T08:39:36.000Z</time>
      </trkpt>
      <trkpt lat="50.28378" lon="4.40581">
        <ele>187.6</ele>
        <time>2025-11-16T08:39:37.000Z</time>
      </trkpt>
      <trkpt lat="50.28379" lon="4.4058">
        <ele>187.8</ele>
        <time>2025-11-16T08:39:38.000Z</time>
      </trkpt>
      <trkpt lat="50.2838" lon="4.40578">
        <ele>187.8</ele>
        <time>2025-11-16T08:39:39.000Z</time>
      </trkpt>
      <trkpt lat="50.2838" lon="4.40576">
        <ele>187.8</ele>
        <time>2025-11-16T08:39:40.000Z</time>
      </trkpt>
      <trkpt lat="50.28381" lon="4.40575">
        <ele>187.7</ele>
        <time>2025-11-16T08:39:41.000Z</time>
      </trkpt>
      <trkpt lat="50.28382" lon="4.40572">
        <ele>187.9</ele>
        <time>2025-11-16T08:39:42.000Z</time>
      </trkpt>
      <trkpt lat="50.28383" lon="4.40569">
        <ele>188.2</ele>
        <time>2025-11-16T08:39:43.000Z</time>
      </trkpt>
      <trkpt lat="50.28384" lon="4.40567">
        <ele>188.4</ele>
        <time>2025-11-16T08:39:44.000Z</time>
      </trkpt>
      <trkpt lat="50.28385" lon="4.40566">
        <ele>188.5</ele>
        <time>2025-11-16T08:39:45.000Z</time>
      </trkpt>
      <trkpt lat="50.28386" lon="4.40564">
        <ele>188.4</ele>
        <time>2025-11-16T08:39:46.000Z</time>
      </trkpt>
      <trkpt lat="50.28387" lon="4.40562">
        <ele>188.6</ele>
        <time>2025-11-16T08:39:47.000Z</time>
      </trkpt>
      <trkpt lat="50.28388" lon="4.40561">
        <ele>188.6</ele>
        <time>2025-11-16T08:39:48.000Z</time>
      </trkpt>
      <trkpt lat="50.28388" lon="4.40559">
        <ele>188.7</ele>
        <time>2025-11-16T08:39:49.000Z</time>
      </trkpt>
      <trkpt lat="50.28389" lon="4.40557">
        <ele>188.7</ele>
        <time>2025-11-16T08:39:50.000Z</time>
      </trkpt>
      <trkpt lat="50.28389" lon="4.40555">
        <ele>188.8</ele>
        <time>2025-11-16T08:39:51.000Z</time>
      </trkpt>
      <trkpt lat="50.2839" lon="4.40553">
        <ele>188.7</ele>
        <time>2025-11-16T08:39:52.000Z</time>
      </trkpt>
      <trkpt lat="50.28391" lon="4.40552">
        <ele>188.8</ele>
        <time>2025-11-16T08:39:53.000Z</time>
      </trkpt>
      <trkpt lat="50.28392" lon="4.4055">
        <ele>189</ele>
        <time>2025-11-16T08:39:54.000Z</time>
      </trkpt>
      <trkpt lat="50.28393" lon="4.40549">
        <ele>189.4</ele>
        <time>2025-11-16T08:39:55.000Z</time>
      </trkpt>
      <trkpt lat="50.28394" lon="4.40547">
        <ele>190.1</ele>
        <time>2025-11-16T08:39:56.000Z</time>
      </trkpt>
      <trkpt lat="50.28395" lon="4.40545">
        <ele>190.7</ele>
        <time>2025-11-16T08:39:57.000Z</time>
      </trkpt>
      <trkpt lat="50.28395" lon="4.40544">
        <ele>191.1</ele>
        <time>2025-11-16T08:39:58.000Z</time>
      </trkpt>
      <trkpt lat="50.28395" lon="4.40542">
        <ele>191.3</ele>
        <time>2025-11-16T08:39:59.000Z</time>
      </trkpt>
      <trkpt lat="50.28395" lon="4.40539">
        <ele>191.6</ele>
        <time>2025-11-16T08:40:00.000Z</time>
      </trkpt>
      <trkpt lat="50.28395" lon="4.40536">
        <ele>191.8</ele>
        <time>2025-11-16T08:40:01.000Z</time>
      </trkpt>
      <trkpt lat="50.28395" lon="4.40533">
        <ele>192</ele>
        <time>2025-11-16T08:40:02.000Z</time>
      </trkpt>
      <trkpt lat="50.28395" lon="4.40531">
        <ele>192.3</ele>
        <time>2025-11-16T08:40:03.000Z</time>
      </trkpt>
      <trkpt lat="50.28394" lon="4.40529">
        <ele>192.7</ele>
        <time>2025-11-16T08:40:04.000Z</time>
      </trkpt>
      <trkpt lat="50.28394" lon="4.40528">
        <ele>192.9</ele>
        <time>2025-11-16T08:40:05.000Z</time>
      </trkpt>
      <trkpt lat="50.28394" lon="4.40526">
        <ele>193</ele>
        <time>2025-11-16T08:40:06.000Z</time>
      </trkpt>
      <trkpt lat="50.28394" lon="4.40524">
        <ele>193.1</ele>
        <time>2025-11-16T08:40:07.000Z</time>
      </trkpt>
      <trkpt lat="50.28394" lon="4.40522">
        <ele>193.3</ele>
        <time>2025-11-16T08:40:08.000Z</time>
      </trkpt>
      <trkpt lat="50.28393" lon="4.40519">
        <ele>193.3</ele>
        <time>2025-11-16T08:40:09.000Z</time>
      </trkpt>
      <trkpt lat="50.28393" lon="4.40516">
        <ele>193.4</ele>
        <time>2025-11-16T08:40:10.000Z</time>
      </trkpt>
      <trkpt lat="50.28393" lon="4.40514">
        <ele>193.6</ele>
        <time>2025-11-16T08:40:11.000Z</time>
      </trkpt>
      <trkpt lat="50.28393" lon="4.40512">
        <ele>193.5</ele>
        <time>2025-11-16T08:40:12.000Z</time>
      </trkpt>
      <trkpt lat="50.28392" lon="4.40509">
        <ele>193.5</ele>
        <time>2025-11-16T08:40:13.000Z</time>
      </trkpt>
      <trkpt lat="50.28392" lon="4.40507">
        <ele>193.5</ele>
        <time>2025-11-16T08:40:14.000Z</time>
      </trkpt>
      <trkpt lat="50.28392" lon="4.40506">
        <ele>193.5</ele>
        <time>2025-11-16T08:40:15.000Z</time>
      </trkpt>
      <trkpt lat="50.28392" lon="4.40504">
        <ele>193.5</ele>
        <time>2025-11-16T08:40:16.000Z</time>
      </trkpt>
      <trkpt lat="50.28393" lon="4.40503">
        <ele>193.3</ele>
        <time>2025-11-16T08:40:17.000Z</time>
      </trkpt>
      <trkpt lat="50.28393" lon="4.40501">
        <ele>193.3</ele>
        <time>2025-11-16T08:40:18.000Z</time>
      </trkpt>
      <trkpt lat="50.28394" lon="4.40499">
        <ele>193.3</ele>
        <time>2025-11-16T08:40:19.000Z</time>
      </trkpt>
      <trkpt lat="50.28395" lon="4.40498">
        <ele>193.3</ele>
        <time>2025-11-16T08:40:20.000Z</time>
      </trkpt>
      <trkpt lat="50.28397" lon="4.40496">
        <ele>193.4</ele>
        <time>2025-11-16T08:40:21.000Z</time>
      </trkpt>
      <trkpt lat="50.28398" lon="4.40494">
        <ele>193.3</ele>
        <time>2025-11-16T08:40:22.000Z</time>
      </trkpt>
      <trkpt lat="50.28399" lon="4.40492">
        <ele>193.1</ele>
        <time>2025-11-16T08:40:23.000Z</time>
      </trkpt>
      <trkpt lat="50.284" lon="4.40491">
        <ele>193.2</ele>
        <time>2025-11-16T08:40:24.000Z</time>
      </trkpt>
      <trkpt lat="50.28402" lon="4.40489">
        <ele>193.1</ele>
        <time>2025-11-16T08:40:25.000Z</time>
      </trkpt>
      <trkpt lat="50.28403" lon="4.40487">
        <ele>193.1</ele>
        <time>2025-11-16T08:40:26.000Z</time>
      </trkpt>
      <trkpt lat="50.28404" lon="4.40486">
        <ele>193.1</ele>
        <time>2025-11-16T08:40:27.000Z</time>
      </trkpt>
      <trkpt lat="50.28405" lon="4.40484">
        <ele>193.1</ele>
        <time>2025-11-16T08:40:28.000Z</time>
      </trkpt>
      <trkpt lat="50.28406" lon="4.40482">
        <ele>193.2</ele>
        <time>2025-11-16T08:40:29.000Z</time>
      </trkpt>
      <trkpt lat="50.28407" lon="4.4048">
        <ele>193.3</ele>
        <time>2025-11-16T08:40:30.000Z</time>
      </trkpt>
      <trkpt lat="50.28408" lon="4.40478">
        <ele>193.3</ele>
        <time>2025-11-16T08:40:31.000Z</time>
      </trkpt>
      <trkpt lat="50.2841" lon="4.40477">
        <ele>193.2</ele>
        <time>2025-11-16T08:40:32.000Z</time>
      </trkpt>
      <trkpt lat="50.28411" lon="4.40476">
        <ele>193.2</ele>
        <time>2025-11-16T08:40:33.000Z</time>
      </trkpt>
      <trkpt lat="50.28413" lon="4.40475">
        <ele>193</ele>
        <time>2025-11-16T08:40:34.000Z</time>
      </trkpt>
      <trkpt lat="50.28414" lon="4.40474">
        <ele>192.9</ele>
        <time>2025-11-16T08:40:35.000Z</time>
      </trkpt>
      <trkpt lat="50.28416" lon="4.40473">
        <ele>192.8</ele>
        <time>2025-11-16T08:40:36.000Z</time>
      </trkpt>
      <trkpt lat="50.28418" lon="4.40472">
        <ele>192.6</ele>
        <time>2025-11-16T08:40:37.000Z</time>
      </trkpt>
      <trkpt lat="50.28419" lon="4.40472">
        <ele>192.4</ele>
        <time>2025-11-16T08:40:38.000Z</time>
      </trkpt>
      <trkpt lat="50.2842" lon="4.40472">
        <ele>192.3</ele>
        <time>2025-11-16T08:40:39.000Z</time>
      </trkpt>
      <trkpt lat="50.28421" lon="4.40471">
        <ele>192</ele>
        <time>2025-11-16T08:40:40.000Z</time>
      </trkpt>
      <trkpt lat="50.28422" lon="4.40471">
        <ele>191.9</ele>
        <time>2025-11-16T08:40:41.000Z</time>
      </trkpt>
      <trkpt lat="50.28423" lon="4.4047">
        <ele>191.6</ele>
        <time>2025-11-16T08:40:42.000Z</time>
      </trkpt>
      <trkpt lat="50.28424" lon="4.40469">
        <ele>191.4</ele>
        <time>2025-11-16T08:40:43.000Z</time>
      </trkpt>
      <trkpt lat="50.28424" lon="4.40467">
        <ele>191.2</ele>
        <time>2025-11-16T08:40:44.000Z</time>
      </trkpt>
      <trkpt lat="50.28425" lon="4.40466">
        <ele>190.9</ele>
        <time>2025-11-16T08:40:45.000Z</time>
      </trkpt>
      <trkpt lat="50.28426" lon="4.40464">
        <ele>190.7</ele>
        <time>2025-11-16T08:40:46.000Z</time>
      </trkpt>
      <trkpt lat="50.28427" lon="4.40462">
        <ele>190.5</ele>
        <time>2025-11-16T08:40:47.000Z</time>
      </trkpt>
      <trkpt lat="50.28429" lon="4.4046">
        <ele>190.3</ele>
        <time>2025-11-16T08:40:48.000Z</time>
      </trkpt>
      <trkpt lat="50.2843" lon="4.40459">
        <ele>190</ele>
        <time>2025-11-16T08:40:49.000Z</time>
      </trkpt>
      <trkpt lat="50.28432" lon="4.40458">
        <ele>189.7</ele>
        <time>2025-11-16T08:40:50.000Z</time>
      </trkpt>
      <trkpt lat="50.28433" lon="4.40458">
        <ele>189.5</ele>
        <time>2025-11-16T08:40:51.000Z</time>
      </trkpt>
      <trkpt lat="50.28433" lon="4.40457">
        <ele>189.2</ele>
        <time>2025-11-16T08:40:52.000Z</time>
      </trkpt>
      <trkpt lat="50.28434" lon="4.40457">
        <ele>188.9</ele>
        <time>2025-11-16T08:40:53.000Z</time>
      </trkpt>
      <trkpt lat="50.28436" lon="4.40455">
        <ele>188.9</ele>
        <time>2025-11-16T08:40:54.000Z</time>
      </trkpt>
      <trkpt lat="50.28437" lon="4.40455">
        <ele>188.7</ele>
        <time>2025-11-16T08:40:55.000Z</time>
      </trkpt>
      <trkpt lat="50.28438" lon="4.40453">
        <ele>188.6</ele>
        <time>2025-11-16T08:40:56.000Z</time>
      </trkpt>
      <trkpt lat="50.28439" lon="4.40452">
        <ele>188.5</ele>
        <time>2025-11-16T08:40:57.000Z</time>
      </trkpt>
      <trkpt lat="50.2844" lon="4.40451">
        <ele>188.4</ele>
        <time>2025-11-16T08:40:58.000Z</time>
      </trkpt>
      <trkpt lat="50.28441" lon="4.4045">
        <ele>188.3</ele>
        <time>2025-11-16T08:40:59.000Z</time>
      </trkpt>
      <trkpt lat="50.28441" lon="4.40449">
        <ele>188.2</ele>
        <time>2025-11-16T08:41:00.000Z</time>
      </trkpt>
      <trkpt lat="50.28443" lon="4.40448">
        <ele>188</ele>
        <time>2025-11-16T08:41:01.000Z</time>
      </trkpt>
      <trkpt lat="50.28443" lon="4.40447">
        <ele>188</ele>
        <time>2025-11-16T08:41:02.000Z</time>
      </trkpt>
      <trkpt lat="50.28445" lon="4.40446">
        <ele>187.8</ele>
        <time>2025-11-16T08:41:03.000Z</time>
      </trkpt>
      <trkpt lat="50.28446" lon="4.40445">
        <ele>187.8</ele>
        <time>2025-11-16T08:41:04.000Z</time>
      </trkpt>
      <trkpt lat="50.28447" lon="4.40443">
        <ele>187.6</ele>
        <time>2025-11-16T08:41:05.000Z</time>
      </trkpt>
      <trkpt lat="50.28448" lon="4.40441">
        <ele>188</ele>
        <time>2025-11-16T08:41:06.000Z</time>
      </trkpt>
      <trkpt lat="50.28449" lon="4.4044">
        <ele>188.3</ele>
        <time>2025-11-16T08:41:07.000Z</time>
      </trkpt>
      <trkpt lat="50.28451" lon="4.40439">
        <ele>188.4</ele>
        <time>2025-11-16T08:41:08.000Z</time>
      </trkpt>
      <trkpt lat="50.28452" lon="4.40439">
        <ele>188.4</ele>
        <time>2025-11-16T08:41:09.000Z</time>
      </trkpt>
      <trkpt lat="50.28453" lon="4.40438">
        <ele>188.5</ele>
        <time>2025-11-16T08:41:10.000Z</time>
      </trkpt>
      <trkpt lat="50.28455" lon="4.40436">
        <ele>188.5</ele>
        <time>2025-11-16T08:41:11.000Z</time>
      </trkpt>
      <trkpt lat="50.28456" lon="4.40435">
        <ele>188.6</ele>
        <time>2025-11-16T08:41:12.000Z</time>
      </trkpt>
      <trkpt lat="50.28457" lon="4.40433">
        <ele>188.7</ele>
        <time>2025-11-16T08:41:13.000Z</time>
      </trkpt>
      <trkpt lat="50.28458" lon="4.40432">
        <ele>189</ele>
        <time>2025-11-16T08:41:14.000Z</time>
      </trkpt>
      <trkpt lat="50.28459" lon="4.4043">
        <ele>189.2</ele>
        <time>2025-11-16T08:41:15.000Z</time>
      </trkpt>
      <trkpt lat="50.2846" lon="4.40429">
        <ele>189.8</ele>
        <time>2025-11-16T08:41:16.000Z</time>
      </trkpt>
      <trkpt lat="50.2846" lon="4.40427">
        <ele>190.1</ele>
        <time>2025-11-16T08:41:17.000Z</time>
      </trkpt>
      <trkpt lat="50.28461" lon="4.40426">
        <ele>190.7</ele>
        <time>2025-11-16T08:41:18.000Z</time>
      </trkpt>
      <trkpt lat="50.28462" lon="4.40425">
        <ele>191.3</ele>
        <time>2025-11-16T08:41:19.000Z</time>
      </trkpt>
      <trkpt lat="50.28463" lon="4.40423">
        <ele>191.7</ele>
        <time>2025-11-16T08:41:20.000Z</time>
      </trkpt>
      <trkpt lat="50.28464" lon="4.40422">
        <ele>192.3</ele>
        <time>2025-11-16T08:41:21.000Z</time>
      </trkpt>
      <trkpt lat="50.28465" lon="4.40422">
        <ele>192.9</ele>
        <time>2025-11-16T08:41:22.000Z</time>
      </trkpt>
      <trkpt lat="50.28466" lon="4.40422">
        <ele>193.5</ele>
        <time>2025-11-16T08:41:23.000Z</time>
      </trkpt>
      <trkpt lat="50.28467" lon="4.40422">
        <ele>193.8</ele>
        <time>2025-11-16T08:41:24.000Z</time>
      </trkpt>
      <trkpt lat="50.28467" lon="4.40421">
        <ele>194.3</ele>
        <time>2025-11-16T08:41:25.000Z</time>
      </trkpt>
      <trkpt lat="50.28468" lon="4.40421">
        <ele>194.6</ele>
        <time>2025-11-16T08:41:26.000Z</time>
      </trkpt>
      <trkpt lat="50.28469" lon="4.40421">
        <ele>194.8</ele>
        <time>2025-11-16T08:41:27.000Z</time>
      </trkpt>
      <trkpt lat="50.2847" lon="4.40421">
        <ele>194.9</ele>
        <time>2025-11-16T08:41:28.000Z</time>
      </trkpt>
      <trkpt lat="50.28472" lon="4.40421">
        <ele>195.2</ele>
        <time>2025-11-16T08:41:29.000Z</time>
      </trkpt>
      <trkpt lat="50.28473" lon="4.4042">
        <ele>195.8</ele>
        <time>2025-11-16T08:41:30.000Z</time>
      </trkpt>
      <trkpt lat="50.28474" lon="4.4042">
        <ele>196.2</ele>
        <time>2025-11-16T08:41:31.000Z</time>
      </trkpt>
      <trkpt lat="50.28475" lon="4.4042">
        <ele>196.3</ele>
        <time>2025-11-16T08:41:32.000Z</time>
      </trkpt>
      <trkpt lat="50.28475" lon="4.4042">
        <ele>196.5</ele>
        <time>2025-11-16T08:41:33.000Z</time>
      </trkpt>
      <trkpt lat="50.28476" lon="4.4042">
        <ele>196.9</ele>
        <time>2025-11-16T08:41:34.000Z</time>
      </trkpt>
      <trkpt lat="50.28477" lon="4.40422">
        <ele>196.6</ele>
        <time>2025-11-16T08:41:35.000Z</time>
      </trkpt>
      <trkpt lat="50.28478" lon="4.40424">
        <ele>196.4</ele>
        <time>2025-11-16T08:41:36.000Z</time>
      </trkpt>
      <trkpt lat="50.28479" lon="4.40426">
        <ele>196.3</ele>
        <time>2025-11-16T08:41:37.000Z</time>
      </trkpt>
      <trkpt lat="50.28479" lon="4.40427">
        <ele>196.4</ele>
        <time>2025-11-16T08:41:38.000Z</time>
      </trkpt>
      <trkpt lat="50.2848" lon="4.40428">
        <ele>196.6</ele>
        <time>2025-11-16T08:41:39.000Z</time>
      </trkpt>
      <trkpt lat="50.2848" lon="4.4043">
        <ele>196.7</ele>
        <time>2025-11-16T08:41:40.000Z</time>
      </trkpt>
      <trkpt lat="50.28481" lon="4.40432">
        <ele>196.8</ele>
        <time>2025-11-16T08:41:41.000Z</time>
      </trkpt>
      <trkpt lat="50.28481" lon="4.40434">
        <ele>196.8</ele>
        <time>2025-11-16T08:41:42.000Z</time>
      </trkpt>
      <trkpt lat="50.28482" lon="4.40435">
        <ele>196.9</ele>
        <time>2025-11-16T08:41:43.000Z</time>
      </trkpt>
      <trkpt lat="50.28483" lon="4.40437">
        <ele>197</ele>
        <time>2025-11-16T08:41:44.000Z</time>
      </trkpt>
      <trkpt lat="50.28483" lon="4.40439">
        <ele>196.9</ele>
        <time>2025-11-16T08:41:45.000Z</time>
      </trkpt>
      <trkpt lat="50.28484" lon="4.40441">
        <ele>196.8</ele>
        <time>2025-11-16T08:41:46.000Z</time>
      </trkpt>
      <trkpt lat="50.28484" lon="4.40443">
        <ele>196.7</ele>
        <time>2025-11-16T08:41:47.000Z</time>
      </trkpt>
      <trkpt lat="50.28484" lon="4.40445">
        <ele>196.5</ele>
        <time>2025-11-16T08:41:48.000Z</time>
      </trkpt>
      <trkpt lat="50.28485" lon="4.40447">
        <ele>196.4</ele>
        <time>2025-11-16T08:41:49.000Z</time>
      </trkpt>
      <trkpt lat="50.28485" lon="4.40448">
        <ele>196.2</ele>
        <time>2025-11-16T08:41:50.000Z</time>
      </trkpt>
      <trkpt lat="50.28485" lon="4.4045">
        <ele>196.1</ele>
        <time>2025-11-16T08:41:51.000Z</time>
      </trkpt>
      <trkpt lat="50.28485" lon="4.40452">
        <ele>195.9</ele>
        <time>2025-11-16T08:41:52.000Z</time>
      </trkpt>
      <trkpt lat="50.28486" lon="4.40454">
        <ele>195.7</ele>
        <time>2025-11-16T08:41:53.000Z</time>
      </trkpt>
      <trkpt lat="50.28487" lon="4.40455">
        <ele>195.4</ele>
        <time>2025-11-16T08:41:54.000Z</time>
      </trkpt>
      <trkpt lat="50.28487" lon="4.40457">
        <ele>195.2</ele>
        <time>2025-11-16T08:41:55.000Z</time>
      </trkpt>
      <trkpt lat="50.28488" lon="4.40459">
        <ele>194.9</ele>
        <time>2025-11-16T08:41:56.000Z</time>
      </trkpt>
      <trkpt lat="50.28488" lon="4.40461">
        <ele>194.7</ele>
        <time>2025-11-16T08:41:57.000Z</time>
      </trkpt>
      <trkpt lat="50.28489" lon="4.40463">
        <ele>194.4</ele>
        <time>2025-11-16T08:41:58.000Z</time>
      </trkpt>
      <trkpt lat="50.28489" lon="4.40465">
        <ele>194.3</ele>
        <time>2025-11-16T08:41:59.000Z</time>
      </trkpt>
      <trkpt lat="50.28491" lon="4.40468">
        <ele>195.2</ele>
        <time>2025-11-16T08:42:00.000Z</time>
      </trkpt>
      <trkpt lat="50.28491" lon="4.40469">
        <ele>195.5</ele>
        <time>2025-11-16T08:42:01.000Z</time>
      </trkpt>
      <trkpt lat="50.28492" lon="4.4047">
        <ele>195.6</ele>
        <time>2025-11-16T08:42:02.000Z</time>
      </trkpt>
      <trkpt lat="50.28493" lon="4.40471">
        <ele>195.5</ele>
        <time>2025-11-16T08:42:03.000Z</time>
      </trkpt>
      <trkpt lat="50.28494" lon="4.40474">
        <ele>195.7</ele>
        <time>2025-11-16T08:42:04.000Z</time>
      </trkpt>
      <trkpt lat="50.28495" lon="4.40475">
        <ele>195.5</ele>
        <time>2025-11-16T08:42:05.000Z</time>
      </trkpt>
      <trkpt lat="50.28496" lon="4.40477">
        <ele>195.5</ele>
        <time>2025-11-16T08:42:06.000Z</time>
      </trkpt>
      <trkpt lat="50.28498" lon="4.40479">
        <ele>195.7</ele>
        <time>2025-11-16T08:42:07.000Z</time>
      </trkpt>
      <trkpt lat="50.28499" lon="4.40479">
        <ele>195.8</ele>
        <time>2025-11-16T08:42:08.000Z</time>
      </trkpt>
      <trkpt lat="50.28499" lon="4.40481">
        <ele>195.8</ele>
        <time>2025-11-16T08:42:09.000Z</time>
      </trkpt>
      <trkpt lat="50.285" lon="4.40482">
        <ele>195.7</ele>
        <time>2025-11-16T08:42:10.000Z</time>
      </trkpt>
      <trkpt lat="50.28501" lon="4.40483">
        <ele>195.8</ele>
        <time>2025-11-16T08:42:11.000Z</time>
      </trkpt>
      <trkpt lat="50.28502" lon="4.40485">
        <ele>196.2</ele>
        <time>2025-11-16T08:42:12.000Z</time>
      </trkpt>
      <trkpt lat="50.28503" lon="4.40487">
        <ele>196.2</ele>
        <time>2025-11-16T08:42:13.000Z</time>
      </trkpt>
      <trkpt lat="50.28504" lon="4.40489">
        <ele>196.4</ele>
        <time>2025-11-16T08:42:14.000Z</time>
      </trkpt>
      <trkpt lat="50.28505" lon="4.40491">
        <ele>196.5</ele>
        <time>2025-11-16T08:42:15.000Z</time>
      </trkpt>
      <trkpt lat="50.28506" lon="4.40493">
        <ele>196.8</ele>
        <time>2025-11-16T08:42:16.000Z</time>
      </trkpt>
      <trkpt lat="50.28506" lon="4.40495">
        <ele>197.1</ele>
        <time>2025-11-16T08:42:17.000Z</time>
      </trkpt>
      <trkpt lat="50.28507" lon="4.40496">
        <ele>197.3</ele>
        <time>2025-11-16T08:42:18.000Z</time>
      </trkpt>
      <trkpt lat="50.28508" lon="4.40498">
        <ele>197.4</ele>
        <time>2025-11-16T08:42:19.000Z</time>
      </trkpt>
      <trkpt lat="50.28509" lon="4.40499">
        <ele>197.4</ele>
        <time>2025-11-16T08:42:20.000Z</time>
      </trkpt>
      <trkpt lat="50.28509" lon="4.40501">
        <ele>197.5</ele>
        <time>2025-11-16T08:42:21.000Z</time>
      </trkpt>
      <trkpt lat="50.2851" lon="4.40503">
        <ele>197.6</ele>
        <time>2025-11-16T08:42:22.000Z</time>
      </trkpt>
      <trkpt lat="50.28511" lon="4.40505">
        <ele>197.8</ele>
        <time>2025-11-16T08:42:23.000Z</time>
      </trkpt>
      <trkpt lat="50.28511" lon="4.40507">
        <ele>198</ele>
        <time>2025-11-16T08:42:24.000Z</time>
      </trkpt>
      <trkpt lat="50.28512" lon="4.40508">
        <ele>198</ele>
        <time>2025-11-16T08:42:25.000Z</time>
      </trkpt>
      <trkpt lat="50.28513" lon="4.4051">
        <ele>197.9</ele>
        <time>2025-11-16T08:42:26.000Z</time>
      </trkpt>
      <trkpt lat="50.28514" lon="4.40511">
        <ele>197.9</ele>
        <time>2025-11-16T08:42:27.000Z</time>
      </trkpt>
      <trkpt lat="50.28515" lon="4.40512">
        <ele>197.8</ele>
        <time>2025-11-16T08:42:28.000Z</time>
      </trkpt>
      <trkpt lat="50.28516" lon="4.40514">
        <ele>197.7</ele>
        <time>2025-11-16T08:42:29.000Z</time>
      </trkpt>
      <trkpt lat="50.28517" lon="4.40516">
        <ele>197.6</ele>
        <time>2025-11-16T08:42:30.000Z</time>
      </trkpt>
      <trkpt lat="50.28518" lon="4.40517">
        <ele>197.5</ele>
        <time>2025-11-16T08:42:31.000Z</time>
      </trkpt>
      <trkpt lat="50.28519" lon="4.40519">
        <ele>197.4</ele>
        <time>2025-11-16T08:42:32.000Z</time>
      </trkpt>
      <trkpt lat="50.2852" lon="4.4052">
        <ele>197.4</ele>
        <time>2025-11-16T08:42:33.000Z</time>
      </trkpt>
      <trkpt lat="50.28521" lon="4.40522">
        <ele>197.3</ele>
        <time>2025-11-16T08:42:34.000Z</time>
      </trkpt>
      <trkpt lat="50.28522" lon="4.40524">
        <ele>197.2</ele>
        <time>2025-11-16T08:42:35.000Z</time>
      </trkpt>
      <trkpt lat="50.28523" lon="4.40525">
        <ele>197.2</ele>
        <time>2025-11-16T08:42:36.000Z</time>
      </trkpt>
      <trkpt lat="50.28524" lon="4.40527">
        <ele>197.1</ele>
        <time>2025-11-16T08:42:37.000Z</time>
      </trkpt>
      <trkpt lat="50.28524" lon="4.40529">
        <ele>197.1</ele>
        <time>2025-11-16T08:42:38.000Z</time>
      </trkpt>
      <trkpt lat="50.28525" lon="4.40531">
        <ele>197.1</ele>
        <time>2025-11-16T08:42:39.000Z</time>
      </trkpt>
      <trkpt lat="50.28526" lon="4.40532">
        <ele>197</ele>
        <time>2025-11-16T08:42:40.000Z</time>
      </trkpt>
      <trkpt lat="50.28526" lon="4.40533">
        <ele>196.8</ele>
        <time>2025-11-16T08:42:41.000Z</time>
      </trkpt>
      <trkpt lat="50.28527" lon="4.40535">
        <ele>196.7</ele>
        <time>2025-11-16T08:42:42.000Z</time>
      </trkpt>
      <trkpt lat="50.28528" lon="4.40536">
        <ele>196.7</ele>
        <time>2025-11-16T08:42:43.000Z</time>
      </trkpt>
      <trkpt lat="50.28529" lon="4.40538">
        <ele>196.6</ele>
        <time>2025-11-16T08:42:44.000Z</time>
      </trkpt>
      <trkpt lat="50.2853" lon="4.40541">
        <ele>196.5</ele>
        <time>2025-11-16T08:42:45.000Z</time>
      </trkpt>
      <trkpt lat="50.2853" lon="4.40543">
        <ele>196.3</ele>
        <time>2025-11-16T08:42:46.000Z</time>
      </trkpt>
      <trkpt lat="50.28531" lon="4.40545">
        <ele>196.1</ele>
        <time>2025-11-16T08:42:47.000Z</time>
      </trkpt>
      <trkpt lat="50.28532" lon="4.40547">
        <ele>196</ele>
        <time>2025-11-16T08:42:48.000Z</time>
      </trkpt>
      <trkpt lat="50.28534" lon="4.40549">
        <ele>195.7</ele>
        <time>2025-11-16T08:42:49.000Z</time>
      </trkpt>
      <trkpt lat="50.28535" lon="4.40552">
        <ele>195.4</ele>
        <time>2025-11-16T08:42:50.000Z</time>
      </trkpt>
      <trkpt lat="50.28537" lon="4.40554">
        <ele>195.3</ele>
        <time>2025-11-16T08:42:51.000Z</time>
      </trkpt>
      <trkpt lat="50.28539" lon="4.40556">
        <ele>195.4</ele>
        <time>2025-11-16T08:42:52.000Z</time>
      </trkpt>
      <trkpt lat="50.2854" lon="4.40558">
        <ele>195.3</ele>
        <time>2025-11-16T08:42:53.000Z</time>
      </trkpt>
      <trkpt lat="50.28541" lon="4.40561">
        <ele>195.2</ele>
        <time>2025-11-16T08:42:54.000Z</time>
      </trkpt>
      <trkpt lat="50.28542" lon="4.40563">
        <ele>194.9</ele>
        <time>2025-11-16T08:42:55.000Z</time>
      </trkpt>
      <trkpt lat="50.28544" lon="4.40565">
        <ele>195</ele>
        <time>2025-11-16T08:42:56.000Z</time>
      </trkpt>
      <trkpt lat="50.28546" lon="4.40568">
        <ele>194.8</ele>
        <time>2025-11-16T08:42:57.000Z</time>
      </trkpt>
      <trkpt lat="50.28547" lon="4.4057">
        <ele>194.7</ele>
        <time>2025-11-16T08:42:58.000Z</time>
      </trkpt>
      <trkpt lat="50.28549" lon="4.40572">
        <ele>194.7</ele>
        <time>2025-11-16T08:42:59.000Z</time>
      </trkpt>
      <trkpt lat="50.2855" lon="4.40574">
        <ele>194.4</ele>
        <time>2025-11-16T08:43:00.000Z</time>
      </trkpt>
      <trkpt lat="50.2855" lon="4.40576">
        <ele>194</ele>
        <time>2025-11-16T08:43:01.000Z</time>
      </trkpt>
      <trkpt lat="50.28551" lon="4.40578">
        <ele>194</ele>
        <time>2025-11-16T08:43:02.000Z</time>
      </trkpt>
      <trkpt lat="50.28553" lon="4.40579">
        <ele>193.9</ele>
        <time>2025-11-16T08:43:03.000Z</time>
      </trkpt>
      <trkpt lat="50.28553" lon="4.4058">
        <ele>193.9</ele>
        <time>2025-11-16T08:43:04.000Z</time>
      </trkpt>
      <trkpt lat="50.28554" lon="4.40582">
        <ele>193.7</ele>
        <time>2025-11-16T08:43:05.000Z</time>
      </trkpt>
      <trkpt lat="50.28554" lon="4.40583">
        <ele>193.8</ele>
        <time>2025-11-16T08:43:06.000Z</time>
      </trkpt>
      <trkpt lat="50.28554" lon="4.40584">
        <ele>193.7</ele>
        <time>2025-11-16T08:43:07.000Z</time>
      </trkpt>
      <trkpt lat="50.28555" lon="4.40585">
        <ele>193.9</ele>
        <time>2025-11-16T08:43:08.000Z</time>
      </trkpt>
      <trkpt lat="50.28555" lon="4.40586">
        <ele>194.1</ele>
        <time>2025-11-16T08:43:09.000Z</time>
      </trkpt>
      <trkpt lat="50.28556" lon="4.40586">
        <ele>194</ele>
        <time>2025-11-16T08:43:10.000Z</time>
      </trkpt>
      <trkpt lat="50.28557" lon="4.40586">
        <ele>194</ele>
        <time>2025-11-16T08:43:11.000Z</time>
      </trkpt>
      <trkpt lat="50.28558" lon="4.40586">
        <ele>194.2</ele>
        <time>2025-11-16T08:43:12.000Z</time>
      </trkpt>
      <trkpt lat="50.2856" lon="4.40585">
        <ele>194.4</ele>
        <time>2025-11-16T08:43:13.000Z</time>
      </trkpt>
      <trkpt lat="50.28561" lon="4.40585">
        <ele>194.7</ele>
        <time>2025-11-16T08:43:14.000Z</time>
      </trkpt>
      <trkpt lat="50.28562" lon="4.40584">
        <ele>194.9</ele>
        <time>2025-11-16T08:43:15.000Z</time>
      </trkpt>
      <trkpt lat="50.28563" lon="4.40584">
        <ele>194.9</ele>
        <time>2025-11-16T08:43:16.000Z</time>
      </trkpt>
      <trkpt lat="50.28563" lon="4.40584">
        <ele>194.5</ele>
        <time>2025-11-16T08:43:17.000Z</time>
      </trkpt>
      <trkpt lat="50.28564" lon="4.40583">
        <ele>194.4</ele>
        <time>2025-11-16T08:43:18.000Z</time>
      </trkpt>
      <trkpt lat="50.28565" lon="4.40582">
        <ele>194.3</ele>
        <time>2025-11-16T08:43:19.000Z</time>
      </trkpt>
      <trkpt lat="50.28566" lon="4.4058">
        <ele>194.1</ele>
        <time>2025-11-16T08:43:20.000Z</time>
      </trkpt>
      <trkpt lat="50.28567" lon="4.40579">
        <ele>193.8</ele>
        <time>2025-11-16T08:43:21.000Z</time>
      </trkpt>
      <trkpt lat="50.28568" lon="4.40577">
        <ele>193.5</ele>
        <time>2025-11-16T08:43:22.000Z</time>
      </trkpt>
      <trkpt lat="50.28568" lon="4.40575">
        <ele>192.9</ele>
        <time>2025-11-16T08:43:23.000Z</time>
      </trkpt>
      <trkpt lat="50.28569" lon="4.40572">
        <ele>192.5</ele>
        <time>2025-11-16T08:43:24.000Z</time>
      </trkpt>
      <trkpt lat="50.2857" lon="4.4057">
        <ele>192.2</ele>
        <time>2025-11-16T08:43:25.000Z</time>
      </trkpt>
      <trkpt lat="50.28571" lon="4.40569">
        <ele>191.9</ele>
        <time>2025-11-16T08:43:26.000Z</time>
      </trkpt>
      <trkpt lat="50.28572" lon="4.40568">
        <ele>191.5</ele>
        <time>2025-11-16T08:43:27.000Z</time>
      </trkpt>
      <trkpt lat="50.28573" lon="4.40566">
        <ele>191.2</ele>
        <time>2025-11-16T08:43:28.000Z</time>
      </trkpt>
      <trkpt lat="50.28574" lon="4.40564">
        <ele>190.8</ele>
        <time>2025-11-16T08:43:29.000Z</time>
      </trkpt>
      <trkpt lat="50.28575" lon="4.40563">
        <ele>190.5</ele>
        <time>2025-11-16T08:43:30.000Z</time>
      </trkpt>
      <trkpt lat="50.28575" lon="4.40562">
        <ele>190.1</ele>
        <time>2025-11-16T08:43:31.000Z</time>
      </trkpt>
      <trkpt lat="50.28576" lon="4.40562">
        <ele>189.7</ele>
        <time>2025-11-16T08:43:32.000Z</time>
      </trkpt>
      <trkpt lat="50.28577" lon="4.40562">
        <ele>189.2</ele>
        <time>2025-11-16T08:43:33.000Z</time>
      </trkpt>
      <trkpt lat="50.28578" lon="4.40563">
        <ele>189</ele>
        <time>2025-11-16T08:43:34.000Z</time>
      </trkpt>
      <trkpt lat="50.28578" lon="4.40564">
        <ele>188.9</ele>
        <time>2025-11-16T08:43:35.000Z</time>
      </trkpt>
      <trkpt lat="50.28578" lon="4.40566">
        <ele>188.9</ele>
        <time>2025-11-16T08:43:36.000Z</time>
      </trkpt>
      <trkpt lat="50.28578" lon="4.40568">
        <ele>188.9</ele>
        <time>2025-11-16T08:43:37.000Z</time>
      </trkpt>
      <trkpt lat="50.28577" lon="4.40569">
        <ele>188.8</ele>
        <time>2025-11-16T08:43:38.000Z</time>
      </trkpt>
      <trkpt lat="50.28576" lon="4.40571">
        <ele>188.8</ele>
        <time>2025-11-16T08:43:39.000Z</time>
      </trkpt>
      <trkpt lat="50.28575" lon="4.40574">
        <ele>189.1</ele>
        <time>2025-11-16T08:43:40.000Z</time>
      </trkpt>
      <trkpt lat="50.28574" lon="4.40576">
        <ele>189.3</ele>
        <time>2025-11-16T08:43:41.000Z</time>
      </trkpt>
      <trkpt lat="50.28572" lon="4.40578">
        <ele>189.5</ele>
        <time>2025-11-16T08:43:42.000Z</time>
      </trkpt>
      <trkpt lat="50.28571" lon="4.4058">
        <ele>189.7</ele>
        <time>2025-11-16T08:43:43.000Z</time>
      </trkpt>
      <trkpt lat="50.2857" lon="4.40582">
        <ele>189.9</ele>
        <time>2025-11-16T08:43:44.000Z</time>
      </trkpt>
      <trkpt lat="50.28569" lon="4.40583">
        <ele>190.1</ele>
        <time>2025-11-16T08:43:45.000Z</time>
      </trkpt>
      <trkpt lat="50.28568" lon="4.40586">
        <ele>190.1</ele>
        <time>2025-11-16T08:43:46.000Z</time>
      </trkpt>
      <trkpt lat="50.28568" lon="4.40587">
        <ele>190.2</ele>
        <time>2025-11-16T08:43:47.000Z</time>
      </trkpt>
      <trkpt lat="50.28567" lon="4.40588">
        <ele>190.4</ele>
        <time>2025-11-16T08:43:48.000Z</time>
      </trkpt>
      <trkpt lat="50.28565" lon="4.40589">
        <ele>190.6</ele>
        <time>2025-11-16T08:43:49.000Z</time>
      </trkpt>
      <trkpt lat="50.28564" lon="4.4059">
        <ele>191.1</ele>
        <time>2025-11-16T08:43:50.000Z</time>
      </trkpt>
      <trkpt lat="50.28563" lon="4.40591">
        <ele>191.7</ele>
        <time>2025-11-16T08:43:51.000Z</time>
      </trkpt>
      <trkpt lat="50.28562" lon="4.40592">
        <ele>192.4</ele>
        <time>2025-11-16T08:43:52.000Z</time>
      </trkpt>
      <trkpt lat="50.28561" lon="4.40593">
        <ele>193.1</ele>
        <time>2025-11-16T08:43:53.000Z</time>
      </trkpt>
      <trkpt lat="50.2856" lon="4.40594">
        <ele>193.6</ele>
        <time>2025-11-16T08:43:54.000Z</time>
      </trkpt>
      <trkpt lat="50.28559" lon="4.40595">
        <ele>194.1</ele>
        <time>2025-11-16T08:43:55.000Z</time>
      </trkpt>
      <trkpt lat="50.28559" lon="4.40597">
        <ele>194.5</ele>
        <time>2025-11-16T08:43:56.000Z</time>
      </trkpt>
      <trkpt lat="50.2856" lon="4.40598">
        <ele>194.9</ele>
        <time>2025-11-16T08:43:57.000Z</time>
      </trkpt>
      <trkpt lat="50.28561" lon="4.40599">
        <ele>195</ele>
        <time>2025-11-16T08:43:58.000Z</time>
      </trkpt>
      <trkpt lat="50.28562" lon="4.40601">
        <ele>195.2</ele>
        <time>2025-11-16T08:43:59.000Z</time>
      </trkpt>
      <trkpt lat="50.28563" lon="4.40602">
        <ele>195.4</ele>
        <time>2025-11-16T08:44:00.000Z</time>
      </trkpt>
      <trkpt lat="50.28563" lon="4.40604">
        <ele>195.6</ele>
        <time>2025-11-16T08:44:01.000Z</time>
      </trkpt>
      <trkpt lat="50.28564" lon="4.40605">
        <ele>195.9</ele>
        <time>2025-11-16T08:44:02.000Z</time>
      </trkpt>
      <trkpt lat="50.28565" lon="4.40606">
        <ele>196.2</ele>
        <time>2025-11-16T08:44:03.000Z</time>
      </trkpt>
      <trkpt lat="50.28565" lon="4.40608">
        <ele>196.5</ele>
        <time>2025-11-16T08:44:04.000Z</time>
      </trkpt>
      <trkpt lat="50.28566" lon="4.40609">
        <ele>196.8</ele>
        <time>2025-11-16T08:44:05.000Z</time>
      </trkpt>
      <trkpt lat="50.28567" lon="4.40611">
        <ele>196.9</ele>
        <time>2025-11-16T08:44:06.000Z</time>
      </trkpt>
      <trkpt lat="50.28567" lon="4.40612">
        <ele>197.3</ele>
        <time>2025-11-16T08:44:07.000Z</time>
      </trkpt>
      <trkpt lat="50.28568" lon="4.40613">
        <ele>197.5</ele>
        <time>2025-11-16T08:44:08.000Z</time>
      </trkpt>
      <trkpt lat="50.28568" lon="4.40614">
        <ele>197.5</ele>
        <time>2025-11-16T08:44:09.000Z</time>
      </trkpt>
      <trkpt lat="50.28567" lon="4.40616">
        <ele>197.6</ele>
        <time>2025-11-16T08:44:10.000Z</time>
      </trkpt>
      <trkpt lat="50.28567" lon="4.40617">
        <ele>197.7</ele>
        <time>2025-11-16T08:44:11.000Z</time>
      </trkpt>
      <trkpt lat="50.28566" lon="4.40618">
        <ele>197.8</ele>
        <time>2025-11-16T08:44:12.000Z</time>
      </trkpt>
      <trkpt lat="50.28565" lon="4.40619">
        <ele>198</ele>
        <time>2025-11-16T08:44:13.000Z</time>
      </trkpt>
      <trkpt lat="50.28564" lon="4.40619">
        <ele>198.3</ele>
        <time>2025-11-16T08:44:14.000Z</time>
      </trkpt>
      <trkpt lat="50.28564" lon="4.4062">
        <ele>198.4</ele>
        <time>2025-11-16T08:44:15.000Z</time>
      </trkpt>
      <trkpt lat="50.28563" lon="4.4062">
        <ele>198.5</ele>
        <time>2025-11-16T08:44:16.000Z</time>
      </trkpt>
      <trkpt lat="50.28563" lon="4.40621">
        <ele>198.7</ele>
        <time>2025-11-16T08:44:17.000Z</time>
      </trkpt>
      <trkpt lat="50.28562" lon="4.40622">
        <ele>198.8</ele>
        <time>2025-11-16T08:44:18.000Z</time>
      </trkpt>
      <trkpt lat="50.28561" lon="4.40623">
        <ele>198.8</ele>
        <time>2025-11-16T08:44:19.000Z</time>
      </trkpt>
      <trkpt lat="50.2856" lon="4.40624">
        <ele>198.8</ele>
        <time>2025-11-16T08:44:20.000Z</time>
      </trkpt>
      <trkpt lat="50.28559" lon="4.40624">
        <ele>198.9</ele>
        <time>2025-11-16T08:44:21.000Z</time>
      </trkpt>
      <trkpt lat="50.28559" lon="4.40625">
        <ele>199</ele>
        <time>2025-11-16T08:44:22.000Z</time>
      </trkpt>
      <trkpt lat="50.28558" lon="4.40626">
        <ele>198.9</ele>
        <time>2025-11-16T08:44:23.000Z</time>
      </trkpt>
      <trkpt lat="50.28557" lon="4.40628">
        <ele>198.8</ele>
        <time>2025-11-16T08:44:24.000Z</time>
      </trkpt>
      <trkpt lat="50.28556" lon="4.40629">
        <ele>198.8</ele>
        <time>2025-11-16T08:44:25.000Z</time>
      </trkpt>
      <trkpt lat="50.28555" lon="4.40631">
        <ele>198.8</ele>
        <time>2025-11-16T08:44:26.000Z</time>
      </trkpt>
      <trkpt lat="50.28554" lon="4.40632">
        <ele>198.6</ele>
        <time>2025-11-16T08:44:27.000Z</time>
      </trkpt>
      <trkpt lat="50.28554" lon="4.40633">
        <ele>198.5</ele>
        <time>2025-11-16T08:44:28.000Z</time>
      </trkpt>
      <trkpt lat="50.28553" lon="4.40634">
        <ele>198.2</ele>
        <time>2025-11-16T08:44:29.000Z</time>
      </trkpt>
      <trkpt lat="50.28552" lon="4.40635">
        <ele>197.9</ele>
        <time>2025-11-16T08:44:30.000Z</time>
      </trkpt>
      <trkpt lat="50.28552" lon="4.40636">
        <ele>197.9</ele>
        <time>2025-11-16T08:44:31.000Z</time>
      </trkpt>
      <trkpt lat="50.28551" lon="4.40638">
        <ele>197.8</ele>
        <time>2025-11-16T08:44:32.000Z</time>
      </trkpt>
      <trkpt lat="50.2855" lon="4.40639">
        <ele>197.7</ele>
        <time>2025-11-16T08:44:33.000Z</time>
      </trkpt>
      <trkpt lat="50.28549" lon="4.40641">
        <ele>197.6</ele>
        <time>2025-11-16T08:44:34.000Z</time>
      </trkpt>
      <trkpt lat="50.28548" lon="4.40643">
        <ele>197.7</ele>
        <time>2025-11-16T08:44:35.000Z</time>
      </trkpt>
      <trkpt lat="50.28548" lon="4.40644">
        <ele>197.6</ele>
        <time>2025-11-16T08:44:36.000Z</time>
      </trkpt>
      <trkpt lat="50.28547" lon="4.40647">
        <ele>197.4</ele>
        <time>2025-11-16T08:44:37.000Z</time>
      </trkpt>
      <trkpt lat="50.28546" lon="4.40649">
        <ele>197.2</ele>
        <time>2025-11-16T08:44:38.000Z</time>
      </trkpt>
      <trkpt lat="50.28545" lon="4.40651">
        <ele>197.1</ele>
        <time>2025-11-16T08:44:39.000Z</time>
      </trkpt>
      <trkpt lat="50.28545" lon="4.40653">
        <ele>196.9</ele>
        <time>2025-11-16T08:44:40.000Z</time>
      </trkpt>
      <trkpt lat="50.28544" lon="4.40655">
        <ele>196.7</ele>
        <time>2025-11-16T08:44:41.000Z</time>
      </trkpt>
      <trkpt lat="50.28543" lon="4.40658">
        <ele>196.4</ele>
        <time>2025-11-16T08:44:42.000Z</time>
      </trkpt>
      <trkpt lat="50.28543" lon="4.40659">
        <ele>196.2</ele>
        <time>2025-11-16T08:44:43.000Z</time>
      </trkpt>
      <trkpt lat="50.28542" lon="4.40661">
        <ele>196</ele>
        <time>2025-11-16T08:44:44.000Z</time>
      </trkpt>
      <trkpt lat="50.28541" lon="4.40664">
        <ele>195.9</ele>
        <time>2025-11-16T08:44:45.000Z</time>
      </trkpt>
      <trkpt lat="50.2854" lon="4.40666">
        <ele>195.7</ele>
        <time>2025-11-16T08:44:46.000Z</time>
      </trkpt>
      <trkpt lat="50.28539" lon="4.40668">
        <ele>195.4</ele>
        <time>2025-11-16T08:44:47.000Z</time>
      </trkpt>
      <trkpt lat="50.28538" lon="4.4067">
        <ele>195.2</ele>
        <time>2025-11-16T08:44:48.000Z</time>
      </trkpt>
      <trkpt lat="50.28537" lon="4.40672">
        <ele>194.9</ele>
        <time>2025-11-16T08:44:49.000Z</time>
      </trkpt>
      <trkpt lat="50.28537" lon="4.40674">
        <ele>194.6</ele>
        <time>2025-11-16T08:44:50.000Z</time>
      </trkpt>
      <trkpt lat="50.28536" lon="4.40675">
        <ele>194.7</ele>
        <time>2025-11-16T08:44:51.000Z</time>
      </trkpt>
      <trkpt lat="50.28536" lon="4.40677">
        <ele>194.7</ele>
        <time>2025-11-16T08:44:52.000Z</time>
      </trkpt>
      <trkpt lat="50.28535" lon="4.40679">
        <ele>194.8</ele>
        <time>2025-11-16T08:44:53.000Z</time>
      </trkpt>
      <trkpt lat="50.28535" lon="4.40681">
        <ele>194.7</ele>
        <time>2025-11-16T08:44:54.000Z</time>
      </trkpt>
      <trkpt lat="50.28534" lon="4.40684">
        <ele>194.6</ele>
        <time>2025-11-16T08:44:55.000Z</time>
      </trkpt>
      <trkpt lat="50.28534" lon="4.40686">
        <ele>194.8</ele>
        <time>2025-11-16T08:44:56.000Z</time>
      </trkpt>
      <trkpt lat="50.28533" lon="4.40688">
        <ele>194.8</ele>
        <time>2025-11-16T08:44:57.000Z</time>
      </trkpt>
      <trkpt lat="50.28533" lon="4.4069">
        <ele>195</ele>
        <time>2025-11-16T08:44:58.000Z</time>
      </trkpt>
      <trkpt lat="50.28533" lon="4.40692">
        <ele>195.2</ele>
        <time>2025-11-16T08:44:59.000Z</time>
      </trkpt>
      <trkpt lat="50.28532" lon="4.40693">
        <ele>195.4</ele>
        <time>2025-11-16T08:45:00.000Z</time>
      </trkpt>
      <trkpt lat="50.28532" lon="4.40694">
        <ele>195.5</ele>
        <time>2025-11-16T08:45:01.000Z</time>
      </trkpt>
      <trkpt lat="50.28532" lon="4.40696">
        <ele>195.7</ele>
        <time>2025-11-16T08:45:02.000Z</time>
      </trkpt>
      <trkpt lat="50.28531" lon="4.40698">
        <ele>195.9</ele>
        <time>2025-11-16T08:45:03.000Z</time>
      </trkpt>
      <trkpt lat="50.2853" lon="4.40699">
        <ele>196.4</ele>
        <time>2025-11-16T08:45:04.000Z</time>
      </trkpt>
      <trkpt lat="50.28529" lon="4.40701">
        <ele>196.9</ele>
        <time>2025-11-16T08:45:05.000Z</time>
      </trkpt>
      <trkpt lat="50.28528" lon="4.40702">
        <ele>197.1</ele>
        <time>2025-11-16T08:45:06.000Z</time>
      </trkpt>
      <trkpt lat="50.28528" lon="4.40704">
        <ele>197.4</ele>
        <time>2025-11-16T08:45:07.000Z</time>
      </trkpt>
      <trkpt lat="50.28527" lon="4.40705">
        <ele>197.7</ele>
        <time>2025-11-16T08:45:08.000Z</time>
      </trkpt>
      <trkpt lat="50.28525" lon="4.40707">
        <ele>197.9</ele>
        <time>2025-11-16T08:45:09.000Z</time>
      </trkpt>
      <trkpt lat="50.28525" lon="4.40708">
        <ele>198.1</ele>
        <time>2025-11-16T08:45:10.000Z</time>
      </trkpt>
      <trkpt lat="50.28524" lon="4.40709">
        <ele>198.4</ele>
        <time>2025-11-16T08:45:11.000Z</time>
      </trkpt>
      <trkpt lat="50.28524" lon="4.4071">
        <ele>198.7</ele>
        <time>2025-11-16T08:45:12.000Z</time>
      </trkpt>
      <trkpt lat="50.28523" lon="4.4071">
        <ele>199.1</ele>
        <time>2025-11-16T08:45:13.000Z</time>
      </trkpt>
      <trkpt lat="50.28523" lon="4.40711">
        <ele>199.4</ele>
        <time>2025-11-16T08:45:14.000Z</time>
      </trkpt>
      <trkpt lat="50.28522" lon="4.40712">
        <ele>199.5</ele>
        <time>2025-11-16T08:45:15.000Z</time>
      </trkpt>
      <trkpt lat="50.28522" lon="4.40713">
        <ele>199.9</ele>
        <time>2025-11-16T08:45:16.000Z</time>
      </trkpt>
      <trkpt lat="50.28522" lon="4.40714">
        <ele>200.3</ele>
        <time>2025-11-16T08:45:17.000Z</time>
      </trkpt>
      <trkpt lat="50.28521" lon="4.40716">
        <ele>200.6</ele>
        <time>2025-11-16T08:45:18.000Z</time>
      </trkpt>
      <trkpt lat="50.28521" lon="4.40717">
        <ele>201</ele>
        <time>2025-11-16T08:45:19.000Z</time>
      </trkpt>
      <trkpt lat="50.2852" lon="4.40718">
        <ele>201.2</ele>
        <time>2025-11-16T08:45:20.000Z</time>
      </trkpt>
      <trkpt lat="50.28519" lon="4.40719">
        <ele>201.7</ele>
        <time>2025-11-16T08:45:21.000Z</time>
      </trkpt>
      <trkpt lat="50.28519" lon="4.40721">
        <ele>202.2</ele>
        <time>2025-11-16T08:45:22.000Z</time>
      </trkpt>
      <trkpt lat="50.28518" lon="4.40722">
        <ele>202.4</ele>
        <time>2025-11-16T08:45:23.000Z</time>
      </trkpt>
      <trkpt lat="50.28517" lon="4.40723">
        <ele>202.6</ele>
        <time>2025-11-16T08:45:24.000Z</time>
      </trkpt>
      <trkpt lat="50.28517" lon="4.40724">
        <ele>202.8</ele>
        <time>2025-11-16T08:45:25.000Z</time>
      </trkpt>
      <trkpt lat="50.28517" lon="4.40724">
        <ele>203</ele>
        <time>2025-11-16T08:45:26.000Z</time>
      </trkpt>
      <trkpt lat="50.28516" lon="4.40725">
        <ele>203</ele>
        <time>2025-11-16T08:45:27.000Z</time>
      </trkpt>
      <trkpt lat="50.28517" lon="4.40726">
        <ele>203.2</ele>
        <time>2025-11-16T08:45:28.000Z</time>
      </trkpt>
      <trkpt lat="50.28517" lon="4.40728">
        <ele>203.4</ele>
        <time>2025-11-16T08:45:29.000Z</time>
      </trkpt>
      <trkpt lat="50.28517" lon="4.4073">
        <ele>203.5</ele>
        <time>2025-11-16T08:45:30.000Z</time>
      </trkpt>
      <trkpt lat="50.28517" lon="4.40732">
        <ele>203.6</ele>
        <time>2025-11-16T08:45:31.000Z</time>
      </trkpt>
      <trkpt lat="50.28517" lon="4.40735">
        <ele>203.5</ele>
        <time>2025-11-16T08:45:32.000Z</time>
      </trkpt>
      <trkpt lat="50.28515" lon="4.40737">
        <ele>203.4</ele>
        <time>2025-11-16T08:45:33.000Z</time>
      </trkpt>
      <trkpt lat="50.28514" lon="4.40739">
        <ele>203.5</ele>
        <time>2025-11-16T08:45:34.000Z</time>
      </trkpt>
      <trkpt lat="50.28513" lon="4.40741">
        <ele>203.5</ele>
        <time>2025-11-16T08:45:35.000Z</time>
      </trkpt>
      <trkpt lat="50.28512" lon="4.40743">
        <ele>203.6</ele>
        <time>2025-11-16T08:45:36.000Z</time>
      </trkpt>
      <trkpt lat="50.28511" lon="4.40745">
        <ele>203.8</ele>
        <time>2025-11-16T08:45:37.000Z</time>
      </trkpt>
      <trkpt lat="50.2851" lon="4.40745">
        <ele>203.9</ele>
        <time>2025-11-16T08:45:38.000Z</time>
      </trkpt>
      <trkpt lat="50.28509" lon="4.40746">
        <ele>204.1</ele>
        <time>2025-11-16T08:45:39.000Z</time>
      </trkpt>
      <trkpt lat="50.28508" lon="4.40747">
        <ele>204.4</ele>
        <time>2025-11-16T08:45:40.000Z</time>
      </trkpt>
      <trkpt lat="50.28508" lon="4.40748">
        <ele>204.6</ele>
        <time>2025-11-16T08:45:41.000Z</time>
      </trkpt>
      <trkpt lat="50.28507" lon="4.40749">
        <ele>204.7</ele>
        <time>2025-11-16T08:45:42.000Z</time>
      </trkpt>
      <trkpt lat="50.28507" lon="4.40751">
        <ele>204.9</ele>
        <time>2025-11-16T08:45:43.000Z</time>
      </trkpt>
      <trkpt lat="50.28506" lon="4.40753">
        <ele>205.3</ele>
        <time>2025-11-16T08:45:44.000Z</time>
      </trkpt>
      <trkpt lat="50.28505" lon="4.40754">
        <ele>205.6</ele>
        <time>2025-11-16T08:45:45.000Z</time>
      </trkpt>
      <trkpt lat="50.28504" lon="4.40755">
        <ele>205.8</ele>
        <time>2025-11-16T08:45:46.000Z</time>
      </trkpt>
      <trkpt lat="50.28503" lon="4.40755">
        <ele>206</ele>
        <time>2025-11-16T08:45:47.000Z</time>
      </trkpt>
      <trkpt lat="50.28502" lon="4.40756">
        <ele>206.2</ele>
        <time>2025-11-16T08:45:48.000Z</time>
      </trkpt>
      <trkpt lat="50.28501" lon="4.40758">
        <ele>206.4</ele>
        <time>2025-11-16T08:45:49.000Z</time>
      </trkpt>
      <trkpt lat="50.285" lon="4.40758">
        <ele>206.5</ele>
        <time>2025-11-16T08:45:50.000Z</time>
      </trkpt>
      <trkpt lat="50.28499" lon="4.40759">
        <ele>206.5</ele>
        <time>2025-11-16T08:45:51.000Z</time>
      </trkpt>
      <trkpt lat="50.28498" lon="4.4076">
        <ele>206.8</ele>
        <time>2025-11-16T08:45:52.000Z</time>
      </trkpt>
      <trkpt lat="50.28497" lon="4.40761">
        <ele>207</ele>
        <time>2025-11-16T08:45:53.000Z</time>
      </trkpt>
      <trkpt lat="50.28496" lon="4.40762">
        <ele>207</ele>
        <time>2025-11-16T08:45:54.000Z</time>
      </trkpt>
      <trkpt lat="50.28496" lon="4.40763">
        <ele>207</ele>
        <time>2025-11-16T08:45:55.000Z</time>
      </trkpt>
      <trkpt lat="50.28494" lon="4.40763">
        <ele>207</ele>
        <time>2025-11-16T08:45:56.000Z</time>
      </trkpt>
      <trkpt lat="50.28494" lon="4.40763">
        <ele>206.9</ele>
        <time>2025-11-16T08:45:57.000Z</time>
      </trkpt>
      <trkpt lat="50.28493" lon="4.40764">
        <ele>206.8</ele>
        <time>2025-11-16T08:45:58.000Z</time>
      </trkpt>
      <trkpt lat="50.28494" lon="4.40765">
        <ele>206.7</ele>
        <time>2025-11-16T08:45:59.000Z</time>
      </trkpt>
      <trkpt lat="50.28493" lon="4.40765">
        <ele>206.4</ele>
        <time>2025-11-16T08:46:00.000Z</time>
      </trkpt>
      <trkpt lat="50.28493" lon="4.40766">
        <ele>206.3</ele>
        <time>2025-11-16T08:46:01.000Z</time>
      </trkpt>
      <trkpt lat="50.28492" lon="4.40767">
        <ele>206.2</ele>
        <time>2025-11-16T08:46:02.000Z</time>
      </trkpt>
      <trkpt lat="50.28491" lon="4.40767">
        <ele>206.1</ele>
        <time>2025-11-16T08:46:03.000Z</time>
      </trkpt>
      <trkpt lat="50.2849" lon="4.40768">
        <ele>206</ele>
        <time>2025-11-16T08:46:04.000Z</time>
      </trkpt>
      <trkpt lat="50.28489" lon="4.40768">
        <ele>205.9</ele>
        <time>2025-11-16T08:46:05.000Z</time>
      </trkpt>
      <trkpt lat="50.28488" lon="4.40768">
        <ele>205.7</ele>
        <time>2025-11-16T08:46:06.000Z</time>
      </trkpt>
      <trkpt lat="50.28487" lon="4.40769">
        <ele>205.7</ele>
        <time>2025-11-16T08:46:07.000Z</time>
      </trkpt>
      <trkpt lat="50.28486" lon="4.40769">
        <ele>205.6</ele>
        <time>2025-11-16T08:46:08.000Z</time>
      </trkpt>
      <trkpt lat="50.28485" lon="4.40771">
        <ele>205.6</ele>
        <time>2025-11-16T08:46:09.000Z</time>
      </trkpt>
      <trkpt lat="50.28484" lon="4.40772">
        <ele>205.5</ele>
        <time>2025-11-16T08:46:10.000Z</time>
      </trkpt>
      <trkpt lat="50.28484" lon="4.40774">
        <ele>205</ele>
        <time>2025-11-16T08:46:11.000Z</time>
      </trkpt>
      <trkpt lat="50.28483" lon="4.40774">
        <ele>204.8</ele>
        <time>2025-11-16T08:46:12.000Z</time>
      </trkpt>
      <trkpt lat="50.28483" lon="4.40775">
        <ele>204.7</ele>
        <time>2025-11-16T08:46:13.000Z</time>
      </trkpt>
      <trkpt lat="50.28483" lon="4.40775">
        <ele>204.9</ele>
        <time>2025-11-16T08:46:14.000Z</time>
      </trkpt>
      <trkpt lat="50.28483" lon="4.40776">
        <ele>204.8</ele>
        <time>2025-11-16T08:46:15.000Z</time>
      </trkpt>
      <trkpt lat="50.28483" lon="4.40776">
        <ele>204.7</ele>
        <time>2025-11-16T08:46:16.000Z</time>
      </trkpt>
      <trkpt lat="50.28483" lon="4.40777">
        <ele>204.7</ele>
        <time>2025-11-16T08:46:17.000Z</time>
      </trkpt>
      <trkpt lat="50.28482" lon="4.40777">
        <ele>204.8</ele>
        <time>2025-11-16T08:46:18.000Z</time>
      </trkpt>
      <trkpt lat="50.28482" lon="4.40778">
        <ele>204.7</ele>
        <time>2025-11-16T08:46:19.000Z</time>
      </trkpt>
      <trkpt lat="50.28481" lon="4.40778">
        <ele>204.7</ele>
        <time>2025-11-16T08:46:20.000Z</time>
      </trkpt>
      <trkpt lat="50.28481" lon="4.40778">
        <ele>204.7</ele>
        <time>2025-11-16T08:46:21.000Z</time>
      </trkpt>
      <trkpt lat="50.28481" lon="4.40778">
        <ele>204.7</ele>
        <time>2025-11-16T08:46:22.000Z</time>
      </trkpt>
      <trkpt lat="50.28481" lon="4.40778">
        <ele>204.7</ele>
        <time>2025-11-16T08:46:23.000Z</time>
      </trkpt>
      <trkpt lat="50.28481" lon="4.40778">
        <ele>204.7</ele>
        <time>2025-11-16T08:46:24.000Z</time>
      </trkpt>
      <trkpt lat="50.28478" lon="4.40781">
        <ele>204.5</ele>
        <time>2025-11-16T08:46:25.000Z</time>
      </trkpt>
      <trkpt lat="50.28477" lon="4.40781">
        <ele>204.4</ele>
        <time>2025-11-16T08:46:26.000Z</time>
      </trkpt>
      <trkpt lat="50.28476" lon="4.40782">
        <ele>204.3</ele>
        <time>2025-11-16T08:46:27.000Z</time>
      </trkpt>
      <trkpt lat="50.28474" lon="4.40783">
        <ele>204.1</ele>
        <time>2025-11-16T08:46:28.000Z</time>
      </trkpt>
      <trkpt lat="50.28473" lon="4.40785">
        <ele>203.9</ele>
        <time>2025-11-16T08:46:29.000Z</time>
      </trkpt>
      <trkpt lat="50.28471" lon="4.40786">
        <ele>203.6</ele>
        <time>2025-11-16T08:46:30.000Z</time>
      </trkpt>
      <trkpt lat="50.28471" lon="4.40788">
        <ele>203.3</ele>
        <time>2025-11-16T08:46:31.000Z</time>
      </trkpt>
      <trkpt lat="50.2847" lon="4.4079">
        <ele>203</ele>
        <time>2025-11-16T08:46:32.000Z</time>
      </trkpt>
      <trkpt lat="50.2847" lon="4.40791">
        <ele>202.7</ele>
        <time>2025-11-16T08:46:33.000Z</time>
      </trkpt>
      <trkpt lat="50.28469" lon="4.40793">
        <ele>202.6</ele>
        <time>2025-11-16T08:46:34.000Z</time>
      </trkpt>
      <trkpt lat="50.28469" lon="4.40794">
        <ele>202.4</ele>
        <time>2025-11-16T08:46:35.000Z</time>
      </trkpt>
      <trkpt lat="50.28468" lon="4.40796">
        <ele>202.2</ele>
        <time>2025-11-16T08:46:36.000Z</time>
      </trkpt>
      <trkpt lat="50.28467" lon="4.40797">
        <ele>202.1</ele>
        <time>2025-11-16T08:46:37.000Z</time>
      </trkpt>
      <trkpt lat="50.28466" lon="4.40798">
        <ele>202</ele>
        <time>2025-11-16T08:46:38.000Z</time>
      </trkpt>
      <trkpt lat="50.28465" lon="4.40799">
        <ele>201.9</ele>
        <time>2025-11-16T08:46:39.000Z</time>
      </trkpt>
      <trkpt lat="50.28464" lon="4.40799">
        <ele>201.7</ele>
        <time>2025-11-16T08:46:40.000Z</time>
      </trkpt>
      <trkpt lat="50.28463" lon="4.408">
        <ele>201.5</ele>
        <time>2025-11-16T08:46:41.000Z</time>
      </trkpt>
      <trkpt lat="50.28462" lon="4.408">
        <ele>201.4</ele>
        <time>2025-11-16T08:46:42.000Z</time>
      </trkpt>
      <trkpt lat="50.28462" lon="4.40801">
        <ele>201.4</ele>
        <time>2025-11-16T08:46:43.000Z</time>
      </trkpt>
      <trkpt lat="50.28461" lon="4.40801">
        <ele>201.4</ele>
        <time>2025-11-16T08:46:44.000Z</time>
      </trkpt>
      <trkpt lat="50.2846" lon="4.40802">
        <ele>201.3</ele>
        <time>2025-11-16T08:46:45.000Z</time>
      </trkpt>
      <trkpt lat="50.28459" lon="4.40803">
        <ele>201.1</ele>
        <time>2025-11-16T08:46:46.000Z</time>
      </trkpt>
      <trkpt lat="50.28458" lon="4.40804">
        <ele>201</ele>
        <time>2025-11-16T08:46:47.000Z</time>
      </trkpt>
      <trkpt lat="50.28457" lon="4.40805">
        <ele>200.9</ele>
        <time>2025-11-16T08:46:48.000Z</time>
      </trkpt>
      <trkpt lat="50.28456" lon="4.40807">
        <ele>200.5</ele>
        <time>2025-11-16T08:46:49.000Z</time>
      </trkpt>
      <trkpt lat="50.28456" lon="4.40809">
        <ele>200.7</ele>
        <time>2025-11-16T08:46:50.000Z</time>
      </trkpt>
      <trkpt lat="50.28455" lon="4.40811">
        <ele>200.8</ele>
        <time>2025-11-16T08:46:51.000Z</time>
      </trkpt>
      <trkpt lat="50.28454" lon="4.40813">
        <ele>200.3</ele>
        <time>2025-11-16T08:46:52.000Z</time>
      </trkpt>
      <trkpt lat="50.28453" lon="4.40813">
        <ele>200.3</ele>
        <time>2025-11-16T08:46:53.000Z</time>
      </trkpt>
      <trkpt lat="50.28452" lon="4.40814">
        <ele>200.4</ele>
        <time>2025-11-16T08:46:54.000Z</time>
      </trkpt>
      <trkpt lat="50.28451" lon="4.40815">
        <ele>200.6</ele>
        <time>2025-11-16T08:46:55.000Z</time>
      </trkpt>
      <trkpt lat="50.2845" lon="4.40815">
        <ele>200.9</ele>
        <time>2025-11-16T08:46:56.000Z</time>
      </trkpt>
      <trkpt lat="50.28449" lon="4.40816">
        <ele>201.2</ele>
        <time>2025-11-16T08:46:57.000Z</time>
      </trkpt>
      <trkpt lat="50.28449" lon="4.40815">
        <ele>201.3</ele>
        <time>2025-11-16T08:46:58.000Z</time>
      </trkpt>
      <trkpt lat="50.28448" lon="4.40816">
        <ele>201.6</ele>
        <time>2025-11-16T08:46:59.000Z</time>
      </trkpt>
      <trkpt lat="50.28447" lon="4.40818">
        <ele>202</ele>
        <time>2025-11-16T08:47:00.000Z</time>
      </trkpt>
      <trkpt lat="50.28447" lon="4.4082">
        <ele>202.4</ele>
        <time>2025-11-16T08:47:01.000Z</time>
      </trkpt>
      <trkpt lat="50.28445" lon="4.40822">
        <ele>202.3</ele>
        <time>2025-11-16T08:47:02.000Z</time>
      </trkpt>
      <trkpt lat="50.28444" lon="4.40823">
        <ele>202.2</ele>
        <time>2025-11-16T08:47:03.000Z</time>
      </trkpt>
      <trkpt lat="50.28443" lon="4.40826">
        <ele>202.3</ele>
        <time>2025-11-16T08:47:04.000Z</time>
      </trkpt>
      <trkpt lat="50.28443" lon="4.40828">
        <ele>203.3</ele>
        <time>2025-11-16T08:47:05.000Z</time>
      </trkpt>
      <trkpt lat="50.28441" lon="4.40829">
        <ele>204.2</ele>
        <time>2025-11-16T08:47:06.000Z</time>
      </trkpt>
      <trkpt lat="50.2844" lon="4.40831">
        <ele>204.9</ele>
        <time>2025-11-16T08:47:07.000Z</time>
      </trkpt>
      <trkpt lat="50.2844" lon="4.40833">
        <ele>205.7</ele>
        <time>2025-11-16T08:47:08.000Z</time>
      </trkpt>
      <trkpt lat="50.28439" lon="4.40835">
        <ele>206.6</ele>
        <time>2025-11-16T08:47:09.000Z</time>
      </trkpt>
      <trkpt lat="50.28437" lon="4.40836">
        <ele>207.2</ele>
        <time>2025-11-16T08:47:10.000Z</time>
      </trkpt>
      <trkpt lat="50.28435" lon="4.40837">
        <ele>207.5</ele>
        <time>2025-11-16T08:47:11.000Z</time>
      </trkpt>
      <trkpt lat="50.28433" lon="4.40838">
        <ele>207.5</ele>
        <time>2025-11-16T08:47:12.000Z</time>
      </trkpt>
      <trkpt lat="50.28431" lon="4.40839">
        <ele>207.1</ele>
        <time>2025-11-16T08:47:13.000Z</time>
      </trkpt>
      <trkpt lat="50.2843" lon="4.40841">
        <ele>206.8</ele>
        <time>2025-11-16T08:47:14.000Z</time>
      </trkpt>
      <trkpt lat="50.28428" lon="4.40842">
        <ele>206.9</ele>
        <time>2025-11-16T08:47:15.000Z</time>
      </trkpt>
      <trkpt lat="50.28428" lon="4.40843">
        <ele>207</ele>
        <time>2025-11-16T08:47:16.000Z</time>
      </trkpt>
      <trkpt lat="50.28428" lon="4.40844">
        <ele>206.9</ele>
        <time>2025-11-16T08:47:17.000Z</time>
      </trkpt>
      <trkpt lat="50.28427" lon="4.40844">
        <ele>206.4</ele>
        <time>2025-11-16T08:47:18.000Z</time>
      </trkpt>
      <trkpt lat="50.28427" lon="4.40845">
        <ele>205.9</ele>
        <time>2025-11-16T08:47:19.000Z</time>
      </trkpt>
      <trkpt lat="50.28426" lon="4.40845">
        <ele>205.4</ele>
        <time>2025-11-16T08:47:20.000Z</time>
      </trkpt>
      <trkpt lat="50.28424" lon="4.40847">
        <ele>205.1</ele>
        <time>2025-11-16T08:47:21.000Z</time>
      </trkpt>
      <trkpt lat="50.28423" lon="4.40847">
        <ele>204.9</ele>
        <time>2025-11-16T08:47:22.000Z</time>
      </trkpt>
      <trkpt lat="50.28422" lon="4.40848">
        <ele>204.8</ele>
        <time>2025-11-16T08:47:23.000Z</time>
      </trkpt>
      <trkpt lat="50.28421" lon="4.40849">
        <ele>204.5</ele>
        <time>2025-11-16T08:47:24.000Z</time>
      </trkpt>
      <trkpt lat="50.2842" lon="4.4085">
        <ele>204.3</ele>
        <time>2025-11-16T08:47:25.000Z</time>
      </trkpt>
      <trkpt lat="50.28419" lon="4.4085">
        <ele>204</ele>
        <time>2025-11-16T08:47:26.000Z</time>
      </trkpt>
      <trkpt lat="50.28418" lon="4.40851">
        <ele>203.7</ele>
        <time>2025-11-16T08:47:27.000Z</time>
      </trkpt>
      <trkpt lat="50.28417" lon="4.40853">
        <ele>203.4</ele>
        <time>2025-11-16T08:47:28.000Z</time>
      </trkpt>
      <trkpt lat="50.28416" lon="4.40854">
        <ele>203.3</ele>
        <time>2025-11-16T08:47:29.000Z</time>
      </trkpt>
      <trkpt lat="50.28415" lon="4.40855">
        <ele>203.2</ele>
        <time>2025-11-16T08:47:30.000Z</time>
      </trkpt>
      <trkpt lat="50.28414" lon="4.40857">
        <ele>203</ele>
        <time>2025-11-16T08:47:31.000Z</time>
      </trkpt>
      <trkpt lat="50.28413" lon="4.40859">
        <ele>202.9</ele>
        <time>2025-11-16T08:47:32.000Z</time>
      </trkpt>
      <trkpt lat="50.28412" lon="4.4086">
        <ele>202.6</ele>
        <time>2025-11-16T08:47:33.000Z</time>
      </trkpt>
      <trkpt lat="50.28411" lon="4.40863">
        <ele>202.2</ele>
        <time>2025-11-16T08:47:34.000Z</time>
      </trkpt>
      <trkpt lat="50.28409" lon="4.40863">
        <ele>202.1</ele>
        <time>2025-11-16T08:47:35.000Z</time>
      </trkpt>
      <trkpt lat="50.28409" lon="4.40865">
        <ele>201.5</ele>
        <time>2025-11-16T08:47:36.000Z</time>
      </trkpt>
      <trkpt lat="50.28408" lon="4.40867">
        <ele>201.1</ele>
        <time>2025-11-16T08:47:37.000Z</time>
      </trkpt>
      <trkpt lat="50.28408" lon="4.40869">
        <ele>200.7</ele>
        <time>2025-11-16T08:47:38.000Z</time>
      </trkpt>
      <trkpt lat="50.28407" lon="4.40871">
        <ele>200.2</ele>
        <time>2025-11-16T08:47:39.000Z</time>
      </trkpt>
      <trkpt lat="50.28406" lon="4.40872">
        <ele>199.6</ele>
        <time>2025-11-16T08:47:40.000Z</time>
      </trkpt>
      <trkpt lat="50.28405" lon="4.40873">
        <ele>199.2</ele>
        <time>2025-11-16T08:47:41.000Z</time>
      </trkpt>
      <trkpt lat="50.28404" lon="4.40875">
        <ele>198.7</ele>
        <time>2025-11-16T08:47:42.000Z</time>
      </trkpt>
      <trkpt lat="50.28402" lon="4.40875">
        <ele>198.4</ele>
        <time>2025-11-16T08:47:43.000Z</time>
      </trkpt>
      <trkpt lat="50.28401" lon="4.40876">
        <ele>198.1</ele>
        <time>2025-11-16T08:47:44.000Z</time>
      </trkpt>
      <trkpt lat="50.284" lon="4.40877">
        <ele>197.7</ele>
        <time>2025-11-16T08:47:45.000Z</time>
      </trkpt>
      <trkpt lat="50.28398" lon="4.40878">
        <ele>197.9</ele>
        <time>2025-11-16T08:47:46.000Z</time>
      </trkpt>
      <trkpt lat="50.28397" lon="4.40879">
        <ele>197.6</ele>
        <time>2025-11-16T08:47:47.000Z</time>
      </trkpt>
      <trkpt lat="50.28396" lon="4.40879">
        <ele>197.2</ele>
        <time>2025-11-16T08:47:48.000Z</time>
      </trkpt>
      <trkpt lat="50.28394" lon="4.40879">
        <ele>196.6</ele>
        <time>2025-11-16T08:47:49.000Z</time>
      </trkpt>
      <trkpt lat="50.28393" lon="4.40879">
        <ele>196.4</ele>
        <time>2025-11-16T08:47:50.000Z</time>
      </trkpt>
      <trkpt lat="50.28391" lon="4.4088">
        <ele>196</ele>
        <time>2025-11-16T08:47:51.000Z</time>
      </trkpt>
      <trkpt lat="50.28389" lon="4.4088">
        <ele>196.1</ele>
        <time>2025-11-16T08:47:52.000Z</time>
      </trkpt>
      <trkpt lat="50.28387" lon="4.4088">
        <ele>196.4</ele>
        <time>2025-11-16T08:47:53.000Z</time>
      </trkpt>
      <trkpt lat="50.28386" lon="4.4088">
        <ele>196.4</ele>
        <time>2025-11-16T08:47:54.000Z</time>
      </trkpt>
      <trkpt lat="50.28384" lon="4.40881">
        <ele>196.4</ele>
        <time>2025-11-16T08:47:55.000Z</time>
      </trkpt>
      <trkpt lat="50.28383" lon="4.40882">
        <ele>196.6</ele>
        <time>2025-11-16T08:47:56.000Z</time>
      </trkpt>
      <trkpt lat="50.28381" lon="4.40883">
        <ele>196.5</ele>
        <time>2025-11-16T08:47:57.000Z</time>
      </trkpt>
      <trkpt lat="50.2838" lon="4.40884">
        <ele>196.6</ele>
        <time>2025-11-16T08:47:58.000Z</time>
      </trkpt>
      <trkpt lat="50.28378" lon="4.40885">
        <ele>196.6</ele>
        <time>2025-11-16T08:47:59.000Z</time>
      </trkpt>
      <trkpt lat="50.28377" lon="4.40886">
        <ele>196.7</ele>
        <time>2025-11-16T08:48:00.000Z</time>
      </trkpt>
      <trkpt lat="50.28377" lon="4.40886">
        <ele>196.6</ele>
        <time>2025-11-16T08:48:01.000Z</time>
      </trkpt>
      <trkpt lat="50.28376" lon="4.40887">
        <ele>196.5</ele>
        <time>2025-11-16T08:48:02.000Z</time>
      </trkpt>
      <trkpt lat="50.28375" lon="4.40889">
        <ele>196.1</ele>
        <time>2025-11-16T08:48:03.000Z</time>
      </trkpt>
      <trkpt lat="50.28374" lon="4.4089">
        <ele>195.9</ele>
        <time>2025-11-16T08:48:04.000Z</time>
      </trkpt>
      <trkpt lat="50.28373" lon="4.40891">
        <ele>195.9</ele>
        <time>2025-11-16T08:48:05.000Z</time>
      </trkpt>
      <trkpt lat="50.28372" lon="4.40892">
        <ele>195.6</ele>
        <time>2025-11-16T08:48:06.000Z</time>
      </trkpt>
      <trkpt lat="50.2837" lon="4.40893">
        <ele>195.3</ele>
        <time>2025-11-16T08:48:07.000Z</time>
      </trkpt>
      <trkpt lat="50.28369" lon="4.40893">
        <ele>195</ele>
        <time>2025-11-16T08:48:08.000Z</time>
      </trkpt>
      <trkpt lat="50.28368" lon="4.40894">
        <ele>195</ele>
        <time>2025-11-16T08:48:09.000Z</time>
      </trkpt>
      <trkpt lat="50.28366" lon="4.40895">
        <ele>195</ele>
        <time>2025-11-16T08:48:10.000Z</time>
      </trkpt>
      <trkpt lat="50.28365" lon="4.40896">
        <ele>195</ele>
        <time>2025-11-16T08:48:11.000Z</time>
      </trkpt>
      <trkpt lat="50.28363" lon="4.40897">
        <ele>194.9</ele>
        <time>2025-11-16T08:48:12.000Z</time>
      </trkpt>
      <trkpt lat="50.28362" lon="4.40898">
        <ele>194.8</ele>
        <time>2025-11-16T08:48:13.000Z</time>
      </trkpt>
      <trkpt lat="50.28361" lon="4.40899">
        <ele>194.7</ele>
        <time>2025-11-16T08:48:14.000Z</time>
      </trkpt>
      <trkpt lat="50.28359" lon="4.40899">
        <ele>194.4</ele>
        <time>2025-11-16T08:48:15.000Z</time>
      </trkpt>
      <trkpt lat="50.28357" lon="4.40899">
        <ele>193.8</ele>
        <time>2025-11-16T08:48:16.000Z</time>
      </trkpt>
      <trkpt lat="50.28356" lon="4.409">
        <ele>193.2</ele>
        <time>2025-11-16T08:48:17.000Z</time>
      </trkpt>
      <trkpt lat="50.28354" lon="4.409">
        <ele>192.7</ele>
        <time>2025-11-16T08:48:18.000Z</time>
      </trkpt>
      <trkpt lat="50.28353" lon="4.409">
        <ele>192.4</ele>
        <time>2025-11-16T08:48:19.000Z</time>
      </trkpt>
      <trkpt lat="50.28353" lon="4.40902">
        <ele>192.1</ele>
        <time>2025-11-16T08:48:20.000Z</time>
      </trkpt>
      <trkpt lat="50.28352" lon="4.40902">
        <ele>191.6</ele>
        <time>2025-11-16T08:48:21.000Z</time>
      </trkpt>
      <trkpt lat="50.28351" lon="4.40903">
        <ele>191.2</ele>
        <time>2025-11-16T08:48:22.000Z</time>
      </trkpt>
      <trkpt lat="50.28351" lon="4.40904">
        <ele>191</ele>
        <time>2025-11-16T08:48:23.000Z</time>
      </trkpt>
      <trkpt lat="50.2835" lon="4.40905">
        <ele>190.7</ele>
        <time>2025-11-16T08:48:24.000Z</time>
      </trkpt>
      <trkpt lat="50.28349" lon="4.40907">
        <ele>190.7</ele>
        <time>2025-11-16T08:48:25.000Z</time>
      </trkpt>
      <trkpt lat="50.28348" lon="4.40907">
        <ele>190.4</ele>
        <time>2025-11-16T08:48:26.000Z</time>
      </trkpt>
      <trkpt lat="50.28347" lon="4.40909">
        <ele>190.1</ele>
        <time>2025-11-16T08:48:27.000Z</time>
      </trkpt>
      <trkpt lat="50.28346" lon="4.4091">
        <ele>189.8</ele>
        <time>2025-11-16T08:48:28.000Z</time>
      </trkpt>
      <trkpt lat="50.28345" lon="4.40911">
        <ele>189.5</ele>
        <time>2025-11-16T08:48:29.000Z</time>
      </trkpt>
      <trkpt lat="50.28345" lon="4.40912">
        <ele>189</ele>
        <time>2025-11-16T08:48:30.000Z</time>
      </trkpt>
      <trkpt lat="50.28343" lon="4.40913">
        <ele>188.6</ele>
        <time>2025-11-16T08:48:31.000Z</time>
      </trkpt>
      <trkpt lat="50.28342" lon="4.40914">
        <ele>188.3</ele>
        <time>2025-11-16T08:48:32.000Z</time>
      </trkpt>
      <trkpt lat="50.2834" lon="4.40916">
        <ele>188.1</ele>
        <time>2025-11-16T08:48:33.000Z</time>
      </trkpt>
      <trkpt lat="50.28338" lon="4.40918">
        <ele>187.9</ele>
        <time>2025-11-16T08:48:34.000Z</time>
      </trkpt>
      <trkpt lat="50.28337" lon="4.40919">
        <ele>187.7</ele>
        <time>2025-11-16T08:48:35.000Z</time>
      </trkpt>
      <trkpt lat="50.28335" lon="4.40921">
        <ele>187.3</ele>
        <time>2025-11-16T08:48:36.000Z</time>
      </trkpt>
      <trkpt lat="50.28334" lon="4.40922">
        <ele>187.2</ele>
        <time>2025-11-16T08:48:37.000Z</time>
      </trkpt>
      <trkpt lat="50.28333" lon="4.40923">
        <ele>187.2</ele>
        <time>2025-11-16T08:48:38.000Z</time>
      </trkpt>
      <trkpt lat="50.28331" lon="4.40923">
        <ele>187.1</ele>
        <time>2025-11-16T08:48:39.000Z</time>
      </trkpt>
      <trkpt lat="50.2833" lon="4.40925">
        <ele>186.9</ele>
        <time>2025-11-16T08:48:40.000Z</time>
      </trkpt>
      <trkpt lat="50.28329" lon="4.40926">
        <ele>186.8</ele>
        <time>2025-11-16T08:48:41.000Z</time>
      </trkpt>
      <trkpt lat="50.28328" lon="4.40927">
        <ele>187</ele>
        <time>2025-11-16T08:48:42.000Z</time>
      </trkpt>
      <trkpt lat="50.28326" lon="4.40928">
        <ele>187.3</ele>
        <time>2025-11-16T08:48:43.000Z</time>
      </trkpt>
      <trkpt lat="50.28325" lon="4.40929">
        <ele>187.6</ele>
        <time>2025-11-16T08:48:44.000Z</time>
      </trkpt>
      <trkpt lat="50.28324" lon="4.40931">
        <ele>187.8</ele>
        <time>2025-11-16T08:48:45.000Z</time>
      </trkpt>
      <trkpt lat="50.28322" lon="4.40932">
        <ele>188</ele>
        <time>2025-11-16T08:48:46.000Z</time>
      </trkpt>
      <trkpt lat="50.28321" lon="4.40933">
        <ele>188.2</ele>
        <time>2025-11-16T08:48:47.000Z</time>
      </trkpt>
      <trkpt lat="50.2832" lon="4.40935">
        <ele>188.3</ele>
        <time>2025-11-16T08:48:48.000Z</time>
      </trkpt>
      <trkpt lat="50.28319" lon="4.40937">
        <ele>188.5</ele>
        <time>2025-11-16T08:48:49.000Z</time>
      </trkpt>
      <trkpt lat="50.28318" lon="4.40938">
        <ele>188.7</ele>
        <time>2025-11-16T08:48:50.000Z</time>
      </trkpt>
      <trkpt lat="50.28318" lon="4.4094">
        <ele>188.6</ele>
        <time>2025-11-16T08:48:51.000Z</time>
      </trkpt>
      <trkpt lat="50.28317" lon="4.40942">
        <ele>188.7</ele>
        <time>2025-11-16T08:48:52.000Z</time>
      </trkpt>
      <trkpt lat="50.28315" lon="4.40944">
        <ele>188.9</ele>
        <time>2025-11-16T08:48:53.000Z</time>
      </trkpt>
      <trkpt lat="50.28314" lon="4.40946">
        <ele>189</ele>
        <time>2025-11-16T08:48:54.000Z</time>
      </trkpt>
      <trkpt lat="50.28312" lon="4.40947">
        <ele>189.3</ele>
        <time>2025-11-16T08:48:55.000Z</time>
      </trkpt>
      <trkpt lat="50.28312" lon="4.40949">
        <ele>189.5</ele>
        <time>2025-11-16T08:48:56.000Z</time>
      </trkpt>
      <trkpt lat="50.28311" lon="4.40951">
        <ele>189.6</ele>
        <time>2025-11-16T08:48:57.000Z</time>
      </trkpt>
      <trkpt lat="50.28311" lon="4.40952">
        <ele>189.5</ele>
        <time>2025-11-16T08:48:58.000Z</time>
      </trkpt>
      <trkpt lat="50.2831" lon="4.40954">
        <ele>189.1</ele>
        <time>2025-11-16T08:48:59.000Z</time>
      </trkpt>
      <trkpt lat="50.28309" lon="4.40955">
        <ele>188.7</ele>
        <time>2025-11-16T08:49:00.000Z</time>
      </trkpt>
      <trkpt lat="50.28308" lon="4.40956">
        <ele>188.3</ele>
        <time>2025-11-16T08:49:01.000Z</time>
      </trkpt>
      <trkpt lat="50.28306" lon="4.40957">
        <ele>188.1</ele>
        <time>2025-11-16T08:49:02.000Z</time>
      </trkpt>
      <trkpt lat="50.28305" lon="4.40959">
        <ele>187.8</ele>
        <time>2025-11-16T08:49:03.000Z</time>
      </trkpt>
      <trkpt lat="50.28304" lon="4.4096">
        <ele>187.4</ele>
        <time>2025-11-16T08:49:04.000Z</time>
      </trkpt>
      <trkpt lat="50.28303" lon="4.40963">
        <ele>186.9</ele>
        <time>2025-11-16T08:49:05.000Z</time>
      </trkpt>
      <trkpt lat="50.28303" lon="4.40965">
        <ele>186.5</ele>
        <time>2025-11-16T08:49:06.000Z</time>
      </trkpt>
      <trkpt lat="50.28302" lon="4.40967">
        <ele>186.2</ele>
        <time>2025-11-16T08:49:07.000Z</time>
      </trkpt>
      <trkpt lat="50.28301" lon="4.40969">
        <ele>186</ele>
        <time>2025-11-16T08:49:08.000Z</time>
      </trkpt>
      <trkpt lat="50.283" lon="4.40971">
        <ele>185.6</ele>
        <time>2025-11-16T08:49:09.000Z</time>
      </trkpt>
      <trkpt lat="50.28299" lon="4.40973">
        <ele>185.4</ele>
        <time>2025-11-16T08:49:10.000Z</time>
      </trkpt>
      <trkpt lat="50.28298" lon="4.40975">
        <ele>185.2</ele>
        <time>2025-11-16T08:49:11.000Z</time>
      </trkpt>
      <trkpt lat="50.28296" lon="4.40976">
        <ele>185</ele>
        <time>2025-11-16T08:49:12.000Z</time>
      </trkpt>
      <trkpt lat="50.28295" lon="4.40977">
        <ele>185</ele>
        <time>2025-11-16T08:49:13.000Z</time>
      </trkpt>
      <trkpt lat="50.28294" lon="4.40979">
        <ele>184.9</ele>
        <time>2025-11-16T08:49:14.000Z</time>
      </trkpt>
      <trkpt lat="50.28292" lon="4.4098">
        <ele>184.8</ele>
        <time>2025-11-16T08:49:15.000Z</time>
      </trkpt>
      <trkpt lat="50.28291" lon="4.40982">
        <ele>184.7</ele>
        <time>2025-11-16T08:49:16.000Z</time>
      </trkpt>
      <trkpt lat="50.2829" lon="4.40983">
        <ele>184.7</ele>
        <time>2025-11-16T08:49:17.000Z</time>
      </trkpt>
      <trkpt lat="50.28288" lon="4.40984">
        <ele>184.7</ele>
        <time>2025-11-16T08:49:18.000Z</time>
      </trkpt>
      <trkpt lat="50.28286" lon="4.40985">
        <ele>184.8</ele>
        <time>2025-11-16T08:49:19.000Z</time>
      </trkpt>
      <trkpt lat="50.28285" lon="4.40986">
        <ele>184.9</ele>
        <time>2025-11-16T08:49:20.000Z</time>
      </trkpt>
      <trkpt lat="50.28284" lon="4.40987">
        <ele>185</ele>
        <time>2025-11-16T08:49:21.000Z</time>
      </trkpt>
      <trkpt lat="50.28283" lon="4.40988">
        <ele>185</ele>
        <time>2025-11-16T08:49:22.000Z</time>
      </trkpt>
      <trkpt lat="50.28282" lon="4.40989">
        <ele>185.1</ele>
        <time>2025-11-16T08:49:23.000Z</time>
      </trkpt>
      <trkpt lat="50.28281" lon="4.4099">
        <ele>185.8</ele>
        <time>2025-11-16T08:49:24.000Z</time>
      </trkpt>
      <trkpt lat="50.2828" lon="4.40991">
        <ele>186.4</ele>
        <time>2025-11-16T08:49:25.000Z</time>
      </trkpt>
      <trkpt lat="50.28279" lon="4.40991">
        <ele>186.9</ele>
        <time>2025-11-16T08:49:26.000Z</time>
      </trkpt>
      <trkpt lat="50.28278" lon="4.40991">
        <ele>187.2</ele>
        <time>2025-11-16T08:49:27.000Z</time>
      </trkpt>
      <trkpt lat="50.28276" lon="4.40991">
        <ele>187.5</ele>
        <time>2025-11-16T08:49:28.000Z</time>
      </trkpt>
      <trkpt lat="50.28275" lon="4.4099">
        <ele>187.9</ele>
        <time>2025-11-16T08:49:29.000Z</time>
      </trkpt>
      <trkpt lat="50.28273" lon="4.40988">
        <ele>188</ele>
        <time>2025-11-16T08:49:30.000Z</time>
      </trkpt>
      <trkpt lat="50.28272" lon="4.40987">
        <ele>188.2</ele>
        <time>2025-11-16T08:49:31.000Z</time>
      </trkpt>
      <trkpt lat="50.2827" lon="4.40986">
        <ele>188.5</ele>
        <time>2025-11-16T08:49:32.000Z</time>
      </trkpt>
      <trkpt lat="50.28269" lon="4.40985">
        <ele>188.6</ele>
        <time>2025-11-16T08:49:33.000Z</time>
      </trkpt>
      <trkpt lat="50.28268" lon="4.40984">
        <ele>188.6</ele>
        <time>2025-11-16T08:49:34.000Z</time>
      </trkpt>
      <trkpt lat="50.28267" lon="4.40983">
        <ele>188.6</ele>
        <time>2025-11-16T08:49:35.000Z</time>
      </trkpt>
      <trkpt lat="50.28266" lon="4.40982">
        <ele>188.7</ele>
        <time>2025-11-16T08:49:36.000Z</time>
      </trkpt>
      <trkpt lat="50.28265" lon="4.4098">
        <ele>189</ele>
        <time>2025-11-16T08:49:37.000Z</time>
      </trkpt>
      <trkpt lat="50.28263" lon="4.40978">
        <ele>189.3</ele>
        <time>2025-11-16T08:49:38.000Z</time>
      </trkpt>
      <trkpt lat="50.28261" lon="4.40976">
        <ele>189.5</ele>
        <time>2025-11-16T08:49:39.000Z</time>
      </trkpt>
      <trkpt lat="50.2826" lon="4.40975">
        <ele>189.7</ele>
        <time>2025-11-16T08:49:40.000Z</time>
      </trkpt>
      <trkpt lat="50.28258" lon="4.40974">
        <ele>190</ele>
        <time>2025-11-16T08:49:41.000Z</time>
      </trkpt>
      <trkpt lat="50.28256" lon="4.40973">
        <ele>190.2</ele>
        <time>2025-11-16T08:49:42.000Z</time>
      </trkpt>
      <trkpt lat="50.28255" lon="4.40973">
        <ele>190.4</ele>
        <time>2025-11-16T08:49:43.000Z</time>
      </trkpt>
      <trkpt lat="50.28254" lon="4.40973">
        <ele>190.6</ele>
        <time>2025-11-16T08:49:44.000Z</time>
      </trkpt>
      <trkpt lat="50.28253" lon="4.40973">
        <ele>190.8</ele>
        <time>2025-11-16T08:49:45.000Z</time>
      </trkpt>
      <trkpt lat="50.28252" lon="4.40973">
        <ele>190.8</ele>
        <time>2025-11-16T08:49:46.000Z</time>
      </trkpt>
      <trkpt lat="50.28251" lon="4.40973">
        <ele>190.9</ele>
        <time>2025-11-16T08:49:47.000Z</time>
      </trkpt>
      <trkpt lat="50.2825" lon="4.40974">
        <ele>190.9</ele>
        <time>2025-11-16T08:49:48.000Z</time>
      </trkpt>
      <trkpt lat="50.28249" lon="4.40974">
        <ele>191</ele>
        <time>2025-11-16T08:49:49.000Z</time>
      </trkpt>
      <trkpt lat="50.28248" lon="4.40975">
        <ele>191</ele>
        <time>2025-11-16T08:49:50.000Z</time>
      </trkpt>
      <trkpt lat="50.28247" lon="4.40974">
        <ele>191.2</ele>
        <time>2025-11-16T08:49:51.000Z</time>
      </trkpt>
      <trkpt lat="50.28245" lon="4.40974">
        <ele>191.3</ele>
        <time>2025-11-16T08:49:52.000Z</time>
      </trkpt>
      <trkpt lat="50.28243" lon="4.40974">
        <ele>191.5</ele>
        <time>2025-11-16T08:49:53.000Z</time>
      </trkpt>
      <trkpt lat="50.28241" lon="4.40974">
        <ele>191.7</ele>
        <time>2025-11-16T08:49:54.000Z</time>
      </trkpt>
      <trkpt lat="50.28239" lon="4.40974">
        <ele>191.8</ele>
        <time>2025-11-16T08:49:55.000Z</time>
      </trkpt>
      <trkpt lat="50.28237" lon="4.40975">
        <ele>192.1</ele>
        <time>2025-11-16T08:49:56.000Z</time>
      </trkpt>
      <trkpt lat="50.28235" lon="4.40976">
        <ele>192.4</ele>
        <time>2025-11-16T08:49:57.000Z</time>
      </trkpt>
      <trkpt lat="50.28233" lon="4.40976">
        <ele>192.7</ele>
        <time>2025-11-16T08:49:58.000Z</time>
      </trkpt>
      <trkpt lat="50.28231" lon="4.40977">
        <ele>192.8</ele>
        <time>2025-11-16T08:49:59.000Z</time>
      </trkpt>
      <trkpt lat="50.28229" lon="4.40978">
        <ele>192.9</ele>
        <time>2025-11-16T08:50:00.000Z</time>
      </trkpt>
      <trkpt lat="50.28228" lon="4.40978">
        <ele>193.1</ele>
        <time>2025-11-16T08:50:01.000Z</time>
      </trkpt>
      <trkpt lat="50.28226" lon="4.40979">
        <ele>193.3</ele>
        <time>2025-11-16T08:50:02.000Z</time>
      </trkpt>
      <trkpt lat="50.28224" lon="4.40979">
        <ele>193.6</ele>
        <time>2025-11-16T08:50:03.000Z</time>
      </trkpt>
      <trkpt lat="50.28222" lon="4.40982">
        <ele>194.2</ele>
        <time>2025-11-16T08:50:04.000Z</time>
      </trkpt>
      <trkpt lat="50.28219" lon="4.40984">
        <ele>195.1</ele>
        <time>2025-11-16T08:50:05.000Z</time>
      </trkpt>
      <trkpt lat="50.28217" lon="4.40984">
        <ele>195.6</ele>
        <time>2025-11-16T08:50:06.000Z</time>
      </trkpt>
      <trkpt lat="50.28215" lon="4.40985">
        <ele>195.7</ele>
        <time>2025-11-16T08:50:07.000Z</time>
      </trkpt>
      <trkpt lat="50.28214" lon="4.40985">
        <ele>195.7</ele>
        <time>2025-11-16T08:50:08.000Z</time>
      </trkpt>
      <trkpt lat="50.28213" lon="4.40986">
        <ele>195.9</ele>
        <time>2025-11-16T08:50:09.000Z</time>
      </trkpt>
      <trkpt lat="50.28212" lon="4.40986">
        <ele>196.4</ele>
        <time>2025-11-16T08:50:10.000Z</time>
      </trkpt>
      <trkpt lat="50.28211" lon="4.40987">
        <ele>196.6</ele>
        <time>2025-11-16T08:50:11.000Z</time>
      </trkpt>
      <trkpt lat="50.2821" lon="4.40987">
        <ele>196.6</ele>
        <time>2025-11-16T08:50:12.000Z</time>
      </trkpt>
      <trkpt lat="50.2821" lon="4.40989">
        <ele>196.6</ele>
        <time>2025-11-16T08:50:13.000Z</time>
      </trkpt>
      <trkpt lat="50.28209" lon="4.4099">
        <ele>196.3</ele>
        <time>2025-11-16T08:50:14.000Z</time>
      </trkpt>
      <trkpt lat="50.28208" lon="4.40992">
        <ele>196.3</ele>
        <time>2025-11-16T08:50:15.000Z</time>
      </trkpt>
      <trkpt lat="50.28206" lon="4.40993">
        <ele>196.2</ele>
        <time>2025-11-16T08:50:16.000Z</time>
      </trkpt>
      <trkpt lat="50.28205" lon="4.40994">
        <ele>195.9</ele>
        <time>2025-11-16T08:50:17.000Z</time>
      </trkpt>
      <trkpt lat="50.28204" lon="4.40994">
        <ele>195.6</ele>
        <time>2025-11-16T08:50:18.000Z</time>
      </trkpt>
      <trkpt lat="50.28202" lon="4.40995">
        <ele>195.3</ele>
        <time>2025-11-16T08:50:19.000Z</time>
      </trkpt>
      <trkpt lat="50.28201" lon="4.40996">
        <ele>195</ele>
        <time>2025-11-16T08:50:20.000Z</time>
      </trkpt>
      <trkpt lat="50.282" lon="4.40998">
        <ele>194.8</ele>
        <time>2025-11-16T08:50:21.000Z</time>
      </trkpt>
      <trkpt lat="50.28199" lon="4.41">
        <ele>194.8</ele>
        <time>2025-11-16T08:50:22.000Z</time>
      </trkpt>
      <trkpt lat="50.28197" lon="4.41002">
        <ele>194.7</ele>
        <time>2025-11-16T08:50:23.000Z</time>
      </trkpt>
      <trkpt lat="50.28196" lon="4.41004">
        <ele>194.5</ele>
        <time>2025-11-16T08:50:24.000Z</time>
      </trkpt>
      <trkpt lat="50.28195" lon="4.41005">
        <ele>194.1</ele>
        <time>2025-11-16T08:50:25.000Z</time>
      </trkpt>
      <trkpt lat="50.28195" lon="4.41006">
        <ele>193.8</ele>
        <time>2025-11-16T08:50:26.000Z</time>
      </trkpt>
      <trkpt lat="50.28194" lon="4.41008">
        <ele>193.5</ele>
        <time>2025-11-16T08:50:27.000Z</time>
      </trkpt>
      <trkpt lat="50.28193" lon="4.41009">
        <ele>193.3</ele>
        <time>2025-11-16T08:50:28.000Z</time>
      </trkpt>
      <trkpt lat="50.28192" lon="4.4101">
        <ele>193.3</ele>
        <time>2025-11-16T08:50:29.000Z</time>
      </trkpt>
      <trkpt lat="50.2819" lon="4.4101">
        <ele>193.1</ele>
        <time>2025-11-16T08:50:30.000Z</time>
      </trkpt>
      <trkpt lat="50.28189" lon="4.41012">
        <ele>192.9</ele>
        <time>2025-11-16T08:50:31.000Z</time>
      </trkpt>
      <trkpt lat="50.28188" lon="4.41013">
        <ele>192.8</ele>
        <time>2025-11-16T08:50:32.000Z</time>
      </trkpt>
      <trkpt lat="50.28186" lon="4.41015">
        <ele>192.6</ele>
        <time>2025-11-16T08:50:33.000Z</time>
      </trkpt>
      <trkpt lat="50.28185" lon="4.41016">
        <ele>192.3</ele>
        <time>2025-11-16T08:50:34.000Z</time>
      </trkpt>
      <trkpt lat="50.28184" lon="4.41018">
        <ele>192</ele>
        <time>2025-11-16T08:50:35.000Z</time>
      </trkpt>
      <trkpt lat="50.28184" lon="4.41021">
        <ele>191.6</ele>
        <time>2025-11-16T08:50:36.000Z</time>
      </trkpt>
      <trkpt lat="50.28183" lon="4.41022">
        <ele>191.4</ele>
        <time>2025-11-16T08:50:37.000Z</time>
      </trkpt>
      <trkpt lat="50.28182" lon="4.41024">
        <ele>191.2</ele>
        <time>2025-11-16T08:50:38.000Z</time>
      </trkpt>
      <trkpt lat="50.28181" lon="4.41026">
        <ele>191.1</ele>
        <time>2025-11-16T08:50:39.000Z</time>
      </trkpt>
      <trkpt lat="50.2818" lon="4.41028">
        <ele>190.9</ele>
        <time>2025-11-16T08:50:40.000Z</time>
      </trkpt>
      <trkpt lat="50.2818" lon="4.41029">
        <ele>190.7</ele>
        <time>2025-11-16T08:50:41.000Z</time>
      </trkpt>
      <trkpt lat="50.28179" lon="4.41032">
        <ele>190.3</ele>
        <time>2025-11-16T08:50:42.000Z</time>
      </trkpt>
      <trkpt lat="50.28179" lon="4.41033">
        <ele>190.3</ele>
        <time>2025-11-16T08:50:43.000Z</time>
      </trkpt>
      <trkpt lat="50.28178" lon="4.41035">
        <ele>190.4</ele>
        <time>2025-11-16T08:50:44.000Z</time>
      </trkpt>
      <trkpt lat="50.28177" lon="4.41037">
        <ele>190.4</ele>
        <time>2025-11-16T08:50:45.000Z</time>
      </trkpt>
      <trkpt lat="50.28176" lon="4.41039">
        <ele>190.3</ele>
        <time>2025-11-16T08:50:46.000Z</time>
      </trkpt>
      <trkpt lat="50.28176" lon="4.41041">
        <ele>190.4</ele>
        <time>2025-11-16T08:50:47.000Z</time>
      </trkpt>
      <trkpt lat="50.28176" lon="4.41043">
        <ele>190.4</ele>
        <time>2025-11-16T08:50:48.000Z</time>
      </trkpt>
      <trkpt lat="50.28175" lon="4.41044">
        <ele>190.3</ele>
        <time>2025-11-16T08:50:49.000Z</time>
      </trkpt>
      <trkpt lat="50.28175" lon="4.41046">
        <ele>190.1</ele>
        <time>2025-11-16T08:50:50.000Z</time>
      </trkpt>
      <trkpt lat="50.28174" lon="4.41048">
        <ele>190.1</ele>
        <time>2025-11-16T08:50:51.000Z</time>
      </trkpt>
      <trkpt lat="50.28174" lon="4.41049">
        <ele>190</ele>
        <time>2025-11-16T08:50:52.000Z</time>
      </trkpt>
      <trkpt lat="50.28173" lon="4.41052">
        <ele>190</ele>
        <time>2025-11-16T08:50:53.000Z</time>
      </trkpt>
      <trkpt lat="50.28173" lon="4.41054">
        <ele>190.1</ele>
        <time>2025-11-16T08:50:54.000Z</time>
      </trkpt>
      <trkpt lat="50.28173" lon="4.41055">
        <ele>190</ele>
        <time>2025-11-16T08:50:55.000Z</time>
      </trkpt>
      <trkpt lat="50.28172" lon="4.41057">
        <ele>190.1</ele>
        <time>2025-11-16T08:50:56.000Z</time>
      </trkpt>
      <trkpt lat="50.28171" lon="4.41058">
        <ele>190</ele>
        <time>2025-11-16T08:50:57.000Z</time>
      </trkpt>
      <trkpt lat="50.28171" lon="4.4106">
        <ele>190.2</ele>
        <time>2025-11-16T08:50:58.000Z</time>
      </trkpt>
      <trkpt lat="50.2817" lon="4.41062">
        <ele>190.2</ele>
        <time>2025-11-16T08:50:59.000Z</time>
      </trkpt>
      <trkpt lat="50.2817" lon="4.41065">
        <ele>190.3</ele>
        <time>2025-11-16T08:51:00.000Z</time>
      </trkpt>
      <trkpt lat="50.28169" lon="4.41067">
        <ele>190.4</ele>
        <time>2025-11-16T08:51:01.000Z</time>
      </trkpt>
      <trkpt lat="50.28168" lon="4.41069">
        <ele>190.6</ele>
        <time>2025-11-16T08:51:02.000Z</time>
      </trkpt>
      <trkpt lat="50.28167" lon="4.41072">
        <ele>190.7</ele>
        <time>2025-11-16T08:51:03.000Z</time>
      </trkpt>
      <trkpt lat="50.28166" lon="4.41075">
        <ele>190.8</ele>
        <time>2025-11-16T08:51:04.000Z</time>
      </trkpt>
      <trkpt lat="50.28165" lon="4.41077">
        <ele>191.1</ele>
        <time>2025-11-16T08:51:05.000Z</time>
      </trkpt>
      <trkpt lat="50.28165" lon="4.4108">
        <ele>191.3</ele>
        <time>2025-11-16T08:51:06.000Z</time>
      </trkpt>
      <trkpt lat="50.28164" lon="4.41081">
        <ele>191.5</ele>
        <time>2025-11-16T08:51:07.000Z</time>
      </trkpt>
      <trkpt lat="50.28163" lon="4.41084">
        <ele>191.6</ele>
        <time>2025-11-16T08:51:08.000Z</time>
      </trkpt>
      <trkpt lat="50.28162" lon="4.41086">
        <ele>191.9</ele>
        <time>2025-11-16T08:51:09.000Z</time>
      </trkpt>
      <trkpt lat="50.28162" lon="4.41088">
        <ele>192</ele>
        <time>2025-11-16T08:51:10.000Z</time>
      </trkpt>
      <trkpt lat="50.28161" lon="4.4109">
        <ele>192.3</ele>
        <time>2025-11-16T08:51:11.000Z</time>
      </trkpt>
      <trkpt lat="50.2816" lon="4.41092">
        <ele>192.4</ele>
        <time>2025-11-16T08:51:12.000Z</time>
      </trkpt>
      <trkpt lat="50.28159" lon="4.41095">
        <ele>192.6</ele>
        <time>2025-11-16T08:51:13.000Z</time>
      </trkpt>
      <trkpt lat="50.28158" lon="4.41097">
        <ele>192.8</ele>
        <time>2025-11-16T08:51:14.000Z</time>
      </trkpt>
      <trkpt lat="50.28157" lon="4.411">
        <ele>193</ele>
        <time>2025-11-16T08:51:15.000Z</time>
      </trkpt>
      <trkpt lat="50.28156" lon="4.41105">
        <ele>192.9</ele>
        <time>2025-11-16T08:51:16.000Z</time>
      </trkpt>
      <trkpt lat="50.28156" lon="4.41109">
        <ele>192.7</ele>
        <time>2025-11-16T08:51:17.000Z</time>
      </trkpt>
      <trkpt lat="50.28156" lon="4.41113">
        <ele>193.3</ele>
        <time>2025-11-16T08:51:18.000Z</time>
      </trkpt>
      <trkpt lat="50.28155" lon="4.41116">
        <ele>193.7</ele>
        <time>2025-11-16T08:51:19.000Z</time>
      </trkpt>
      <trkpt lat="50.28155" lon="4.41118">
        <ele>194</ele>
        <time>2025-11-16T08:51:20.000Z</time>
      </trkpt>
      <trkpt lat="50.28154" lon="4.41121">
        <ele>194.2</ele>
        <time>2025-11-16T08:51:21.000Z</time>
      </trkpt>
      <trkpt lat="50.28153" lon="4.41122">
        <ele>194.5</ele>
        <time>2025-11-16T08:51:22.000Z</time>
      </trkpt>
      <trkpt lat="50.28152" lon="4.41124">
        <ele>195</ele>
        <time>2025-11-16T08:51:23.000Z</time>
      </trkpt>
      <trkpt lat="50.28151" lon="4.41126">
        <ele>195.4</ele>
        <time>2025-11-16T08:51:24.000Z</time>
      </trkpt>
      <trkpt lat="50.28151" lon="4.41128">
        <ele>195.7</ele>
        <time>2025-11-16T08:51:25.000Z</time>
      </trkpt>
      <trkpt lat="50.2815" lon="4.4113">
        <ele>196.1</ele>
        <time>2025-11-16T08:51:26.000Z</time>
      </trkpt>
      <trkpt lat="50.28148" lon="4.41132">
        <ele>195.5</ele>
        <time>2025-11-16T08:51:27.000Z</time>
      </trkpt>
      <trkpt lat="50.28148" lon="4.41134">
        <ele>195.4</ele>
        <time>2025-11-16T08:51:28.000Z</time>
      </trkpt>
      <trkpt lat="50.28147" lon="4.41136">
        <ele>195.4</ele>
        <time>2025-11-16T08:51:29.000Z</time>
      </trkpt>
      <trkpt lat="50.28147" lon="4.41137">
        <ele>194.9</ele>
        <time>2025-11-16T08:51:30.000Z</time>
      </trkpt>
      <trkpt lat="50.28146" lon="4.41139">
        <ele>194.5</ele>
        <time>2025-11-16T08:51:31.000Z</time>
      </trkpt>
      <trkpt lat="50.28146" lon="4.41141">
        <ele>194</ele>
        <time>2025-11-16T08:51:32.000Z</time>
      </trkpt>
      <trkpt lat="50.28146" lon="4.41143">
        <ele>193.9</ele>
        <time>2025-11-16T08:51:33.000Z</time>
      </trkpt>
      <trkpt lat="50.28145" lon="4.41145">
        <ele>194.1</ele>
        <time>2025-11-16T08:51:34.000Z</time>
      </trkpt>
      <trkpt lat="50.28145" lon="4.41147">
        <ele>194.5</ele>
        <time>2025-11-16T08:51:35.000Z</time>
      </trkpt>
      <trkpt lat="50.28144" lon="4.4115">
        <ele>194.6</ele>
        <time>2025-11-16T08:51:36.000Z</time>
      </trkpt>
      <trkpt lat="50.28144" lon="4.41152">
        <ele>194.7</ele>
        <time>2025-11-16T08:51:37.000Z</time>
      </trkpt>
      <trkpt lat="50.28145" lon="4.41156">
        <ele>194.7</ele>
        <time>2025-11-16T08:51:38.000Z</time>
      </trkpt>
      <trkpt lat="50.28144" lon="4.41159">
        <ele>194.4</ele>
        <time>2025-11-16T08:51:39.000Z</time>
      </trkpt>
      <trkpt lat="50.28144" lon="4.41161">
        <ele>194.4</ele>
        <time>2025-11-16T08:51:40.000Z</time>
      </trkpt>
      <trkpt lat="50.28144" lon="4.41164">
        <ele>194.3</ele>
        <time>2025-11-16T08:51:41.000Z</time>
      </trkpt>
      <trkpt lat="50.28143" lon="4.41167">
        <ele>193.9</ele>
        <time>2025-11-16T08:51:42.000Z</time>
      </trkpt>
      <trkpt lat="50.28141" lon="4.41169">
        <ele>193.9</ele>
        <time>2025-11-16T08:51:43.000Z</time>
      </trkpt>
      <trkpt lat="50.28141" lon="4.41171">
        <ele>193.9</ele>
        <time>2025-11-16T08:51:44.000Z</time>
      </trkpt>
      <trkpt lat="50.2814" lon="4.41173">
        <ele>193.8</ele>
        <time>2025-11-16T08:51:45.000Z</time>
      </trkpt>
      <trkpt lat="50.2814" lon="4.41174">
        <ele>194</ele>
        <time>2025-11-16T08:51:46.000Z</time>
      </trkpt>
      <trkpt lat="50.2814" lon="4.41174">
        <ele>194.2</ele>
        <time>2025-11-16T08:51:47.000Z</time>
      </trkpt>
      <trkpt lat="50.2814" lon="4.41176">
        <ele>194.2</ele>
        <time>2025-11-16T08:51:48.000Z</time>
      </trkpt>
      <trkpt lat="50.2814" lon="4.41177">
        <ele>194.2</ele>
        <time>2025-11-16T08:51:49.000Z</time>
      </trkpt>
      <trkpt lat="50.2814" lon="4.41179">
        <ele>194.3</ele>
        <time>2025-11-16T08:51:50.000Z</time>
      </trkpt>
      <trkpt lat="50.2814" lon="4.41182">
        <ele>194.3</ele>
        <time>2025-11-16T08:51:51.000Z</time>
      </trkpt>
      <trkpt lat="50.28141" lon="4.41184">
        <ele>194.3</ele>
        <time>2025-11-16T08:51:52.000Z</time>
      </trkpt>
      <trkpt lat="50.28141" lon="4.41187">
        <ele>194.3</ele>
        <time>2025-11-16T08:51:53.000Z</time>
      </trkpt>
      <trkpt lat="50.28141" lon="4.41189">
        <ele>194.7</ele>
        <time>2025-11-16T08:51:54.000Z</time>
      </trkpt>
      <trkpt lat="50.28141" lon="4.41191">
        <ele>194.8</ele>
        <time>2025-11-16T08:51:55.000Z</time>
      </trkpt>
      <trkpt lat="50.28141" lon="4.41191">
        <ele>194.7</ele>
        <time>2025-11-16T08:51:56.000Z</time>
      </trkpt>
      <trkpt lat="50.28142" lon="4.4119">
        <ele>194.6</ele>
        <time>2025-11-16T08:51:57.000Z</time>
      </trkpt>
      <trkpt lat="50.28142" lon="4.41189">
        <ele>194.4</ele>
        <time>2025-11-16T08:51:58.000Z</time>
      </trkpt>
      <trkpt lat="50.28142" lon="4.4119">
        <ele>194.1</ele>
        <time>2025-11-16T08:51:59.000Z</time>
      </trkpt>
      <trkpt lat="50.28142" lon="4.41191">
        <ele>194</ele>
        <time>2025-11-16T08:52:00.000Z</time>
      </trkpt>
      <trkpt lat="50.28142" lon="4.41192">
        <ele>193.8</ele>
        <time>2025-11-16T08:52:01.000Z</time>
      </trkpt>
      <trkpt lat="50.28142" lon="4.41195">
        <ele>193.7</ele>
        <time>2025-11-16T08:52:02.000Z</time>
      </trkpt>
      <trkpt lat="50.28143" lon="4.41199">
        <ele>193.3</ele>
        <time>2025-11-16T08:52:03.000Z</time>
      </trkpt>
      <trkpt lat="50.28143" lon="4.41203">
        <ele>193.1</ele>
        <time>2025-11-16T08:52:04.000Z</time>
      </trkpt>
      <trkpt lat="50.28143" lon="4.41206">
        <ele>193.1</ele>
        <time>2025-11-16T08:52:05.000Z</time>
      </trkpt>
      <trkpt lat="50.28143" lon="4.41209">
        <ele>193.1</ele>
        <time>2025-11-16T08:52:06.000Z</time>
      </trkpt>
      <trkpt lat="50.28144" lon="4.41212">
        <ele>193.1</ele>
        <time>2025-11-16T08:52:07.000Z</time>
      </trkpt>
      <trkpt lat="50.28143" lon="4.41214">
        <ele>192.9</ele>
        <time>2025-11-16T08:52:08.000Z</time>
      </trkpt>
      <trkpt lat="50.28144" lon="4.41217">
        <ele>192.7</ele>
        <time>2025-11-16T08:52:09.000Z</time>
      </trkpt>
      <trkpt lat="50.28143" lon="4.4122">
        <ele>192.8</ele>
        <time>2025-11-16T08:52:10.000Z</time>
      </trkpt>
      <trkpt lat="50.28144" lon="4.41223">
        <ele>192.7</ele>
        <time>2025-11-16T08:52:11.000Z</time>
      </trkpt>
      <trkpt lat="50.28144" lon="4.41226">
        <ele>192.7</ele>
        <time>2025-11-16T08:52:12.000Z</time>
      </trkpt>
      <trkpt lat="50.28145" lon="4.41228">
        <ele>192.7</ele>
        <time>2025-11-16T08:52:13.000Z</time>
      </trkpt>
      <trkpt lat="50.28145" lon="4.41231">
        <ele>192.8</ele>
        <time>2025-11-16T08:52:14.000Z</time>
      </trkpt>
      <trkpt lat="50.28145" lon="4.41233">
        <ele>192.8</ele>
        <time>2025-11-16T08:52:15.000Z</time>
      </trkpt>
      <trkpt lat="50.28144" lon="4.41235">
        <ele>192.7</ele>
        <time>2025-11-16T08:52:16.000Z</time>
      </trkpt>
      <trkpt lat="50.28144" lon="4.41237">
        <ele>193</ele>
        <time>2025-11-16T08:52:17.000Z</time>
      </trkpt>
      <trkpt lat="50.28143" lon="4.41239">
        <ele>193.1</ele>
        <time>2025-11-16T08:52:18.000Z</time>
      </trkpt>
      <trkpt lat="50.28142" lon="4.41242">
        <ele>193.3</ele>
        <time>2025-11-16T08:52:19.000Z</time>
      </trkpt>
      <trkpt lat="50.28142" lon="4.41245">
        <ele>193.5</ele>
        <time>2025-11-16T08:52:20.000Z</time>
      </trkpt>
      <trkpt lat="50.28142" lon="4.41248">
        <ele>193.7</ele>
        <time>2025-11-16T08:52:21.000Z</time>
      </trkpt>
      <trkpt lat="50.28141" lon="4.4125">
        <ele>193.8</ele>
        <time>2025-11-16T08:52:22.000Z</time>
      </trkpt>
      <trkpt lat="50.28141" lon="4.41253">
        <ele>193.9</ele>
        <time>2025-11-16T08:52:23.000Z</time>
      </trkpt>
      <trkpt lat="50.28141" lon="4.41256">
        <ele>194</ele>
        <time>2025-11-16T08:52:24.000Z</time>
      </trkpt>
      <trkpt lat="50.28141" lon="4.41259">
        <ele>194</ele>
        <time>2025-11-16T08:52:25.000Z</time>
      </trkpt>
      <trkpt lat="50.28141" lon="4.41261">
        <ele>194.1</ele>
        <time>2025-11-16T08:52:26.000Z</time>
      </trkpt>
      <trkpt lat="50.2814" lon="4.41264">
        <ele>194</ele>
        <time>2025-11-16T08:52:27.000Z</time>
      </trkpt>
      <trkpt lat="50.2814" lon="4.41266">
        <ele>194</ele>
        <time>2025-11-16T08:52:28.000Z</time>
      </trkpt>
      <trkpt lat="50.2814" lon="4.41268">
        <ele>193.9</ele>
        <time>2025-11-16T08:52:29.000Z</time>
      </trkpt>
      <trkpt lat="50.2814" lon="4.4127">
        <ele>193.9</ele>
        <time>2025-11-16T08:52:30.000Z</time>
      </trkpt>
      <trkpt lat="50.2814" lon="4.41272">
        <ele>193.9</ele>
        <time>2025-11-16T08:52:31.000Z</time>
      </trkpt>
      <trkpt lat="50.2814" lon="4.41275">
        <ele>193.9</ele>
        <time>2025-11-16T08:52:32.000Z</time>
      </trkpt>
      <trkpt lat="50.2814" lon="4.41278">
        <ele>193.9</ele>
        <time>2025-11-16T08:52:33.000Z</time>
      </trkpt>
      <trkpt lat="50.28141" lon="4.4128">
        <ele>193.8</ele>
        <time>2025-11-16T08:52:34.000Z</time>
      </trkpt>
      <trkpt lat="50.2814" lon="4.41283">
        <ele>193.8</ele>
        <time>2025-11-16T08:52:35.000Z</time>
      </trkpt>
      <trkpt lat="50.2814" lon="4.41286">
        <ele>193.8</ele>
        <time>2025-11-16T08:52:36.000Z</time>
      </trkpt>
      <trkpt lat="50.2814" lon="4.41288">
        <ele>193.9</ele>
        <time>2025-11-16T08:52:37.000Z</time>
      </trkpt>
      <trkpt lat="50.2814" lon="4.41289">
        <ele>194</ele>
        <time>2025-11-16T08:52:38.000Z</time>
      </trkpt>
      <trkpt lat="50.28141" lon="4.41292">
        <ele>194.1</ele>
        <time>2025-11-16T08:52:39.000Z</time>
      </trkpt>
      <trkpt lat="50.28141" lon="4.41294">
        <ele>194.2</ele>
        <time>2025-11-16T08:52:40.000Z</time>
      </trkpt>
      <trkpt lat="50.28141" lon="4.41297">
        <ele>194.3</ele>
        <time>2025-11-16T08:52:41.000Z</time>
      </trkpt>
      <trkpt lat="50.28141" lon="4.413">
        <ele>194.3</ele>
        <time>2025-11-16T08:52:42.000Z</time>
      </trkpt>
      <trkpt lat="50.28141" lon="4.41303">
        <ele>194.2</ele>
        <time>2025-11-16T08:52:43.000Z</time>
      </trkpt>
      <trkpt lat="50.28141" lon="4.41305">
        <ele>194.3</ele>
        <time>2025-11-16T08:52:44.000Z</time>
      </trkpt>
      <trkpt lat="50.28141" lon="4.41307">
        <ele>194.3</ele>
        <time>2025-11-16T08:52:45.000Z</time>
      </trkpt>
      <trkpt lat="50.2814" lon="4.41309">
        <ele>194.3</ele>
        <time>2025-11-16T08:52:46.000Z</time>
      </trkpt>
      <trkpt lat="50.2814" lon="4.41312">
        <ele>194.4</ele>
        <time>2025-11-16T08:52:47.000Z</time>
      </trkpt>
      <trkpt lat="50.2814" lon="4.41314">
        <ele>194.6</ele>
        <time>2025-11-16T08:52:48.000Z</time>
      </trkpt>
      <trkpt lat="50.2814" lon="4.41316">
        <ele>194.7</ele>
        <time>2025-11-16T08:52:49.000Z</time>
      </trkpt>
      <trkpt lat="50.2814" lon="4.41317">
        <ele>194.8</ele>
        <time>2025-11-16T08:52:50.000Z</time>
      </trkpt>
      <trkpt lat="50.2814" lon="4.41319">
        <ele>194.8</ele>
        <time>2025-11-16T08:52:51.000Z</time>
      </trkpt>
      <trkpt lat="50.2814" lon="4.41322">
        <ele>194.9</ele>
        <time>2025-11-16T08:52:52.000Z</time>
      </trkpt>
      <trkpt lat="50.2814" lon="4.41325">
        <ele>195.1</ele>
        <time>2025-11-16T08:52:53.000Z</time>
      </trkpt>
      <trkpt lat="50.28139" lon="4.41327">
        <ele>195.3</ele>
        <time>2025-11-16T08:52:54.000Z</time>
      </trkpt>
      <trkpt lat="50.28139" lon="4.4133">
        <ele>195.2</ele>
        <time>2025-11-16T08:52:55.000Z</time>
      </trkpt>
      <trkpt lat="50.28139" lon="4.41332">
        <ele>195.2</ele>
        <time>2025-11-16T08:52:56.000Z</time>
      </trkpt>
      <trkpt lat="50.28139" lon="4.41334">
        <ele>195.3</ele>
        <time>2025-11-16T08:52:57.000Z</time>
      </trkpt>
      <trkpt lat="50.28139" lon="4.41336">
        <ele>195.3</ele>
        <time>2025-11-16T08:52:58.000Z</time>
      </trkpt>
      <trkpt lat="50.28139" lon="4.41338">
        <ele>195.2</ele>
        <time>2025-11-16T08:52:59.000Z</time>
      </trkpt>
      <trkpt lat="50.28139" lon="4.41342">
        <ele>195.3</ele>
        <time>2025-11-16T08:53:00.000Z</time>
      </trkpt>
      <trkpt lat="50.28139" lon="4.41345">
        <ele>195.3</ele>
        <time>2025-11-16T08:53:01.000Z</time>
      </trkpt>
      <trkpt lat="50.2814" lon="4.41347">
        <ele>195</ele>
        <time>2025-11-16T08:53:02.000Z</time>
      </trkpt>
      <trkpt lat="50.2814" lon="4.41349">
        <ele>194.7</ele>
        <time>2025-11-16T08:53:03.000Z</time>
      </trkpt>
      <trkpt lat="50.2814" lon="4.41352">
        <ele>194.8</ele>
        <time>2025-11-16T08:53:04.000Z</time>
      </trkpt>
      <trkpt lat="50.2814" lon="4.41354">
        <ele>194.4</ele>
        <time>2025-11-16T08:53:05.000Z</time>
      </trkpt>
      <trkpt lat="50.2814" lon="4.41356">
        <ele>194.1</ele>
        <time>2025-11-16T08:53:06.000Z</time>
      </trkpt>
      <trkpt lat="50.28139" lon="4.4136">
        <ele>194.3</ele>
        <time>2025-11-16T08:53:07.000Z</time>
      </trkpt>
      <trkpt lat="50.28138" lon="4.41363">
        <ele>194.7</ele>
        <time>2025-11-16T08:53:08.000Z</time>
      </trkpt>
      <trkpt lat="50.28139" lon="4.41365">
        <ele>195.4</ele>
        <time>2025-11-16T08:53:09.000Z</time>
      </trkpt>
      <trkpt lat="50.28139" lon="4.41368">
        <ele>196.4</ele>
        <time>2025-11-16T08:53:10.000Z</time>
      </trkpt>
      <trkpt lat="50.2814" lon="4.41371">
        <ele>198.4</ele>
        <time>2025-11-16T08:53:11.000Z</time>
      </trkpt>
      <trkpt lat="50.2814" lon="4.41372">
        <ele>198.6</ele>
        <time>2025-11-16T08:53:12.000Z</time>
      </trkpt>
      <trkpt lat="50.2814" lon="4.41375">
        <ele>198.5</ele>
        <time>2025-11-16T08:53:13.000Z</time>
      </trkpt>
      <trkpt lat="50.28141" lon="4.41377">
        <ele>198.6</ele>
        <time>2025-11-16T08:53:14.000Z</time>
      </trkpt>
      <trkpt lat="50.28141" lon="4.4138">
        <ele>198.4</ele>
        <time>2025-11-16T08:53:15.000Z</time>
      </trkpt>
      <trkpt lat="50.28141" lon="4.41382">
        <ele>198</ele>
        <time>2025-11-16T08:53:16.000Z</time>
      </trkpt>
      <trkpt lat="50.28141" lon="4.41384">
        <ele>197.9</ele>
        <time>2025-11-16T08:53:17.000Z</time>
      </trkpt>
      <trkpt lat="50.28141" lon="4.41386">
        <ele>197.7</ele>
        <time>2025-11-16T08:53:18.000Z</time>
      </trkpt>
      <trkpt lat="50.28141" lon="4.41388">
        <ele>197.7</ele>
        <time>2025-11-16T08:53:19.000Z</time>
      </trkpt>
      <trkpt lat="50.28141" lon="4.41389">
        <ele>197.5</ele>
        <time>2025-11-16T08:53:20.000Z</time>
      </trkpt>
      <trkpt lat="50.28141" lon="4.41391">
        <ele>198.1</ele>
        <time>2025-11-16T08:53:21.000Z</time>
      </trkpt>
      <trkpt lat="50.2814" lon="4.41394">
        <ele>197.7</ele>
        <time>2025-11-16T08:53:22.000Z</time>
      </trkpt>
      <trkpt lat="50.28138" lon="4.41396">
        <ele>197.7</ele>
        <time>2025-11-16T08:53:23.000Z</time>
      </trkpt>
      <trkpt lat="50.28138" lon="4.41397">
        <ele>198.6</ele>
        <time>2025-11-16T08:53:24.000Z</time>
      </trkpt>
      <trkpt lat="50.28138" lon="4.41398">
        <ele>199.3</ele>
        <time>2025-11-16T08:53:25.000Z</time>
      </trkpt>
      <trkpt lat="50.28138" lon="4.41399">
        <ele>199.3</ele>
        <time>2025-11-16T08:53:26.000Z</time>
      </trkpt>
      <trkpt lat="50.28139" lon="4.41401">
        <ele>198.8</ele>
        <time>2025-11-16T08:53:27.000Z</time>
      </trkpt>
      <trkpt lat="50.2814" lon="4.41403">
        <ele>198.3</ele>
        <time>2025-11-16T08:53:28.000Z</time>
      </trkpt>
      <trkpt lat="50.2814" lon="4.41405">
        <ele>198.1</ele>
        <time>2025-11-16T08:53:29.000Z</time>
      </trkpt>
      <trkpt lat="50.28141" lon="4.41408">
        <ele>197.9</ele>
        <time>2025-11-16T08:53:30.000Z</time>
      </trkpt>
      <trkpt lat="50.28141" lon="4.41409">
        <ele>197.8</ele>
        <time>2025-11-16T08:53:31.000Z</time>
      </trkpt>
      <trkpt lat="50.28142" lon="4.41411">
        <ele>197.7</ele>
        <time>2025-11-16T08:53:32.000Z</time>
      </trkpt>
      <trkpt lat="50.28143" lon="4.41413">
        <ele>197.3</ele>
        <time>2025-11-16T08:53:33.000Z</time>
      </trkpt>
      <trkpt lat="50.28144" lon="4.41415">
        <ele>197.1</ele>
        <time>2025-11-16T08:53:34.000Z</time>
      </trkpt>
      <trkpt lat="50.28144" lon="4.41417">
        <ele>196.7</ele>
        <time>2025-11-16T08:53:35.000Z</time>
      </trkpt>
      <trkpt lat="50.28145" lon="4.41419">
        <ele>196.7</ele>
        <time>2025-11-16T08:53:36.000Z</time>
      </trkpt>
      <trkpt lat="50.28145" lon="4.41422">
        <ele>196.8</ele>
        <time>2025-11-16T08:53:37.000Z</time>
      </trkpt>
      <trkpt lat="50.28145" lon="4.41424">
        <ele>196.7</ele>
        <time>2025-11-16T08:53:38.000Z</time>
      </trkpt>
      <trkpt lat="50.28145" lon="4.41427">
        <ele>196.6</ele>
        <time>2025-11-16T08:53:39.000Z</time>
      </trkpt>
      <trkpt lat="50.28145" lon="4.4143">
        <ele>196.4</ele>
        <time>2025-11-16T08:53:40.000Z</time>
      </trkpt>
      <trkpt lat="50.28145" lon="4.41432">
        <ele>196.3</ele>
        <time>2025-11-16T08:53:41.000Z</time>
      </trkpt>
      <trkpt lat="50.28145" lon="4.41434">
        <ele>196</ele>
        <time>2025-11-16T08:53:42.000Z</time>
      </trkpt>
      <trkpt lat="50.28145" lon="4.41435">
        <ele>195.8</ele>
        <time>2025-11-16T08:53:43.000Z</time>
      </trkpt>
      <trkpt lat="50.28145" lon="4.41437">
        <ele>195.7</ele>
        <time>2025-11-16T08:53:44.000Z</time>
      </trkpt>
      <trkpt lat="50.28145" lon="4.41439">
        <ele>195.8</ele>
        <time>2025-11-16T08:53:45.000Z</time>
      </trkpt>
      <trkpt lat="50.28145" lon="4.41442">
        <ele>195.9</ele>
        <time>2025-11-16T08:53:46.000Z</time>
      </trkpt>
      <trkpt lat="50.28145" lon="4.41444">
        <ele>195.9</ele>
        <time>2025-11-16T08:53:47.000Z</time>
      </trkpt>
      <trkpt lat="50.28144" lon="4.41447">
        <ele>195.9</ele>
        <time>2025-11-16T08:53:48.000Z</time>
      </trkpt>
      <trkpt lat="50.28144" lon="4.41449">
        <ele>195.8</ele>
        <time>2025-11-16T08:53:49.000Z</time>
      </trkpt>
      <trkpt lat="50.28144" lon="4.41451">
        <ele>195.8</ele>
        <time>2025-11-16T08:53:50.000Z</time>
      </trkpt>
      <trkpt lat="50.28144" lon="4.41454">
        <ele>195.8</ele>
        <time>2025-11-16T08:53:51.000Z</time>
      </trkpt>
      <trkpt lat="50.28143" lon="4.41457">
        <ele>195.5</ele>
        <time>2025-11-16T08:53:52.000Z</time>
      </trkpt>
      <trkpt lat="50.28143" lon="4.4146">
        <ele>195.4</ele>
        <time>2025-11-16T08:53:53.000Z</time>
      </trkpt>
      <trkpt lat="50.28142" lon="4.41463">
        <ele>195.2</ele>
        <time>2025-11-16T08:53:54.000Z</time>
      </trkpt>
      <trkpt lat="50.28142" lon="4.41465">
        <ele>195.2</ele>
        <time>2025-11-16T08:53:55.000Z</time>
      </trkpt>
      <trkpt lat="50.28141" lon="4.41467">
        <ele>195.4</ele>
        <time>2025-11-16T08:53:56.000Z</time>
      </trkpt>
      <trkpt lat="50.2814" lon="4.41468">
        <ele>195.4</ele>
        <time>2025-11-16T08:53:57.000Z</time>
      </trkpt>
      <trkpt lat="50.28139" lon="4.4147">
        <ele>195.4</ele>
        <time>2025-11-16T08:53:58.000Z</time>
      </trkpt>
      <trkpt lat="50.2814" lon="4.41473">
        <ele>195.4</ele>
        <time>2025-11-16T08:53:59.000Z</time>
      </trkpt>
      <trkpt lat="50.2814" lon="4.41476">
        <ele>195.3</ele>
        <time>2025-11-16T08:54:00.000Z</time>
      </trkpt>
      <trkpt lat="50.28141" lon="4.41479">
        <ele>195.1</ele>
        <time>2025-11-16T08:54:01.000Z</time>
      </trkpt>
      <trkpt lat="50.28141" lon="4.41482">
        <ele>195</ele>
        <time>2025-11-16T08:54:02.000Z</time>
      </trkpt>
      <trkpt lat="50.28141" lon="4.41484">
        <ele>194.9</ele>
        <time>2025-11-16T08:54:03.000Z</time>
      </trkpt>
      <trkpt lat="50.28141" lon="4.41486">
        <ele>194.8</ele>
        <time>2025-11-16T08:54:04.000Z</time>
      </trkpt>
      <trkpt lat="50.28142" lon="4.41487">
        <ele>194.6</ele>
        <time>2025-11-16T08:54:05.000Z</time>
      </trkpt>
      <trkpt lat="50.28142" lon="4.41489">
        <ele>194.5</ele>
        <time>2025-11-16T08:54:06.000Z</time>
      </trkpt>
      <trkpt lat="50.28143" lon="4.41491">
        <ele>194.4</ele>
        <time>2025-11-16T08:54:07.000Z</time>
      </trkpt>
      <trkpt lat="50.28144" lon="4.41493">
        <ele>194.2</ele>
        <time>2025-11-16T08:54:08.000Z</time>
      </trkpt>
      <trkpt lat="50.28144" lon="4.41494">
        <ele>194.1</ele>
        <time>2025-11-16T08:54:09.000Z</time>
      </trkpt>
      <trkpt lat="50.28144" lon="4.41495">
        <ele>194.2</ele>
        <time>2025-11-16T08:54:10.000Z</time>
      </trkpt>
      <trkpt lat="50.28145" lon="4.41496">
        <ele>194.2</ele>
        <time>2025-11-16T08:54:11.000Z</time>
      </trkpt>
      <trkpt lat="50.28144" lon="4.41498">
        <ele>194.3</ele>
        <time>2025-11-16T08:54:12.000Z</time>
      </trkpt>
      <trkpt lat="50.28144" lon="4.41501">
        <ele>194.4</ele>
        <time>2025-11-16T08:54:13.000Z</time>
      </trkpt>
      <trkpt lat="50.28144" lon="4.41504">
        <ele>194.4</ele>
        <time>2025-11-16T08:54:14.000Z</time>
      </trkpt>
      <trkpt lat="50.28144" lon="4.41506">
        <ele>194.5</ele>
        <time>2025-11-16T08:54:15.000Z</time>
      </trkpt>
      <trkpt lat="50.28145" lon="4.41509">
        <ele>194.6</ele>
        <time>2025-11-16T08:54:16.000Z</time>
      </trkpt>
      <trkpt lat="50.28145" lon="4.41511">
        <ele>194.6</ele>
        <time>2025-11-16T08:54:17.000Z</time>
      </trkpt>
      <trkpt lat="50.28145" lon="4.41514">
        <ele>194.6</ele>
        <time>2025-11-16T08:54:18.000Z</time>
      </trkpt>
      <trkpt lat="50.28145" lon="4.41516">
        <ele>194.6</ele>
        <time>2025-11-16T08:54:19.000Z</time>
      </trkpt>
      <trkpt lat="50.28145" lon="4.41519">
        <ele>194.5</ele>
        <time>2025-11-16T08:54:20.000Z</time>
      </trkpt>
      <trkpt lat="50.28146" lon="4.41522">
        <ele>194.6</ele>
        <time>2025-11-16T08:54:21.000Z</time>
      </trkpt>
      <trkpt lat="50.28146" lon="4.41525">
        <ele>194.7</ele>
        <time>2025-11-16T08:54:22.000Z</time>
      </trkpt>
      <trkpt lat="50.28146" lon="4.41528">
        <ele>194.7</ele>
        <time>2025-11-16T08:54:23.000Z</time>
      </trkpt>
      <trkpt lat="50.28145" lon="4.4153">
        <ele>194.5</ele>
        <time>2025-11-16T08:54:24.000Z</time>
      </trkpt>
      <trkpt lat="50.28145" lon="4.41531">
        <ele>194.2</ele>
        <time>2025-11-16T08:54:25.000Z</time>
      </trkpt>
      <trkpt lat="50.28144" lon="4.41534">
        <ele>194.3</ele>
        <time>2025-11-16T08:54:26.000Z</time>
      </trkpt>
      <trkpt lat="50.28144" lon="4.41536">
        <ele>194.2</ele>
        <time>2025-11-16T08:54:27.000Z</time>
      </trkpt>
      <trkpt lat="50.28145" lon="4.41537">
        <ele>193.9</ele>
        <time>2025-11-16T08:54:28.000Z</time>
      </trkpt>
      <trkpt lat="50.28145" lon="4.41539">
        <ele>193.7</ele>
        <time>2025-11-16T08:54:29.000Z</time>
      </trkpt>
      <trkpt lat="50.28146" lon="4.41541">
        <ele>193.9</ele>
        <time>2025-11-16T08:54:30.000Z</time>
      </trkpt>
      <trkpt lat="50.28147" lon="4.41543">
        <ele>194.1</ele>
        <time>2025-11-16T08:54:31.000Z</time>
      </trkpt>
      <trkpt lat="50.28147" lon="4.41545">
        <ele>194.2</ele>
        <time>2025-11-16T08:54:32.000Z</time>
      </trkpt>
      <trkpt lat="50.28147" lon="4.41548">
        <ele>194.4</ele>
        <time>2025-11-16T08:54:33.000Z</time>
      </trkpt>
      <trkpt lat="50.28148" lon="4.4155">
        <ele>194.5</ele>
        <time>2025-11-16T08:54:34.000Z</time>
      </trkpt>
      <trkpt lat="50.28148" lon="4.41553">
        <ele>194.7</ele>
        <time>2025-11-16T08:54:35.000Z</time>
      </trkpt>
      <trkpt lat="50.28148" lon="4.41556">
        <ele>194.9</ele>
        <time>2025-11-16T08:54:36.000Z</time>
      </trkpt>
      <trkpt lat="50.28148" lon="4.41558">
        <ele>195.1</ele>
        <time>2025-11-16T08:54:37.000Z</time>
      </trkpt>
      <trkpt lat="50.28148" lon="4.4156">
        <ele>195.1</ele>
        <time>2025-11-16T08:54:38.000Z</time>
      </trkpt>
      <trkpt lat="50.28149" lon="4.41562">
        <ele>195.2</ele>
        <time>2025-11-16T08:54:39.000Z</time>
      </trkpt>
      <trkpt lat="50.28149" lon="4.41565">
        <ele>195.3</ele>
        <time>2025-11-16T08:54:40.000Z</time>
      </trkpt>
      <trkpt lat="50.28148" lon="4.41567">
        <ele>195.2</ele>
        <time>2025-11-16T08:54:41.000Z</time>
      </trkpt>
      <trkpt lat="50.28148" lon="4.41569">
        <ele>195.1</ele>
        <time>2025-11-16T08:54:42.000Z</time>
      </trkpt>
      <trkpt lat="50.28147" lon="4.41571">
        <ele>194.9</ele>
        <time>2025-11-16T08:54:43.000Z</time>
      </trkpt>
      <trkpt lat="50.28147" lon="4.41573">
        <ele>194.7</ele>
        <time>2025-11-16T08:54:44.000Z</time>
      </trkpt>
      <trkpt lat="50.28147" lon="4.41575">
        <ele>194.6</ele>
        <time>2025-11-16T08:54:45.000Z</time>
      </trkpt>
      <trkpt lat="50.28147" lon="4.41577">
        <ele>194.5</ele>
        <time>2025-11-16T08:54:46.000Z</time>
      </trkpt>
      <trkpt lat="50.28148" lon="4.41579">
        <ele>194.5</ele>
        <time>2025-11-16T08:54:47.000Z</time>
      </trkpt>
      <trkpt lat="50.28148" lon="4.4158">
        <ele>194.5</ele>
        <time>2025-11-16T08:54:48.000Z</time>
      </trkpt>
      <trkpt lat="50.28149" lon="4.41582">
        <ele>194.6</ele>
        <time>2025-11-16T08:54:49.000Z</time>
      </trkpt>
      <trkpt lat="50.28149" lon="4.41585">
        <ele>194.4</ele>
        <time>2025-11-16T08:54:50.000Z</time>
      </trkpt>
      <trkpt lat="50.28149" lon="4.41587">
        <ele>194.3</ele>
        <time>2025-11-16T08:54:51.000Z</time>
      </trkpt>
      <trkpt lat="50.28148" lon="4.41589">
        <ele>194.3</ele>
        <time>2025-11-16T08:54:52.000Z</time>
      </trkpt>
      <trkpt lat="50.28147" lon="4.41592">
        <ele>194.1</ele>
        <time>2025-11-16T08:54:53.000Z</time>
      </trkpt>
      <trkpt lat="50.28146" lon="4.41595">
        <ele>194.1</ele>
        <time>2025-11-16T08:54:54.000Z</time>
      </trkpt>
      <trkpt lat="50.28146" lon="4.41597">
        <ele>194.3</ele>
        <time>2025-11-16T08:54:55.000Z</time>
      </trkpt>
      <trkpt lat="50.28147" lon="4.41599">
        <ele>194.5</ele>
        <time>2025-11-16T08:54:56.000Z</time>
      </trkpt>
      <trkpt lat="50.28147" lon="4.41602">
        <ele>194.5</ele>
        <time>2025-11-16T08:54:57.000Z</time>
      </trkpt>
      <trkpt lat="50.28147" lon="4.41604">
        <ele>194.4</ele>
        <time>2025-11-16T08:54:58.000Z</time>
      </trkpt>
      <trkpt lat="50.28147" lon="4.41607">
        <ele>194.2</ele>
        <time>2025-11-16T08:54:59.000Z</time>
      </trkpt>
      <trkpt lat="50.28147" lon="4.4161">
        <ele>194</ele>
        <time>2025-11-16T08:55:00.000Z</time>
      </trkpt>
      <trkpt lat="50.28147" lon="4.41612">
        <ele>194</ele>
        <time>2025-11-16T08:55:01.000Z</time>
      </trkpt>
      <trkpt lat="50.28147" lon="4.41614">
        <ele>194</ele>
        <time>2025-11-16T08:55:02.000Z</time>
      </trkpt>
      <trkpt lat="50.28148" lon="4.41617">
        <ele>193.8</ele>
        <time>2025-11-16T08:55:03.000Z</time>
      </trkpt>
      <trkpt lat="50.28148" lon="4.41619">
        <ele>193.6</ele>
        <time>2025-11-16T08:55:04.000Z</time>
      </trkpt>
      <trkpt lat="50.28148" lon="4.41622">
        <ele>193.5</ele>
        <time>2025-11-16T08:55:05.000Z</time>
      </trkpt>
      <trkpt lat="50.28148" lon="4.41624">
        <ele>193.5</ele>
        <time>2025-11-16T08:55:06.000Z</time>
      </trkpt>
      <trkpt lat="50.28147" lon="4.41627">
        <ele>193.5</ele>
        <time>2025-11-16T08:55:07.000Z</time>
      </trkpt>
      <trkpt lat="50.28146" lon="4.4163">
        <ele>193.6</ele>
        <time>2025-11-16T08:55:08.000Z</time>
      </trkpt>
      <trkpt lat="50.28146" lon="4.41631">
        <ele>193.7</ele>
        <time>2025-11-16T08:55:09.000Z</time>
      </trkpt>
      <trkpt lat="50.28145" lon="4.41633">
        <ele>193.9</ele>
        <time>2025-11-16T08:55:10.000Z</time>
      </trkpt>
      <trkpt lat="50.28145" lon="4.41635">
        <ele>194</ele>
        <time>2025-11-16T08:55:11.000Z</time>
      </trkpt>
      <trkpt lat="50.28145" lon="4.41637">
        <ele>194.1</ele>
        <time>2025-11-16T08:55:12.000Z</time>
      </trkpt>
      <trkpt lat="50.28145" lon="4.41639">
        <ele>194.2</ele>
        <time>2025-11-16T08:55:13.000Z</time>
      </trkpt>
      <trkpt lat="50.28145" lon="4.41642">
        <ele>194.3</ele>
        <time>2025-11-16T08:55:14.000Z</time>
      </trkpt>
      <trkpt lat="50.28145" lon="4.41644">
        <ele>194.5</ele>
        <time>2025-11-16T08:55:15.000Z</time>
      </trkpt>
      <trkpt lat="50.28145" lon="4.41646">
        <ele>194.5</ele>
        <time>2025-11-16T08:55:16.000Z</time>
      </trkpt>
      <trkpt lat="50.28146" lon="4.41649">
        <ele>194.5</ele>
        <time>2025-11-16T08:55:17.000Z</time>
      </trkpt>
      <trkpt lat="50.28146" lon="4.41652">
        <ele>194.6</ele>
        <time>2025-11-16T08:55:18.000Z</time>
      </trkpt>
      <trkpt lat="50.28146" lon="4.41654">
        <ele>194.8</ele>
        <time>2025-11-16T08:55:19.000Z</time>
      </trkpt>
      <trkpt lat="50.28146" lon="4.41656">
        <ele>194.9</ele>
        <time>2025-11-16T08:55:20.000Z</time>
      </trkpt>
      <trkpt lat="50.28147" lon="4.41658">
        <ele>194.9</ele>
        <time>2025-11-16T08:55:21.000Z</time>
      </trkpt>
      <trkpt lat="50.28146" lon="4.4166">
        <ele>195</ele>
        <time>2025-11-16T08:55:22.000Z</time>
      </trkpt>
      <trkpt lat="50.28146" lon="4.41663">
        <ele>195.1</ele>
        <time>2025-11-16T08:55:23.000Z</time>
      </trkpt>
      <trkpt lat="50.28145" lon="4.41666">
        <ele>195</ele>
        <time>2025-11-16T08:55:24.000Z</time>
      </trkpt>
      <trkpt lat="50.28144" lon="4.41669">
        <ele>195.3</ele>
        <time>2025-11-16T08:55:25.000Z</time>
      </trkpt>
      <trkpt lat="50.28145" lon="4.41671">
        <ele>195.4</ele>
        <time>2025-11-16T08:55:26.000Z</time>
      </trkpt>
      <trkpt lat="50.28145" lon="4.41674">
        <ele>195.5</ele>
        <time>2025-11-16T08:55:27.000Z</time>
      </trkpt>
      <trkpt lat="50.28144" lon="4.41676">
        <ele>195.2</ele>
        <time>2025-11-16T08:55:28.000Z</time>
      </trkpt>
      <trkpt lat="50.28145" lon="4.41679">
        <ele>195.6</ele>
        <time>2025-11-16T08:55:29.000Z</time>
      </trkpt>
      <trkpt lat="50.28146" lon="4.41681">
        <ele>195.9</ele>
        <time>2025-11-16T08:55:30.000Z</time>
      </trkpt>
      <trkpt lat="50.28146" lon="4.41684">
        <ele>196.1</ele>
        <time>2025-11-16T08:55:31.000Z</time>
      </trkpt>
      <trkpt lat="50.28146" lon="4.41687">
        <ele>196</ele>
        <time>2025-11-16T08:55:32.000Z</time>
      </trkpt>
      <trkpt lat="50.28146" lon="4.41689">
        <ele>196.4</ele>
        <time>2025-11-16T08:55:33.000Z</time>
      </trkpt>
      <trkpt lat="50.28146" lon="4.41692">
        <ele>196.5</ele>
        <time>2025-11-16T08:55:34.000Z</time>
      </trkpt>
      <trkpt lat="50.28146" lon="4.41694">
        <ele>196.6</ele>
        <time>2025-11-16T08:55:35.000Z</time>
      </trkpt>
      <trkpt lat="50.28145" lon="4.41696">
        <ele>196.5</ele>
        <time>2025-11-16T08:55:36.000Z</time>
      </trkpt>
      <trkpt lat="50.28145" lon="4.41699">
        <ele>196.4</ele>
        <time>2025-11-16T08:55:37.000Z</time>
      </trkpt>
      <trkpt lat="50.28145" lon="4.41702">
        <ele>196.2</ele>
        <time>2025-11-16T08:55:38.000Z</time>
      </trkpt>
      <trkpt lat="50.28145" lon="4.41705">
        <ele>196.1</ele>
        <time>2025-11-16T08:55:39.000Z</time>
      </trkpt>
      <trkpt lat="50.28145" lon="4.41707">
        <ele>195.9</ele>
        <time>2025-11-16T08:55:40.000Z</time>
      </trkpt>
      <trkpt lat="50.28145" lon="4.41709">
        <ele>196</ele>
        <time>2025-11-16T08:55:41.000Z</time>
      </trkpt>
      <trkpt lat="50.28146" lon="4.41711">
        <ele>196</ele>
        <time>2025-11-16T08:55:42.000Z</time>
      </trkpt>
      <trkpt lat="50.28146" lon="4.41712">
        <ele>196.1</ele>
        <time>2025-11-16T08:55:43.000Z</time>
      </trkpt>
      <trkpt lat="50.28146" lon="4.41715">
        <ele>196.2</ele>
        <time>2025-11-16T08:55:44.000Z</time>
      </trkpt>
      <trkpt lat="50.28146" lon="4.41717">
        <ele>196.3</ele>
        <time>2025-11-16T08:55:45.000Z</time>
      </trkpt>
      <trkpt lat="50.28146" lon="4.41719">
        <ele>196.6</ele>
        <time>2025-11-16T08:55:46.000Z</time>
      </trkpt>
      <trkpt lat="50.28147" lon="4.41721">
        <ele>196.6</ele>
        <time>2025-11-16T08:55:47.000Z</time>
      </trkpt>
      <trkpt lat="50.28147" lon="4.41723">
        <ele>196.4</ele>
        <time>2025-11-16T08:55:48.000Z</time>
      </trkpt>
      <trkpt lat="50.28147" lon="4.41725">
        <ele>196.3</ele>
        <time>2025-11-16T08:55:49.000Z</time>
      </trkpt>
      <trkpt lat="50.28147" lon="4.41727">
        <ele>196.3</ele>
        <time>2025-11-16T08:55:50.000Z</time>
      </trkpt>
      <trkpt lat="50.28146" lon="4.41729">
        <ele>196.3</ele>
        <time>2025-11-16T08:55:51.000Z</time>
      </trkpt>
      <trkpt lat="50.28146" lon="4.41731">
        <ele>196.3</ele>
        <time>2025-11-16T08:55:52.000Z</time>
      </trkpt>
      <trkpt lat="50.28147" lon="4.41733">
        <ele>196.2</ele>
        <time>2025-11-16T08:55:53.000Z</time>
      </trkpt>
      <trkpt lat="50.28147" lon="4.41735">
        <ele>196.3</ele>
        <time>2025-11-16T08:55:54.000Z</time>
      </trkpt>
      <trkpt lat="50.28147" lon="4.41737">
        <ele>196.3</ele>
        <time>2025-11-16T08:55:55.000Z</time>
      </trkpt>
      <trkpt lat="50.28148" lon="4.4174">
        <ele>196.7</ele>
        <time>2025-11-16T08:55:56.000Z</time>
      </trkpt>
      <trkpt lat="50.28148" lon="4.41742">
        <ele>196</ele>
        <time>2025-11-16T08:55:57.000Z</time>
      </trkpt>
      <trkpt lat="50.28145" lon="4.41742">
        <ele>194.9</ele>
        <time>2025-11-16T08:55:58.000Z</time>
      </trkpt>
      <trkpt lat="50.28143" lon="4.41743">
        <ele>194.2</ele>
        <time>2025-11-16T08:55:59.000Z</time>
      </trkpt>
      <trkpt lat="50.28142" lon="4.41744">
        <ele>193.2</ele>
        <time>2025-11-16T08:56:00.000Z</time>
      </trkpt>
      <trkpt lat="50.28144" lon="4.41748">
        <ele>193</ele>
        <time>2025-11-16T08:56:01.000Z</time>
      </trkpt>
      <trkpt lat="50.28145" lon="4.41751">
        <ele>192.6</ele>
        <time>2025-11-16T08:56:02.000Z</time>
      </trkpt>
      <trkpt lat="50.28146" lon="4.41754">
        <ele>192.2</ele>
        <time>2025-11-16T08:56:03.000Z</time>
      </trkpt>
      <trkpt lat="50.28146" lon="4.41757">
        <ele>192</ele>
        <time>2025-11-16T08:56:04.000Z</time>
      </trkpt>
      <trkpt lat="50.28147" lon="4.4176">
        <ele>191.8</ele>
        <time>2025-11-16T08:56:05.000Z</time>
      </trkpt>
      <trkpt lat="50.28147" lon="4.41762">
        <ele>191.8</ele>
        <time>2025-11-16T08:56:06.000Z</time>
      </trkpt>
      <trkpt lat="50.28147" lon="4.41764">
        <ele>191.6</ele>
        <time>2025-11-16T08:56:07.000Z</time>
      </trkpt>
      <trkpt lat="50.28147" lon="4.41766">
        <ele>191.6</ele>
        <time>2025-11-16T08:56:08.000Z</time>
      </trkpt>
      <trkpt lat="50.28147" lon="4.41769">
        <ele>191.3</ele>
        <time>2025-11-16T08:56:09.000Z</time>
      </trkpt>
      <trkpt lat="50.28147" lon="4.41771">
        <ele>191.1</ele>
        <time>2025-11-16T08:56:10.000Z</time>
      </trkpt>
      <trkpt lat="50.28147" lon="4.41773">
        <ele>191.3</ele>
        <time>2025-11-16T08:56:11.000Z</time>
      </trkpt>
      <trkpt lat="50.28147" lon="4.41774">
        <ele>191.3</ele>
        <time>2025-11-16T08:56:12.000Z</time>
      </trkpt>
      <trkpt lat="50.28147" lon="4.41776">
        <ele>191.5</ele>
        <time>2025-11-16T08:56:13.000Z</time>
      </trkpt>
      <trkpt lat="50.28147" lon="4.41779">
        <ele>191.2</ele>
        <time>2025-11-16T08:56:14.000Z</time>
      </trkpt>
      <trkpt lat="50.28147" lon="4.41782">
        <ele>190.7</ele>
        <time>2025-11-16T08:56:15.000Z</time>
      </trkpt>
      <trkpt lat="50.28148" lon="4.41784">
        <ele>190.6</ele>
        <time>2025-11-16T08:56:16.000Z</time>
      </trkpt>
      <trkpt lat="50.28148" lon="4.41785">
        <ele>190.7</ele>
        <time>2025-11-16T08:56:17.000Z</time>
      </trkpt>
      <trkpt lat="50.28148" lon="4.41787">
        <ele>190.8</ele>
        <time>2025-11-16T08:56:18.000Z</time>
      </trkpt>
      <trkpt lat="50.28148" lon="4.4179">
        <ele>190.9</ele>
        <time>2025-11-16T08:56:19.000Z</time>
      </trkpt>
      <trkpt lat="50.28148" lon="4.41792">
        <ele>191.1</ele>
        <time>2025-11-16T08:56:20.000Z</time>
      </trkpt>
      <trkpt lat="50.28148" lon="4.41794">
        <ele>191.4</ele>
        <time>2025-11-16T08:56:21.000Z</time>
      </trkpt>
      <trkpt lat="50.28148" lon="4.41796">
        <ele>191.4</ele>
        <time>2025-11-16T08:56:22.000Z</time>
      </trkpt>
      <trkpt lat="50.28148" lon="4.41799">
        <ele>191.7</ele>
        <time>2025-11-16T08:56:23.000Z</time>
      </trkpt>
      <trkpt lat="50.28148" lon="4.41801">
        <ele>191.9</ele>
        <time>2025-11-16T08:56:24.000Z</time>
      </trkpt>
      <trkpt lat="50.28149" lon="4.41803">
        <ele>191.9</ele>
        <time>2025-11-16T08:56:25.000Z</time>
      </trkpt>
      <trkpt lat="50.28149" lon="4.41806">
        <ele>192</ele>
        <time>2025-11-16T08:56:26.000Z</time>
      </trkpt>
      <trkpt lat="50.2815" lon="4.41809">
        <ele>192.2</ele>
        <time>2025-11-16T08:56:27.000Z</time>
      </trkpt>
      <trkpt lat="50.2815" lon="4.41811">
        <ele>192.3</ele>
        <time>2025-11-16T08:56:28.000Z</time>
      </trkpt>
      <trkpt lat="50.2815" lon="4.41813">
        <ele>192.6</ele>
        <time>2025-11-16T08:56:29.000Z</time>
      </trkpt>
      <trkpt lat="50.2815" lon="4.41815">
        <ele>193</ele>
        <time>2025-11-16T08:56:30.000Z</time>
      </trkpt>
      <trkpt lat="50.28151" lon="4.41817">
        <ele>193.1</ele>
        <time>2025-11-16T08:56:31.000Z</time>
      </trkpt>
      <trkpt lat="50.28152" lon="4.4182">
        <ele>193.3</ele>
        <time>2025-11-16T08:56:32.000Z</time>
      </trkpt>
      <trkpt lat="50.28152" lon="4.41823">
        <ele>193.2</ele>
        <time>2025-11-16T08:56:33.000Z</time>
      </trkpt>
      <trkpt lat="50.28152" lon="4.41825">
        <ele>193.3</ele>
        <time>2025-11-16T08:56:34.000Z</time>
      </trkpt>
      <trkpt lat="50.28152" lon="4.41827">
        <ele>193.5</ele>
        <time>2025-11-16T08:56:35.000Z</time>
      </trkpt>
      <trkpt lat="50.28152" lon="4.41829">
        <ele>193.8</ele>
        <time>2025-11-16T08:56:36.000Z</time>
      </trkpt>
      <trkpt lat="50.28152" lon="4.41831">
        <ele>194.1</ele>
        <time>2025-11-16T08:56:37.000Z</time>
      </trkpt>
      <trkpt lat="50.28153" lon="4.41834">
        <ele>194.4</ele>
        <time>2025-11-16T08:56:38.000Z</time>
      </trkpt>
      <trkpt lat="50.28153" lon="4.41836">
        <ele>194.6</ele>
        <time>2025-11-16T08:56:39.000Z</time>
      </trkpt>
      <trkpt lat="50.28153" lon="4.41839">
        <ele>194.8</ele>
        <time>2025-11-16T08:56:40.000Z</time>
      </trkpt>
      <trkpt lat="50.28153" lon="4.41841">
        <ele>195.4</ele>
        <time>2025-11-16T08:56:41.000Z</time>
      </trkpt>
      <trkpt lat="50.28154" lon="4.41844">
        <ele>195.7</ele>
        <time>2025-11-16T08:56:42.000Z</time>
      </trkpt>
      <trkpt lat="50.28154" lon="4.41846">
        <ele>196.2</ele>
        <time>2025-11-16T08:56:43.000Z</time>
      </trkpt>
      <trkpt lat="50.28155" lon="4.41848">
        <ele>196.6</ele>
        <time>2025-11-16T08:56:44.000Z</time>
      </trkpt>
      <trkpt lat="50.28155" lon="4.41851">
        <ele>196.9</ele>
        <time>2025-11-16T08:56:45.000Z</time>
      </trkpt>
      <trkpt lat="50.28157" lon="4.41854">
        <ele>197.2</ele>
        <time>2025-11-16T08:56:46.000Z</time>
      </trkpt>
      <trkpt lat="50.28158" lon="4.41856">
        <ele>197.4</ele>
        <time>2025-11-16T08:56:47.000Z</time>
      </trkpt>
      <trkpt lat="50.28159" lon="4.41858">
        <ele>197.6</ele>
        <time>2025-11-16T08:56:48.000Z</time>
      </trkpt>
      <trkpt lat="50.2816" lon="4.4186">
        <ele>198.1</ele>
        <time>2025-11-16T08:56:49.000Z</time>
      </trkpt>
      <trkpt lat="50.2816" lon="4.41862">
        <ele>198.5</ele>
        <time>2025-11-16T08:56:50.000Z</time>
      </trkpt>
      <trkpt lat="50.2816" lon="4.41864">
        <ele>198.7</ele>
        <time>2025-11-16T08:56:51.000Z</time>
      </trkpt>
      <trkpt lat="50.2816" lon="4.41866">
        <ele>198.7</ele>
        <time>2025-11-16T08:56:52.000Z</time>
      </trkpt>
      <trkpt lat="50.2816" lon="4.41868">
        <ele>198.7</ele>
        <time>2025-11-16T08:56:53.000Z</time>
      </trkpt>
      <trkpt lat="50.28159" lon="4.4187">
        <ele>198.7</ele>
        <time>2025-11-16T08:56:54.000Z</time>
      </trkpt>
      <trkpt lat="50.28159" lon="4.41872">
        <ele>198.7</ele>
        <time>2025-11-16T08:56:55.000Z</time>
      </trkpt>
      <trkpt lat="50.28159" lon="4.41874">
        <ele>198.7</ele>
        <time>2025-11-16T08:56:56.000Z</time>
      </trkpt>
      <trkpt lat="50.28159" lon="4.41877">
        <ele>198.9</ele>
        <time>2025-11-16T08:56:57.000Z</time>
      </trkpt>
      <trkpt lat="50.2816" lon="4.41879">
        <ele>199</ele>
        <time>2025-11-16T08:56:58.000Z</time>
      </trkpt>
      <trkpt lat="50.2816" lon="4.41882">
        <ele>199</ele>
        <time>2025-11-16T08:56:59.000Z</time>
      </trkpt>
      <trkpt lat="50.28161" lon="4.41884">
        <ele>199.1</ele>
        <time>2025-11-16T08:57:00.000Z</time>
      </trkpt>
      <trkpt lat="50.28161" lon="4.41887">
        <ele>198.9</ele>
        <time>2025-11-16T08:57:01.000Z</time>
      </trkpt>
      <trkpt lat="50.28161" lon="4.41889">
        <ele>198.6</ele>
        <time>2025-11-16T08:57:02.000Z</time>
      </trkpt>
      <trkpt lat="50.28162" lon="4.41892">
        <ele>198.3</ele>
        <time>2025-11-16T08:57:03.000Z</time>
      </trkpt>
      <trkpt lat="50.28162" lon="4.41893">
        <ele>197.9</ele>
        <time>2025-11-16T08:57:04.000Z</time>
      </trkpt>
      <trkpt lat="50.28162" lon="4.41895">
        <ele>197.6</ele>
        <time>2025-11-16T08:57:05.000Z</time>
      </trkpt>
      <trkpt lat="50.28162" lon="4.41898">
        <ele>197.2</ele>
        <time>2025-11-16T08:57:06.000Z</time>
      </trkpt>
      <trkpt lat="50.28162" lon="4.419">
        <ele>196.8</ele>
        <time>2025-11-16T08:57:07.000Z</time>
      </trkpt>
      <trkpt lat="50.28162" lon="4.41902">
        <ele>196.6</ele>
        <time>2025-11-16T08:57:08.000Z</time>
      </trkpt>
      <trkpt lat="50.28163" lon="4.41905">
        <ele>196.3</ele>
        <time>2025-11-16T08:57:09.000Z</time>
      </trkpt>
      <trkpt lat="50.28163" lon="4.41907">
        <ele>196.4</ele>
        <time>2025-11-16T08:57:10.000Z</time>
      </trkpt>
      <trkpt lat="50.28164" lon="4.41909">
        <ele>196.4</ele>
        <time>2025-11-16T08:57:11.000Z</time>
      </trkpt>
      <trkpt lat="50.28164" lon="4.41911">
        <ele>196.4</ele>
        <time>2025-11-16T08:57:12.000Z</time>
      </trkpt>
      <trkpt lat="50.28164" lon="4.41913">
        <ele>196.4</ele>
        <time>2025-11-16T08:57:13.000Z</time>
      </trkpt>
      <trkpt lat="50.28164" lon="4.41915">
        <ele>196.4</ele>
        <time>2025-11-16T08:57:14.000Z</time>
      </trkpt>
      <trkpt lat="50.28164" lon="4.41917">
        <ele>196.3</ele>
        <time>2025-11-16T08:57:15.000Z</time>
      </trkpt>
      <trkpt lat="50.28164" lon="4.41919">
        <ele>196.4</ele>
        <time>2025-11-16T08:57:16.000Z</time>
      </trkpt>
      <trkpt lat="50.28164" lon="4.41921">
        <ele>196.4</ele>
        <time>2025-11-16T08:57:17.000Z</time>
      </trkpt>
      <trkpt lat="50.28164" lon="4.41923">
        <ele>196.5</ele>
        <time>2025-11-16T08:57:18.000Z</time>
      </trkpt>
      <trkpt lat="50.28164" lon="4.41925">
        <ele>196.5</ele>
        <time>2025-11-16T08:57:19.000Z</time>
      </trkpt>
      <trkpt lat="50.28164" lon="4.41928">
        <ele>196.5</ele>
        <time>2025-11-16T08:57:20.000Z</time>
      </trkpt>
      <trkpt lat="50.28165" lon="4.4193">
        <ele>196.5</ele>
        <time>2025-11-16T08:57:21.000Z</time>
      </trkpt>
      <trkpt lat="50.28165" lon="4.41932">
        <ele>196.6</ele>
        <time>2025-11-16T08:57:22.000Z</time>
      </trkpt>
      <trkpt lat="50.28166" lon="4.41934">
        <ele>196.8</ele>
        <time>2025-11-16T08:57:23.000Z</time>
      </trkpt>
      <trkpt lat="50.28167" lon="4.41937">
        <ele>196.8</ele>
        <time>2025-11-16T08:57:24.000Z</time>
      </trkpt>
      <trkpt lat="50.28169" lon="4.4194">
        <ele>196.7</ele>
        <time>2025-11-16T08:57:25.000Z</time>
      </trkpt>
      <trkpt lat="50.28169" lon="4.41943">
        <ele>196.7</ele>
        <time>2025-11-16T08:57:26.000Z</time>
      </trkpt>
      <trkpt lat="50.2817" lon="4.41946">
        <ele>196.8</ele>
        <time>2025-11-16T08:57:27.000Z</time>
      </trkpt>
      <trkpt lat="50.28172" lon="4.41949">
        <ele>196.7</ele>
        <time>2025-11-16T08:57:28.000Z</time>
      </trkpt>
      <trkpt lat="50.28171" lon="4.41951">
        <ele>196.7</ele>
        <time>2025-11-16T08:57:29.000Z</time>
      </trkpt>
      <trkpt lat="50.28171" lon="4.41953">
        <ele>196.9</ele>
        <time>2025-11-16T08:57:30.000Z</time>
      </trkpt>
      <trkpt lat="50.28171" lon="4.41955">
        <ele>197</ele>
        <time>2025-11-16T08:57:31.000Z</time>
      </trkpt>
      <trkpt lat="50.28171" lon="4.41957">
        <ele>196.9</ele>
        <time>2025-11-16T08:57:32.000Z</time>
      </trkpt>
      <trkpt lat="50.28171" lon="4.41959">
        <ele>197</ele>
        <time>2025-11-16T08:57:33.000Z</time>
      </trkpt>
      <trkpt lat="50.28171" lon="4.41961">
        <ele>197</ele>
        <time>2025-11-16T08:57:34.000Z</time>
      </trkpt>
      <trkpt lat="50.2817" lon="4.41962">
        <ele>197</ele>
        <time>2025-11-16T08:57:35.000Z</time>
      </trkpt>
      <trkpt lat="50.2817" lon="4.41964">
        <ele>196.9</ele>
        <time>2025-11-16T08:57:36.000Z</time>
      </trkpt>
      <trkpt lat="50.2817" lon="4.41966">
        <ele>196.9</ele>
        <time>2025-11-16T08:57:37.000Z</time>
      </trkpt>
      <trkpt lat="50.28171" lon="4.41968">
        <ele>196.8</ele>
        <time>2025-11-16T08:57:38.000Z</time>
      </trkpt>
      <trkpt lat="50.28171" lon="4.4197">
        <ele>196.6</ele>
        <time>2025-11-16T08:57:39.000Z</time>
      </trkpt>
      <trkpt lat="50.28171" lon="4.41972">
        <ele>196.6</ele>
        <time>2025-11-16T08:57:40.000Z</time>
      </trkpt>
      <trkpt lat="50.28171" lon="4.41973">
        <ele>196.5</ele>
        <time>2025-11-16T08:57:41.000Z</time>
      </trkpt>
      <trkpt lat="50.28171" lon="4.41974">
        <ele>196.4</ele>
        <time>2025-11-16T08:57:42.000Z</time>
      </trkpt>
      <trkpt lat="50.28171" lon="4.41976">
        <ele>196.4</ele>
        <time>2025-11-16T08:57:43.000Z</time>
      </trkpt>
      <trkpt lat="50.28172" lon="4.41979">
        <ele>196.4</ele>
        <time>2025-11-16T08:57:44.000Z</time>
      </trkpt>
      <trkpt lat="50.28172" lon="4.41981">
        <ele>196.2</ele>
        <time>2025-11-16T08:57:45.000Z</time>
      </trkpt>
      <trkpt lat="50.28173" lon="4.41983">
        <ele>196</ele>
        <time>2025-11-16T08:57:46.000Z</time>
      </trkpt>
      <trkpt lat="50.28173" lon="4.41986">
        <ele>195.9</ele>
        <time>2025-11-16T08:57:47.000Z</time>
      </trkpt>
      <trkpt lat="50.28174" lon="4.41988">
        <ele>195.8</ele>
        <time>2025-11-16T08:57:48.000Z</time>
      </trkpt>
      <trkpt lat="50.28174" lon="4.4199">
        <ele>195.9</ele>
        <time>2025-11-16T08:57:49.000Z</time>
      </trkpt>
      <trkpt lat="50.28174" lon="4.41992">
        <ele>195.9</ele>
        <time>2025-11-16T08:57:50.000Z</time>
      </trkpt>
      <trkpt lat="50.28174" lon="4.41994">
        <ele>195.9</ele>
        <time>2025-11-16T08:57:51.000Z</time>
      </trkpt>
      <trkpt lat="50.28174" lon="4.41996">
        <ele>195.7</ele>
        <time>2025-11-16T08:57:52.000Z</time>
      </trkpt>
      <trkpt lat="50.28175" lon="4.41999">
        <ele>195.7</ele>
        <time>2025-11-16T08:57:53.000Z</time>
      </trkpt>
      <trkpt lat="50.28175" lon="4.42001">
        <ele>195.7</ele>
        <time>2025-11-16T08:57:54.000Z</time>
      </trkpt>
      <trkpt lat="50.28175" lon="4.42003">
        <ele>195.6</ele>
        <time>2025-11-16T08:57:55.000Z</time>
      </trkpt>
      <trkpt lat="50.28176" lon="4.42006">
        <ele>195.4</ele>
        <time>2025-11-16T08:57:56.000Z</time>
      </trkpt>
      <trkpt lat="50.28176" lon="4.42008">
        <ele>195.3</ele>
        <time>2025-11-16T08:57:57.000Z</time>
      </trkpt>
      <trkpt lat="50.28176" lon="4.42011">
        <ele>195.2</ele>
        <time>2025-11-16T08:57:58.000Z</time>
      </trkpt>
      <trkpt lat="50.28177" lon="4.42014">
        <ele>195.1</ele>
        <time>2025-11-16T08:57:59.000Z</time>
      </trkpt>
      <trkpt lat="50.28178" lon="4.42016">
        <ele>195.2</ele>
        <time>2025-11-16T08:58:00.000Z</time>
      </trkpt>
      <trkpt lat="50.28179" lon="4.42019">
        <ele>195.2</ele>
        <time>2025-11-16T08:58:01.000Z</time>
      </trkpt>
      <trkpt lat="50.2818" lon="4.42022">
        <ele>195.2</ele>
        <time>2025-11-16T08:58:02.000Z</time>
      </trkpt>
      <trkpt lat="50.28181" lon="4.42024">
        <ele>195.1</ele>
        <time>2025-11-16T08:58:03.000Z</time>
      </trkpt>
      <trkpt lat="50.28181" lon="4.42027">
        <ele>194.9</ele>
        <time>2025-11-16T08:58:04.000Z</time>
      </trkpt>
      <trkpt lat="50.28182" lon="4.4203">
        <ele>194.8</ele>
        <time>2025-11-16T08:58:05.000Z</time>
      </trkpt>
      <trkpt lat="50.28182" lon="4.42033">
        <ele>194.7</ele>
        <time>2025-11-16T08:58:06.000Z</time>
      </trkpt>
      <trkpt lat="50.28182" lon="4.42036">
        <ele>194.6</ele>
        <time>2025-11-16T08:58:07.000Z</time>
      </trkpt>
      <trkpt lat="50.28183" lon="4.42038">
        <ele>194.7</ele>
        <time>2025-11-16T08:58:08.000Z</time>
      </trkpt>
      <trkpt lat="50.28183" lon="4.42041">
        <ele>195.1</ele>
        <time>2025-11-16T08:58:09.000Z</time>
      </trkpt>
      <trkpt lat="50.28184" lon="4.42043">
        <ele>195.2</ele>
        <time>2025-11-16T08:58:10.000Z</time>
      </trkpt>
      <trkpt lat="50.28185" lon="4.42045">
        <ele>195.5</ele>
        <time>2025-11-16T08:58:11.000Z</time>
      </trkpt>
      <trkpt lat="50.28186" lon="4.42047">
        <ele>195.9</ele>
        <time>2025-11-16T08:58:12.000Z</time>
      </trkpt>
      <trkpt lat="50.28187" lon="4.42049">
        <ele>196.4</ele>
        <time>2025-11-16T08:58:13.000Z</time>
      </trkpt>
      <trkpt lat="50.28188" lon="4.42051">
        <ele>196.9</ele>
        <time>2025-11-16T08:58:14.000Z</time>
      </trkpt>
      <trkpt lat="50.28189" lon="4.42053">
        <ele>197.4</ele>
        <time>2025-11-16T08:58:15.000Z</time>
      </trkpt>
      <trkpt lat="50.28189" lon="4.42055">
        <ele>198.1</ele>
        <time>2025-11-16T08:58:16.000Z</time>
      </trkpt>
      <trkpt lat="50.28189" lon="4.42056">
        <ele>198.4</ele>
        <time>2025-11-16T08:58:17.000Z</time>
      </trkpt>
      <trkpt lat="50.28189" lon="4.42057">
        <ele>198.3</ele>
        <time>2025-11-16T08:58:18.000Z</time>
      </trkpt>
      <trkpt lat="50.2819" lon="4.42058">
        <ele>198</ele>
        <time>2025-11-16T08:58:19.000Z</time>
      </trkpt>
      <trkpt lat="50.2819" lon="4.4206">
        <ele>197.6</ele>
        <time>2025-11-16T08:58:20.000Z</time>
      </trkpt>
      <trkpt lat="50.2819" lon="4.42062">
        <ele>197.3</ele>
        <time>2025-11-16T08:58:21.000Z</time>
      </trkpt>
      <trkpt lat="50.2819" lon="4.42064">
        <ele>196.9</ele>
        <time>2025-11-16T08:58:22.000Z</time>
      </trkpt>
      <trkpt lat="50.28191" lon="4.42066">
        <ele>196.6</ele>
        <time>2025-11-16T08:58:23.000Z</time>
      </trkpt>
      <trkpt lat="50.28191" lon="4.42069">
        <ele>196.5</ele>
        <time>2025-11-16T08:58:24.000Z</time>
      </trkpt>
      <trkpt lat="50.28192" lon="4.42071">
        <ele>196.4</ele>
        <time>2025-11-16T08:58:25.000Z</time>
      </trkpt>
      <trkpt lat="50.28192" lon="4.42073">
        <ele>196.4</ele>
        <time>2025-11-16T08:58:26.000Z</time>
      </trkpt>
      <trkpt lat="50.28193" lon="4.42076">
        <ele>196.3</ele>
        <time>2025-11-16T08:58:27.000Z</time>
      </trkpt>
      <trkpt lat="50.28194" lon="4.42078">
        <ele>196.3</ele>
        <time>2025-11-16T08:58:28.000Z</time>
      </trkpt>
      <trkpt lat="50.28194" lon="4.42082">
        <ele>196.4</ele>
        <time>2025-11-16T08:58:29.000Z</time>
      </trkpt>
      <trkpt lat="50.28195" lon="4.42084">
        <ele>196.5</ele>
        <time>2025-11-16T08:58:30.000Z</time>
      </trkpt>
      <trkpt lat="50.28195" lon="4.42086">
        <ele>196.5</ele>
        <time>2025-11-16T08:58:31.000Z</time>
      </trkpt>
      <trkpt lat="50.28197" lon="4.42088">
        <ele>196.2</ele>
        <time>2025-11-16T08:58:32.000Z</time>
      </trkpt>
      <trkpt lat="50.28198" lon="4.4209">
        <ele>196</ele>
        <time>2025-11-16T08:58:33.000Z</time>
      </trkpt>
      <trkpt lat="50.28198" lon="4.42092">
        <ele>196.1</ele>
        <time>2025-11-16T08:58:34.000Z</time>
      </trkpt>
      <trkpt lat="50.28199" lon="4.42094">
        <ele>195.9</ele>
        <time>2025-11-16T08:58:35.000Z</time>
      </trkpt>
      <trkpt lat="50.28199" lon="4.42097">
        <ele>196</ele>
        <time>2025-11-16T08:58:36.000Z</time>
      </trkpt>
      <trkpt lat="50.28199" lon="4.42099">
        <ele>195.8</ele>
        <time>2025-11-16T08:58:37.000Z</time>
      </trkpt>
      <trkpt lat="50.28199" lon="4.42101">
        <ele>195.5</ele>
        <time>2025-11-16T08:58:38.000Z</time>
      </trkpt>
      <trkpt lat="50.28199" lon="4.42103">
        <ele>195.4</ele>
        <time>2025-11-16T08:58:39.000Z</time>
      </trkpt>
      <trkpt lat="50.28199" lon="4.42104">
        <ele>195.3</ele>
        <time>2025-11-16T08:58:40.000Z</time>
      </trkpt>
      <trkpt lat="50.28199" lon="4.42107">
        <ele>195.3</ele>
        <time>2025-11-16T08:58:41.000Z</time>
      </trkpt>
      <trkpt lat="50.28199" lon="4.42109">
        <ele>195.3</ele>
        <time>2025-11-16T08:58:42.000Z</time>
      </trkpt>
      <trkpt lat="50.28199" lon="4.42111">
        <ele>195.3</ele>
        <time>2025-11-16T08:58:43.000Z</time>
      </trkpt>
      <trkpt lat="50.28199" lon="4.42114">
        <ele>195.3</ele>
        <time>2025-11-16T08:58:44.000Z</time>
      </trkpt>
      <trkpt lat="50.28199" lon="4.42116">
        <ele>195.1</ele>
        <time>2025-11-16T08:58:45.000Z</time>
      </trkpt>
      <trkpt lat="50.28199" lon="4.42119">
        <ele>194.9</ele>
        <time>2025-11-16T08:58:46.000Z</time>
      </trkpt>
      <trkpt lat="50.282" lon="4.42122">
        <ele>194.7</ele>
        <time>2025-11-16T08:58:47.000Z</time>
      </trkpt>
      <trkpt lat="50.282" lon="4.42126">
        <ele>194.6</ele>
        <time>2025-11-16T08:58:48.000Z</time>
      </trkpt>
      <trkpt lat="50.28201" lon="4.4213">
        <ele>194.3</ele>
        <time>2025-11-16T08:58:49.000Z</time>
      </trkpt>
      <trkpt lat="50.28202" lon="4.42133">
        <ele>194.1</ele>
        <time>2025-11-16T08:58:50.000Z</time>
      </trkpt>
      <trkpt lat="50.28203" lon="4.42137">
        <ele>193.7</ele>
        <time>2025-11-16T08:58:51.000Z</time>
      </trkpt>
      <trkpt lat="50.28204" lon="4.4214">
        <ele>193.6</ele>
        <time>2025-11-16T08:58:52.000Z</time>
      </trkpt>
      <trkpt lat="50.28204" lon="4.42142">
        <ele>193.6</ele>
        <time>2025-11-16T08:58:53.000Z</time>
      </trkpt>
      <trkpt lat="50.28204" lon="4.42143">
        <ele>193.7</ele>
        <time>2025-11-16T08:58:54.000Z</time>
      </trkpt>
      <trkpt lat="50.28204" lon="4.42144">
        <ele>193.9</ele>
        <time>2025-11-16T08:58:55.000Z</time>
      </trkpt>
      <trkpt lat="50.28205" lon="4.42146">
        <ele>193.9</ele>
        <time>2025-11-16T08:58:56.000Z</time>
      </trkpt>
      <trkpt lat="50.28206" lon="4.42148">
        <ele>193.9</ele>
        <time>2025-11-16T08:58:57.000Z</time>
      </trkpt>
      <trkpt lat="50.28206" lon="4.4215">
        <ele>194.1</ele>
        <time>2025-11-16T08:58:58.000Z</time>
      </trkpt>
      <trkpt lat="50.28207" lon="4.42153">
        <ele>194.2</ele>
        <time>2025-11-16T08:58:59.000Z</time>
      </trkpt>
      <trkpt lat="50.28208" lon="4.42155">
        <ele>194.2</ele>
        <time>2025-11-16T08:59:00.000Z</time>
      </trkpt>
      <trkpt lat="50.28208" lon="4.42157">
        <ele>194.2</ele>
        <time>2025-11-16T08:59:01.000Z</time>
      </trkpt>
      <trkpt lat="50.28209" lon="4.42158">
        <ele>194.3</ele>
        <time>2025-11-16T08:59:02.000Z</time>
      </trkpt>
      <trkpt lat="50.2821" lon="4.42158">
        <ele>194.6</ele>
        <time>2025-11-16T08:59:03.000Z</time>
      </trkpt>
      <trkpt lat="50.2821" lon="4.42159">
        <ele>194.8</ele>
        <time>2025-11-16T08:59:04.000Z</time>
      </trkpt>
      <trkpt lat="50.2821" lon="4.42161">
        <ele>195.1</ele>
        <time>2025-11-16T08:59:05.000Z</time>
      </trkpt>
      <trkpt lat="50.28208" lon="4.42162">
        <ele>196.6</ele>
        <time>2025-11-16T08:59:06.000Z</time>
      </trkpt>
      <trkpt lat="50.28208" lon="4.42164">
        <ele>198</ele>
        <time>2025-11-16T08:59:07.000Z</time>
      </trkpt>
      <trkpt lat="50.28207" lon="4.42166">
        <ele>199.4</ele>
        <time>2025-11-16T08:59:08.000Z</time>
      </trkpt>
      <trkpt lat="50.28208" lon="4.42169">
        <ele>200.5</ele>
        <time>2025-11-16T08:59:09.000Z</time>
      </trkpt>
      <trkpt lat="50.28208" lon="4.42172">
        <ele>200.1</ele>
        <time>2025-11-16T08:59:10.000Z</time>
      </trkpt>
      <trkpt lat="50.28209" lon="4.42174">
        <ele>199.6</ele>
        <time>2025-11-16T08:59:11.000Z</time>
      </trkpt>
      <trkpt lat="50.2821" lon="4.42176">
        <ele>198.8</ele>
        <time>2025-11-16T08:59:12.000Z</time>
      </trkpt>
      <trkpt lat="50.2821" lon="4.42179">
        <ele>197.8</ele>
        <time>2025-11-16T08:59:13.000Z</time>
      </trkpt>
      <trkpt lat="50.28211" lon="4.42182">
        <ele>197</ele>
        <time>2025-11-16T08:59:14.000Z</time>
      </trkpt>
      <trkpt lat="50.28212" lon="4.42184">
        <ele>196.4</ele>
        <time>2025-11-16T08:59:15.000Z</time>
      </trkpt>
      <trkpt lat="50.28212" lon="4.42187">
        <ele>196.1</ele>
        <time>2025-11-16T08:59:16.000Z</time>
      </trkpt>
      <trkpt lat="50.28212" lon="4.4219">
        <ele>196.2</ele>
        <time>2025-11-16T08:59:17.000Z</time>
      </trkpt>
      <trkpt lat="50.28213" lon="4.42192">
        <ele>196.1</ele>
        <time>2025-11-16T08:59:18.000Z</time>
      </trkpt>
      <trkpt lat="50.28214" lon="4.42194">
        <ele>196.2</ele>
        <time>2025-11-16T08:59:19.000Z</time>
      </trkpt>
      <trkpt lat="50.28215" lon="4.42196">
        <ele>196.3</ele>
        <time>2025-11-16T08:59:20.000Z</time>
      </trkpt>
      <trkpt lat="50.28215" lon="4.42198">
        <ele>196.4</ele>
        <time>2025-11-16T08:59:21.000Z</time>
      </trkpt>
      <trkpt lat="50.28216" lon="4.42201">
        <ele>196.5</ele>
        <time>2025-11-16T08:59:22.000Z</time>
      </trkpt>
      <trkpt lat="50.28217" lon="4.42205">
        <ele>196.7</ele>
        <time>2025-11-16T08:59:23.000Z</time>
      </trkpt>
      <trkpt lat="50.28218" lon="4.42209">
        <ele>196.8</ele>
        <time>2025-11-16T08:59:24.000Z</time>
      </trkpt>
      <trkpt lat="50.2822" lon="4.42213">
        <ele>197.5</ele>
        <time>2025-11-16T08:59:25.000Z</time>
      </trkpt>
      <trkpt lat="50.2822" lon="4.42214">
        <ele>197.4</ele>
        <time>2025-11-16T08:59:26.000Z</time>
      </trkpt>
      <trkpt lat="50.2822" lon="4.42214">
        <ele>197.5</ele>
        <time>2025-11-16T08:59:27.000Z</time>
      </trkpt>
      <trkpt lat="50.28219" lon="4.42216">
        <ele>197.3</ele>
        <time>2025-11-16T08:59:28.000Z</time>
      </trkpt>
      <trkpt lat="50.2822" lon="4.42218">
        <ele>197.6</ele>
        <time>2025-11-16T08:59:29.000Z</time>
      </trkpt>
      <trkpt lat="50.2822" lon="4.4222">
        <ele>197.6</ele>
        <time>2025-11-16T08:59:30.000Z</time>
      </trkpt>
      <trkpt lat="50.28221" lon="4.42222">
        <ele>197.7</ele>
        <time>2025-11-16T08:59:31.000Z</time>
      </trkpt>
      <trkpt lat="50.28221" lon="4.42225">
        <ele>197.8</ele>
        <time>2025-11-16T08:59:32.000Z</time>
      </trkpt>
      <trkpt lat="50.28221" lon="4.42227">
        <ele>197.9</ele>
        <time>2025-11-16T08:59:33.000Z</time>
      </trkpt>
      <trkpt lat="50.28221" lon="4.42229">
        <ele>197.8</ele>
        <time>2025-11-16T08:59:34.000Z</time>
      </trkpt>
      <trkpt lat="50.28221" lon="4.42232">
        <ele>198</ele>
        <time>2025-11-16T08:59:35.000Z</time>
      </trkpt>
      <trkpt lat="50.28222" lon="4.42234">
        <ele>198.2</ele>
        <time>2025-11-16T08:59:36.000Z</time>
      </trkpt>
      <trkpt lat="50.28222" lon="4.42236">
        <ele>198.4</ele>
        <time>2025-11-16T08:59:37.000Z</time>
      </trkpt>
      <trkpt lat="50.28222" lon="4.42238">
        <ele>198.5</ele>
        <time>2025-11-16T08:59:38.000Z</time>
      </trkpt>
      <trkpt lat="50.28222" lon="4.4224">
        <ele>198.7</ele>
        <time>2025-11-16T08:59:39.000Z</time>
      </trkpt>
      <trkpt lat="50.28223" lon="4.42243">
        <ele>198.7</ele>
        <time>2025-11-16T08:59:40.000Z</time>
      </trkpt>
      <trkpt lat="50.28222" lon="4.42244">
        <ele>199</ele>
        <time>2025-11-16T08:59:41.000Z</time>
      </trkpt>
      <trkpt lat="50.28221" lon="4.42247">
        <ele>199.1</ele>
        <time>2025-11-16T08:59:42.000Z</time>
      </trkpt>
      <trkpt lat="50.28221" lon="4.4225">
        <ele>199.6</ele>
        <time>2025-11-16T08:59:43.000Z</time>
      </trkpt>
      <trkpt lat="50.28222" lon="4.42253">
        <ele>200.1</ele>
        <time>2025-11-16T08:59:44.000Z</time>
      </trkpt>
      <trkpt lat="50.28222" lon="4.42255">
        <ele>200.4</ele>
        <time>2025-11-16T08:59:45.000Z</time>
      </trkpt>
      <trkpt lat="50.28223" lon="4.42257">
        <ele>200.6</ele>
        <time>2025-11-16T08:59:46.000Z</time>
      </trkpt>
      <trkpt lat="50.28224" lon="4.42259">
        <ele>200.9</ele>
        <time>2025-11-16T08:59:47.000Z</time>
      </trkpt>
      <trkpt lat="50.28225" lon="4.42261">
        <ele>201.4</ele>
        <time>2025-11-16T08:59:48.000Z</time>
      </trkpt>
      <trkpt lat="50.28227" lon="4.42263">
        <ele>201.7</ele>
        <time>2025-11-16T08:59:49.000Z</time>
      </trkpt>
      <trkpt lat="50.28228" lon="4.42265">
        <ele>202.1</ele>
        <time>2025-11-16T08:59:50.000Z</time>
      </trkpt>
      <trkpt lat="50.28229" lon="4.42267">
        <ele>202.5</ele>
        <time>2025-11-16T08:59:51.000Z</time>
      </trkpt>
      <trkpt lat="50.2823" lon="4.42268">
        <ele>203</ele>
        <time>2025-11-16T08:59:52.000Z</time>
      </trkpt>
      <trkpt lat="50.28232" lon="4.4227">
        <ele>203.3</ele>
        <time>2025-11-16T08:59:53.000Z</time>
      </trkpt>
      <trkpt lat="50.28232" lon="4.42272">
        <ele>203.9</ele>
        <time>2025-11-16T08:59:54.000Z</time>
      </trkpt>
      <trkpt lat="50.28233" lon="4.42275">
        <ele>204.5</ele>
        <time>2025-11-16T08:59:55.000Z</time>
      </trkpt>
      <trkpt lat="50.28233" lon="4.42278">
        <ele>204.9</ele>
        <time>2025-11-16T08:59:56.000Z</time>
      </trkpt>
      <trkpt lat="50.28233" lon="4.42281">
        <ele>205.1</ele>
        <time>2025-11-16T08:59:57.000Z</time>
      </trkpt>
      <trkpt lat="50.28233" lon="4.42283">
        <ele>205.2</ele>
        <time>2025-11-16T08:59:58.000Z</time>
      </trkpt>
      <trkpt lat="50.28234" lon="4.42285">
        <ele>205.4</ele>
        <time>2025-11-16T08:59:59.000Z</time>
      </trkpt>
      <trkpt lat="50.28234" lon="4.42287">
        <ele>205.6</ele>
        <time>2025-11-16T09:00:00.000Z</time>
      </trkpt>
      <trkpt lat="50.28235" lon="4.42288">
        <ele>205.6</ele>
        <time>2025-11-16T09:00:01.000Z</time>
      </trkpt>
      <trkpt lat="50.28236" lon="4.4229">
        <ele>205.5</ele>
        <time>2025-11-16T09:00:02.000Z</time>
      </trkpt>
      <trkpt lat="50.28237" lon="4.42292">
        <ele>205.4</ele>
        <time>2025-11-16T09:00:03.000Z</time>
      </trkpt>
      <trkpt lat="50.28238" lon="4.42294">
        <ele>205.1</ele>
        <time>2025-11-16T09:00:04.000Z</time>
      </trkpt>
      <trkpt lat="50.28238" lon="4.42296">
        <ele>204.9</ele>
        <time>2025-11-16T09:00:05.000Z</time>
      </trkpt>
      <trkpt lat="50.28238" lon="4.42297">
        <ele>204.5</ele>
        <time>2025-11-16T09:00:06.000Z</time>
      </trkpt>
      <trkpt lat="50.28239" lon="4.42299">
        <ele>204.3</ele>
        <time>2025-11-16T09:00:07.000Z</time>
      </trkpt>
      <trkpt lat="50.28239" lon="4.42301">
        <ele>204.1</ele>
        <time>2025-11-16T09:00:08.000Z</time>
      </trkpt>
      <trkpt lat="50.28239" lon="4.42304">
        <ele>204.1</ele>
        <time>2025-11-16T09:00:09.000Z</time>
      </trkpt>
      <trkpt lat="50.28239" lon="4.42306">
        <ele>204</ele>
        <time>2025-11-16T09:00:10.000Z</time>
      </trkpt>
      <trkpt lat="50.28239" lon="4.42308">
        <ele>203.9</ele>
        <time>2025-11-16T09:00:11.000Z</time>
      </trkpt>
      <trkpt lat="50.28239" lon="4.4231">
        <ele>203.6</ele>
        <time>2025-11-16T09:00:12.000Z</time>
      </trkpt>
      <trkpt lat="50.2824" lon="4.42312">
        <ele>203.4</ele>
        <time>2025-11-16T09:00:13.000Z</time>
      </trkpt>
      <trkpt lat="50.2824" lon="4.42314">
        <ele>203.1</ele>
        <time>2025-11-16T09:00:14.000Z</time>
      </trkpt>
      <trkpt lat="50.2824" lon="4.42316">
        <ele>202.9</ele>
        <time>2025-11-16T09:00:15.000Z</time>
      </trkpt>
      <trkpt lat="50.28241" lon="4.42318">
        <ele>202.5</ele>
        <time>2025-11-16T09:00:16.000Z</time>
      </trkpt>
      <trkpt lat="50.28242" lon="4.4232">
        <ele>202.1</ele>
        <time>2025-11-16T09:00:17.000Z</time>
      </trkpt>
      <trkpt lat="50.28242" lon="4.42322">
        <ele>201.9</ele>
        <time>2025-11-16T09:00:18.000Z</time>
      </trkpt>
      <trkpt lat="50.28242" lon="4.42325">
        <ele>201.7</ele>
        <time>2025-11-16T09:00:19.000Z</time>
      </trkpt>
      <trkpt lat="50.28242" lon="4.42326">
        <ele>201.5</ele>
        <time>2025-11-16T09:00:20.000Z</time>
      </trkpt>
      <trkpt lat="50.28242" lon="4.42328">
        <ele>201.1</ele>
        <time>2025-11-16T09:00:21.000Z</time>
      </trkpt>
      <trkpt lat="50.28242" lon="4.42329">
        <ele>200.8</ele>
        <time>2025-11-16T09:00:22.000Z</time>
      </trkpt>
      <trkpt lat="50.28242" lon="4.42332">
        <ele>200.5</ele>
        <time>2025-11-16T09:00:23.000Z</time>
      </trkpt>
      <trkpt lat="50.28242" lon="4.42334">
        <ele>200.3</ele>
        <time>2025-11-16T09:00:24.000Z</time>
      </trkpt>
      <trkpt lat="50.28242" lon="4.42336">
        <ele>200.2</ele>
        <time>2025-11-16T09:00:25.000Z</time>
      </trkpt>
      <trkpt lat="50.28242" lon="4.42338">
        <ele>200.1</ele>
        <time>2025-11-16T09:00:26.000Z</time>
      </trkpt>
      <trkpt lat="50.28243" lon="4.42341">
        <ele>199.9</ele>
        <time>2025-11-16T09:00:27.000Z</time>
      </trkpt>
      <trkpt lat="50.28243" lon="4.42344">
        <ele>199.7</ele>
        <time>2025-11-16T09:00:28.000Z</time>
      </trkpt>
      <trkpt lat="50.28244" lon="4.42346">
        <ele>199.3</ele>
        <time>2025-11-16T09:00:29.000Z</time>
      </trkpt>
      <trkpt lat="50.28245" lon="4.42348">
        <ele>198.9</ele>
        <time>2025-11-16T09:00:30.000Z</time>
      </trkpt>
      <trkpt lat="50.28246" lon="4.42349">
        <ele>198.7</ele>
        <time>2025-11-16T09:00:31.000Z</time>
      </trkpt>
      <trkpt lat="50.28246" lon="4.4235">
        <ele>198.5</ele>
        <time>2025-11-16T09:00:32.000Z</time>
      </trkpt>
      <trkpt lat="50.28248" lon="4.42349">
        <ele>198.2</ele>
        <time>2025-11-16T09:00:33.000Z</time>
      </trkpt>
      <trkpt lat="50.2825" lon="4.42348">
        <ele>198</ele>
        <time>2025-11-16T09:00:34.000Z</time>
      </trkpt>
      <trkpt lat="50.28251" lon="4.42346">
        <ele>198.1</ele>
        <time>2025-11-16T09:00:35.000Z</time>
      </trkpt>
      <trkpt lat="50.28252" lon="4.42345">
        <ele>198.4</ele>
        <time>2025-11-16T09:00:36.000Z</time>
      </trkpt>
      <trkpt lat="50.28254" lon="4.42344">
        <ele>198.5</ele>
        <time>2025-11-16T09:00:37.000Z</time>
      </trkpt>
      <trkpt lat="50.28255" lon="4.42343">
        <ele>198.5</ele>
        <time>2025-11-16T09:00:38.000Z</time>
      </trkpt>
      <trkpt lat="50.28256" lon="4.42342">
        <ele>198.2</ele>
        <time>2025-11-16T09:00:39.000Z</time>
      </trkpt>
      <trkpt lat="50.28257" lon="4.42341">
        <ele>197.9</ele>
        <time>2025-11-16T09:00:40.000Z</time>
      </trkpt>
      <trkpt lat="50.28258" lon="4.42341">
        <ele>197.9</ele>
        <time>2025-11-16T09:00:41.000Z</time>
      </trkpt>
      <trkpt lat="50.2826" lon="4.4234">
        <ele>197.7</ele>
        <time>2025-11-16T09:00:42.000Z</time>
      </trkpt>
      <trkpt lat="50.28261" lon="4.42339">
        <ele>197.7</ele>
        <time>2025-11-16T09:00:43.000Z</time>
      </trkpt>
      <trkpt lat="50.28262" lon="4.42338">
        <ele>197.7</ele>
        <time>2025-11-16T09:00:44.000Z</time>
      </trkpt>
      <trkpt lat="50.28263" lon="4.42337">
        <ele>197.9</ele>
        <time>2025-11-16T09:00:45.000Z</time>
      </trkpt>
      <trkpt lat="50.28264" lon="4.42335">
        <ele>198.1</ele>
        <time>2025-11-16T09:00:46.000Z</time>
      </trkpt>
      <trkpt lat="50.28265" lon="4.42333">
        <ele>198.3</ele>
        <time>2025-11-16T09:00:47.000Z</time>
      </trkpt>
      <trkpt lat="50.28266" lon="4.42332">
        <ele>198.5</ele>
        <time>2025-11-16T09:00:48.000Z</time>
      </trkpt>
      <trkpt lat="50.28267" lon="4.42331">
        <ele>198.8</ele>
        <time>2025-11-16T09:00:49.000Z</time>
      </trkpt>
      <trkpt lat="50.28267" lon="4.42329">
        <ele>199</ele>
        <time>2025-11-16T09:00:50.000Z</time>
      </trkpt>
      <trkpt lat="50.28268" lon="4.42328">
        <ele>199.1</ele>
        <time>2025-11-16T09:00:51.000Z</time>
      </trkpt>
      <trkpt lat="50.28269" lon="4.42327">
        <ele>199.2</ele>
        <time>2025-11-16T09:00:52.000Z</time>
      </trkpt>
      <trkpt lat="50.2827" lon="4.42326">
        <ele>199.3</ele>
        <time>2025-11-16T09:00:53.000Z</time>
      </trkpt>
      <trkpt lat="50.28271" lon="4.42324">
        <ele>199.3</ele>
        <time>2025-11-16T09:00:54.000Z</time>
      </trkpt>
      <trkpt lat="50.28273" lon="4.42323">
        <ele>199.4</ele>
        <time>2025-11-16T09:00:55.000Z</time>
      </trkpt>
      <trkpt lat="50.28275" lon="4.42321">
        <ele>199.6</ele>
        <time>2025-11-16T09:00:56.000Z</time>
      </trkpt>
      <trkpt lat="50.28277" lon="4.4232">
        <ele>199.7</ele>
        <time>2025-11-16T09:00:57.000Z</time>
      </trkpt>
      <trkpt lat="50.28279" lon="4.42319">
        <ele>199.8</ele>
        <time>2025-11-16T09:00:58.000Z</time>
      </trkpt>
      <trkpt lat="50.28281" lon="4.42318">
        <ele>199.4</ele>
        <time>2025-11-16T09:00:59.000Z</time>
      </trkpt>
      <trkpt lat="50.28282" lon="4.42317">
        <ele>199.1</ele>
        <time>2025-11-16T09:01:00.000Z</time>
      </trkpt>
      <trkpt lat="50.28283" lon="4.42317">
        <ele>199</ele>
        <time>2025-11-16T09:01:01.000Z</time>
      </trkpt>
      <trkpt lat="50.28284" lon="4.42316">
        <ele>198.9</ele>
        <time>2025-11-16T09:01:02.000Z</time>
      </trkpt>
      <trkpt lat="50.28285" lon="4.42314">
        <ele>198.5</ele>
        <time>2025-11-16T09:01:03.000Z</time>
      </trkpt>
      <trkpt lat="50.28286" lon="4.42313">
        <ele>198</ele>
        <time>2025-11-16T09:01:04.000Z</time>
      </trkpt>
      <trkpt lat="50.28287" lon="4.42312">
        <ele>197.5</ele>
        <time>2025-11-16T09:01:05.000Z</time>
      </trkpt>
      <trkpt lat="50.28288" lon="4.42311">
        <ele>197.2</ele>
        <time>2025-11-16T09:01:06.000Z</time>
      </trkpt>
      <trkpt lat="50.28288" lon="4.4231">
        <ele>196.9</ele>
        <time>2025-11-16T09:01:07.000Z</time>
      </trkpt>
      <trkpt lat="50.28289" lon="4.42309">
        <ele>196.6</ele>
        <time>2025-11-16T09:01:08.000Z</time>
      </trkpt>
      <trkpt lat="50.2829" lon="4.42309">
        <ele>196.3</ele>
        <time>2025-11-16T09:01:09.000Z</time>
      </trkpt>
      <trkpt lat="50.28291" lon="4.42308">
        <ele>196.2</ele>
        <time>2025-11-16T09:01:10.000Z</time>
      </trkpt>
      <trkpt lat="50.28292" lon="4.42308">
        <ele>196.1</ele>
        <time>2025-11-16T09:01:11.000Z</time>
      </trkpt>
      <trkpt lat="50.28293" lon="4.42307">
        <ele>196.3</ele>
        <time>2025-11-16T09:01:12.000Z</time>
      </trkpt>
      <trkpt lat="50.28293" lon="4.42306">
        <ele>196.3</ele>
        <time>2025-11-16T09:01:13.000Z</time>
      </trkpt>
      <trkpt lat="50.28294" lon="4.42305">
        <ele>196.1</ele>
        <time>2025-11-16T09:01:14.000Z</time>
      </trkpt>
      <trkpt lat="50.28296" lon="4.42303">
        <ele>196</ele>
        <time>2025-11-16T09:01:15.000Z</time>
      </trkpt>
      <trkpt lat="50.28297" lon="4.42302">
        <ele>196</ele>
        <time>2025-11-16T09:01:16.000Z</time>
      </trkpt>
      <trkpt lat="50.28298" lon="4.423">
        <ele>195.9</ele>
        <time>2025-11-16T09:01:17.000Z</time>
      </trkpt>
      <trkpt lat="50.28299" lon="4.42299">
        <ele>195.8</ele>
        <time>2025-11-16T09:01:18.000Z</time>
      </trkpt>
      <trkpt lat="50.283" lon="4.42298">
        <ele>196</ele>
        <time>2025-11-16T09:01:19.000Z</time>
      </trkpt>
      <trkpt lat="50.28301" lon="4.42297">
        <ele>196.3</ele>
        <time>2025-11-16T09:01:20.000Z</time>
      </trkpt>
      <trkpt lat="50.28302" lon="4.42296">
        <ele>196.4</ele>
        <time>2025-11-16T09:01:21.000Z</time>
      </trkpt>
      <trkpt lat="50.28304" lon="4.42295">
        <ele>196.5</ele>
        <time>2025-11-16T09:01:22.000Z</time>
      </trkpt>
      <trkpt lat="50.28305" lon="4.42294">
        <ele>196.6</ele>
        <time>2025-11-16T09:01:23.000Z</time>
      </trkpt>
      <trkpt lat="50.28306" lon="4.42292">
        <ele>196.9</ele>
        <time>2025-11-16T09:01:24.000Z</time>
      </trkpt>
      <trkpt lat="50.28308" lon="4.42291">
        <ele>197.2</ele>
        <time>2025-11-16T09:01:25.000Z</time>
      </trkpt>
      <trkpt lat="50.28309" lon="4.42289">
        <ele>197.5</ele>
        <time>2025-11-16T09:01:26.000Z</time>
      </trkpt>
      <trkpt lat="50.2831" lon="4.42288">
        <ele>197.7</ele>
        <time>2025-11-16T09:01:27.000Z</time>
      </trkpt>
      <trkpt lat="50.28312" lon="4.42287">
        <ele>197.8</ele>
        <time>2025-11-16T09:01:28.000Z</time>
      </trkpt>
      <trkpt lat="50.28313" lon="4.42286">
        <ele>197.9</ele>
        <time>2025-11-16T09:01:29.000Z</time>
      </trkpt>
      <trkpt lat="50.28315" lon="4.42285">
        <ele>198.3</ele>
        <time>2025-11-16T09:01:30.000Z</time>
      </trkpt>
      <trkpt lat="50.28316" lon="4.42284">
        <ele>198.5</ele>
        <time>2025-11-16T09:01:31.000Z</time>
      </trkpt>
      <trkpt lat="50.28317" lon="4.42283">
        <ele>198.6</ele>
        <time>2025-11-16T09:01:32.000Z</time>
      </trkpt>
      <trkpt lat="50.28319" lon="4.42282">
        <ele>198.7</ele>
        <time>2025-11-16T09:01:33.000Z</time>
      </trkpt>
      <trkpt lat="50.2832" lon="4.42283">
        <ele>198.9</ele>
        <time>2025-11-16T09:01:34.000Z</time>
      </trkpt>
      <trkpt lat="50.28322" lon="4.42284">
        <ele>199.2</ele>
        <time>2025-11-16T09:01:35.000Z</time>
      </trkpt>
      <trkpt lat="50.28323" lon="4.42286">
        <ele>199.5</ele>
        <time>2025-11-16T09:01:36.000Z</time>
      </trkpt>
      <trkpt lat="50.28323" lon="4.42289">
        <ele>199.6</ele>
        <time>2025-11-16T09:01:37.000Z</time>
      </trkpt>
      <trkpt lat="50.28324" lon="4.42291">
        <ele>199.9</ele>
        <time>2025-11-16T09:01:38.000Z</time>
      </trkpt>
      <trkpt lat="50.28325" lon="4.42294">
        <ele>200.2</ele>
        <time>2025-11-16T09:01:39.000Z</time>
      </trkpt>
      <trkpt lat="50.28326" lon="4.42297">
        <ele>200.6</ele>
        <time>2025-11-16T09:01:40.000Z</time>
      </trkpt>
      <trkpt lat="50.28327" lon="4.42301">
        <ele>200.8</ele>
        <time>2025-11-16T09:01:41.000Z</time>
      </trkpt>
      <trkpt lat="50.28327" lon="4.42304">
        <ele>201.2</ele>
        <time>2025-11-16T09:01:42.000Z</time>
      </trkpt>
      <trkpt lat="50.28328" lon="4.42307">
        <ele>201.5</ele>
        <time>2025-11-16T09:01:43.000Z</time>
      </trkpt>
      <trkpt lat="50.28328" lon="4.42311">
        <ele>201.7</ele>
        <time>2025-11-16T09:01:44.000Z</time>
      </trkpt>
      <trkpt lat="50.28329" lon="4.42314">
        <ele>201.9</ele>
        <time>2025-11-16T09:01:45.000Z</time>
      </trkpt>
      <trkpt lat="50.28328" lon="4.42317">
        <ele>202.1</ele>
        <time>2025-11-16T09:01:46.000Z</time>
      </trkpt>
      <trkpt lat="50.28328" lon="4.42319">
        <ele>202.4</ele>
        <time>2025-11-16T09:01:47.000Z</time>
      </trkpt>
      <trkpt lat="50.28328" lon="4.42321">
        <ele>202.7</ele>
        <time>2025-11-16T09:01:48.000Z</time>
      </trkpt>
      <trkpt lat="50.28328" lon="4.42323">
        <ele>203.2</ele>
        <time>2025-11-16T09:01:49.000Z</time>
      </trkpt>
      <trkpt lat="50.28328" lon="4.42326">
        <ele>203.3</ele>
        <time>2025-11-16T09:01:50.000Z</time>
      </trkpt>
      <trkpt lat="50.28328" lon="4.42328">
        <ele>203.4</ele>
        <time>2025-11-16T09:01:51.000Z</time>
      </trkpt>
      <trkpt lat="50.28328" lon="4.4233">
        <ele>203.4</ele>
        <time>2025-11-16T09:01:52.000Z</time>
      </trkpt>
      <trkpt lat="50.28328" lon="4.42331">
        <ele>203.3</ele>
        <time>2025-11-16T09:01:53.000Z</time>
      </trkpt>
      <trkpt lat="50.28328" lon="4.42332">
        <ele>203</ele>
        <time>2025-11-16T09:01:54.000Z</time>
      </trkpt>
      <trkpt lat="50.28328" lon="4.42334">
        <ele>202.8</ele>
        <time>2025-11-16T09:01:55.000Z</time>
      </trkpt>
      <trkpt lat="50.28328" lon="4.42336">
        <ele>202.7</ele>
        <time>2025-11-16T09:01:56.000Z</time>
      </trkpt>
      <trkpt lat="50.28327" lon="4.42338">
        <ele>202.6</ele>
        <time>2025-11-16T09:01:57.000Z</time>
      </trkpt>
      <trkpt lat="50.28327" lon="4.42339">
        <ele>202.5</ele>
        <time>2025-11-16T09:01:58.000Z</time>
      </trkpt>
      <trkpt lat="50.28326" lon="4.4234">
        <ele>202.4</ele>
        <time>2025-11-16T09:01:59.000Z</time>
      </trkpt>
      <trkpt lat="50.28326" lon="4.42342">
        <ele>202.2</ele>
        <time>2025-11-16T09:02:00.000Z</time>
      </trkpt>
      <trkpt lat="50.28327" lon="4.42344">
        <ele>202.1</ele>
        <time>2025-11-16T09:02:01.000Z</time>
      </trkpt>
      <trkpt lat="50.28328" lon="4.42346">
        <ele>202</ele>
        <time>2025-11-16T09:02:02.000Z</time>
      </trkpt>
      <trkpt lat="50.28328" lon="4.42348">
        <ele>201.8</ele>
        <time>2025-11-16T09:02:03.000Z</time>
      </trkpt>
      <trkpt lat="50.28329" lon="4.42351">
        <ele>201.8</ele>
        <time>2025-11-16T09:02:04.000Z</time>
      </trkpt>
      <trkpt lat="50.28329" lon="4.42354">
        <ele>201.9</ele>
        <time>2025-11-16T09:02:05.000Z</time>
      </trkpt>
      <trkpt lat="50.2833" lon="4.42356">
        <ele>202.1</ele>
        <time>2025-11-16T09:02:06.000Z</time>
      </trkpt>
      <trkpt lat="50.28331" lon="4.42359">
        <ele>202.1</ele>
        <time>2025-11-16T09:02:07.000Z</time>
      </trkpt>
      <trkpt lat="50.28332" lon="4.42361">
        <ele>202.3</ele>
        <time>2025-11-16T09:02:08.000Z</time>
      </trkpt>
      <trkpt lat="50.28332" lon="4.42362">
        <ele>202.6</ele>
        <time>2025-11-16T09:02:09.000Z</time>
      </trkpt>
      <trkpt lat="50.28333" lon="4.42364">
        <ele>202.6</ele>
        <time>2025-11-16T09:02:10.000Z</time>
      </trkpt>
      <trkpt lat="50.28333" lon="4.42365">
        <ele>202.5</ele>
        <time>2025-11-16T09:02:11.000Z</time>
      </trkpt>
      <trkpt lat="50.28332" lon="4.42365">
        <ele>202.7</ele>
        <time>2025-11-16T09:02:12.000Z</time>
      </trkpt>
      <trkpt lat="50.28332" lon="4.42366">
        <ele>202.9</ele>
        <time>2025-11-16T09:02:13.000Z</time>
      </trkpt>
      <trkpt lat="50.28333" lon="4.42367">
        <ele>202.8</ele>
        <time>2025-11-16T09:02:14.000Z</time>
      </trkpt>
      <trkpt lat="50.28333" lon="4.42368">
        <ele>202.9</ele>
        <time>2025-11-16T09:02:15.000Z</time>
      </trkpt>
      <trkpt lat="50.28334" lon="4.4237">
        <ele>203.1</ele>
        <time>2025-11-16T09:02:16.000Z</time>
      </trkpt>
      <trkpt lat="50.28334" lon="4.42371">
        <ele>203.3</ele>
        <time>2025-11-16T09:02:17.000Z</time>
      </trkpt>
      <trkpt lat="50.28335" lon="4.42373">
        <ele>203.5</ele>
        <time>2025-11-16T09:02:18.000Z</time>
      </trkpt>
      <trkpt lat="50.28335" lon="4.42375">
        <ele>203.6</ele>
        <time>2025-11-16T09:02:19.000Z</time>
      </trkpt>
      <trkpt lat="50.28335" lon="4.42377">
        <ele>203.8</ele>
        <time>2025-11-16T09:02:20.000Z</time>
      </trkpt>
      <trkpt lat="50.28335" lon="4.42379">
        <ele>203.9</ele>
        <time>2025-11-16T09:02:21.000Z</time>
      </trkpt>
      <trkpt lat="50.28335" lon="4.42381">
        <ele>204.1</ele>
        <time>2025-11-16T09:02:22.000Z</time>
      </trkpt>
      <trkpt lat="50.28334" lon="4.42384">
        <ele>204.2</ele>
        <time>2025-11-16T09:02:23.000Z</time>
      </trkpt>
      <trkpt lat="50.28334" lon="4.42387">
        <ele>204.3</ele>
        <time>2025-11-16T09:02:24.000Z</time>
      </trkpt>
      <trkpt lat="50.28334" lon="4.4239">
        <ele>204.3</ele>
        <time>2025-11-16T09:02:25.000Z</time>
      </trkpt>
      <trkpt lat="50.28334" lon="4.42393">
        <ele>204.3</ele>
        <time>2025-11-16T09:02:26.000Z</time>
      </trkpt>
      <trkpt lat="50.28335" lon="4.42396">
        <ele>204.1</ele>
        <time>2025-11-16T09:02:27.000Z</time>
      </trkpt>
      <trkpt lat="50.28335" lon="4.42398">
        <ele>204</ele>
        <time>2025-11-16T09:02:28.000Z</time>
      </trkpt>
      <trkpt lat="50.28336" lon="4.424">
        <ele>203.9</ele>
        <time>2025-11-16T09:02:29.000Z</time>
      </trkpt>
      <trkpt lat="50.28337" lon="4.42402">
        <ele>203.8</ele>
        <time>2025-11-16T09:02:30.000Z</time>
      </trkpt>
      <trkpt lat="50.28336" lon="4.42404">
        <ele>203.7</ele>
        <time>2025-11-16T09:02:31.000Z</time>
      </trkpt>
      <trkpt lat="50.28335" lon="4.42406">
        <ele>203.5</ele>
        <time>2025-11-16T09:02:32.000Z</time>
      </trkpt>
      <trkpt lat="50.28335" lon="4.42408">
        <ele>203.3</ele>
        <time>2025-11-16T09:02:33.000Z</time>
      </trkpt>
      <trkpt lat="50.28334" lon="4.4241">
        <ele>203.1</ele>
        <time>2025-11-16T09:02:34.000Z</time>
      </trkpt>
      <trkpt lat="50.28334" lon="4.42412">
        <ele>203</ele>
        <time>2025-11-16T09:02:35.000Z</time>
      </trkpt>
      <trkpt lat="50.28333" lon="4.42414">
        <ele>202.9</ele>
        <time>2025-11-16T09:02:36.000Z</time>
      </trkpt>
      <trkpt lat="50.28332" lon="4.42416">
        <ele>202.7</ele>
        <time>2025-11-16T09:02:37.000Z</time>
      </trkpt>
      <trkpt lat="50.28332" lon="4.42417">
        <ele>202.3</ele>
        <time>2025-11-16T09:02:38.000Z</time>
      </trkpt>
      <trkpt lat="50.28333" lon="4.42419">
        <ele>201.9</ele>
        <time>2025-11-16T09:02:39.000Z</time>
      </trkpt>
      <trkpt lat="50.28334" lon="4.42421">
        <ele>201.5</ele>
        <time>2025-11-16T09:02:40.000Z</time>
      </trkpt>
      <trkpt lat="50.28334" lon="4.42422">
        <ele>201.1</ele>
        <time>2025-11-16T09:02:41.000Z</time>
      </trkpt>
      <trkpt lat="50.28334" lon="4.42423">
        <ele>200.9</ele>
        <time>2025-11-16T09:02:42.000Z</time>
      </trkpt>
      <trkpt lat="50.28334" lon="4.42425">
        <ele>200.5</ele>
        <time>2025-11-16T09:02:43.000Z</time>
      </trkpt>
      <trkpt lat="50.28334" lon="4.42426">
        <ele>200.1</ele>
        <time>2025-11-16T09:02:44.000Z</time>
      </trkpt>
      <trkpt lat="50.28334" lon="4.42428">
        <ele>199.6</ele>
        <time>2025-11-16T09:02:45.000Z</time>
      </trkpt>
      <trkpt lat="50.28333" lon="4.4243">
        <ele>199.3</ele>
        <time>2025-11-16T09:02:46.000Z</time>
      </trkpt>
      <trkpt lat="50.28332" lon="4.42433">
        <ele>199</ele>
        <time>2025-11-16T09:02:47.000Z</time>
      </trkpt>
      <trkpt lat="50.28332" lon="4.42435">
        <ele>198.9</ele>
        <time>2025-11-16T09:02:48.000Z</time>
      </trkpt>
      <trkpt lat="50.28331" lon="4.42437">
        <ele>198.7</ele>
        <time>2025-11-16T09:02:49.000Z</time>
      </trkpt>
      <trkpt lat="50.28331" lon="4.42439">
        <ele>198.6</ele>
        <time>2025-11-16T09:02:50.000Z</time>
      </trkpt>
      <trkpt lat="50.28331" lon="4.42441">
        <ele>198.5</ele>
        <time>2025-11-16T09:02:51.000Z</time>
      </trkpt>
      <trkpt lat="50.28331" lon="4.42442">
        <ele>198.3</ele>
        <time>2025-11-16T09:02:52.000Z</time>
      </trkpt>
      <trkpt lat="50.28331" lon="4.42443">
        <ele>198.2</ele>
        <time>2025-11-16T09:02:53.000Z</time>
      </trkpt>
      <trkpt lat="50.28332" lon="4.42443">
        <ele>198.1</ele>
        <time>2025-11-16T09:02:54.000Z</time>
      </trkpt>
      <trkpt lat="50.28332" lon="4.42445">
        <ele>198</ele>
        <time>2025-11-16T09:02:55.000Z</time>
      </trkpt>
      <trkpt lat="50.28332" lon="4.42445">
        <ele>197.8</ele>
        <time>2025-11-16T09:02:56.000Z</time>
      </trkpt>
      <trkpt lat="50.28332" lon="4.42444">
        <ele>197.9</ele>
        <time>2025-11-16T09:02:57.000Z</time>
      </trkpt>
      <trkpt lat="50.28333" lon="4.42445">
        <ele>197.8</ele>
        <time>2025-11-16T09:02:58.000Z</time>
      </trkpt>
      <trkpt lat="50.2833" lon="4.42444">
        <ele>197.7</ele>
        <time>2025-11-16T09:02:59.000Z</time>
      </trkpt>
      <trkpt lat="50.28329" lon="4.42445">
        <ele>197.7</ele>
        <time>2025-11-16T09:03:00.000Z</time>
      </trkpt>
      <trkpt lat="50.28328" lon="4.42446">
        <ele>197.8</ele>
        <time>2025-11-16T09:03:01.000Z</time>
      </trkpt>
      <trkpt lat="50.28327" lon="4.42446">
        <ele>197.9</ele>
        <time>2025-11-16T09:03:02.000Z</time>
      </trkpt>
      <trkpt lat="50.28328" lon="4.42447">
        <ele>198.1</ele>
        <time>2025-11-16T09:03:03.000Z</time>
      </trkpt>
      <trkpt lat="50.28328" lon="4.42449">
        <ele>198.3</ele>
        <time>2025-11-16T09:03:04.000Z</time>
      </trkpt>
      <trkpt lat="50.28328" lon="4.42451">
        <ele>198.5</ele>
        <time>2025-11-16T09:03:05.000Z</time>
      </trkpt>
      <trkpt lat="50.28329" lon="4.42452">
        <ele>198.8</ele>
        <time>2025-11-16T09:03:06.000Z</time>
      </trkpt>
      <trkpt lat="50.28329" lon="4.42454">
        <ele>199.3</ele>
        <time>2025-11-16T09:03:07.000Z</time>
      </trkpt>
      <trkpt lat="50.28328" lon="4.42454">
        <ele>199.5</ele>
        <time>2025-11-16T09:03:08.000Z</time>
      </trkpt>
      <trkpt lat="50.28328" lon="4.42455">
        <ele>199.9</ele>
        <time>2025-11-16T09:03:09.000Z</time>
      </trkpt>
      <trkpt lat="50.28328" lon="4.42456">
        <ele>200.3</ele>
        <time>2025-11-16T09:03:10.000Z</time>
      </trkpt>
      <trkpt lat="50.2833" lon="4.42457">
        <ele>200.8</ele>
        <time>2025-11-16T09:03:11.000Z</time>
      </trkpt>
      <trkpt lat="50.28332" lon="4.42458">
        <ele>201.4</ele>
        <time>2025-11-16T09:03:12.000Z</time>
      </trkpt>
      <trkpt lat="50.28333" lon="4.42459">
        <ele>202.1</ele>
        <time>2025-11-16T09:03:13.000Z</time>
      </trkpt>
      <trkpt lat="50.28334" lon="4.4246">
        <ele>202.6</ele>
        <time>2025-11-16T09:03:14.000Z</time>
      </trkpt>
      <trkpt lat="50.28336" lon="4.42462">
        <ele>202.8</ele>
        <time>2025-11-16T09:03:15.000Z</time>
      </trkpt>
      <trkpt lat="50.28337" lon="4.42463">
        <ele>202.7</ele>
        <time>2025-11-16T09:03:16.000Z</time>
      </trkpt>
      <trkpt lat="50.28337" lon="4.42465">
        <ele>203</ele>
        <time>2025-11-16T09:03:17.000Z</time>
      </trkpt>
      <trkpt lat="50.28338" lon="4.42466">
        <ele>203.3</ele>
        <time>2025-11-16T09:03:18.000Z</time>
      </trkpt>
      <trkpt lat="50.28338" lon="4.42468">
        <ele>203.5</ele>
        <time>2025-11-16T09:03:19.000Z</time>
      </trkpt>
      <trkpt lat="50.28338" lon="4.42469">
        <ele>203.5</ele>
        <time>2025-11-16T09:03:20.000Z</time>
      </trkpt>
      <trkpt lat="50.28338" lon="4.42469">
        <ele>203.3</ele>
        <time>2025-11-16T09:03:21.000Z</time>
      </trkpt>
      <trkpt lat="50.28338" lon="4.4247">
        <ele>203.3</ele>
        <time>2025-11-16T09:03:22.000Z</time>
      </trkpt>
      <trkpt lat="50.28339" lon="4.4247">
        <ele>203.3</ele>
        <time>2025-11-16T09:03:23.000Z</time>
      </trkpt>
      <trkpt lat="50.2834" lon="4.4247">
        <ele>203.3</ele>
        <time>2025-11-16T09:03:24.000Z</time>
      </trkpt>
      <trkpt lat="50.2834" lon="4.42471">
        <ele>203.4</ele>
        <time>2025-11-16T09:03:25.000Z</time>
      </trkpt>
      <trkpt lat="50.2834" lon="4.42472">
        <ele>203.6</ele>
        <time>2025-11-16T09:03:26.000Z</time>
      </trkpt>
      <trkpt lat="50.2834" lon="4.42473">
        <ele>203.6</ele>
        <time>2025-11-16T09:03:27.000Z</time>
      </trkpt>
      <trkpt lat="50.2834" lon="4.42474">
        <ele>203.6</ele>
        <time>2025-11-16T09:03:28.000Z</time>
      </trkpt>
      <trkpt lat="50.28341" lon="4.42476">
        <ele>203.4</ele>
        <time>2025-11-16T09:03:29.000Z</time>
      </trkpt>
      <trkpt lat="50.28342" lon="4.42477">
        <ele>203.3</ele>
        <time>2025-11-16T09:03:30.000Z</time>
      </trkpt>
      <trkpt lat="50.28342" lon="4.42479">
        <ele>203.2</ele>
        <time>2025-11-16T09:03:31.000Z</time>
      </trkpt>
      <trkpt lat="50.28343" lon="4.4248">
        <ele>203.2</ele>
        <time>2025-11-16T09:03:32.000Z</time>
      </trkpt>
      <trkpt lat="50.28344" lon="4.42482">
        <ele>203.2</ele>
        <time>2025-11-16T09:03:33.000Z</time>
      </trkpt>
      <trkpt lat="50.28344" lon="4.42483">
        <ele>203.1</ele>
        <time>2025-11-16T09:03:34.000Z</time>
      </trkpt>
      <trkpt lat="50.28345" lon="4.42484">
        <ele>202.9</ele>
        <time>2025-11-16T09:03:35.000Z</time>
      </trkpt>
      <trkpt lat="50.28345" lon="4.42485">
        <ele>202.8</ele>
        <time>2025-11-16T09:03:36.000Z</time>
      </trkpt>
      <trkpt lat="50.28346" lon="4.42486">
        <ele>202.8</ele>
        <time>2025-11-16T09:03:37.000Z</time>
      </trkpt>
      <trkpt lat="50.28347" lon="4.42488">
        <ele>202.8</ele>
        <time>2025-11-16T09:03:38.000Z</time>
      </trkpt>
      <trkpt lat="50.28347" lon="4.4249">
        <ele>202.7</ele>
        <time>2025-11-16T09:03:39.000Z</time>
      </trkpt>
      <trkpt lat="50.28347" lon="4.42491">
        <ele>202.5</ele>
        <time>2025-11-16T09:03:40.000Z</time>
      </trkpt>
      <trkpt lat="50.28348" lon="4.42492">
        <ele>202.5</ele>
        <time>2025-11-16T09:03:41.000Z</time>
      </trkpt>
      <trkpt lat="50.28348" lon="4.42494">
        <ele>202.6</ele>
        <time>2025-11-16T09:03:42.000Z</time>
      </trkpt>
      <trkpt lat="50.28348" lon="4.42495">
        <ele>202.5</ele>
        <time>2025-11-16T09:03:43.000Z</time>
      </trkpt>
      <trkpt lat="50.28349" lon="4.42496">
        <ele>202.4</ele>
        <time>2025-11-16T09:03:44.000Z</time>
      </trkpt>
      <trkpt lat="50.28349" lon="4.42497">
        <ele>202.6</ele>
        <time>2025-11-16T09:03:45.000Z</time>
      </trkpt>
      <trkpt lat="50.28349" lon="4.42498">
        <ele>202.7</ele>
        <time>2025-11-16T09:03:46.000Z</time>
      </trkpt>
      <trkpt lat="50.28349" lon="4.42499">
        <ele>202.8</ele>
        <time>2025-11-16T09:03:47.000Z</time>
      </trkpt>
      <trkpt lat="50.28349" lon="4.425">
        <ele>202.9</ele>
        <time>2025-11-16T09:03:48.000Z</time>
      </trkpt>
      <trkpt lat="50.28349" lon="4.42502">
        <ele>203.1</ele>
        <time>2025-11-16T09:03:49.000Z</time>
      </trkpt>
      <trkpt lat="50.2835" lon="4.42503">
        <ele>203</ele>
        <time>2025-11-16T09:03:50.000Z</time>
      </trkpt>
      <trkpt lat="50.2835" lon="4.42504">
        <ele>203</ele>
        <time>2025-11-16T09:03:51.000Z</time>
      </trkpt>
      <trkpt lat="50.28351" lon="4.42506">
        <ele>203.1</ele>
        <time>2025-11-16T09:03:52.000Z</time>
      </trkpt>
      <trkpt lat="50.28351" lon="4.42507">
        <ele>203.1</ele>
        <time>2025-11-16T09:03:53.000Z</time>
      </trkpt>
      <trkpt lat="50.28352" lon="4.42508">
        <ele>203.1</ele>
        <time>2025-11-16T09:03:54.000Z</time>
      </trkpt>
      <trkpt lat="50.28353" lon="4.42509">
        <ele>203</ele>
        <time>2025-11-16T09:03:55.000Z</time>
      </trkpt>
      <trkpt lat="50.28354" lon="4.4251">
        <ele>202.9</ele>
        <time>2025-11-16T09:03:56.000Z</time>
      </trkpt>
      <trkpt lat="50.28354" lon="4.4251">
        <ele>202.8</ele>
        <time>2025-11-16T09:03:57.000Z</time>
      </trkpt>
      <trkpt lat="50.28355" lon="4.42511">
        <ele>202.8</ele>
        <time>2025-11-16T09:03:58.000Z</time>
      </trkpt>
      <trkpt lat="50.28356" lon="4.42512">
        <ele>202.7</ele>
        <time>2025-11-16T09:03:59.000Z</time>
      </trkpt>
      <trkpt lat="50.28356" lon="4.42514">
        <ele>202.8</ele>
        <time>2025-11-16T09:04:00.000Z</time>
      </trkpt>
      <trkpt lat="50.28357" lon="4.42515">
        <ele>202.6</ele>
        <time>2025-11-16T09:04:01.000Z</time>
      </trkpt>
      <trkpt lat="50.28358" lon="4.42516">
        <ele>202.7</ele>
        <time>2025-11-16T09:04:02.000Z</time>
      </trkpt>
      <trkpt lat="50.28358" lon="4.42518">
        <ele>202.8</ele>
        <time>2025-11-16T09:04:03.000Z</time>
      </trkpt>
      <trkpt lat="50.28359" lon="4.42519">
        <ele>202.9</ele>
        <time>2025-11-16T09:04:04.000Z</time>
      </trkpt>
      <trkpt lat="50.28359" lon="4.4252">
        <ele>203</ele>
        <time>2025-11-16T09:04:05.000Z</time>
      </trkpt>
      <trkpt lat="50.2836" lon="4.42521">
        <ele>203.1</ele>
        <time>2025-11-16T09:04:06.000Z</time>
      </trkpt>
      <trkpt lat="50.2836" lon="4.42522">
        <ele>203.2</ele>
        <time>2025-11-16T09:04:07.000Z</time>
      </trkpt>
      <trkpt lat="50.2836" lon="4.42524">
        <ele>203.2</ele>
        <time>2025-11-16T09:04:08.000Z</time>
      </trkpt>
      <trkpt lat="50.28361" lon="4.42524">
        <ele>203.4</ele>
        <time>2025-11-16T09:04:09.000Z</time>
      </trkpt>
      <trkpt lat="50.28361" lon="4.42525">
        <ele>203.5</ele>
        <time>2025-11-16T09:04:10.000Z</time>
      </trkpt>
      <trkpt lat="50.28361" lon="4.42526">
        <ele>203.5</ele>
        <time>2025-11-16T09:04:11.000Z</time>
      </trkpt>
      <trkpt lat="50.28362" lon="4.42527">
        <ele>203.6</ele>
        <time>2025-11-16T09:04:12.000Z</time>
      </trkpt>
      <trkpt lat="50.28363" lon="4.42528">
        <ele>203.7</ele>
        <time>2025-11-16T09:04:13.000Z</time>
      </trkpt>
      <trkpt lat="50.28364" lon="4.4253">
        <ele>204</ele>
        <time>2025-11-16T09:04:14.000Z</time>
      </trkpt>
      <trkpt lat="50.28364" lon="4.42532">
        <ele>204.1</ele>
        <time>2025-11-16T09:04:15.000Z</time>
      </trkpt>
      <trkpt lat="50.28365" lon="4.42532">
        <ele>204.3</ele>
        <time>2025-11-16T09:04:16.000Z</time>
      </trkpt>
      <trkpt lat="50.28366" lon="4.42534">
        <ele>204.6</ele>
        <time>2025-11-16T09:04:17.000Z</time>
      </trkpt>
      <trkpt lat="50.28367" lon="4.42535">
        <ele>204.7</ele>
        <time>2025-11-16T09:04:18.000Z</time>
      </trkpt>
      <trkpt lat="50.28367" lon="4.42536">
        <ele>204.7</ele>
        <time>2025-11-16T09:04:19.000Z</time>
      </trkpt>
      <trkpt lat="50.28368" lon="4.42538">
        <ele>204.9</ele>
        <time>2025-11-16T09:04:20.000Z</time>
      </trkpt>
      <trkpt lat="50.28368" lon="4.42538">
        <ele>204.9</ele>
        <time>2025-11-16T09:04:21.000Z</time>
      </trkpt>
      <trkpt lat="50.28369" lon="4.42539">
        <ele>205.1</ele>
        <time>2025-11-16T09:04:22.000Z</time>
      </trkpt>
      <trkpt lat="50.2837" lon="4.4254">
        <ele>205.3</ele>
        <time>2025-11-16T09:04:23.000Z</time>
      </trkpt>
      <trkpt lat="50.2837" lon="4.42542">
        <ele>205.3</ele>
        <time>2025-11-16T09:04:24.000Z</time>
      </trkpt>
      <trkpt lat="50.28371" lon="4.42543">
        <ele>205.5</ele>
        <time>2025-11-16T09:04:25.000Z</time>
      </trkpt>
      <trkpt lat="50.28371" lon="4.42545">
        <ele>205.5</ele>
        <time>2025-11-16T09:04:26.000Z</time>
      </trkpt>
      <trkpt lat="50.28372" lon="4.42546">
        <ele>205.6</ele>
        <time>2025-11-16T09:04:27.000Z</time>
      </trkpt>
      <trkpt lat="50.28372" lon="4.42547">
        <ele>205.7</ele>
        <time>2025-11-16T09:04:28.000Z</time>
      </trkpt>
      <trkpt lat="50.28373" lon="4.42549">
        <ele>205.7</ele>
        <time>2025-11-16T09:04:29.000Z</time>
      </trkpt>
      <trkpt lat="50.28374" lon="4.4255">
        <ele>205.7</ele>
        <time>2025-11-16T09:04:30.000Z</time>
      </trkpt>
      <trkpt lat="50.28375" lon="4.42552">
        <ele>205.9</ele>
        <time>2025-11-16T09:04:31.000Z</time>
      </trkpt>
      <trkpt lat="50.28375" lon="4.42552">
        <ele>206.1</ele>
        <time>2025-11-16T09:04:32.000Z</time>
      </trkpt>
      <trkpt lat="50.28376" lon="4.42554">
        <ele>206.2</ele>
        <time>2025-11-16T09:04:33.000Z</time>
      </trkpt>
      <trkpt lat="50.28377" lon="4.42555">
        <ele>206.3</ele>
        <time>2025-11-16T09:04:34.000Z</time>
      </trkpt>
      <trkpt lat="50.28377" lon="4.42557">
        <ele>206.3</ele>
        <time>2025-11-16T09:04:35.000Z</time>
      </trkpt>
      <trkpt lat="50.28378" lon="4.42558">
        <ele>206.4</ele>
        <time>2025-11-16T09:04:36.000Z</time>
      </trkpt>
      <trkpt lat="50.28379" lon="4.42559">
        <ele>206.4</ele>
        <time>2025-11-16T09:04:37.000Z</time>
      </trkpt>
      <trkpt lat="50.28379" lon="4.4256">
        <ele>206.4</ele>
        <time>2025-11-16T09:04:38.000Z</time>
      </trkpt>
      <trkpt lat="50.2838" lon="4.42561">
        <ele>206.5</ele>
        <time>2025-11-16T09:04:39.000Z</time>
      </trkpt>
      <trkpt lat="50.2838" lon="4.42562">
        <ele>206.7</ele>
        <time>2025-11-16T09:04:40.000Z</time>
      </trkpt>
      <trkpt lat="50.2838" lon="4.42563">
        <ele>206.6</ele>
        <time>2025-11-16T09:04:41.000Z</time>
      </trkpt>
      <trkpt lat="50.28381" lon="4.42565">
        <ele>206.7</ele>
        <time>2025-11-16T09:04:42.000Z</time>
      </trkpt>
      <trkpt lat="50.28381" lon="4.42566">
        <ele>206.7</ele>
        <time>2025-11-16T09:04:43.000Z</time>
      </trkpt>
      <trkpt lat="50.28381" lon="4.42567">
        <ele>206.7</ele>
        <time>2025-11-16T09:04:44.000Z</time>
      </trkpt>
      <trkpt lat="50.28382" lon="4.42569">
        <ele>206.7</ele>
        <time>2025-11-16T09:04:45.000Z</time>
      </trkpt>
      <trkpt lat="50.28382" lon="4.4257">
        <ele>206.6</ele>
        <time>2025-11-16T09:04:46.000Z</time>
      </trkpt>
      <trkpt lat="50.28383" lon="4.42571">
        <ele>206.7</ele>
        <time>2025-11-16T09:04:47.000Z</time>
      </trkpt>
      <trkpt lat="50.28383" lon="4.42572">
        <ele>206.7</ele>
        <time>2025-11-16T09:04:48.000Z</time>
      </trkpt>
      <trkpt lat="50.28383" lon="4.42573">
        <ele>206.8</ele>
        <time>2025-11-16T09:04:49.000Z</time>
      </trkpt>
      <trkpt lat="50.28384" lon="4.42574">
        <ele>206.9</ele>
        <time>2025-11-16T09:04:50.000Z</time>
      </trkpt>
      <trkpt lat="50.28384" lon="4.42576">
        <ele>207</ele>
        <time>2025-11-16T09:04:51.000Z</time>
      </trkpt>
      <trkpt lat="50.28385" lon="4.42577">
        <ele>207.1</ele>
        <time>2025-11-16T09:04:52.000Z</time>
      </trkpt>
      <trkpt lat="50.28385" lon="4.42578">
        <ele>207.4</ele>
        <time>2025-11-16T09:04:53.000Z</time>
      </trkpt>
      <trkpt lat="50.28386" lon="4.42579">
        <ele>207.4</ele>
        <time>2025-11-16T09:04:54.000Z</time>
      </trkpt>
      <trkpt lat="50.28386" lon="4.4258">
        <ele>207.5</ele>
        <time>2025-11-16T09:04:55.000Z</time>
      </trkpt>
      <trkpt lat="50.28386" lon="4.42581">
        <ele>207.6</ele>
        <time>2025-11-16T09:04:56.000Z</time>
      </trkpt>
      <trkpt lat="50.28387" lon="4.42582">
        <ele>207.8</ele>
        <time>2025-11-16T09:04:57.000Z</time>
      </trkpt>
      <trkpt lat="50.28388" lon="4.42584">
        <ele>207.8</ele>
        <time>2025-11-16T09:04:58.000Z</time>
      </trkpt>
      <trkpt lat="50.28388" lon="4.42585">
        <ele>207.9</ele>
        <time>2025-11-16T09:04:59.000Z</time>
      </trkpt>
      <trkpt lat="50.28388" lon="4.42586">
        <ele>208</ele>
        <time>2025-11-16T09:05:00.000Z</time>
      </trkpt>
      <trkpt lat="50.28389" lon="4.42587">
        <ele>208.2</ele>
        <time>2025-11-16T09:05:01.000Z</time>
      </trkpt>
      <trkpt lat="50.28389" lon="4.42588">
        <ele>208.4</ele>
        <time>2025-11-16T09:05:02.000Z</time>
      </trkpt>
      <trkpt lat="50.2839" lon="4.42589">
        <ele>208.5</ele>
        <time>2025-11-16T09:05:03.000Z</time>
      </trkpt>
      <trkpt lat="50.28391" lon="4.4259">
        <ele>208.7</ele>
        <time>2025-11-16T09:05:04.000Z</time>
      </trkpt>
      <trkpt lat="50.28392" lon="4.42592">
        <ele>208.8</ele>
        <time>2025-11-16T09:05:05.000Z</time>
      </trkpt>
      <trkpt lat="50.28392" lon="4.42593">
        <ele>208.9</ele>
        <time>2025-11-16T09:05:06.000Z</time>
      </trkpt>
      <trkpt lat="50.28393" lon="4.42594">
        <ele>209</ele>
        <time>2025-11-16T09:05:07.000Z</time>
      </trkpt>
      <trkpt lat="50.28394" lon="4.42595">
        <ele>209.1</ele>
        <time>2025-11-16T09:05:08.000Z</time>
      </trkpt>
      <trkpt lat="50.28394" lon="4.42597">
        <ele>209.3</ele>
        <time>2025-11-16T09:05:09.000Z</time>
      </trkpt>
      <trkpt lat="50.28395" lon="4.42597">
        <ele>209.7</ele>
        <time>2025-11-16T09:05:10.000Z</time>
      </trkpt>
      <trkpt lat="50.28395" lon="4.42599">
        <ele>209.9</ele>
        <time>2025-11-16T09:05:11.000Z</time>
      </trkpt>
      <trkpt lat="50.28395" lon="4.426">
        <ele>210</ele>
        <time>2025-11-16T09:05:12.000Z</time>
      </trkpt>
      <trkpt lat="50.28395" lon="4.42602">
        <ele>210.3</ele>
        <time>2025-11-16T09:05:13.000Z</time>
      </trkpt>
      <trkpt lat="50.28395" lon="4.42604">
        <ele>210.6</ele>
        <time>2025-11-16T09:05:14.000Z</time>
      </trkpt>
      <trkpt lat="50.28396" lon="4.42606">
        <ele>210.8</ele>
        <time>2025-11-16T09:05:15.000Z</time>
      </trkpt>
      <trkpt lat="50.28396" lon="4.42607">
        <ele>211.2</ele>
        <time>2025-11-16T09:05:16.000Z</time>
      </trkpt>
      <trkpt lat="50.28397" lon="4.42608">
        <ele>211.4</ele>
        <time>2025-11-16T09:05:17.000Z</time>
      </trkpt>
      <trkpt lat="50.28397" lon="4.42609">
        <ele>211.6</ele>
        <time>2025-11-16T09:05:18.000Z</time>
      </trkpt>
      <trkpt lat="50.28398" lon="4.42611">
        <ele>211.7</ele>
        <time>2025-11-16T09:05:19.000Z</time>
      </trkpt>
      <trkpt lat="50.28398" lon="4.42612">
        <ele>212</ele>
        <time>2025-11-16T09:05:20.000Z</time>
      </trkpt>
      <trkpt lat="50.28399" lon="4.42613">
        <ele>212.1</ele>
        <time>2025-11-16T09:05:21.000Z</time>
      </trkpt>
      <trkpt lat="50.28399" lon="4.42613">
        <ele>212.4</ele>
        <time>2025-11-16T09:05:22.000Z</time>
      </trkpt>
      <trkpt lat="50.284" lon="4.42614">
        <ele>212.6</ele>
        <time>2025-11-16T09:05:23.000Z</time>
      </trkpt>
      <trkpt lat="50.28401" lon="4.42615">
        <ele>212.7</ele>
        <time>2025-11-16T09:05:24.000Z</time>
      </trkpt>
      <trkpt lat="50.28401" lon="4.42615">
        <ele>213</ele>
        <time>2025-11-16T09:05:25.000Z</time>
      </trkpt>
      <trkpt lat="50.28402" lon="4.42616">
        <ele>213.1</ele>
        <time>2025-11-16T09:05:26.000Z</time>
      </trkpt>
      <trkpt lat="50.28402" lon="4.42616">
        <ele>213.3</ele>
        <time>2025-11-16T09:05:27.000Z</time>
      </trkpt>
      <trkpt lat="50.28403" lon="4.42616">
        <ele>213.6</ele>
        <time>2025-11-16T09:05:28.000Z</time>
      </trkpt>
      <trkpt lat="50.28405" lon="4.42616">
        <ele>213.8</ele>
        <time>2025-11-16T09:05:29.000Z</time>
      </trkpt>
      <trkpt lat="50.28405" lon="4.42616">
        <ele>214.1</ele>
        <time>2025-11-16T09:05:30.000Z</time>
      </trkpt>
      <trkpt lat="50.28407" lon="4.42616">
        <ele>214.4</ele>
        <time>2025-11-16T09:05:31.000Z</time>
      </trkpt>
      <trkpt lat="50.28408" lon="4.42616">
        <ele>214.5</ele>
        <time>2025-11-16T09:05:32.000Z</time>
      </trkpt>
      <trkpt lat="50.28409" lon="4.42616">
        <ele>214.7</ele>
        <time>2025-11-16T09:05:33.000Z</time>
      </trkpt>
      <trkpt lat="50.2841" lon="4.42615">
        <ele>215</ele>
        <time>2025-11-16T09:05:34.000Z</time>
      </trkpt>
      <trkpt lat="50.2841" lon="4.42615">
        <ele>215.3</ele>
        <time>2025-11-16T09:05:35.000Z</time>
      </trkpt>
      <trkpt lat="50.28411" lon="4.42615">
        <ele>215.6</ele>
        <time>2025-11-16T09:05:36.000Z</time>
      </trkpt>
      <trkpt lat="50.28411" lon="4.42615">
        <ele>216</ele>
        <time>2025-11-16T09:05:37.000Z</time>
      </trkpt>
      <trkpt lat="50.28411" lon="4.42615">
        <ele>216.4</ele>
        <time>2025-11-16T09:05:38.000Z</time>
      </trkpt>
      <trkpt lat="50.28412" lon="4.42615">
        <ele>216.8</ele>
        <time>2025-11-16T09:05:39.000Z</time>
      </trkpt>
      <trkpt lat="50.28412" lon="4.42614">
        <ele>217.2</ele>
        <time>2025-11-16T09:05:40.000Z</time>
      </trkpt>
      <trkpt lat="50.28413" lon="4.42615">
        <ele>217.5</ele>
        <time>2025-11-16T09:05:41.000Z</time>
      </trkpt>
      <trkpt lat="50.28413" lon="4.42615">
        <ele>217.7</ele>
        <time>2025-11-16T09:05:42.000Z</time>
      </trkpt>
      <trkpt lat="50.28413" lon="4.42615">
        <ele>218</ele>
        <time>2025-11-16T09:05:43.000Z</time>
      </trkpt>
      <trkpt lat="50.28412" lon="4.42614">
        <ele>218.2</ele>
        <time>2025-11-16T09:05:44.000Z</time>
      </trkpt>
      <trkpt lat="50.28413" lon="4.42614">
        <ele>218.5</ele>
        <time>2025-11-16T09:05:45.000Z</time>
      </trkpt>
      <trkpt lat="50.28413" lon="4.42614">
        <ele>218.8</ele>
        <time>2025-11-16T09:05:46.000Z</time>
      </trkpt>
      <trkpt lat="50.28413" lon="4.42614">
        <ele>219.1</ele>
        <time>2025-11-16T09:05:47.000Z</time>
      </trkpt>
      <trkpt lat="50.28413" lon="4.42614">
        <ele>219.4</ele>
        <time>2025-11-16T09:05:48.000Z</time>
      </trkpt>
      <trkpt lat="50.28414" lon="4.42614">
        <ele>219.6</ele>
        <time>2025-11-16T09:05:49.000Z</time>
      </trkpt>
      <trkpt lat="50.28414" lon="4.42614">
        <ele>219.7</ele>
        <time>2025-11-16T09:05:50.000Z</time>
      </trkpt>
      <trkpt lat="50.28415" lon="4.42615">
        <ele>219.9</ele>
        <time>2025-11-16T09:05:51.000Z</time>
      </trkpt>
      <trkpt lat="50.28416" lon="4.42616">
        <ele>220</ele>
        <time>2025-11-16T09:05:52.000Z</time>
      </trkpt>
      <trkpt lat="50.28417" lon="4.42616">
        <ele>220.2</ele>
        <time>2025-11-16T09:05:53.000Z</time>
      </trkpt>
      <trkpt lat="50.28419" lon="4.42617">
        <ele>220.4</ele>
        <time>2025-11-16T09:05:54.000Z</time>
      </trkpt>
      <trkpt lat="50.2842" lon="4.42617">
        <ele>220.4</ele>
        <time>2025-11-16T09:05:55.000Z</time>
      </trkpt>
      <trkpt lat="50.28422" lon="4.42618">
        <ele>220.5</ele>
        <time>2025-11-16T09:05:56.000Z</time>
      </trkpt>
      <trkpt lat="50.28424" lon="4.42618">
        <ele>220.8</ele>
        <time>2025-11-16T09:05:57.000Z</time>
      </trkpt>
      <trkpt lat="50.28425" lon="4.42619">
        <ele>220.9</ele>
        <time>2025-11-16T09:05:58.000Z</time>
      </trkpt>
      <trkpt lat="50.28426" lon="4.42619">
        <ele>220.9</ele>
        <time>2025-11-16T09:05:59.000Z</time>
      </trkpt>
      <trkpt lat="50.28428" lon="4.42618">
        <ele>221</ele>
        <time>2025-11-16T09:06:00.000Z</time>
      </trkpt>
      <trkpt lat="50.28429" lon="4.42618">
        <ele>221</ele>
        <time>2025-11-16T09:06:01.000Z</time>
      </trkpt>
      <trkpt lat="50.28429" lon="4.42618">
        <ele>221</ele>
        <time>2025-11-16T09:06:02.000Z</time>
      </trkpt>
      <trkpt lat="50.28429" lon="4.42618">
        <ele>221.1</ele>
        <time>2025-11-16T09:06:03.000Z</time>
      </trkpt>
      <trkpt lat="50.28429" lon="4.42618">
        <ele>221</ele>
        <time>2025-11-16T09:06:04.000Z</time>
      </trkpt>
      <trkpt lat="50.28429" lon="4.42618">
        <ele>221</ele>
        <time>2025-11-16T09:06:05.000Z</time>
      </trkpt>
      <trkpt lat="50.28429" lon="4.42618">
        <ele>221</ele>
        <time>2025-11-16T09:06:06.000Z</time>
      </trkpt>
      <trkpt lat="50.2843" lon="4.42618">
        <ele>221.1</ele>
        <time>2025-11-16T09:06:07.000Z</time>
      </trkpt>
      <trkpt lat="50.2843" lon="4.42619">
        <ele>221.3</ele>
        <time>2025-11-16T09:06:08.000Z</time>
      </trkpt>
      <trkpt lat="50.2843" lon="4.42619">
        <ele>221.5</ele>
        <time>2025-11-16T09:06:09.000Z</time>
      </trkpt>
      <trkpt lat="50.2843" lon="4.42619">
        <ele>221.8</ele>
        <time>2025-11-16T09:06:10.000Z</time>
      </trkpt>
      <trkpt lat="50.28431" lon="4.4262">
        <ele>221.9</ele>
        <time>2025-11-16T09:06:11.000Z</time>
      </trkpt>
      <trkpt lat="50.28431" lon="4.4262">
        <ele>221.9</ele>
        <time>2025-11-16T09:06:12.000Z</time>
      </trkpt>
      <trkpt lat="50.28433" lon="4.42618">
        <ele>222.4</ele>
        <time>2025-11-16T09:06:13.000Z</time>
      </trkpt>
      <trkpt lat="50.28433" lon="4.42617">
        <ele>222.5</ele>
        <time>2025-11-16T09:06:14.000Z</time>
      </trkpt>
      <trkpt lat="50.28434" lon="4.42617">
        <ele>222.6</ele>
        <time>2025-11-16T09:06:15.000Z</time>
      </trkpt>
      <trkpt lat="50.28433" lon="4.42616">
        <ele>222.6</ele>
        <time>2025-11-16T09:06:16.000Z</time>
      </trkpt>
      <trkpt lat="50.28433" lon="4.42616">
        <ele>222.6</ele>
        <time>2025-11-16T09:06:17.000Z</time>
      </trkpt>
      <trkpt lat="50.28433" lon="4.42616">
        <ele>222.7</ele>
        <time>2025-11-16T09:06:18.000Z</time>
      </trkpt>
      <trkpt lat="50.28434" lon="4.42616">
        <ele>222.7</ele>
        <time>2025-11-16T09:06:19.000Z</time>
      </trkpt>
      <trkpt lat="50.28434" lon="4.42616">
        <ele>222.7</ele>
        <time>2025-11-16T09:06:20.000Z</time>
      </trkpt>
      <trkpt lat="50.28434" lon="4.42615">
        <ele>222.9</ele>
        <time>2025-11-16T09:06:21.000Z</time>
      </trkpt>
      <trkpt lat="50.28434" lon="4.42615">
        <ele>223.2</ele>
        <time>2025-11-16T09:06:22.000Z</time>
      </trkpt>
      <trkpt lat="50.28435" lon="4.42616">
        <ele>223.5</ele>
        <time>2025-11-16T09:06:23.000Z</time>
      </trkpt>
      <trkpt lat="50.28436" lon="4.42617">
        <ele>223.8</ele>
        <time>2025-11-16T09:06:24.000Z</time>
      </trkpt>
      <trkpt lat="50.28436" lon="4.42618">
        <ele>223.9</ele>
        <time>2025-11-16T09:06:25.000Z</time>
      </trkpt>
      <trkpt lat="50.28437" lon="4.42619">
        <ele>224.1</ele>
        <time>2025-11-16T09:06:26.000Z</time>
      </trkpt>
      <trkpt lat="50.28438" lon="4.42619">
        <ele>224.1</ele>
        <time>2025-11-16T09:06:27.000Z</time>
      </trkpt>
      <trkpt lat="50.28438" lon="4.4262">
        <ele>224.2</ele>
        <time>2025-11-16T09:06:28.000Z</time>
      </trkpt>
      <trkpt lat="50.28439" lon="4.42621">
        <ele>224.5</ele>
        <time>2025-11-16T09:06:29.000Z</time>
      </trkpt>
      <trkpt lat="50.2844" lon="4.42622">
        <ele>224.7</ele>
        <time>2025-11-16T09:06:30.000Z</time>
      </trkpt>
      <trkpt lat="50.28441" lon="4.42623">
        <ele>224.9</ele>
        <time>2025-11-16T09:06:31.000Z</time>
      </trkpt>
      <trkpt lat="50.28441" lon="4.42624">
        <ele>225</ele>
        <time>2025-11-16T09:06:32.000Z</time>
      </trkpt>
      <trkpt lat="50.28442" lon="4.42625">
        <ele>225.3</ele>
        <time>2025-11-16T09:06:33.000Z</time>
      </trkpt>
      <trkpt lat="50.28443" lon="4.42625">
        <ele>225.4</ele>
        <time>2025-11-16T09:06:34.000Z</time>
      </trkpt>
      <trkpt lat="50.28444" lon="4.42625">
        <ele>225.6</ele>
        <time>2025-11-16T09:06:35.000Z</time>
      </trkpt>
      <trkpt lat="50.28446" lon="4.42625">
        <ele>225.8</ele>
        <time>2025-11-16T09:06:36.000Z</time>
      </trkpt>
      <trkpt lat="50.28447" lon="4.42624">
        <ele>225.9</ele>
        <time>2025-11-16T09:06:37.000Z</time>
      </trkpt>
      <trkpt lat="50.28448" lon="4.42624">
        <ele>226</ele>
        <time>2025-11-16T09:06:38.000Z</time>
      </trkpt>
      <trkpt lat="50.28449" lon="4.42624">
        <ele>226</ele>
        <time>2025-11-16T09:06:39.000Z</time>
      </trkpt>
      <trkpt lat="50.2845" lon="4.42624">
        <ele>226.1</ele>
        <time>2025-11-16T09:06:40.000Z</time>
      </trkpt>
      <trkpt lat="50.28451" lon="4.42623">
        <ele>226.1</ele>
        <time>2025-11-16T09:06:41.000Z</time>
      </trkpt>
      <trkpt lat="50.28451" lon="4.42623">
        <ele>226.1</ele>
        <time>2025-11-16T09:06:42.000Z</time>
      </trkpt>
      <trkpt lat="50.28452" lon="4.42623">
        <ele>226.1</ele>
        <time>2025-11-16T09:06:43.000Z</time>
      </trkpt>
      <trkpt lat="50.28454" lon="4.42623">
        <ele>226.2</ele>
        <time>2025-11-16T09:06:44.000Z</time>
      </trkpt>
      <trkpt lat="50.28454" lon="4.42623">
        <ele>226.3</ele>
        <time>2025-11-16T09:06:45.000Z</time>
      </trkpt>
      <trkpt lat="50.28455" lon="4.42623">
        <ele>226.4</ele>
        <time>2025-11-16T09:06:46.000Z</time>
      </trkpt>
      <trkpt lat="50.28455" lon="4.42623">
        <ele>226.4</ele>
        <time>2025-11-16T09:06:47.000Z</time>
      </trkpt>
      <trkpt lat="50.28456" lon="4.42623">
        <ele>226.5</ele>
        <time>2025-11-16T09:06:48.000Z</time>
      </trkpt>
      <trkpt lat="50.28458" lon="4.42623">
        <ele>226.7</ele>
        <time>2025-11-16T09:06:49.000Z</time>
      </trkpt>
      <trkpt lat="50.28459" lon="4.42624">
        <ele>226.9</ele>
        <time>2025-11-16T09:06:50.000Z</time>
      </trkpt>
      <trkpt lat="50.2846" lon="4.42624">
        <ele>227</ele>
        <time>2025-11-16T09:06:51.000Z</time>
      </trkpt>
      <trkpt lat="50.2846" lon="4.42625">
        <ele>227.1</ele>
        <time>2025-11-16T09:06:52.000Z</time>
      </trkpt>
      <trkpt lat="50.2846" lon="4.42625">
        <ele>227.3</ele>
        <time>2025-11-16T09:06:53.000Z</time>
      </trkpt>
      <trkpt lat="50.2846" lon="4.42625">
        <ele>227.5</ele>
        <time>2025-11-16T09:06:54.000Z</time>
      </trkpt>
      <trkpt lat="50.28461" lon="4.42624">
        <ele>227.7</ele>
        <time>2025-11-16T09:06:55.000Z</time>
      </trkpt>
      <trkpt lat="50.28461" lon="4.42624">
        <ele>227.6</ele>
        <time>2025-11-16T09:06:56.000Z</time>
      </trkpt>
      <trkpt lat="50.28462" lon="4.42624">
        <ele>227.6</ele>
        <time>2025-11-16T09:06:57.000Z</time>
      </trkpt>
      <trkpt lat="50.28463" lon="4.42624">
        <ele>227.7</ele>
        <time>2025-11-16T09:06:58.000Z</time>
      </trkpt>
      <trkpt lat="50.28464" lon="4.42624">
        <ele>227.9</ele>
        <time>2025-11-16T09:06:59.000Z</time>
      </trkpt>
      <trkpt lat="50.28465" lon="4.42624">
        <ele>227.8</ele>
        <time>2025-11-16T09:07:00.000Z</time>
      </trkpt>
      <trkpt lat="50.28466" lon="4.42624">
        <ele>227.9</ele>
        <time>2025-11-16T09:07:01.000Z</time>
      </trkpt>
      <trkpt lat="50.28468" lon="4.42624">
        <ele>227.8</ele>
        <time>2025-11-16T09:07:02.000Z</time>
      </trkpt>
      <trkpt lat="50.28469" lon="4.42624">
        <ele>227.8</ele>
        <time>2025-11-16T09:07:03.000Z</time>
      </trkpt>
      <trkpt lat="50.2847" lon="4.42624">
        <ele>227.8</ele>
        <time>2025-11-16T09:07:04.000Z</time>
      </trkpt>
      <trkpt lat="50.28472" lon="4.42624">
        <ele>227.8</ele>
        <time>2025-11-16T09:07:05.000Z</time>
      </trkpt>
      <trkpt lat="50.28473" lon="4.42623">
        <ele>227.9</ele>
        <time>2025-11-16T09:07:06.000Z</time>
      </trkpt>
      <trkpt lat="50.28474" lon="4.42623">
        <ele>228</ele>
        <time>2025-11-16T09:07:07.000Z</time>
      </trkpt>
      <trkpt lat="50.28474" lon="4.42623">
        <ele>228.2</ele>
        <time>2025-11-16T09:07:08.000Z</time>
      </trkpt>
      <trkpt lat="50.28474" lon="4.42623">
        <ele>228.4</ele>
        <time>2025-11-16T09:07:09.000Z</time>
      </trkpt>
      <trkpt lat="50.28474" lon="4.42623">
        <ele>228.3</ele>
        <time>2025-11-16T09:07:10.000Z</time>
      </trkpt>
      <trkpt lat="50.28474" lon="4.42623">
        <ele>228.1</ele>
        <time>2025-11-16T09:07:11.000Z</time>
      </trkpt>
      <trkpt lat="50.28474" lon="4.42623">
        <ele>227.8</ele>
        <time>2025-11-16T09:07:12.000Z</time>
      </trkpt>
      <trkpt lat="50.28475" lon="4.42623">
        <ele>227.7</ele>
        <time>2025-11-16T09:07:13.000Z</time>
      </trkpt>
      <trkpt lat="50.28475" lon="4.42623">
        <ele>227.8</ele>
        <time>2025-11-16T09:07:14.000Z</time>
      </trkpt>
      <trkpt lat="50.28476" lon="4.42622">
        <ele>228</ele>
        <time>2025-11-16T09:07:15.000Z</time>
      </trkpt>
      <trkpt lat="50.28477" lon="4.42622">
        <ele>228.1</ele>
        <time>2025-11-16T09:07:16.000Z</time>
      </trkpt>
      <trkpt lat="50.28478" lon="4.42622">
        <ele>228.2</ele>
        <time>2025-11-16T09:07:17.000Z</time>
      </trkpt>
      <trkpt lat="50.28479" lon="4.42622">
        <ele>228.5</ele>
        <time>2025-11-16T09:07:18.000Z</time>
      </trkpt>
      <trkpt lat="50.2848" lon="4.42622">
        <ele>228.7</ele>
        <time>2025-11-16T09:07:19.000Z</time>
      </trkpt>
      <trkpt lat="50.28481" lon="4.42622">
        <ele>228.9</ele>
        <time>2025-11-16T09:07:20.000Z</time>
      </trkpt>
      <trkpt lat="50.28481" lon="4.42623">
        <ele>229</ele>
        <time>2025-11-16T09:07:21.000Z</time>
      </trkpt>
      <trkpt lat="50.28482" lon="4.42623">
        <ele>229.1</ele>
        <time>2025-11-16T09:07:22.000Z</time>
      </trkpt>
      <trkpt lat="50.28483" lon="4.42623">
        <ele>229.2</ele>
        <time>2025-11-16T09:07:23.000Z</time>
      </trkpt>
      <trkpt lat="50.28483" lon="4.42623">
        <ele>229.4</ele>
        <time>2025-11-16T09:07:24.000Z</time>
      </trkpt>
      <trkpt lat="50.28485" lon="4.42622">
        <ele>229.5</ele>
        <time>2025-11-16T09:07:25.000Z</time>
      </trkpt>
      <trkpt lat="50.28485" lon="4.42622">
        <ele>229.5</ele>
        <time>2025-11-16T09:07:26.000Z</time>
      </trkpt>
      <trkpt lat="50.28486" lon="4.42622">
        <ele>229.6</ele>
        <time>2025-11-16T09:07:27.000Z</time>
      </trkpt>
      <trkpt lat="50.28487" lon="4.42622">
        <ele>229.6</ele>
        <time>2025-11-16T09:07:28.000Z</time>
      </trkpt>
      <trkpt lat="50.28488" lon="4.42622">
        <ele>229.6</ele>
        <time>2025-11-16T09:07:29.000Z</time>
      </trkpt>
      <trkpt lat="50.28489" lon="4.42621">
        <ele>229.6</ele>
        <time>2025-11-16T09:07:30.000Z</time>
      </trkpt>
      <trkpt lat="50.28489" lon="4.42621">
        <ele>229.5</ele>
        <time>2025-11-16T09:07:31.000Z</time>
      </trkpt>
      <trkpt lat="50.2849" lon="4.42621">
        <ele>229.3</ele>
        <time>2025-11-16T09:07:32.000Z</time>
      </trkpt>
      <trkpt lat="50.28491" lon="4.42619">
        <ele>229.3</ele>
        <time>2025-11-16T09:07:33.000Z</time>
      </trkpt>
      <trkpt lat="50.28491" lon="4.42619">
        <ele>229.2</ele>
        <time>2025-11-16T09:07:34.000Z</time>
      </trkpt>
      <trkpt lat="50.28492" lon="4.42618">
        <ele>229.1</ele>
        <time>2025-11-16T09:07:35.000Z</time>
      </trkpt>
      <trkpt lat="50.28494" lon="4.42618">
        <ele>228.9</ele>
        <time>2025-11-16T09:07:36.000Z</time>
      </trkpt>
      <trkpt lat="50.28495" lon="4.42619">
        <ele>229.1</ele>
        <time>2025-11-16T09:07:37.000Z</time>
      </trkpt>
      <trkpt lat="50.28496" lon="4.4262">
        <ele>229.3</ele>
        <time>2025-11-16T09:07:38.000Z</time>
      </trkpt>
      <trkpt lat="50.28497" lon="4.4262">
        <ele>229.7</ele>
        <time>2025-11-16T09:07:39.000Z</time>
      </trkpt>
      <trkpt lat="50.28499" lon="4.42621">
        <ele>229.9</ele>
        <time>2025-11-16T09:07:40.000Z</time>
      </trkpt>
      <trkpt lat="50.285" lon="4.42621">
        <ele>230</ele>
        <time>2025-11-16T09:07:41.000Z</time>
      </trkpt>
      <trkpt lat="50.28501" lon="4.42621">
        <ele>230.1</ele>
        <time>2025-11-16T09:07:42.000Z</time>
      </trkpt>
      <trkpt lat="50.28503" lon="4.42622">
        <ele>230.2</ele>
        <time>2025-11-16T09:07:43.000Z</time>
      </trkpt>
      <trkpt lat="50.28504" lon="4.42622">
        <ele>230.4</ele>
        <time>2025-11-16T09:07:44.000Z</time>
      </trkpt>
      <trkpt lat="50.28505" lon="4.42622">
        <ele>230.4</ele>
        <time>2025-11-16T09:07:45.000Z</time>
      </trkpt>
      <trkpt lat="50.28506" lon="4.42622">
        <ele>230.6</ele>
        <time>2025-11-16T09:07:46.000Z</time>
      </trkpt>
      <trkpt lat="50.28507" lon="4.42621">
        <ele>230.6</ele>
        <time>2025-11-16T09:07:47.000Z</time>
      </trkpt>
      <trkpt lat="50.28508" lon="4.42621">
        <ele>230.7</ele>
        <time>2025-11-16T09:07:48.000Z</time>
      </trkpt>
      <trkpt lat="50.28508" lon="4.42621">
        <ele>230.9</ele>
        <time>2025-11-16T09:07:49.000Z</time>
      </trkpt>
      <trkpt lat="50.28509" lon="4.42623">
        <ele>231</ele>
        <time>2025-11-16T09:07:50.000Z</time>
      </trkpt>
      <trkpt lat="50.2851" lon="4.42625">
        <ele>230.9</ele>
        <time>2025-11-16T09:07:51.000Z</time>
      </trkpt>
      <trkpt lat="50.28511" lon="4.42627">
        <ele>230.8</ele>
        <time>2025-11-16T09:07:52.000Z</time>
      </trkpt>
      <trkpt lat="50.28512" lon="4.42629">
        <ele>230.8</ele>
        <time>2025-11-16T09:07:53.000Z</time>
      </trkpt>
      <trkpt lat="50.28513" lon="4.42631">
        <ele>230.9</ele>
        <time>2025-11-16T09:07:54.000Z</time>
      </trkpt>
      <trkpt lat="50.28514" lon="4.42633">
        <ele>230.9</ele>
        <time>2025-11-16T09:07:55.000Z</time>
      </trkpt>
      <trkpt lat="50.28515" lon="4.42635">
        <ele>230.8</ele>
        <time>2025-11-16T09:07:56.000Z</time>
      </trkpt>
      <trkpt lat="50.28516" lon="4.42637">
        <ele>230.8</ele>
        <time>2025-11-16T09:07:57.000Z</time>
      </trkpt>
      <trkpt lat="50.28517" lon="4.42639">
        <ele>230.7</ele>
        <time>2025-11-16T09:07:58.000Z</time>
      </trkpt>
      <trkpt lat="50.28517" lon="4.42641">
        <ele>230.7</ele>
        <time>2025-11-16T09:07:59.000Z</time>
      </trkpt>
      <trkpt lat="50.28518" lon="4.42643">
        <ele>230.5</ele>
        <time>2025-11-16T09:08:00.000Z</time>
      </trkpt>
      <trkpt lat="50.28518" lon="4.42645">
        <ele>230.4</ele>
        <time>2025-11-16T09:08:01.000Z</time>
      </trkpt>
      <trkpt lat="50.28519" lon="4.42647">
        <ele>230.3</ele>
        <time>2025-11-16T09:08:02.000Z</time>
      </trkpt>
      <trkpt lat="50.28519" lon="4.42648">
        <ele>230</ele>
        <time>2025-11-16T09:08:03.000Z</time>
      </trkpt>
      <trkpt lat="50.28519" lon="4.42649">
        <ele>229.8</ele>
        <time>2025-11-16T09:08:04.000Z</time>
      </trkpt>
      <trkpt lat="50.28519" lon="4.42651">
        <ele>229.6</ele>
        <time>2025-11-16T09:08:05.000Z</time>
      </trkpt>
      <trkpt lat="50.28519" lon="4.42652">
        <ele>229.4</ele>
        <time>2025-11-16T09:08:06.000Z</time>
      </trkpt>
      <trkpt lat="50.28519" lon="4.42654">
        <ele>229.3</ele>
        <time>2025-11-16T09:08:07.000Z</time>
      </trkpt>
      <trkpt lat="50.28519" lon="4.42655">
        <ele>229.2</ele>
        <time>2025-11-16T09:08:08.000Z</time>
      </trkpt>
      <trkpt lat="50.28519" lon="4.42656">
        <ele>229.1</ele>
        <time>2025-11-16T09:08:09.000Z</time>
      </trkpt>
      <trkpt lat="50.2852" lon="4.42657">
        <ele>229.2</ele>
        <time>2025-11-16T09:08:10.000Z</time>
      </trkpt>
      <trkpt lat="50.2852" lon="4.42656">
        <ele>229.2</ele>
        <time>2025-11-16T09:08:11.000Z</time>
      </trkpt>
      <trkpt lat="50.2852" lon="4.42656">
        <ele>229.3</ele>
        <time>2025-11-16T09:08:12.000Z</time>
      </trkpt>
      <trkpt lat="50.2852" lon="4.42656">
        <ele>229.5</ele>
        <time>2025-11-16T09:08:13.000Z</time>
      </trkpt>
      <trkpt lat="50.28519" lon="4.42656">
        <ele>229.6</ele>
        <time>2025-11-16T09:08:14.000Z</time>
      </trkpt>
      <trkpt lat="50.28518" lon="4.42657">
        <ele>229.6</ele>
        <time>2025-11-16T09:08:15.000Z</time>
      </trkpt>
      <trkpt lat="50.28517" lon="4.42657">
        <ele>229.8</ele>
        <time>2025-11-16T09:08:16.000Z</time>
      </trkpt>
      <trkpt lat="50.28517" lon="4.42658">
        <ele>229.8</ele>
        <time>2025-11-16T09:08:17.000Z</time>
      </trkpt>
      <trkpt lat="50.28516" lon="4.42658">
        <ele>229.8</ele>
        <time>2025-11-16T09:08:18.000Z</time>
      </trkpt>
      <trkpt lat="50.28515" lon="4.42658">
        <ele>230</ele>
        <time>2025-11-16T09:08:19.000Z</time>
      </trkpt>
      <trkpt lat="50.28515" lon="4.42658">
        <ele>230.2</ele>
        <time>2025-11-16T09:08:20.000Z</time>
      </trkpt>
      <trkpt lat="50.28514" lon="4.42658">
        <ele>230.5</ele>
        <time>2025-11-16T09:08:21.000Z</time>
      </trkpt>
      <trkpt lat="50.28514" lon="4.42659">
        <ele>230.6</ele>
        <time>2025-11-16T09:08:22.000Z</time>
      </trkpt>
      <trkpt lat="50.28514" lon="4.4266">
        <ele>230.7</ele>
        <time>2025-11-16T09:08:23.000Z</time>
      </trkpt>
      <trkpt lat="50.28514" lon="4.4266">
        <ele>230.7</ele>
        <time>2025-11-16T09:08:24.000Z</time>
      </trkpt>
      <trkpt lat="50.28514" lon="4.4266">
        <ele>230.7</ele>
        <time>2025-11-16T09:08:25.000Z</time>
      </trkpt>
      <trkpt lat="50.28514" lon="4.42665">
        <ele>230.8</ele>
        <time>2025-11-16T09:08:26.000Z</time>
      </trkpt>
      <trkpt lat="50.28515" lon="4.42667">
        <ele>230.8</ele>
        <time>2025-11-16T09:08:27.000Z</time>
      </trkpt>
      <trkpt lat="50.28515" lon="4.42669">
        <ele>230.7</ele>
        <time>2025-11-16T09:08:28.000Z</time>
      </trkpt>
      <trkpt lat="50.28516" lon="4.4267">
        <ele>230.6</ele>
        <time>2025-11-16T09:08:29.000Z</time>
      </trkpt>
      <trkpt lat="50.28516" lon="4.42671">
        <ele>230.9</ele>
        <time>2025-11-16T09:08:30.000Z</time>
      </trkpt>
      <trkpt lat="50.28515" lon="4.42671">
        <ele>230.8</ele>
        <time>2025-11-16T09:08:31.000Z</time>
      </trkpt>
      <trkpt lat="50.28514" lon="4.42672">
        <ele>230.8</ele>
        <time>2025-11-16T09:08:32.000Z</time>
      </trkpt>
      <trkpt lat="50.28514" lon="4.42672">
        <ele>230.8</ele>
        <time>2025-11-16T09:08:33.000Z</time>
      </trkpt>
      <trkpt lat="50.28516" lon="4.42676">
        <ele>230.8</ele>
        <time>2025-11-16T09:08:34.000Z</time>
      </trkpt>
      <trkpt lat="50.28517" lon="4.42679">
        <ele>230.8</ele>
        <time>2025-11-16T09:08:35.000Z</time>
      </trkpt>
      <trkpt lat="50.28518" lon="4.42682">
        <ele>230.7</ele>
        <time>2025-11-16T09:08:36.000Z</time>
      </trkpt>
      <trkpt lat="50.2852" lon="4.42683">
        <ele>230.8</ele>
        <time>2025-11-16T09:08:37.000Z</time>
      </trkpt>
      <trkpt lat="50.28521" lon="4.42685">
        <ele>230.7</ele>
        <time>2025-11-16T09:08:38.000Z</time>
      </trkpt>
      <trkpt lat="50.28522" lon="4.42687">
        <ele>230.5</ele>
        <time>2025-11-16T09:08:39.000Z</time>
      </trkpt>
      <trkpt lat="50.28522" lon="4.42688">
        <ele>230.3</ele>
        <time>2025-11-16T09:08:40.000Z</time>
      </trkpt>
      <trkpt lat="50.28523" lon="4.4269">
        <ele>230.1</ele>
        <time>2025-11-16T09:08:41.000Z</time>
      </trkpt>
      <trkpt lat="50.28524" lon="4.42692">
        <ele>230</ele>
        <time>2025-11-16T09:08:42.000Z</time>
      </trkpt>
      <trkpt lat="50.28525" lon="4.42694">
        <ele>229.8</ele>
        <time>2025-11-16T09:08:43.000Z</time>
      </trkpt>
      <trkpt lat="50.28526" lon="4.42696">
        <ele>229.7</ele>
        <time>2025-11-16T09:08:44.000Z</time>
      </trkpt>
      <trkpt lat="50.28527" lon="4.42698">
        <ele>229.7</ele>
        <time>2025-11-16T09:08:45.000Z</time>
      </trkpt>
      <trkpt lat="50.28529" lon="4.427">
        <ele>229.6</ele>
        <time>2025-11-16T09:08:46.000Z</time>
      </trkpt>
      <trkpt lat="50.2853" lon="4.42702">
        <ele>229.7</ele>
        <time>2025-11-16T09:08:47.000Z</time>
      </trkpt>
      <trkpt lat="50.28531" lon="4.42703">
        <ele>229.8</ele>
        <time>2025-11-16T09:08:48.000Z</time>
      </trkpt>
      <trkpt lat="50.28532" lon="4.42705">
        <ele>230</ele>
        <time>2025-11-16T09:08:49.000Z</time>
      </trkpt>
      <trkpt lat="50.28533" lon="4.42706">
        <ele>229.9</ele>
        <time>2025-11-16T09:08:50.000Z</time>
      </trkpt>
      <trkpt lat="50.28534" lon="4.42708">
        <ele>229.7</ele>
        <time>2025-11-16T09:08:51.000Z</time>
      </trkpt>
      <trkpt lat="50.28535" lon="4.4271">
        <ele>229.6</ele>
        <time>2025-11-16T09:08:52.000Z</time>
      </trkpt>
      <trkpt lat="50.28536" lon="4.42711">
        <ele>229.5</ele>
        <time>2025-11-16T09:08:53.000Z</time>
      </trkpt>
      <trkpt lat="50.28537" lon="4.42713">
        <ele>229.2</ele>
        <time>2025-11-16T09:08:54.000Z</time>
      </trkpt>
      <trkpt lat="50.28537" lon="4.42714">
        <ele>229.3</ele>
        <time>2025-11-16T09:08:55.000Z</time>
      </trkpt>
      <trkpt lat="50.28537" lon="4.42715">
        <ele>229.2</ele>
        <time>2025-11-16T09:08:56.000Z</time>
      </trkpt>
      <trkpt lat="50.28536" lon="4.42715">
        <ele>229.3</ele>
        <time>2025-11-16T09:08:57.000Z</time>
      </trkpt>
      <trkpt lat="50.28536" lon="4.42717">
        <ele>229.2</ele>
        <time>2025-11-16T09:08:58.000Z</time>
      </trkpt>
      <trkpt lat="50.28537" lon="4.42718">
        <ele>229.3</ele>
        <time>2025-11-16T09:08:59.000Z</time>
      </trkpt>
      <trkpt lat="50.28537" lon="4.42719">
        <ele>229.3</ele>
        <time>2025-11-16T09:09:00.000Z</time>
      </trkpt>
      <trkpt lat="50.28538" lon="4.4272">
        <ele>229.4</ele>
        <time>2025-11-16T09:09:01.000Z</time>
      </trkpt>
      <trkpt lat="50.28539" lon="4.42721">
        <ele>229.4</ele>
        <time>2025-11-16T09:09:02.000Z</time>
      </trkpt>
      <trkpt lat="50.28539" lon="4.42722">
        <ele>229.6</ele>
        <time>2025-11-16T09:09:03.000Z</time>
      </trkpt>
      <trkpt lat="50.2854" lon="4.42723">
        <ele>229.5</ele>
        <time>2025-11-16T09:09:04.000Z</time>
      </trkpt>
      <trkpt lat="50.28541" lon="4.42725">
        <ele>229.5</ele>
        <time>2025-11-16T09:09:05.000Z</time>
      </trkpt>
      <trkpt lat="50.28542" lon="4.42727">
        <ele>229.6</ele>
        <time>2025-11-16T09:09:06.000Z</time>
      </trkpt>
      <trkpt lat="50.28543" lon="4.42728">
        <ele>229.6</ele>
        <time>2025-11-16T09:09:07.000Z</time>
      </trkpt>
      <trkpt lat="50.28544" lon="4.4273">
        <ele>229.6</ele>
        <time>2025-11-16T09:09:08.000Z</time>
      </trkpt>
      <trkpt lat="50.28545" lon="4.42731">
        <ele>229.5</ele>
        <time>2025-11-16T09:09:09.000Z</time>
      </trkpt>
      <trkpt lat="50.28546" lon="4.42734">
        <ele>229.6</ele>
        <time>2025-11-16T09:09:10.000Z</time>
      </trkpt>
      <trkpt lat="50.28546" lon="4.42735">
        <ele>229.7</ele>
        <time>2025-11-16T09:09:11.000Z</time>
      </trkpt>
      <trkpt lat="50.28547" lon="4.42737">
        <ele>229.8</ele>
        <time>2025-11-16T09:09:12.000Z</time>
      </trkpt>
      <trkpt lat="50.28547" lon="4.42739">
        <ele>229.8</ele>
        <time>2025-11-16T09:09:13.000Z</time>
      </trkpt>
      <trkpt lat="50.28548" lon="4.4274">
        <ele>229.7</ele>
        <time>2025-11-16T09:09:14.000Z</time>
      </trkpt>
      <trkpt lat="50.28549" lon="4.42741">
        <ele>229.8</ele>
        <time>2025-11-16T09:09:15.000Z</time>
      </trkpt>
      <trkpt lat="50.28549" lon="4.42742">
        <ele>230.3</ele>
        <time>2025-11-16T09:09:16.000Z</time>
      </trkpt>
      <trkpt lat="50.2855" lon="4.42743">
        <ele>230.7</ele>
        <time>2025-11-16T09:09:17.000Z</time>
      </trkpt>
      <trkpt lat="50.2855" lon="4.42744">
        <ele>231.1</ele>
        <time>2025-11-16T09:09:18.000Z</time>
      </trkpt>
      <trkpt lat="50.28551" lon="4.42745">
        <ele>231.6</ele>
        <time>2025-11-16T09:09:19.000Z</time>
      </trkpt>
      <trkpt lat="50.28551" lon="4.42746">
        <ele>232.1</ele>
        <time>2025-11-16T09:09:20.000Z</time>
      </trkpt>
      <trkpt lat="50.28552" lon="4.42748">
        <ele>232.3</ele>
        <time>2025-11-16T09:09:21.000Z</time>
      </trkpt>
      <trkpt lat="50.28553" lon="4.42749">
        <ele>232.7</ele>
        <time>2025-11-16T09:09:22.000Z</time>
      </trkpt>
      <trkpt lat="50.28553" lon="4.42751">
        <ele>233.1</ele>
        <time>2025-11-16T09:09:23.000Z</time>
      </trkpt>
      <trkpt lat="50.28554" lon="4.42752">
        <ele>233.4</ele>
        <time>2025-11-16T09:09:24.000Z</time>
      </trkpt>
      <trkpt lat="50.28554" lon="4.42753">
        <ele>233.7</ele>
        <time>2025-11-16T09:09:25.000Z</time>
      </trkpt>
      <trkpt lat="50.28555" lon="4.42755">
        <ele>233.7</ele>
        <time>2025-11-16T09:09:26.000Z</time>
      </trkpt>
      <trkpt lat="50.28556" lon="4.42757">
        <ele>233.7</ele>
        <time>2025-11-16T09:09:27.000Z</time>
      </trkpt>
      <trkpt lat="50.28556" lon="4.42758">
        <ele>233.7</ele>
        <time>2025-11-16T09:09:28.000Z</time>
      </trkpt>
      <trkpt lat="50.28557" lon="4.4276">
        <ele>233.7</ele>
        <time>2025-11-16T09:09:29.000Z</time>
      </trkpt>
      <trkpt lat="50.28557" lon="4.42762">
        <ele>233.6</ele>
        <time>2025-11-16T09:09:30.000Z</time>
      </trkpt>
      <trkpt lat="50.28558" lon="4.42763">
        <ele>233.8</ele>
        <time>2025-11-16T09:09:31.000Z</time>
      </trkpt>
      <trkpt lat="50.28558" lon="4.42765">
        <ele>233.8</ele>
        <time>2025-11-16T09:09:32.000Z</time>
      </trkpt>
      <trkpt lat="50.28558" lon="4.42768">
        <ele>233.7</ele>
        <time>2025-11-16T09:09:33.000Z</time>
      </trkpt>
      <trkpt lat="50.28558" lon="4.4277">
        <ele>233.7</ele>
        <time>2025-11-16T09:09:34.000Z</time>
      </trkpt>
      <trkpt lat="50.28559" lon="4.42772">
        <ele>233.7</ele>
        <time>2025-11-16T09:09:35.000Z</time>
      </trkpt>
      <trkpt lat="50.28559" lon="4.42775">
        <ele>233.8</ele>
        <time>2025-11-16T09:09:36.000Z</time>
      </trkpt>
      <trkpt lat="50.2856" lon="4.42777">
        <ele>233.7</ele>
        <time>2025-11-16T09:09:37.000Z</time>
      </trkpt>
      <trkpt lat="50.2856" lon="4.42779">
        <ele>233.8</ele>
        <time>2025-11-16T09:09:38.000Z</time>
      </trkpt>
      <trkpt lat="50.28561" lon="4.42781">
        <ele>233.8</ele>
        <time>2025-11-16T09:09:39.000Z</time>
      </trkpt>
      <trkpt lat="50.28561" lon="4.42783">
        <ele>233.9</ele>
        <time>2025-11-16T09:09:40.000Z</time>
      </trkpt>
      <trkpt lat="50.28561" lon="4.42784">
        <ele>234.1</ele>
        <time>2025-11-16T09:09:41.000Z</time>
      </trkpt>
      <trkpt lat="50.28561" lon="4.42786">
        <ele>234.2</ele>
        <time>2025-11-16T09:09:42.000Z</time>
      </trkpt>
      <trkpt lat="50.28561" lon="4.42787">
        <ele>234.1</ele>
        <time>2025-11-16T09:09:43.000Z</time>
      </trkpt>
      <trkpt lat="50.2856" lon="4.42789">
        <ele>234</ele>
        <time>2025-11-16T09:09:44.000Z</time>
      </trkpt>
      <trkpt lat="50.2856" lon="4.42789">
        <ele>234.1</ele>
        <time>2025-11-16T09:09:45.000Z</time>
      </trkpt>
      <trkpt lat="50.2856" lon="4.42791">
        <ele>234.2</ele>
        <time>2025-11-16T09:09:46.000Z</time>
      </trkpt>
      <trkpt lat="50.2856" lon="4.42792">
        <ele>234.1</ele>
        <time>2025-11-16T09:09:47.000Z</time>
      </trkpt>
      <trkpt lat="50.2856" lon="4.42793">
        <ele>234</ele>
        <time>2025-11-16T09:09:48.000Z</time>
      </trkpt>
      <trkpt lat="50.28559" lon="4.42795">
        <ele>233.9</ele>
        <time>2025-11-16T09:09:49.000Z</time>
      </trkpt>
      <trkpt lat="50.28559" lon="4.42796">
        <ele>233.7</ele>
        <time>2025-11-16T09:09:50.000Z</time>
      </trkpt>
      <trkpt lat="50.28558" lon="4.42798">
        <ele>233.5</ele>
        <time>2025-11-16T09:09:51.000Z</time>
      </trkpt>
      <trkpt lat="50.28558" lon="4.42799">
        <ele>233.3</ele>
        <time>2025-11-16T09:09:52.000Z</time>
      </trkpt>
      <trkpt lat="50.28557" lon="4.42801">
        <ele>233.1</ele>
        <time>2025-11-16T09:09:53.000Z</time>
      </trkpt>
      <trkpt lat="50.28557" lon="4.42802">
        <ele>232.9</ele>
        <time>2025-11-16T09:09:54.000Z</time>
      </trkpt>
      <trkpt lat="50.28556" lon="4.42803">
        <ele>232.7</ele>
        <time>2025-11-16T09:09:55.000Z</time>
      </trkpt>
      <trkpt lat="50.28556" lon="4.42805">
        <ele>232.5</ele>
        <time>2025-11-16T09:09:56.000Z</time>
      </trkpt>
      <trkpt lat="50.28556" lon="4.42807">
        <ele>232.2</ele>
        <time>2025-11-16T09:09:57.000Z</time>
      </trkpt>
      <trkpt lat="50.28555" lon="4.42809">
        <ele>231.9</ele>
        <time>2025-11-16T09:09:58.000Z</time>
      </trkpt>
      <trkpt lat="50.28555" lon="4.42811">
        <ele>231.5</ele>
        <time>2025-11-16T09:09:59.000Z</time>
      </trkpt>
      <trkpt lat="50.28554" lon="4.42813">
        <ele>231.3</ele>
        <time>2025-11-16T09:10:00.000Z</time>
      </trkpt>
      <trkpt lat="50.28554" lon="4.42814">
        <ele>231.1</ele>
        <time>2025-11-16T09:10:01.000Z</time>
      </trkpt>
      <trkpt lat="50.28554" lon="4.42816">
        <ele>230.9</ele>
        <time>2025-11-16T09:10:02.000Z</time>
      </trkpt>
      <trkpt lat="50.28553" lon="4.42817">
        <ele>230.7</ele>
        <time>2025-11-16T09:10:03.000Z</time>
      </trkpt>
      <trkpt lat="50.28553" lon="4.42819">
        <ele>230.5</ele>
        <time>2025-11-16T09:10:04.000Z</time>
      </trkpt>
      <trkpt lat="50.28552" lon="4.4282">
        <ele>230.3</ele>
        <time>2025-11-16T09:10:05.000Z</time>
      </trkpt>
      <trkpt lat="50.28552" lon="4.42822">
        <ele>230.1</ele>
        <time>2025-11-16T09:10:06.000Z</time>
      </trkpt>
      <trkpt lat="50.28551" lon="4.42824">
        <ele>229.6</ele>
        <time>2025-11-16T09:10:07.000Z</time>
      </trkpt>
      <trkpt lat="50.28552" lon="4.42826">
        <ele>229.3</ele>
        <time>2025-11-16T09:10:08.000Z</time>
      </trkpt>
      <trkpt lat="50.28551" lon="4.42828">
        <ele>228.9</ele>
        <time>2025-11-16T09:10:09.000Z</time>
      </trkpt>
      <trkpt lat="50.28551" lon="4.4283">
        <ele>228.5</ele>
        <time>2025-11-16T09:10:10.000Z</time>
      </trkpt>
      <trkpt lat="50.2855" lon="4.42832">
        <ele>227.9</ele>
        <time>2025-11-16T09:10:11.000Z</time>
      </trkpt>
      <trkpt lat="50.2855" lon="4.42834">
        <ele>227.5</ele>
        <time>2025-11-16T09:10:12.000Z</time>
      </trkpt>
      <trkpt lat="50.2855" lon="4.42836">
        <ele>226.8</ele>
        <time>2025-11-16T09:10:13.000Z</time>
      </trkpt>
      <trkpt lat="50.28549" lon="4.42838">
        <ele>226</ele>
        <time>2025-11-16T09:10:14.000Z</time>
      </trkpt>
      <trkpt lat="50.28549" lon="4.42841">
        <ele>225.4</ele>
        <time>2025-11-16T09:10:15.000Z</time>
      </trkpt>
      <trkpt lat="50.28549" lon="4.42843">
        <ele>224.9</ele>
        <time>2025-11-16T09:10:16.000Z</time>
      </trkpt>
      <trkpt lat="50.28548" lon="4.42846">
        <ele>224.7</ele>
        <time>2025-11-16T09:10:17.000Z</time>
      </trkpt>
      <trkpt lat="50.28548" lon="4.42848">
        <ele>224.5</ele>
        <time>2025-11-16T09:10:18.000Z</time>
      </trkpt>
      <trkpt lat="50.28548" lon="4.4285">
        <ele>224.4</ele>
        <time>2025-11-16T09:10:19.000Z</time>
      </trkpt>
      <trkpt lat="50.28547" lon="4.42852">
        <ele>224.2</ele>
        <time>2025-11-16T09:10:20.000Z</time>
      </trkpt>
      <trkpt lat="50.28546" lon="4.42853">
        <ele>224.2</ele>
        <time>2025-11-16T09:10:21.000Z</time>
      </trkpt>
      <trkpt lat="50.28546" lon="4.42854">
        <ele>224</ele>
        <time>2025-11-16T09:10:22.000Z</time>
      </trkpt>
      <trkpt lat="50.28545" lon="4.42855">
        <ele>223.7</ele>
        <time>2025-11-16T09:10:23.000Z</time>
      </trkpt>
      <trkpt lat="50.28545" lon="4.42855">
        <ele>223.9</ele>
        <time>2025-11-16T09:10:24.000Z</time>
      </trkpt>
      <trkpt lat="50.28545" lon="4.42856">
        <ele>224.1</ele>
        <time>2025-11-16T09:10:25.000Z</time>
      </trkpt>
      <trkpt lat="50.28544" lon="4.42857">
        <ele>224.2</ele>
        <time>2025-11-16T09:10:26.000Z</time>
      </trkpt>
      <trkpt lat="50.28544" lon="4.42858">
        <ele>224.1</ele>
        <time>2025-11-16T09:10:27.000Z</time>
      </trkpt>
      <trkpt lat="50.28543" lon="4.4286">
        <ele>224.1</ele>
        <time>2025-11-16T09:10:28.000Z</time>
      </trkpt>
      <trkpt lat="50.28543" lon="4.42861">
        <ele>224</ele>
        <time>2025-11-16T09:10:29.000Z</time>
      </trkpt>
      <trkpt lat="50.28543" lon="4.42863">
        <ele>223.9</ele>
        <time>2025-11-16T09:10:30.000Z</time>
      </trkpt>
      <trkpt lat="50.28542" lon="4.42864">
        <ele>223.9</ele>
        <time>2025-11-16T09:10:31.000Z</time>
      </trkpt>
      <trkpt lat="50.28541" lon="4.42866">
        <ele>223.7</ele>
        <time>2025-11-16T09:10:32.000Z</time>
      </trkpt>
      <trkpt lat="50.28541" lon="4.42868">
        <ele>223.4</ele>
        <time>2025-11-16T09:10:33.000Z</time>
      </trkpt>
      <trkpt lat="50.2854" lon="4.42869">
        <ele>223.1</ele>
        <time>2025-11-16T09:10:34.000Z</time>
      </trkpt>
      <trkpt lat="50.28539" lon="4.42871">
        <ele>222.8</ele>
        <time>2025-11-16T09:10:35.000Z</time>
      </trkpt>
      <trkpt lat="50.28539" lon="4.42873">
        <ele>222.4</ele>
        <time>2025-11-16T09:10:36.000Z</time>
      </trkpt>
      <trkpt lat="50.28538" lon="4.42875">
        <ele>222</ele>
        <time>2025-11-16T09:10:37.000Z</time>
      </trkpt>
      <trkpt lat="50.28538" lon="4.42876">
        <ele>221.6</ele>
        <time>2025-11-16T09:10:38.000Z</time>
      </trkpt>
      <trkpt lat="50.28537" lon="4.42878">
        <ele>221.1</ele>
        <time>2025-11-16T09:10:39.000Z</time>
      </trkpt>
      <trkpt lat="50.28537" lon="4.42879">
        <ele>220.7</ele>
        <time>2025-11-16T09:10:40.000Z</time>
      </trkpt>
      <trkpt lat="50.28537" lon="4.4288">
        <ele>220.2</ele>
        <time>2025-11-16T09:10:41.000Z</time>
      </trkpt>
      <trkpt lat="50.28536" lon="4.42881">
        <ele>219.8</ele>
        <time>2025-11-16T09:10:42.000Z</time>
      </trkpt>
      <trkpt lat="50.28535" lon="4.42882">
        <ele>219.5</ele>
        <time>2025-11-16T09:10:43.000Z</time>
      </trkpt>
      <trkpt lat="50.28535" lon="4.42883">
        <ele>219.4</ele>
        <time>2025-11-16T09:10:44.000Z</time>
      </trkpt>
      <trkpt lat="50.28534" lon="4.42885">
        <ele>219.2</ele>
        <time>2025-11-16T09:10:45.000Z</time>
      </trkpt>
      <trkpt lat="50.28534" lon="4.42886">
        <ele>218.9</ele>
        <time>2025-11-16T09:10:46.000Z</time>
      </trkpt>
      <trkpt lat="50.28533" lon="4.42888">
        <ele>218.5</ele>
        <time>2025-11-16T09:10:47.000Z</time>
      </trkpt>
      <trkpt lat="50.28532" lon="4.4289">
        <ele>218.2</ele>
        <time>2025-11-16T09:10:48.000Z</time>
      </trkpt>
      <trkpt lat="50.28532" lon="4.42892">
        <ele>218</ele>
        <time>2025-11-16T09:10:49.000Z</time>
      </trkpt>
      <trkpt lat="50.28531" lon="4.42894">
        <ele>217.8</ele>
        <time>2025-11-16T09:10:50.000Z</time>
      </trkpt>
      <trkpt lat="50.28531" lon="4.42897">
        <ele>217.6</ele>
        <time>2025-11-16T09:10:51.000Z</time>
      </trkpt>
      <trkpt lat="50.2853" lon="4.42899">
        <ele>217.7</ele>
        <time>2025-11-16T09:10:52.000Z</time>
      </trkpt>
      <trkpt lat="50.28528" lon="4.42902">
        <ele>217.5</ele>
        <time>2025-11-16T09:10:53.000Z</time>
      </trkpt>
      <trkpt lat="50.28528" lon="4.42903">
        <ele>218.5</ele>
        <time>2025-11-16T09:10:54.000Z</time>
      </trkpt>
      <trkpt lat="50.28528" lon="4.42904">
        <ele>218.8</ele>
        <time>2025-11-16T09:10:55.000Z</time>
      </trkpt>
      <trkpt lat="50.28528" lon="4.42904">
        <ele>219</ele>
        <time>2025-11-16T09:10:56.000Z</time>
      </trkpt>
      <trkpt lat="50.28529" lon="4.42906">
        <ele>219.2</ele>
        <time>2025-11-16T09:10:57.000Z</time>
      </trkpt>
      <trkpt lat="50.2853" lon="4.42908">
        <ele>219.1</ele>
        <time>2025-11-16T09:10:58.000Z</time>
      </trkpt>
      <trkpt lat="50.28531" lon="4.4291">
        <ele>218.9</ele>
        <time>2025-11-16T09:10:59.000Z</time>
      </trkpt>
      <trkpt lat="50.28532" lon="4.42913">
        <ele>218.7</ele>
        <time>2025-11-16T09:11:00.000Z</time>
      </trkpt>
      <trkpt lat="50.28534" lon="4.42916">
        <ele>218.9</ele>
        <time>2025-11-16T09:11:01.000Z</time>
      </trkpt>
      <trkpt lat="50.28546" lon="4.42923">
        <ele>183.7</ele>
        <time>2025-11-16T09:11:02.000Z</time>
      </trkpt>
      <trkpt lat="50.28551" lon="4.42927">
        <ele>183.9</ele>
        <time>2025-11-16T09:11:03.000Z</time>
      </trkpt>
    </trkseg>
  </trk>
</gpx>